<?xml version="1.0" encoding="utf-8"?>
<gpx xmlns:xsi="http://www.w3.org/2001/XMLSchema-instance" xmlns:xsd="http://www.w3.org/2001/XMLSchema" version="1.1" creator="Shapelink.com" xmlns="http://www.topografix.com/GPX/1/1" xmlns:gpxtpx="http://www.garmin.com/xmlschemas/TrackPointExtension/v1">
  <metadata>
    <name>Löpning 16.09 km, 2018-03-30</name>
    <desc></desc>
    <author><name>Bengt-Åke Forslund</name></author> 
    <time>2018-03-30T11:07:54Z</time>
  </metadata>
  <trk>
    <name>Löpning 16.09 km, 2018-03-30</name>
    <trkseg>
      <trkpt lat="62.609477371817" lon="17.96151148394">
        <ele>168.8</ele>
        <time>2018-03-30T11:07:54Z</time>
      </trkpt>
      <trkpt lat="62.609488184468" lon="17.96153327688">
        <ele>169</ele>
        <time>2018-03-30T11:07:55Z</time>
      </trkpt>
      <trkpt lat="62.609496734006" lon="17.961558757856">
        <ele>169.2</ele>
        <time>2018-03-30T11:07:56Z</time>
      </trkpt>
      <trkpt lat="62.609511737607" lon="17.96158524466">
        <ele>169.4</ele>
        <time>2018-03-30T11:07:57Z</time>
      </trkpt>
      <trkpt lat="62.609524478095" lon="17.96163302149">
        <ele>169.4</ele>
        <time>2018-03-30T11:07:58Z</time>
      </trkpt>
      <trkpt lat="62.609547360682" lon="17.961695131369">
        <ele>169.6</ele>
        <time>2018-03-30T11:07:59Z</time>
      </trkpt>
      <trkpt lat="62.609568147794" lon="17.961744668398">
        <ele>169.4</ele>
        <time>2018-03-30T11:08:00Z</time>
      </trkpt>
      <trkpt lat="62.609593796408" lon="17.961792445228">
        <ele>169.2</ele>
        <time>2018-03-30T11:08:01Z</time>
      </trkpt>
      <trkpt lat="62.609626234361" lon="17.961835109099">
        <ele>169.2</ele>
        <time>2018-03-30T11:08:02Z</time>
      </trkpt>
      <trkpt lat="62.609662863264" lon="17.96187693478">
        <ele>169</ele>
        <time>2018-03-30T11:08:03Z</time>
      </trkpt>
      <trkpt lat="62.609704940402" lon="17.961869474889">
        <ele>168.8</ele>
        <time>2018-03-30T11:08:04Z</time>
      </trkpt>
      <trkpt lat="62.609738803278" lon="17.961856566763">
        <ele>168.2</ele>
        <time>2018-03-30T11:08:05Z</time>
      </trkpt>
      <trkpt lat="62.609770738317" lon="17.961837456031">
        <ele>167.8</ele>
        <time>2018-03-30T11:08:06Z</time>
      </trkpt>
      <trkpt lat="62.609805355564" lon="17.961823877353">
        <ele>167.2</ele>
        <time>2018-03-30T11:08:07Z</time>
      </trkpt>
      <trkpt lat="62.609847851797" lon="17.961824967">
        <ele>166.8</ele>
        <time>2018-03-30T11:08:08Z</time>
      </trkpt>
      <trkpt lat="62.609889677478" lon="17.961835109099">
        <ele>166.4</ele>
        <time>2018-03-30T11:08:09Z</time>
      </trkpt>
      <trkpt lat="62.60992219925" lon="17.96188950763">
        <ele>165.6</ele>
        <time>2018-03-30T11:08:10Z</time>
      </trkpt>
      <trkpt lat="62.6099515359" lon="17.961947678016">
        <ele>165</ele>
        <time>2018-03-30T11:08:11Z</time>
      </trkpt>
      <trkpt lat="62.609971484822" lon="17.962016241958">
        <ele>164.6</ele>
        <time>2018-03-30T11:08:12Z</time>
      </trkpt>
      <trkpt lat="62.609985231138" lon="17.962103581356">
        <ele>163.8</ele>
        <time>2018-03-30T11:08:13Z</time>
      </trkpt>
      <trkpt lat="62.609990763192" lon="17.962190753116">
        <ele>163.4</ele>
        <time>2018-03-30T11:08:14Z</time>
      </trkpt>
      <trkpt lat="62.609987494251" lon="17.96227256046">
        <ele>162.8</ele>
        <time>2018-03-30T11:08:15Z</time>
      </trkpt>
      <trkpt lat="62.609976094867" lon="17.962356547098">
        <ele>162.4</ele>
        <time>2018-03-30T11:08:16Z</time>
      </trkpt>
      <trkpt lat="62.609958409058" lon="17.96244355122">
        <ele>162.2</ele>
        <time>2018-03-30T11:08:17Z</time>
      </trkpt>
      <trkpt lat="62.609935275014" lon="17.96253156117">
        <ele>161.8</ele>
        <time>2018-03-30T11:08:18Z</time>
      </trkpt>
      <trkpt lat="62.609905770726" lon="17.962614961075">
        <ele>161.6</ele>
        <time>2018-03-30T11:08:19Z</time>
      </trkpt>
      <trkpt lat="62.609876266438" lon="17.962682519189">
        <ele>161.2</ele>
        <time>2018-03-30T11:08:20Z</time>
      </trkpt>
      <trkpt lat="62.609846259236" lon="17.962738091186">
        <ele>161</ele>
        <time>2018-03-30T11:08:21Z</time>
      </trkpt>
      <trkpt lat="62.609815916758" lon="17.962791986803">
        <ele>160.8</ele>
        <time>2018-03-30T11:08:22Z</time>
      </trkpt>
      <trkpt lat="62.609787585936" lon="17.962855437786">
        <ele>160.4</ele>
        <time>2018-03-30T11:08:23Z</time>
      </trkpt>
      <trkpt lat="62.60976545772" lon="17.962920062235">
        <ele>160.2</ele>
        <time>2018-03-30T11:08:24Z</time>
      </trkpt>
      <trkpt lat="62.609741653124" lon="17.962983261761">
        <ele>160</ele>
        <time>2018-03-30T11:08:25Z</time>
      </trkpt>
      <trkpt lat="62.609714831044" lon="17.963042186518">
        <ele>159.6</ele>
        <time>2018-03-30T11:08:26Z</time>
      </trkpt>
      <trkpt lat="62.609689266249" lon="17.963100273085">
        <ele>159.6</ele>
        <time>2018-03-30T11:08:27Z</time>
      </trkpt>
      <trkpt lat="62.609658253219" lon="17.963160790403">
        <ele>159.4</ele>
        <time>2018-03-30T11:08:28Z</time>
      </trkpt>
      <trkpt lat="62.609628329836" lon="17.963231114544">
        <ele>159</ele>
        <time>2018-03-30T11:08:29Z</time>
      </trkpt>
      <trkpt lat="62.609603770869" lon="17.963295655174">
        <ele>159</ele>
        <time>2018-03-30T11:08:30Z</time>
      </trkpt>
      <trkpt lat="62.609581642653" lon="17.963364470573">
        <ele>159</ele>
        <time>2018-03-30T11:08:31Z</time>
      </trkpt>
      <trkpt lat="62.60955674841" lon="17.963429430298">
        <ele>158.8</ele>
        <time>2018-03-30T11:08:32Z</time>
      </trkpt>
      <trkpt lat="62.609529758692" lon="17.963491121082">
        <ele>158.6</ele>
        <time>2018-03-30T11:08:33Z</time>
      </trkpt>
      <trkpt lat="62.609492962151" lon="17.963564630345">
        <ele>158.8</ele>
        <time>2018-03-30T11:08:34Z</time>
      </trkpt>
      <trkpt lat="62.609455662696" lon="17.963623219826">
        <ele>158.4</ele>
        <time>2018-03-30T11:08:35Z</time>
      </trkpt>
      <trkpt lat="62.609415513395" lon="17.963670912837">
        <ele>158</ele>
        <time>2018-03-30T11:08:36Z</time>
      </trkpt>
      <trkpt lat="62.609372933343" lon="17.963705446265">
        <ele>157.8</ele>
        <time>2018-03-30T11:08:37Z</time>
      </trkpt>
      <trkpt lat="62.609319205364" lon="17.963729502318">
        <ele>157.4</ele>
        <time>2018-03-30T11:08:38Z</time>
      </trkpt>
      <trkpt lat="62.609270674163" lon="17.963746517575">
        <ele>157.2</ele>
        <time>2018-03-30T11:08:39Z</time>
      </trkpt>
      <trkpt lat="62.609228764663" lon="17.963753055457">
        <ele>157</ele>
        <time>2018-03-30T11:08:40Z</time>
      </trkpt>
      <trkpt lat="62.609180149643" lon="17.963750540887">
        <ele>156.6</ele>
        <time>2018-03-30T11:08:41Z</time>
      </trkpt>
      <trkpt lat="62.609134552107" lon="17.963747523403">
        <ele>156.4</ele>
        <time>2018-03-30T11:08:42Z</time>
      </trkpt>
      <trkpt lat="62.60908149468" lon="17.963745595566">
        <ele>156.2</ele>
        <time>2018-03-30T11:08:43Z</time>
      </trkpt>
      <trkpt lat="62.609030951823" lon="17.963748948326">
        <ele>156</ele>
        <time>2018-03-30T11:08:44Z</time>
      </trkpt>
      <trkpt lat="62.608982001527" lon="17.963761353538">
        <ele>155.6</ele>
        <time>2018-03-30T11:08:45Z</time>
      </trkpt>
      <trkpt lat="62.608930285204" lon="17.96378465522">
        <ele>155.2</ele>
        <time>2018-03-30T11:08:46Z</time>
      </trkpt>
      <trkpt lat="62.608888794799" lon="17.963817093173">
        <ele>155.2</ele>
        <time>2018-03-30T11:08:47Z</time>
      </trkpt>
      <trkpt lat="62.608846550023" lon="17.963857661569">
        <ele>154.8</ele>
        <time>2018-03-30T11:08:48Z</time>
      </trkpt>
      <trkpt lat="62.608797096813" lon="17.963887333495">
        <ele>154.6</ele>
        <time>2018-03-30T11:08:49Z</time>
      </trkpt>
      <trkpt lat="62.60874957144" lon="17.963905689856">
        <ele>154.6</ele>
        <time>2018-03-30T11:08:50Z</time>
      </trkpt>
      <trkpt lat="62.608703219533" lon="17.963923040389">
        <ele>154.4</ele>
        <time>2018-03-30T11:08:51Z</time>
      </trkpt>
      <trkpt lat="62.60866156149" lon="17.963934188316">
        <ele>154.2</ele>
        <time>2018-03-30T11:08:52Z</time>
      </trkpt>
      <trkpt lat="62.608608420244" lon="17.963955981256">
        <ele>154</ele>
        <time>2018-03-30T11:08:53Z</time>
      </trkpt>
      <trkpt lat="62.608561397785" lon="17.96398665901">
        <ele>154</ele>
        <time>2018-03-30T11:08:54Z</time>
      </trkpt>
      <trkpt lat="62.608517308991" lon="17.964026221578">
        <ele>153.6</ele>
        <time>2018-03-30T11:08:55Z</time>
      </trkpt>
      <trkpt lat="62.608483529934" lon="17.964065700327">
        <ele>153.6</ele>
        <time>2018-03-30T11:08:56Z</time>
      </trkpt>
      <trkpt lat="62.608459809157" lon="17.964099311746">
        <ele>153.6</ele>
        <time>2018-03-30T11:08:57Z</time>
      </trkpt>
      <trkpt lat="62.608438770588" lon="17.964140131599">
        <ele>153.4</ele>
        <time>2018-03-30T11:08:58Z</time>
      </trkpt>
      <trkpt lat="62.608423766987" lon="17.964186567325">
        <ele>153.2</ele>
        <time>2018-03-30T11:08:59Z</time>
      </trkpt>
      <trkpt lat="62.608417983476" lon="17.964253119611">
        <ele>153</ele>
        <time>2018-03-30T11:09:00Z</time>
      </trkpt>
      <trkpt lat="62.608414211621" lon="17.964343895588">
        <ele>152.8</ele>
        <time>2018-03-30T11:09:01Z</time>
      </trkpt>
      <trkpt lat="62.608412535241" lon="17.964443640198">
        <ele>152.8</ele>
        <time>2018-03-30T11:09:02Z</time>
      </trkpt>
      <trkpt lat="62.60841345725" lon="17.964539445315">
        <ele>152.6</ele>
        <time>2018-03-30T11:09:03Z</time>
      </trkpt>
      <trkpt lat="62.608412786698" lon="17.964664251806">
        <ele>152.2</ele>
        <time>2018-03-30T11:09:04Z</time>
      </trkpt>
      <trkpt lat="62.608420330408" lon="17.964785621718">
        <ele>151.8</ele>
        <time>2018-03-30T11:09:05Z</time>
      </trkpt>
      <trkpt lat="62.60842854467" lon="17.96490447706">
        <ele>151.4</ele>
        <time>2018-03-30T11:09:06Z</time>
      </trkpt>
      <trkpt lat="62.608431310697" lon="17.965015537235">
        <ele>150.8</ele>
        <time>2018-03-30T11:09:07Z</time>
      </trkpt>
      <trkpt lat="62.608428125575" lon="17.965141014278">
        <ele>150.4</ele>
        <time>2018-03-30T11:09:08Z</time>
      </trkpt>
      <trkpt lat="62.608424018444" lon="17.965264312027">
        <ele>149.8</ele>
        <time>2018-03-30T11:09:09Z</time>
      </trkpt>
      <trkpt lat="62.608420749503" lon="17.965386855405">
        <ele>149.4</ele>
        <time>2018-03-30T11:09:10Z</time>
      </trkpt>
      <trkpt lat="62.608420581865" lon="17.965523396556">
        <ele>149</ele>
        <time>2018-03-30T11:09:11Z</time>
      </trkpt>
      <trkpt lat="62.608420498046" lon="17.965642419536">
        <ele>148.6</ele>
        <time>2018-03-30T11:09:12Z</time>
      </trkpt>
      <trkpt lat="62.608418905485" lon="17.965770997882">
        <ele>148.4</ele>
        <time>2018-03-30T11:09:13Z</time>
      </trkpt>
      <trkpt lat="62.608414463078" lon="17.965894211812">
        <ele>148</ele>
        <time>2018-03-30T11:09:14Z</time>
      </trkpt>
      <trkpt lat="62.608409769214" lon="17.966010636403">
        <ele>147.8</ele>
        <time>2018-03-30T11:09:15Z</time>
      </trkpt>
      <trkpt lat="62.608408679567" lon="17.966133850333">
        <ele>147.6</ele>
        <time>2018-03-30T11:09:16Z</time>
      </trkpt>
      <trkpt lat="62.608410523585" lon="17.966256645168">
        <ele>147.4</ele>
        <time>2018-03-30T11:09:17Z</time>
      </trkpt>
      <trkpt lat="62.608414798354" lon="17.966381703116">
        <ele>147</ele>
        <time>2018-03-30T11:09:18Z</time>
      </trkpt>
      <trkpt lat="62.608423850806" lon="17.966501983381">
        <ele>146.4</ele>
        <time>2018-03-30T11:09:19Z</time>
      </trkpt>
      <trkpt lat="62.608444302642" lon="17.966604913113">
        <ele>146.2</ele>
        <time>2018-03-30T11:09:20Z</time>
      </trkpt>
      <trkpt lat="62.608483110839" lon="17.966685463172">
        <ele>146.2</ele>
        <time>2018-03-30T11:09:21Z</time>
      </trkpt>
      <trkpt lat="62.608535078619" lon="17.966760481177">
        <ele>146.2</ele>
        <time>2018-03-30T11:09:22Z</time>
      </trkpt>
      <trkpt lat="62.608564079993" lon="17.966816723726">
        <ele>145.8</ele>
        <time>2018-03-30T11:09:23Z</time>
      </trkpt>
      <trkpt lat="62.608603055828" lon="17.96687506175">
        <ele>145.6</ele>
        <time>2018-03-30T11:09:24Z</time>
      </trkpt>
      <trkpt lat="62.608623759121" lon="17.966938596552">
        <ele>145.2</ele>
        <time>2018-03-30T11:09:25Z</time>
      </trkpt>
      <trkpt lat="62.60864731226" lon="17.967008753055">
        <ele>145</ele>
        <time>2018-03-30T11:09:26Z</time>
      </trkpt>
      <trkpt lat="62.608670278666" lon="17.967077400816">
        <ele>144.8</ele>
        <time>2018-03-30T11:09:27Z</time>
      </trkpt>
      <trkpt lat="62.608685617543" lon="17.967162225644">
        <ele>144.2</ele>
        <time>2018-03-30T11:09:28Z</time>
      </trkpt>
      <trkpt lat="62.608695508185" lon="17.967244200626">
        <ele>144</ele>
        <time>2018-03-30T11:09:29Z</time>
      </trkpt>
      <trkpt lat="62.608704392999" lon="17.967334641327">
        <ele>143.6</ele>
        <time>2018-03-30T11:09:30Z</time>
      </trkpt>
      <trkpt lat="62.608713193994" lon="17.967432793376">
        <ele>143.4</ele>
        <time>2018-03-30T11:09:31Z</time>
      </trkpt>
      <trkpt lat="62.608718642229" lon="17.967525245733">
        <ele>143.2</ele>
        <time>2018-03-30T11:09:32Z</time>
      </trkpt>
      <trkpt lat="62.60872442574" lon="17.967620464117">
        <ele>143</ele>
        <time>2018-03-30T11:09:33Z</time>
      </trkpt>
      <trkpt lat="62.608735406029" lon="17.967736888708">
        <ele>142.6</ele>
        <time>2018-03-30T11:09:34Z</time>
      </trkpt>
      <trkpt lat="62.608741943911" lon="17.96784652396">
        <ele>142.4</ele>
        <time>2018-03-30T11:09:35Z</time>
      </trkpt>
      <trkpt lat="62.608741608635" lon="17.967953728461">
        <ele>141.6</ele>
        <time>2018-03-30T11:09:36Z</time>
      </trkpt>
      <trkpt lat="62.608740938083" lon="17.968055568546">
        <ele>141.2</ele>
        <time>2018-03-30T11:09:37Z</time>
      </trkpt>
      <trkpt lat="62.608743620291" lon="17.968172831327">
        <ele>140.8</ele>
        <time>2018-03-30T11:09:38Z</time>
      </trkpt>
      <trkpt lat="62.60874621868" lon="17.968281293113">
        <ele>140.4</ele>
        <time>2018-03-30T11:09:39Z</time>
      </trkpt>
      <trkpt lat="62.608743871748" lon="17.968392018012">
        <ele>140.2</ele>
        <time>2018-03-30T11:09:40Z</time>
      </trkpt>
      <trkpt lat="62.608734400201" lon="17.968494947744">
        <ele>139.8</ele>
        <time>2018-03-30T11:09:41Z</time>
      </trkpt>
      <trkpt lat="62.608722833179" lon="17.968581448952">
        <ele>139.6</ele>
        <time>2018-03-30T11:09:42Z</time>
      </trkpt>
      <trkpt lat="62.608711433795" lon="17.968668285436">
        <ele>139.4</ele>
        <time>2018-03-30T11:09:43Z</time>
      </trkpt>
      <trkpt lat="62.60870430918" lon="17.968746404744">
        <ele>139</ele>
        <time>2018-03-30T11:09:44Z</time>
      </trkpt>
      <trkpt lat="62.608703303352" lon="17.968822847672">
        <ele>138.6</ele>
        <time>2018-03-30T11:09:45Z</time>
      </trkpt>
      <trkpt lat="62.608705231189" lon="17.968905577025">
        <ele>138.2</ele>
        <time>2018-03-30T11:09:46Z</time>
      </trkpt>
      <trkpt lat="62.608709086863" lon="17.968985372713">
        <ele>137.6</ele>
        <time>2018-03-30T11:09:47Z</time>
      </trkpt>
      <trkpt lat="62.608715373288" lon="17.969062067098">
        <ele>137.2</ele>
        <time>2018-03-30T11:09:48Z</time>
      </trkpt>
      <trkpt lat="62.608722497903" lon="17.969152507799">
        <ele>136.8</ele>
        <time>2018-03-30T11:09:49Z</time>
      </trkpt>
      <trkpt lat="62.608730041613" lon="17.969237500265">
        <ele>136.2</ele>
        <time>2018-03-30T11:09:50Z</time>
      </trkpt>
      <trkpt lat="62.608730376889" lon="17.96930832732">
        <ele>135.8</ele>
        <time>2018-03-30T11:09:51Z</time>
      </trkpt>
      <trkpt lat="62.608728700509" lon="17.969371945941">
        <ele>135.4</ele>
        <time>2018-03-30T11:09:52Z</time>
      </trkpt>
      <trkpt lat="62.608714702736" lon="17.969405389722">
        <ele>134.8</ele>
        <time>2018-03-30T11:09:53Z</time>
      </trkpt>
      <trkpt lat="62.608703806266" lon="17.969454842932">
        <ele>134.4</ele>
        <time>2018-03-30T11:09:54Z</time>
      </trkpt>
      <trkpt lat="62.60869173633" lon="17.969502703581">
        <ele>134.2</ele>
        <time>2018-03-30T11:09:55Z</time>
      </trkpt>
      <trkpt lat="62.608679750213" lon="17.9695530788">
        <ele>134</ele>
        <time>2018-03-30T11:09:56Z</time>
      </trkpt>
      <trkpt lat="62.608670194847" lon="17.969599933621">
        <ele>133.8</ele>
        <time>2018-03-30T11:09:57Z</time>
      </trkpt>
      <trkpt lat="62.608660388024" lon="17.969692637435">
        <ele>133.4</ele>
        <time>2018-03-30T11:09:58Z</time>
      </trkpt>
      <trkpt lat="62.608658041092" lon="17.969792717321">
        <ele>133</ele>
        <time>2018-03-30T11:09:59Z</time>
      </trkpt>
      <trkpt lat="62.608660555662" lon="17.969888941533">
        <ele>132.4</ele>
        <time>2018-03-30T11:10:00Z</time>
      </trkpt>
      <trkpt lat="62.608673547607" lon="17.970019531535">
        <ele>132.2</ele>
        <time>2018-03-30T11:10:01Z</time>
      </trkpt>
      <trkpt lat="62.608688551208" lon="17.970144505664">
        <ele>132</ele>
        <time>2018-03-30T11:10:02Z</time>
      </trkpt>
      <trkpt lat="62.608706739931" lon="17.970268306327">
        <ele>132</ele>
        <time>2018-03-30T11:10:03Z</time>
      </trkpt>
      <trkpt lat="62.6087277785" lon="17.970396549397">
        <ele>131.8</ele>
        <time>2018-03-30T11:10:04Z</time>
      </trkpt>
      <trkpt lat="62.608750241992" lon="17.970524038096">
        <ele>131.6</ele>
        <time>2018-03-30T11:10:05Z</time>
      </trkpt>
      <trkpt lat="62.608776477339" lon="17.970635433547">
        <ele>131.4</ele>
        <time>2018-03-30T11:10:06Z</time>
      </trkpt>
      <trkpt lat="62.608802293591" lon="17.970732998863">
        <ele>131</ele>
        <time>2018-03-30T11:10:07Z</time>
      </trkpt>
      <trkpt lat="62.608827355472" lon="17.970852440938">
        <ele>130.2</ele>
        <time>2018-03-30T11:10:08Z</time>
      </trkpt>
      <trkpt lat="62.608847388213" lon="17.970969955176">
        <ele>129.6</ele>
        <time>2018-03-30T11:10:09Z</time>
      </trkpt>
      <trkpt lat="62.608864990203" lon="17.971085793034">
        <ele>129.2</ele>
        <time>2018-03-30T11:10:10Z</time>
      </trkpt>
      <trkpt lat="62.608883095107" lon="17.971210767163">
        <ele>128.8</ele>
        <time>2018-03-30T11:10:11Z</time>
      </trkpt>
      <trkpt lat="62.608899858907" lon="17.971323671356">
        <ele>128.6</ele>
        <time>2018-03-30T11:10:12Z</time>
      </trkpt>
      <trkpt lat="62.608919556372" lon="17.971450992417">
        <ele>128</ele>
        <time>2018-03-30T11:10:13Z</time>
      </trkpt>
      <trkpt lat="62.608940511122" lon="17.971565740628">
        <ele>127.6</ele>
        <time>2018-03-30T11:10:14Z</time>
      </trkpt>
      <trkpt lat="62.60896414808" lon="17.971670849654">
        <ele>127.2</ele>
        <time>2018-03-30T11:10:15Z</time>
      </trkpt>
      <trkpt lat="62.608994742015" lon="17.971770510445">
        <ele>126.8</ele>
        <time>2018-03-30T11:10:16Z</time>
      </trkpt>
      <trkpt lat="62.609029107805" lon="17.971853826531">
        <ele>126.8</ele>
        <time>2018-03-30T11:10:17Z</time>
      </trkpt>
      <trkpt lat="62.609067413088" lon="17.971930856192">
        <ele>126.6</ele>
        <time>2018-03-30T11:10:18Z</time>
      </trkpt>
      <trkpt lat="62.609113262081" lon="17.971972430416">
        <ele>126.4</ele>
        <time>2018-03-30T11:10:19Z</time>
      </trkpt>
      <trkpt lat="62.609157602332" lon="17.971996737926">
        <ele>126</ele>
        <time>2018-03-30T11:10:20Z</time>
      </trkpt>
      <trkpt lat="62.609200266203" lon="17.972002353799">
        <ele>125.8</ele>
        <time>2018-03-30T11:10:21Z</time>
      </trkpt>
      <trkpt lat="62.609243684445" lon="17.972002353799">
        <ele>125.6</ele>
        <time>2018-03-30T11:10:22Z</time>
      </trkpt>
      <trkpt lat="62.609284504298" lon="17.97201065188">
        <ele>125.4</ele>
        <time>2018-03-30T11:10:23Z</time>
      </trkpt>
      <trkpt lat="62.609318450993" lon="17.971998330487">
        <ele>125.2</ele>
        <time>2018-03-30T11:10:24Z</time>
      </trkpt>
      <trkpt lat="62.60935390643" lon="17.971991792605">
        <ele>125</ele>
        <time>2018-03-30T11:10:25Z</time>
      </trkpt>
      <trkpt lat="62.609386679659" lon="17.972004952188">
        <ele>125</ele>
        <time>2018-03-30T11:10:26Z</time>
      </trkpt>
      <trkpt lat="62.609419201431" lon="17.972026493671">
        <ele>125</ele>
        <time>2018-03-30T11:10:27Z</time>
      </trkpt>
      <trkpt lat="62.609446861701" lon="17.972082568582">
        <ele>125</ele>
        <time>2018-03-30T11:10:28Z</time>
      </trkpt>
      <trkpt lat="62.609471755944" lon="17.972154569103">
        <ele>125</ele>
        <time>2018-03-30T11:10:29Z</time>
      </trkpt>
      <trkpt lat="62.609481143672" lon="17.972228665099">
        <ele>124.8</ele>
        <time>2018-03-30T11:10:30Z</time>
      </trkpt>
      <trkpt lat="62.609483658242" lon="17.972296139394">
        <ele>124.8</ele>
        <time>2018-03-30T11:10:31Z</time>
      </trkpt>
      <trkpt lat="62.609480724577" lon="17.972362188766">
        <ele>124.6</ele>
        <time>2018-03-30T11:10:32Z</time>
      </trkpt>
      <trkpt lat="62.609474689609" lon="17.972435195115">
        <ele>124.4</ele>
        <time>2018-03-30T11:10:33Z</time>
      </trkpt>
      <trkpt lat="62.609475946894" lon="17.972522534513">
        <ele>124.4</ele>
        <time>2018-03-30T11:10:34Z</time>
      </trkpt>
      <trkpt lat="62.60947544398" lon="17.972602833115">
        <ele>124</ele>
        <time>2018-03-30T11:10:35Z</time>
      </trkpt>
      <trkpt lat="62.60946454751" lon="17.972677096749">
        <ele>124</ele>
        <time>2018-03-30T11:10:36Z</time>
      </trkpt>
      <trkpt lat="62.609454405411" lon="17.9727549646">
        <ele>124.2</ele>
        <time>2018-03-30T11:10:37Z</time>
      </trkpt>
      <trkpt lat="62.609437809249" lon="17.972833670641">
        <ele>124</ele>
        <time>2018-03-30T11:10:38Z</time>
      </trkpt>
      <trkpt lat="62.609415848671" lon="17.972888823543">
        <ele>124</ele>
        <time>2018-03-30T11:10:39Z</time>
      </trkpt>
      <trkpt lat="62.609396318844" lon="17.972938360572">
        <ele>123.8</ele>
        <time>2018-03-30T11:10:40Z</time>
      </trkpt>
      <trkpt lat="62.609378297759" lon="17.972990747447">
        <ele>123.8</ele>
        <time>2018-03-30T11:10:41Z</time>
      </trkpt>
      <trkpt lat="62.609360863407" lon="17.973040284476">
        <ele>123.8</ele>
        <time>2018-03-30T11:10:42Z</time>
      </trkpt>
      <trkpt lat="62.609348458195" lon="17.973093928636">
        <ele>123.6</ele>
        <time>2018-03-30T11:10:43Z</time>
      </trkpt>
      <trkpt lat="62.609337394087" lon="17.973158636904">
        <ele>123.8</ele>
        <time>2018-03-30T11:10:44Z</time>
      </trkpt>
      <trkpt lat="62.609326749074" lon="17.973225440647">
        <ele>123.8</ele>
        <time>2018-03-30T11:10:45Z</time>
      </trkpt>
      <trkpt lat="62.60933043711" lon="17.97329224439">
        <ele>124</ele>
        <time>2018-03-30T11:10:46Z</time>
      </trkpt>
      <trkpt lat="62.609332867861" lon="17.973356533563">
        <ele>124</ele>
        <time>2018-03-30T11:10:47Z</time>
      </trkpt>
      <trkpt lat="62.609343680512" lon="17.973417050881">
        <ele>124</ele>
        <time>2018-03-30T11:10:48Z</time>
      </trkpt>
      <trkpt lat="62.609360863407" lon="17.973470359765">
        <ele>124.2</ele>
        <time>2018-03-30T11:10:49Z</time>
      </trkpt>
      <trkpt lat="62.60936815566" lon="17.97352777578">
        <ele>124.2</ele>
        <time>2018-03-30T11:10:50Z</time>
      </trkpt>
      <trkpt lat="62.609383997451" lon="17.973585778528">
        <ele>124.4</ele>
        <time>2018-03-30T11:10:51Z</time>
      </trkpt>
      <trkpt lat="62.609407466771" lon="17.973638165403">
        <ele>124.4</ele>
        <time>2018-03-30T11:10:52Z</time>
      </trkpt>
      <trkpt lat="62.609411322445" lon="17.973719469833">
        <ele>124.6</ele>
        <time>2018-03-30T11:10:53Z</time>
      </trkpt>
      <trkpt lat="62.609421967458" lon="17.973792727639">
        <ele>124.4</ele>
        <time>2018-03-30T11:10:54Z</time>
      </trkpt>
      <trkpt lat="62.609433702118" lon="17.973862967961">
        <ele>124.4</ele>
        <time>2018-03-30T11:10:55Z</time>
      </trkpt>
      <trkpt lat="62.609441497285" lon="17.973929855523">
        <ele>124.4</ele>
        <time>2018-03-30T11:10:56Z</time>
      </trkpt>
      <trkpt lat="62.609450549737" lon="17.973998168008">
        <ele>124.2</ele>
        <time>2018-03-30T11:10:57Z</time>
      </trkpt>
      <trkpt lat="62.60945616561" lon="17.974074610936">
        <ele>124.4</ele>
        <time>2018-03-30T11:10:58Z</time>
      </trkpt>
      <trkpt lat="62.609472175039" lon="17.974150886226">
        <ele>124.6</ele>
        <time>2018-03-30T11:10:59Z</time>
      </trkpt>
      <trkpt lat="62.609487094821" lon="17.974222802928">
        <ele>124.6</ele>
        <time>2018-03-30T11:11:00Z</time>
      </trkpt>
      <trkpt lat="62.609507798114" lon="17.974284828988">
        <ele>124.4</ele>
        <time>2018-03-30T11:11:01Z</time>
      </trkpt>
      <trkpt lat="62.609519532774" lon="17.974345681582">
        <ele>124.4</ele>
        <time>2018-03-30T11:11:02Z</time>
      </trkpt>
      <trkpt lat="62.60952824995" lon="17.974408881108">
        <ele>124.2</ele>
        <time>2018-03-30T11:11:03Z</time>
      </trkpt>
      <trkpt lat="62.609554736754" lon="17.974495466135">
        <ele>124.2</ele>
        <time>2018-03-30T11:11:04Z</time>
      </trkpt>
      <trkpt lat="62.609562699559" lon="17.97456294043">
        <ele>124.2</ele>
        <time>2018-03-30T11:11:05Z</time>
      </trkpt>
      <trkpt lat="62.609567225785" lon="17.97462831925">
        <ele>124.2</ele>
        <time>2018-03-30T11:11:06Z</time>
      </trkpt>
      <trkpt lat="62.609578876626" lon="17.974692608423">
        <ele>124.2</ele>
        <time>2018-03-30T11:11:07Z</time>
      </trkpt>
      <trkpt lat="62.60959027601" lon="17.974757735786">
        <ele>124.2</ele>
        <time>2018-03-30T11:11:08Z</time>
      </trkpt>
      <trkpt lat="62.60959614334" lon="17.974818839837">
        <ele>124.4</ele>
        <time>2018-03-30T11:11:09Z</time>
      </trkpt>
      <trkpt lat="62.609606704534" lon="17.974879692431">
        <ele>124.6</ele>
        <time>2018-03-30T11:11:10Z</time>
      </trkpt>
      <trkpt lat="62.609618020099" lon="17.974934761514">
        <ele>124.6</ele>
        <time>2018-03-30T11:11:11Z</time>
      </trkpt>
      <trkpt lat="62.609627910741" lon="17.974994273004">
        <ele>124.6</ele>
        <time>2018-03-30T11:11:12Z</time>
      </trkpt>
      <trkpt lat="62.609635705908" lon="17.975053616856">
        <ele>124.6</ele>
        <time>2018-03-30T11:11:13Z</time>
      </trkpt>
      <trkpt lat="62.609648865491" lon="17.97510692574">
        <ele>124.6</ele>
        <time>2018-03-30T11:11:14Z</time>
      </trkpt>
      <trkpt lat="62.609671496621" lon="17.975167023963">
        <ele>124.4</ele>
        <time>2018-03-30T11:11:15Z</time>
      </trkpt>
      <trkpt lat="62.609693038104" lon="17.975231732231">
        <ele>124.6</ele>
        <time>2018-03-30T11:11:16Z</time>
      </trkpt>
      <trkpt lat="62.609704688945" lon="17.975288477694">
        <ele>124.8</ele>
        <time>2018-03-30T11:11:17Z</time>
      </trkpt>
      <trkpt lat="62.609712819388" lon="17.975345474614">
        <ele>124.8</ele>
        <time>2018-03-30T11:11:18Z</time>
      </trkpt>
      <trkpt lat="62.609719105813" lon="17.975404315552">
        <ele>125</ele>
        <time>2018-03-30T11:11:19Z</time>
      </trkpt>
      <trkpt lat="62.609723464401" lon="17.975455948056">
        <ele>125.2</ele>
        <time>2018-03-30T11:11:20Z</time>
      </trkpt>
      <trkpt lat="62.609735534337" lon="17.975502467601">
        <ele>125.4</ele>
        <time>2018-03-30T11:11:21Z</time>
      </trkpt>
      <trkpt lat="62.609756489087" lon="17.975547059309">
        <ele>125.2</ele>
        <time>2018-03-30T11:11:22Z</time>
      </trkpt>
      <trkpt lat="62.609749113015" lon="17.975601625478">
        <ele>125.4</ele>
        <time>2018-03-30T11:11:23Z</time>
      </trkpt>
      <trkpt lat="62.609753890698" lon="17.975639930761">
        <ele>125.2</ele>
        <time>2018-03-30T11:11:24Z</time>
      </trkpt>
      <trkpt lat="62.609765038625" lon="17.975675134741">
        <ele>125.2</ele>
        <time>2018-03-30T11:11:25Z</time>
      </trkpt>
      <trkpt lat="62.609775096905" lon="17.975711176911">
        <ele>125.2</ele>
        <time>2018-03-30T11:11:26Z</time>
      </trkpt>
      <trkpt lat="62.609787083022" lon="17.975747135262">
        <ele>125.2</ele>
        <time>2018-03-30T11:11:27Z</time>
      </trkpt>
      <trkpt lat="62.609788843221" lon="17.975771023677">
        <ele>125.4</ele>
        <time>2018-03-30T11:11:28Z</time>
      </trkpt>
      <trkpt lat="62.609796386931" lon="17.975814441919">
        <ele>125.6</ele>
        <time>2018-03-30T11:11:29Z</time>
      </trkpt>
      <trkpt lat="62.60980401446" lon="17.975849729718">
        <ele>125.8</ele>
        <time>2018-03-30T11:11:30Z</time>
      </trkpt>
      <trkpt lat="62.609812899274" lon="17.975887448268">
        <ele>125.8</ele>
        <time>2018-03-30T11:11:31Z</time>
      </trkpt>
      <trkpt lat="62.609822789916" lon="17.975927178474">
        <ele>126</ele>
        <time>2018-03-30T11:11:32Z</time>
      </trkpt>
      <trkpt lat="62.609837709698" lon="17.975968165965">
        <ele>126</ele>
        <time>2018-03-30T11:11:33Z</time>
      </trkpt>
      <trkpt lat="62.60984424758" lon="17.976000771556">
        <ele>126.2</ele>
        <time>2018-03-30T11:11:34Z</time>
      </trkpt>
      <trkpt lat="62.609854976412" lon="17.976035221165">
        <ele>126.4</ele>
        <time>2018-03-30T11:11:35Z</time>
      </trkpt>
      <trkpt lat="62.609865705244" lon="17.976065647462">
        <ele>126.4</ele>
        <time>2018-03-30T11:11:36Z</time>
      </trkpt>
      <trkpt lat="62.609875092972" lon="17.976099007424">
        <ele>126.6</ele>
        <time>2018-03-30T11:11:37Z</time>
      </trkpt>
      <trkpt lat="62.60988699527" lon="17.976137480345">
        <ele>126.8</ele>
        <time>2018-03-30T11:11:38Z</time>
      </trkpt>
      <trkpt lat="62.609901663595" lon="17.976171007945">
        <ele>126.8</ele>
        <time>2018-03-30T11:11:39Z</time>
      </trkpt>
      <trkpt lat="62.609913398255" lon="17.976207553029">
        <ele>127</ele>
        <time>2018-03-30T11:11:40Z</time>
      </trkpt>
      <trkpt lat="62.609928234218" lon="17.976242170276">
        <ele>127.2</ele>
        <time>2018-03-30T11:11:41Z</time>
      </trkpt>
      <trkpt lat="62.609943573095" lon="17.976276116971">
        <ele>127.4</ele>
        <time>2018-03-30T11:11:42Z</time>
      </trkpt>
      <trkpt lat="62.609960169257" lon="17.976312662055">
        <ele>127.6</ele>
        <time>2018-03-30T11:11:43Z</time>
      </trkpt>
      <trkpt lat="62.609975172858" lon="17.976346692569">
        <ele>128</ele>
        <time>2018-03-30T11:11:44Z</time>
      </trkpt>
      <trkpt lat="62.609987242794" lon="17.976375191029">
        <ele>128</ele>
        <time>2018-03-30T11:11:45Z</time>
      </trkpt>
      <trkpt lat="62.609999731825" lon="17.976406539335">
        <ele>128</ele>
        <time>2018-03-30T11:11:46Z</time>
      </trkpt>
      <trkpt lat="62.610012891408" lon="17.976439312564">
        <ele>128</ele>
        <time>2018-03-30T11:11:47Z</time>
      </trkpt>
      <trkpt lat="62.610031331588" lon="17.97647066087">
        <ele>128.2</ele>
        <time>2018-03-30T11:11:48Z</time>
      </trkpt>
      <trkpt lat="62.610045580818" lon="17.976506200126">
        <ele>128.2</ele>
        <time>2018-03-30T11:11:49Z</time>
      </trkpt>
      <trkpt lat="62.610060919695" lon="17.976539057174">
        <ele>128.4</ele>
        <time>2018-03-30T11:11:50Z</time>
      </trkpt>
      <trkpt lat="62.610078856961" lon="17.976583313606">
        <ele>128.4</ele>
        <time>2018-03-30T11:11:51Z</time>
      </trkpt>
      <trkpt lat="62.610099392616" lon="17.976641903087">
        <ele>128.4</ele>
        <time>2018-03-30T11:11:52Z</time>
      </trkpt>
      <trkpt lat="62.610124705954" lon="17.976678448171">
        <ele>128.4</ele>
        <time>2018-03-30T11:11:53Z</time>
      </trkpt>
      <trkpt lat="62.6101443196" lon="17.976713652151">
        <ele>128.2</ele>
        <time>2018-03-30T11:11:54Z</time>
      </trkpt>
      <trkpt lat="62.610166783092" lon="17.976757489488">
        <ele>128.2</ele>
        <time>2018-03-30T11:11:55Z</time>
      </trkpt>
      <trkpt lat="62.61018958186" lon="17.976801578282">
        <ele>128.2</ele>
        <time>2018-03-30T11:11:56Z</time>
      </trkpt>
      <trkpt lat="62.610213637913" lon="17.976839883565">
        <ele>128.2</ele>
        <time>2018-03-30T11:11:57Z</time>
      </trkpt>
      <trkpt lat="62.610239286527" lon="17.976886486929">
        <ele>128.2</ele>
        <time>2018-03-30T11:11:58Z</time>
      </trkpt>
      <trkpt lat="62.610265605693" lon="17.976922864375">
        <ele>128</ele>
        <time>2018-03-30T11:11:59Z</time>
      </trkpt>
      <trkpt lat="62.610285303158" lon="17.976954128862">
        <ele>128.2</ele>
        <time>2018-03-30T11:12:00Z</time>
      </trkpt>
      <trkpt lat="62.610309275392" lon="17.976988410833">
        <ele>128</ele>
        <time>2018-03-30T11:12:01Z</time>
      </trkpt>
      <trkpt lat="62.610328469943" lon="17.977020848786">
        <ele>128.2</ele>
        <time>2018-03-30T11:12:02Z</time>
      </trkpt>
      <trkpt lat="62.610347245399" lon="17.977051610359">
        <ele>128</ele>
        <time>2018-03-30T11:12:03Z</time>
      </trkpt>
      <trkpt lat="62.610369708891" lon="17.977077594249">
        <ele>128.2</ele>
        <time>2018-03-30T11:12:04Z</time>
      </trkpt>
      <trkpt lat="62.610397872075" lon="17.977095447696">
        <ele>128.4</ele>
        <time>2018-03-30T11:12:05Z</time>
      </trkpt>
      <trkpt lat="62.610422011947" lon="17.97710097975">
        <ele>128.4</ele>
        <time>2018-03-30T11:12:06Z</time>
      </trkpt>
      <trkpt lat="62.610442296145" lon="17.977109110193">
        <ele>128.4</ele>
        <time>2018-03-30T11:12:07Z</time>
      </trkpt>
      <trkpt lat="62.610465178732" lon="17.977117156817">
        <ele>128.8</ele>
        <time>2018-03-30T11:12:08Z</time>
      </trkpt>
      <trkpt lat="62.610487726043" lon="17.977119839025">
        <ele>128.8</ele>
        <time>2018-03-30T11:12:09Z</time>
      </trkpt>
      <trkpt lat="62.610518319978" lon="17.977123107966">
        <ele>128.8</ele>
        <time>2018-03-30T11:12:10Z</time>
      </trkpt>
      <trkpt lat="62.610543800954" lon="17.977128975296">
        <ele>129</ele>
        <time>2018-03-30T11:12:11Z</time>
      </trkpt>
      <trkpt lat="62.610562492591" lon="17.977129142934">
        <ele>129</ele>
        <time>2018-03-30T11:12:12Z</time>
      </trkpt>
      <trkpt lat="62.61057766383" lon="17.977130148762">
        <ele>129.2</ele>
        <time>2018-03-30T11:12:13Z</time>
      </trkpt>
      <trkpt lat="62.610591745422" lon="17.977144817087">
        <ele>129.2</ele>
        <time>2018-03-30T11:12:14Z</time>
      </trkpt>
      <trkpt lat="62.610608341584" lon="17.977159233955">
        <ele>129.2</ele>
        <time>2018-03-30T11:12:15Z</time>
      </trkpt>
      <trkpt lat="62.610632229999" lon="17.977188822062">
        <ele>129.4</ele>
        <time>2018-03-30T11:12:16Z</time>
      </trkpt>
      <trkpt lat="62.610654274396" lon="17.977225534784">
        <ele>129.4</ele>
        <time>2018-03-30T11:12:17Z</time>
      </trkpt>
      <trkpt lat="62.610678665725" lon="17.977265516447">
        <ele>129.4</ele>
        <time>2018-03-30T11:12:18Z</time>
      </trkpt>
      <trkpt lat="62.610704901072" lon="17.977314969657">
        <ele>129.4</ele>
        <time>2018-03-30T11:12:19Z</time>
      </trkpt>
      <trkpt lat="62.610721581053" lon="17.977364255229">
        <ele>129.6</ele>
        <time>2018-03-30T11:12:20Z</time>
      </trkpt>
      <trkpt lat="62.610739518319" lon="17.977414714267">
        <ele>129.4</ele>
        <time>2018-03-30T11:12:21Z</time>
      </trkpt>
      <trkpt lat="62.610759970155" lon="17.977465340943">
        <ele>129.4</ele>
        <time>2018-03-30T11:12:22Z</time>
      </trkpt>
      <trkpt lat="62.610778158878" lon="17.977511106117">
        <ele>129.4</ele>
        <time>2018-03-30T11:12:23Z</time>
      </trkpt>
      <trkpt lat="62.610795509411" lon="17.977557541843">
        <ele>129.4</ele>
        <time>2018-03-30T11:12:24Z</time>
      </trkpt>
      <trkpt lat="62.610816045066" lon="17.97759802642">
        <ele>129.4</ele>
        <time>2018-03-30T11:12:25Z</time>
      </trkpt>
      <trkpt lat="62.610837167454" lon="17.977632727486">
        <ele>129.4</ele>
        <time>2018-03-30T11:12:26Z</time>
      </trkpt>
      <trkpt lat="62.610855691453" lon="17.977662399412">
        <ele>129.4</ele>
        <time>2018-03-30T11:12:27Z</time>
      </trkpt>
      <trkpt lat="62.610881842981" lon="17.9777002856">
        <ele>129.4</ele>
        <time>2018-03-30T11:12:28Z</time>
      </trkpt>
      <trkpt lat="62.61091042526" lon="17.977734567571">
        <ele>129.6</ele>
        <time>2018-03-30T11:12:29Z</time>
      </trkpt>
      <trkpt lat="62.610940683919" lon="17.977766837886">
        <ele>129.4</ele>
        <time>2018-03-30T11:12:30Z</time>
      </trkpt>
      <trkpt lat="62.610972786596" lon="17.977795503984">
        <ele>129.6</ele>
        <time>2018-03-30T11:12:31Z</time>
      </trkpt>
      <trkpt lat="62.610994495717" lon="17.977811513413">
        <ele>129.6</ele>
        <time>2018-03-30T11:12:32Z</time>
      </trkpt>
      <trkpt lat="62.611008828766" lon="17.977820901141">
        <ele>129.6</ele>
        <time>2018-03-30T11:12:33Z</time>
      </trkpt>
      <trkpt lat="62.611030370249" lon="17.977841520615">
        <ele>129.6</ele>
        <time>2018-03-30T11:12:34Z</time>
      </trkpt>
      <trkpt lat="62.611052330827" lon="17.977854177284">
        <ele>129.4</ele>
        <time>2018-03-30T11:12:35Z</time>
      </trkpt>
      <trkpt lat="62.611080242554" lon="17.977870521989">
        <ele>129.4</ele>
        <time>2018-03-30T11:12:36Z</time>
      </trkpt>
      <trkpt lat="62.611106310263" lon="17.977880580269">
        <ele>129.6</ele>
        <time>2018-03-30T11:12:37Z</time>
      </trkpt>
      <trkpt lat="62.611137826207" lon="17.977896170603">
        <ele>129.6</ele>
        <time>2018-03-30T11:12:38Z</time>
      </trkpt>
      <trkpt lat="62.61117361692" lon="17.977910000738">
        <ele>129.6</ele>
        <time>2018-03-30T11:12:39Z</time>
      </trkpt>
      <trkpt lat="62.611209239995" lon="17.97793330242">
        <ele>129.8</ele>
        <time>2018-03-30T11:12:40Z</time>
      </trkpt>
      <trkpt lat="62.611248132011" lon="17.977962974346">
        <ele>129.8</ele>
        <time>2018-03-30T11:12:41Z</time>
      </trkpt>
      <trkpt lat="62.611281156697" lon="17.977996585765">
        <ele>129.8</ele>
        <time>2018-03-30T11:12:42Z</time>
      </trkpt>
      <trkpt lat="62.61131527103" lon="17.97803472341">
        <ele>129.8</ele>
        <time>2018-03-30T11:12:43Z</time>
      </trkpt>
      <trkpt lat="62.611343350395" lon="17.978071519951">
        <ele>129.8</ele>
        <time>2018-03-30T11:12:44Z</time>
      </trkpt>
      <trkpt lat="62.611365478611" lon="17.978104460818">
        <ele>129.8</ele>
        <time>2018-03-30T11:12:45Z</time>
      </trkpt>
      <trkpt lat="62.611398168021" lon="17.978140083893">
        <ele>129.8</ele>
        <time>2018-03-30T11:12:46Z</time>
      </trkpt>
      <trkpt lat="62.611435216019" lon="17.978170258733">
        <ele>129.8</ele>
        <time>2018-03-30T11:12:47Z</time>
      </trkpt>
      <trkpt lat="62.611477628433" lon="17.9781948177">
        <ele>129.8</ele>
        <time>2018-03-30T11:12:48Z</time>
      </trkpt>
      <trkpt lat="62.611519286476" lon="17.978215269536">
        <ele>129.6</ele>
        <time>2018-03-30T11:12:49Z</time>
      </trkpt>
      <trkpt lat="62.611559519596" lon="17.978229602585">
        <ele>129.4</ele>
        <time>2018-03-30T11:12:50Z</time>
      </trkpt>
      <trkpt lat="62.611597321965" lon="17.978240834331">
        <ele>129.2</ele>
        <time>2018-03-30T11:12:51Z</time>
      </trkpt>
      <trkpt lat="62.61163713599" lon="17.978252317534">
        <ele>129</ele>
        <time>2018-03-30T11:12:52Z</time>
      </trkpt>
      <trkpt lat="62.611690193417" lon="17.978283582021">
        <ele>128.8</ele>
        <time>2018-03-30T11:12:53Z</time>
      </trkpt>
      <trkpt lat="62.611744675767" lon="17.978308895359">
        <ele>128.4</ele>
        <time>2018-03-30T11:12:54Z</time>
      </trkpt>
      <trkpt lat="62.611794631891" lon="17.978327000263">
        <ele>128.4</ele>
        <time>2018-03-30T11:12:55Z</time>
      </trkpt>
      <trkpt lat="62.611845090929" lon="17.978329933928">
        <ele>128.2</ele>
        <time>2018-03-30T11:12:56Z</time>
      </trkpt>
      <trkpt lat="62.611889598818" lon="17.978320881476">
        <ele>128</ele>
        <time>2018-03-30T11:12:57Z</time>
      </trkpt>
      <trkpt lat="62.611921114762" lon="17.978271763542">
        <ele>127.4</ele>
        <time>2018-03-30T11:12:58Z</time>
      </trkpt>
      <trkpt lat="62.611944500263" lon="17.978217616468">
        <ele>127.2</ele>
        <time>2018-03-30T11:12:59Z</time>
      </trkpt>
      <trkpt lat="62.611959252407" lon="17.978158440254">
        <ele>127</ele>
        <time>2018-03-30T11:13:00Z</time>
      </trkpt>
      <trkpt lat="62.611966712298" lon="17.978103035895">
        <ele>126.8</ele>
        <time>2018-03-30T11:13:01Z</time>
      </trkpt>
      <trkpt lat="62.611968472497" lon="17.97805064902">
        <ele>126.8</ele>
        <time>2018-03-30T11:13:02Z</time>
      </trkpt>
      <trkpt lat="62.611965371194" lon="17.977997172498">
        <ele>126.8</ele>
        <time>2018-03-30T11:13:03Z</time>
      </trkpt>
      <trkpt lat="62.61196151552" lon="17.977945791451">
        <ele>127</ele>
        <time>2018-03-30T11:13:04Z</time>
      </trkpt>
      <trkpt lat="62.611961264063" lon="17.977884603581">
        <ele>127</ele>
        <time>2018-03-30T11:13:05Z</time>
      </trkpt>
      <trkpt lat="62.611961012606" lon="17.977826349376">
        <ele>127.2</ele>
        <time>2018-03-30T11:13:06Z</time>
      </trkpt>
      <trkpt lat="62.61195816276" lon="17.977785110428">
        <ele>127</ele>
        <time>2018-03-30T11:13:07Z</time>
      </trkpt>
      <trkpt lat="62.611952630706" lon="17.977744542032">
        <ele>127.4</ele>
        <time>2018-03-30T11:13:08Z</time>
      </trkpt>
      <trkpt lat="62.611950199955" lon="17.977703973636">
        <ele>127.2</ele>
        <time>2018-03-30T11:13:09Z</time>
      </trkpt>
      <trkpt lat="62.611951205783" lon="17.977659633385">
        <ele>127.4</ele>
        <time>2018-03-30T11:13:10Z</time>
      </trkpt>
      <trkpt lat="62.611934190526" lon="17.977611688917">
        <ele>127.6</ele>
        <time>2018-03-30T11:13:11Z</time>
      </trkpt>
      <trkpt lat="62.611919857477" lon="17.97756533701">
        <ele>127.6</ele>
        <time>2018-03-30T11:13:12Z</time>
      </trkpt>
      <trkpt lat="62.611905272971" lon="17.977521164397">
        <ele>127.8</ele>
        <time>2018-03-30T11:13:13Z</time>
      </trkpt>
      <trkpt lat="62.611894711777" lon="17.977470118626">
        <ele>128.2</ele>
        <time>2018-03-30T11:13:14Z</time>
      </trkpt>
      <trkpt lat="62.611883228574" lon="17.977420916873">
        <ele>128.2</ele>
        <time>2018-03-30T11:13:15Z</time>
      </trkpt>
      <trkpt lat="62.611870571905" lon="17.977370541654">
        <ele>128.4</ele>
        <time>2018-03-30T11:13:16Z</time>
      </trkpt>
      <trkpt lat="62.611858753426" lon="17.977324273566">
        <ele>128.6</ele>
        <time>2018-03-30T11:13:17Z</time>
      </trkpt>
      <trkpt lat="62.61184919806" lon="17.977276580555">
        <ele>128.6</ele>
        <time>2018-03-30T11:13:18Z</time>
      </trkpt>
      <trkpt lat="62.611837128124" lon="17.97723257558">
        <ele>128.8</ele>
        <time>2018-03-30T11:13:19Z</time>
      </trkpt>
      <trkpt lat="62.611826064016" lon="17.977193935021">
        <ele>128.8</ele>
        <time>2018-03-30T11:13:20Z</time>
      </trkpt>
      <trkpt lat="62.611816424831" lon="17.977159150136">
        <ele>128.8</ele>
        <time>2018-03-30T11:13:21Z</time>
      </trkpt>
      <trkpt lat="62.611807456198" lon="17.977125622536">
        <ele>129</ele>
        <time>2018-03-30T11:13:22Z</time>
      </trkpt>
      <trkpt lat="62.611789099837" lon="17.977089999461">
        <ele>129.2</ele>
        <time>2018-03-30T11:13:23Z</time>
      </trkpt>
      <trkpt lat="62.611774012417" lon="17.977054460205">
        <ele>129.4</ele>
        <time>2018-03-30T11:13:24Z</time>
      </trkpt>
      <trkpt lat="62.611757751531" lon="17.977026464659">
        <ele>129.6</ele>
        <time>2018-03-30T11:13:25Z</time>
      </trkpt>
      <trkpt lat="62.611737802609" lon="17.976991595955">
        <ele>130</ele>
        <time>2018-03-30T11:13:26Z</time>
      </trkpt>
      <trkpt lat="62.61171927861" lon="17.976953123034">
        <ele>130.2</ele>
        <time>2018-03-30T11:13:27Z</time>
      </trkpt>
      <trkpt lat="62.611687092114" lon="17.976938706166">
        <ele>130.2</ele>
        <time>2018-03-30T11:13:28Z</time>
      </trkpt>
      <trkpt lat="62.611658845111" lon="17.976918086692">
        <ele>130.2</ele>
        <time>2018-03-30T11:13:29Z</time>
      </trkpt>
      <trkpt lat="62.611633364135" lon="17.976904759471">
        <ele>130.2</ele>
        <time>2018-03-30T11:13:30Z</time>
      </trkpt>
      <trkpt lat="62.611607296426" lon="17.976894868829">
        <ele>130.4</ele>
        <time>2018-03-30T11:13:31Z</time>
      </trkpt>
      <trkpt lat="62.611586928409" lon="17.976889085318">
        <ele>130.4</ele>
        <time>2018-03-30T11:13:32Z</time>
      </trkpt>
      <trkpt lat="62.611563207632" lon="17.976879529952">
        <ele>130.4</ele>
        <time>2018-03-30T11:13:33Z</time>
      </trkpt>
      <trkpt lat="62.611539235398" lon="17.976872405337">
        <ele>130.4</ele>
        <time>2018-03-30T11:13:34Z</time>
      </trkpt>
      <trkpt lat="62.611513167689" lon="17.976865699817">
        <ele>130.6</ele>
        <time>2018-03-30T11:13:35Z</time>
      </trkpt>
      <trkpt lat="62.611487183799" lon="17.976860838315">
        <ele>130.6</ele>
        <time>2018-03-30T11:13:36Z</time>
      </trkpt>
      <trkpt lat="62.6114602779" lon="17.976858491383">
        <ele>130.8</ele>
        <time>2018-03-30T11:13:37Z</time>
      </trkpt>
      <trkpt lat="62.611430438336" lon="17.976856898822">
        <ele>130.8</ele>
        <time>2018-03-30T11:13:38Z</time>
      </trkpt>
      <trkpt lat="62.611401017867" lon="17.976853546062">
        <ele>131</ele>
        <time>2018-03-30T11:13:39Z</time>
      </trkpt>
      <trkpt lat="62.611367406448" lon="17.97684784637">
        <ele>131</ele>
        <time>2018-03-30T11:13:40Z</time>
      </trkpt>
      <trkpt lat="62.611334130305" lon="17.976847594913">
        <ele>131.2</ele>
        <time>2018-03-30T11:13:41Z</time>
      </trkpt>
      <trkpt lat="62.611303033456" lon="17.976839380651">
        <ele>131.2</ele>
        <time>2018-03-30T11:13:42Z</time>
      </trkpt>
      <trkpt lat="62.611269505856" lon="17.976832339855">
        <ele>131.2</ele>
        <time>2018-03-30T11:13:43Z</time>
      </trkpt>
      <trkpt lat="62.611234720971" lon="17.97681599515">
        <ele>131</ele>
        <time>2018-03-30T11:13:44Z</time>
      </trkpt>
      <trkpt lat="62.611199433172" lon="17.976798309341">
        <ele>131</ele>
        <time>2018-03-30T11:13:45Z</time>
      </trkpt>
      <trkpt lat="62.611164061554" lon="17.976783976292">
        <ele>131</ele>
        <time>2018-03-30T11:13:46Z</time>
      </trkpt>
      <trkpt lat="62.611126259185" lon="17.976772996003">
        <ele>131</ele>
        <time>2018-03-30T11:13:47Z</time>
      </trkpt>
      <trkpt lat="62.61108560697" lon="17.97676318918">
        <ele>131</ele>
        <time>2018-03-30T11:13:48Z</time>
      </trkpt>
      <trkpt lat="62.61104705023" lon="17.97675480728">
        <ele>130.8</ele>
        <time>2018-03-30T11:13:49Z</time>
      </trkpt>
      <trkpt lat="62.611010672784" lon="17.976750029597">
        <ele>130.8</ele>
        <time>2018-03-30T11:13:50Z</time>
      </trkpt>
      <trkpt lat="62.610973708605" lon="17.976748772312">
        <ele>130.8</ele>
        <time>2018-03-30T11:13:51Z</time>
      </trkpt>
      <trkpt lat="62.610933140209" lon="17.976749526683">
        <ele>130.8</ele>
        <time>2018-03-30T11:13:52Z</time>
      </trkpt>
      <trkpt lat="62.610888380863" lon="17.976747515027">
        <ele>130.8</ele>
        <time>2018-03-30T11:13:53Z</time>
      </trkpt>
      <trkpt lat="62.610845381716" lon="17.976750197235">
        <ele>130.8</ele>
        <time>2018-03-30T11:13:54Z</time>
      </trkpt>
      <trkpt lat="62.610806657338" lon="17.976752460348">
        <ele>130.8</ele>
        <time>2018-03-30T11:13:55Z</time>
      </trkpt>
      <trkpt lat="62.61075200735" lon="17.97675229271">
        <ele>130.8</ele>
        <time>2018-03-30T11:13:56Z</time>
      </trkpt>
      <trkpt lat="62.61070758328" lon="17.97674977814">
        <ele>130.8</ele>
        <time>2018-03-30T11:13:57Z</time>
      </trkpt>
      <trkpt lat="62.610653603844" lon="17.976736283281">
        <ele>130.6</ele>
        <time>2018-03-30T11:13:58Z</time>
      </trkpt>
      <trkpt lat="62.610602558073" lon="17.976719519481">
        <ele>130.4</ele>
        <time>2018-03-30T11:13:59Z</time>
      </trkpt>
      <trkpt lat="62.610554697424" lon="17.976693535591">
        <ele>130.2</ele>
        <time>2018-03-30T11:14:00Z</time>
      </trkpt>
      <trkpt lat="62.610506920594" lon="17.976666964968">
        <ele>130</ele>
        <time>2018-03-30T11:14:01Z</time>
      </trkpt>
      <trkpt lat="62.610461574515" lon="17.976647854236">
        <ele>129.8</ele>
        <time>2018-03-30T11:14:02Z</time>
      </trkpt>
      <trkpt lat="62.610416563712" lon="17.976628156771">
        <ele>129.8</ele>
        <time>2018-03-30T11:14:03Z</time>
      </trkpt>
      <trkpt lat="62.61037230728" lon="17.976594880628">
        <ele>129.8</ele>
        <time>2018-03-30T11:14:04Z</time>
      </trkpt>
      <trkpt lat="62.610331906522" lon="17.976551797662">
        <ele>129.6</ele>
        <time>2018-03-30T11:14:05Z</time>
      </trkpt>
      <trkpt lat="62.61029687018" lon="17.97650335028">
        <ele>129.4</ele>
        <time>2018-03-30T11:14:06Z</time>
      </trkpt>
      <trkpt lat="62.610262923485" lon="17.976453142699">
        <ele>129.4</ele>
        <time>2018-03-30T11:14:07Z</time>
      </trkpt>
      <trkpt lat="62.610233922111" lon="17.976394134123">
        <ele>129.4</ele>
        <time>2018-03-30T11:14:08Z</time>
      </trkpt>
      <trkpt lat="62.610206932393" lon="17.976333952081">
        <ele>129.2</ele>
        <time>2018-03-30T11:14:09Z</time>
      </trkpt>
      <trkpt lat="62.610179104485" lon="17.976264214673">
        <ele>129.2</ele>
        <time>2018-03-30T11:14:10Z</time>
      </trkpt>
      <trkpt lat="62.610151192758" lon="17.976191795057">
        <ele>129.2</ele>
        <time>2018-03-30T11:14:11Z</time>
      </trkpt>
      <trkpt lat="62.610131327655" lon="17.976115352129">
        <ele>129.2</ele>
        <time>2018-03-30T11:14:12Z</time>
      </trkpt>
      <trkpt lat="62.610114563855" lon="17.976028348007">
        <ele>129.2</ele>
        <time>2018-03-30T11:14:13Z</time>
      </trkpt>
      <trkpt lat="62.610104002661" lon="17.975958107685">
        <ele>129</ele>
        <time>2018-03-30T11:14:14Z</time>
      </trkpt>
      <trkpt lat="62.610100482263" lon="17.975886693897">
        <ele>129</ele>
        <time>2018-03-30T11:14:15Z</time>
      </trkpt>
      <trkpt lat="62.610094363476" lon="17.975813184634">
        <ele>129</ele>
        <time>2018-03-30T11:14:16Z</time>
      </trkpt>
      <trkpt lat="62.610092687096" lon="17.975741267932">
        <ele>129</ele>
        <time>2018-03-30T11:14:17Z</time>
      </trkpt>
      <trkpt lat="62.610094279657" lon="17.975663148624">
        <ele>129</ele>
        <time>2018-03-30T11:14:18Z</time>
      </trkpt>
      <trkpt lat="62.610097213322" lon="17.975585364592">
        <ele>129</ele>
        <time>2018-03-30T11:14:19Z</time>
      </trkpt>
      <trkpt lat="62.610099644073" lon="17.975507748198">
        <ele>129</ele>
        <time>2018-03-30T11:14:20Z</time>
      </trkpt>
      <trkpt lat="62.610106265774" lon="17.975431556727">
        <ele>129.2</ele>
        <time>2018-03-30T11:14:21Z</time>
      </trkpt>
      <trkpt lat="62.610117162244" lon="17.975361819319">
        <ele>129.2</ele>
        <time>2018-03-30T11:14:22Z</time>
      </trkpt>
      <trkpt lat="62.610118168072" lon="17.975278838509">
        <ele>129</ele>
        <time>2018-03-30T11:14:23Z</time>
      </trkpt>
      <trkpt lat="62.610123616307" lon="17.97520918492">
        <ele>129.2</ele>
        <time>2018-03-30T11:14:24Z</time>
      </trkpt>
      <trkpt lat="62.610122861936" lon="17.975149589611">
        <ele>129</ele>
        <time>2018-03-30T11:14:25Z</time>
      </trkpt>
      <trkpt lat="62.610134345139" lon="17.975075661253">
        <ele>129</ele>
        <time>2018-03-30T11:14:26Z</time>
      </trkpt>
      <trkpt lat="62.610137865537" lon="17.975008689872">
        <ele>129</ele>
        <time>2018-03-30T11:14:27Z</time>
      </trkpt>
      <trkpt lat="62.610154796975" lon="17.974955297169">
        <ele>129</ele>
        <time>2018-03-30T11:14:28Z</time>
      </trkpt>
      <trkpt lat="62.610161502495" lon="17.974888744883">
        <ele>129.2</ele>
        <time>2018-03-30T11:14:29Z</time>
      </trkpt>
      <trkpt lat="62.610166363997" lon="17.974810122661">
        <ele>129.4</ele>
        <time>2018-03-30T11:14:30Z</time>
      </trkpt>
      <trkpt lat="62.610167872739" lon="17.974732841543">
        <ele>129.4</ele>
        <time>2018-03-30T11:14:31Z</time>
      </trkpt>
      <trkpt lat="62.610172901879" lon="17.974662601221">
        <ele>129.4</ele>
        <time>2018-03-30T11:14:32Z</time>
      </trkpt>
      <trkpt lat="62.610183463073" lon="17.97458724794">
        <ele>129.4</ele>
        <time>2018-03-30T11:14:33Z</time>
      </trkpt>
      <trkpt lat="62.610191425878" lon="17.974518097265">
        <ele>129</ele>
        <time>2018-03-30T11:14:34Z</time>
      </trkpt>
      <trkpt lat="62.610194108086" lon="17.97444978478">
        <ele>129.2</ele>
        <time>2018-03-30T11:14:35Z</time>
      </trkpt>
      <trkpt lat="62.61019377281" lon="17.974383903046">
        <ele>129.4</ele>
        <time>2018-03-30T11:14:36Z</time>
      </trkpt>
      <trkpt lat="62.610194862457" lon="17.974324140099">
        <ele>129.4</ele>
        <time>2018-03-30T11:14:37Z</time>
      </trkpt>
      <trkpt lat="62.610194191905" lon="17.974227748249">
        <ele>129.4</ele>
        <time>2018-03-30T11:14:38Z</time>
      </trkpt>
      <trkpt lat="62.610195784466" lon="17.974142001412">
        <ele>129.4</ele>
        <time>2018-03-30T11:14:39Z</time>
      </trkpt>
      <trkpt lat="62.610195365371" lon="17.97406002643">
        <ele>129.4</ele>
        <time>2018-03-30T11:14:40Z</time>
      </trkpt>
      <trkpt lat="62.610204920737" lon="17.973985092244">
        <ele>129.4</ele>
        <time>2018-03-30T11:14:41Z</time>
      </trkpt>
      <trkpt lat="62.610210285153" lon="17.973934214111">
        <ele>129.4</ele>
        <time>2018-03-30T11:14:42Z</time>
      </trkpt>
      <trkpt lat="62.610221852175" lon="17.973851149482">
        <ele>129</ele>
        <time>2018-03-30T11:14:43Z</time>
      </trkpt>
      <trkpt lat="62.610224953478" lon="17.973783507549">
        <ele>128.8</ele>
        <time>2018-03-30T11:14:44Z</time>
      </trkpt>
      <trkpt lat="62.610227970962" lon="17.973709830648">
        <ele>128.8</ele>
        <time>2018-03-30T11:14:45Z</time>
      </trkpt>
      <trkpt lat="62.610233754473" lon="17.973637997765">
        <ele>128.8</ele>
        <time>2018-03-30T11:14:46Z</time>
      </trkpt>
      <trkpt lat="62.610240795269" lon="17.973576558438">
        <ele>128.8</ele>
        <time>2018-03-30T11:14:47Z</time>
      </trkpt>
      <trkpt lat="62.61024993154" lon="17.973474802172">
        <ele>129.2</ele>
        <time>2018-03-30T11:14:48Z</time>
      </trkpt>
      <trkpt lat="62.610254793042" lon="17.973395677036">
        <ele>129.2</ele>
        <time>2018-03-30T11:14:49Z</time>
      </trkpt>
      <trkpt lat="62.610260157458" lon="17.973318982651">
        <ele>129.2</ele>
        <time>2018-03-30T11:14:50Z</time>
      </trkpt>
      <trkpt lat="62.61026585715" lon="17.973251508356">
        <ele>129.2</ele>
        <time>2018-03-30T11:14:51Z</time>
      </trkpt>
      <trkpt lat="62.6102700481" lon="17.973190320486">
        <ele>129</ele>
        <time>2018-03-30T11:14:52Z</time>
      </trkpt>
      <trkpt lat="62.61027591543" lon="17.973109183694">
        <ele>129.2</ele>
        <time>2018-03-30T11:14:53Z</time>
      </trkpt>
      <trkpt lat="62.610278932914" lon="17.973046235625">
        <ele>129.2</ele>
        <time>2018-03-30T11:14:54Z</time>
      </trkpt>
      <trkpt lat="62.610281950398" lon="17.972985383031">
        <ele>129.2</ele>
        <time>2018-03-30T11:14:55Z</time>
      </trkpt>
      <trkpt lat="62.6103035757" lon="17.972907431361">
        <ele>129.4</ele>
        <time>2018-03-30T11:14:56Z</time>
      </trkpt>
      <trkpt lat="62.610324446631" lon="17.972846830224">
        <ele>129.2</ele>
        <time>2018-03-30T11:14:57Z</time>
      </trkpt>
      <trkpt lat="62.610337187119" lon="17.972756724799">
        <ele>129.2</ele>
        <time>2018-03-30T11:14:58Z</time>
      </trkpt>
      <trkpt lat="62.610356968403" lon="17.972689334323">
        <ele>129.2</ele>
        <time>2018-03-30T11:14:59Z</time>
      </trkpt>
      <trkpt lat="62.610376833506" lon="17.972635857801">
        <ele>129.2</ele>
        <time>2018-03-30T11:15:00Z</time>
      </trkpt>
      <trkpt lat="62.610397536799" lon="17.972583722383">
        <ele>129.2</ele>
        <time>2018-03-30T11:15:01Z</time>
      </trkpt>
      <trkpt lat="62.610414468237" lon="17.972543405444">
        <ele>129</ele>
        <time>2018-03-30T11:15:02Z</time>
      </trkpt>
      <trkpt lat="62.610429890933" lon="17.972509123473">
        <ele>129</ele>
        <time>2018-03-30T11:15:03Z</time>
      </trkpt>
      <trkpt lat="62.610445984181" lon="17.972478278081">
        <ele>129.2</ele>
        <time>2018-03-30T11:15:04Z</time>
      </trkpt>
      <trkpt lat="62.610460903963" lon="17.972433518735">
        <ele>129.2</ele>
        <time>2018-03-30T11:15:05Z</time>
      </trkpt>
      <trkpt lat="62.610475572288" lon="17.972390771045">
        <ele>129.4</ele>
        <time>2018-03-30T11:15:06Z</time>
      </trkpt>
      <trkpt lat="62.610491749355" lon="17.972354142142">
        <ele>129.4</ele>
        <time>2018-03-30T11:15:07Z</time>
      </trkpt>
      <trkpt lat="62.610505663309" lon="17.972304940389">
        <ele>129.6</ele>
        <time>2018-03-30T11:15:08Z</time>
      </trkpt>
      <trkpt lat="62.610518571435" lon="17.97226797621">
        <ele>129.8</ele>
        <time>2018-03-30T11:15:09Z</time>
      </trkpt>
      <trkpt lat="62.610530976647" lon="17.97223780137">
        <ele>129.8</ele>
        <time>2018-03-30T11:15:10Z</time>
      </trkpt>
      <trkpt lat="62.610539693823" lon="17.972178122242">
        <ele>130.2</ele>
        <time>2018-03-30T11:15:11Z</time>
      </trkpt>
      <trkpt lat="62.610560145659" lon="17.97215230599">
        <ele>130.2</ele>
        <time>2018-03-30T11:15:12Z</time>
      </trkpt>
      <trkpt lat="62.610581603323" lon="17.972123723711">
        <ele>130.4</ele>
        <time>2018-03-30T11:15:13Z</time>
      </trkpt>
      <trkpt lat="62.610601887521" lon="17.972104948255">
        <ele>130.6</ele>
        <time>2018-03-30T11:15:14Z</time>
      </trkpt>
      <trkpt lat="62.610622004081" lon="17.972081981849">
        <ele>130.8</ele>
        <time>2018-03-30T11:15:15Z</time>
      </trkpt>
      <trkpt lat="62.610641198632" lon="17.972057674339">
        <ele>130.8</ele>
        <time>2018-03-30T11:15:16Z</time>
      </trkpt>
      <trkpt lat="62.610661063735" lon="17.972039569435">
        <ele>130.8</ele>
        <time>2018-03-30T11:15:17Z</time>
      </trkpt>
      <trkpt lat="62.610682772856" lon="17.972023727644">
        <ele>131</ele>
        <time>2018-03-30T11:15:18Z</time>
      </trkpt>
      <trkpt lat="62.610699704294" lon="17.972001683247">
        <ele>131.2</ele>
        <time>2018-03-30T11:15:19Z</time>
      </trkpt>
      <trkpt lat="62.610716887189" lon="17.971968910018">
        <ele>131.4</ele>
        <time>2018-03-30T11:15:20Z</time>
      </trkpt>
      <trkpt lat="62.610730633505" lon="17.971941668843">
        <ele>131.4</ele>
        <time>2018-03-30T11:15:21Z</time>
      </trkpt>
      <trkpt lat="62.610740105052" lon="17.971919540627">
        <ele>131.4</ele>
        <time>2018-03-30T11:15:22Z</time>
      </trkpt>
      <trkpt lat="62.610765921304" lon="17.971894897841">
        <ele>131.4</ele>
        <time>2018-03-30T11:15:23Z</time>
      </trkpt>
      <trkpt lat="62.610786289321" lon="17.97187235053">
        <ele>131.6</ele>
        <time>2018-03-30T11:15:24Z</time>
      </trkpt>
      <trkpt lat="62.610801963474" lon="17.97184888121">
        <ele>131.6</ele>
        <time>2018-03-30T11:15:25Z</time>
      </trkpt>
      <trkpt lat="62.610825097518" lon="17.971833374695">
        <ele>131.8</ele>
        <time>2018-03-30T11:15:26Z</time>
      </trkpt>
      <trkpt lat="62.610841023128" lon="17.971821723854">
        <ele>132</ele>
        <time>2018-03-30T11:15:27Z</time>
      </trkpt>
      <trkpt lat="62.610857116376" lon="17.971797500163">
        <ele>132</ele>
        <time>2018-03-30T11:15:28Z</time>
      </trkpt>
      <trkpt lat="62.610877400574" lon="17.971777551241">
        <ele>132.4</ele>
        <time>2018-03-30T11:15:29Z</time>
      </trkpt>
      <trkpt lat="62.61090036698" lon="17.971755506844">
        <ele>132.6</ele>
        <time>2018-03-30T11:15:30Z</time>
      </trkpt>
      <trkpt lat="62.610922830472" lon="17.971735893198">
        <ele>132.6</ele>
        <time>2018-03-30T11:15:31Z</time>
      </trkpt>
      <trkpt lat="62.610944371955" lon="17.971719632312">
        <ele>132.8</ele>
        <time>2018-03-30T11:15:32Z</time>
      </trkpt>
      <trkpt lat="62.610964153239" lon="17.971695408621">
        <ele>133.2</ele>
        <time>2018-03-30T11:15:33Z</time>
      </trkpt>
      <trkpt lat="62.610979492116" lon="17.971662132478">
        <ele>133.4</ele>
        <time>2018-03-30T11:15:34Z</time>
      </trkpt>
      <trkpt lat="62.610996675011" lon="17.971629862163">
        <ele>133.6</ele>
        <time>2018-03-30T11:15:35Z</time>
      </trkpt>
      <trkpt lat="62.611018970865" lon="17.971606392843">
        <ele>133.8</ele>
        <time>2018-03-30T11:15:36Z</time>
      </trkpt>
      <trkpt lat="62.611038416873" lon="17.971586863016">
        <ele>134</ele>
        <time>2018-03-30T11:15:37Z</time>
      </trkpt>
      <trkpt lat="62.611060377451" lon="17.971564567162">
        <ele>134</ele>
        <time>2018-03-30T11:15:38Z</time>
      </trkpt>
      <trkpt lat="62.611083176219" lon="17.97154378005">
        <ele>134.2</ele>
        <time>2018-03-30T11:15:39Z</time>
      </trkpt>
      <trkpt lat="62.611103711874" lon="17.97152114892">
        <ele>134</ele>
        <time>2018-03-30T11:15:40Z</time>
      </trkpt>
      <trkpt lat="62.611136317465" lon="17.971507318785">
        <ele>134.4</ele>
        <time>2018-03-30T11:15:41Z</time>
      </trkpt>
      <trkpt lat="62.611161714622" lon="17.971495751763">
        <ele>134.4</ele>
        <time>2018-03-30T11:15:42Z</time>
      </trkpt>
      <trkpt lat="62.611191554186" lon="17.971484771474">
        <ele>134.4</ele>
        <time>2018-03-30T11:15:43Z</time>
      </trkpt>
      <trkpt lat="62.611218543904" lon="17.971481502533">
        <ele>134.6</ele>
        <time>2018-03-30T11:15:44Z</time>
      </trkpt>
      <trkpt lat="62.611241258853" lon="17.971477982135">
        <ele>134.6</ele>
        <time>2018-03-30T11:15:45Z</time>
      </trkpt>
      <trkpt lat="62.611259279938" lon="17.971476389574">
        <ele>134.8</ele>
        <time>2018-03-30T11:15:46Z</time>
      </trkpt>
      <trkpt lat="62.611277301023" lon="17.971478233592">
        <ele>134.8</ele>
        <time>2018-03-30T11:15:47Z</time>
      </trkpt>
      <trkpt lat="62.611295489746" lon="17.971480245248">
        <ele>135</ele>
        <time>2018-03-30T11:15:48Z</time>
      </trkpt>
      <trkpt lat="62.611314349021" lon="17.971485022931">
        <ele>135.2</ele>
        <time>2018-03-30T11:15:49Z</time>
      </trkpt>
      <trkpt lat="62.611333208296" lon="17.971487453682">
        <ele>135.6</ele>
        <time>2018-03-30T11:15:50Z</time>
      </trkpt>
      <trkpt lat="62.611351480838" lon="17.971493572469">
        <ele>136</ele>
        <time>2018-03-30T11:15:51Z</time>
      </trkpt>
      <trkpt lat="62.611368160819" lon="17.971502122007">
        <ele>136.2</ele>
        <time>2018-03-30T11:15:52Z</time>
      </trkpt>
      <trkpt lat="62.611388947931" lon="17.971511342097">
        <ele>136.6</ele>
        <time>2018-03-30T11:15:53Z</time>
      </trkpt>
      <trkpt lat="62.611408645396" lon="17.971519807816">
        <ele>136.8</ele>
        <time>2018-03-30T11:15:54Z</time>
      </trkpt>
      <trkpt lat="62.61142842668" lon="17.971521065101">
        <ele>137</ele>
        <time>2018-03-30T11:15:55Z</time>
      </trkpt>
      <trkpt lat="62.611455416398" lon="17.971524166404">
        <ele>137.2</ele>
        <time>2018-03-30T11:15:56Z</time>
      </trkpt>
      <trkpt lat="62.611479220994" lon="17.971523998766">
        <ele>137.2</ele>
        <time>2018-03-30T11:15:57Z</time>
      </trkpt>
      <trkpt lat="62.611504199056" lon="17.971514778676">
        <ele>137.4</ele>
        <time>2018-03-30T11:15:58Z</time>
      </trkpt>
      <trkpt lat="62.611529763851" lon="17.971507402604">
        <ele>137.4</ele>
        <time>2018-03-30T11:15:59Z</time>
      </trkpt>
      <trkpt lat="62.611552227343" lon="17.971500277989">
        <ele>137.6</ele>
        <time>2018-03-30T11:16:00Z</time>
      </trkpt>
      <trkpt lat="62.61157510993" lon="17.971490722623">
        <ele>137.8</ele>
        <time>2018-03-30T11:16:01Z</time>
      </trkpt>
      <trkpt lat="62.611595729404" lon="17.9714725339">
        <ele>138</ele>
        <time>2018-03-30T11:16:02Z</time>
      </trkpt>
      <trkpt lat="62.611615426869" lon="17.971449148399">
        <ele>138</ele>
        <time>2018-03-30T11:16:03Z</time>
      </trkpt>
      <trkpt lat="62.611635878705" lon="17.971424924708">
        <ele>138</ele>
        <time>2018-03-30T11:16:04Z</time>
      </trkpt>
      <trkpt lat="62.611656581998" lon="17.971395336601">
        <ele>138.2</ele>
        <time>2018-03-30T11:16:05Z</time>
      </trkpt>
      <trkpt lat="62.611676447101" lon="17.971363736838">
        <ele>138.2</ele>
        <time>2018-03-30T11:16:06Z</time>
      </trkpt>
      <trkpt lat="62.611692372711" lon="17.971332472351">
        <ele>138.2</ele>
        <time>2018-03-30T11:16:07Z</time>
      </trkpt>
      <trkpt lat="62.611709807063" lon="17.971299280027">
        <ele>138.2</ele>
        <time>2018-03-30T11:16:08Z</time>
      </trkpt>
      <trkpt lat="62.61172682232" lon="17.971271033024">
        <ele>138.4</ele>
        <time>2018-03-30T11:16:09Z</time>
      </trkpt>
      <trkpt lat="62.611742915568" lon="17.971241277279">
        <ele>138.4</ele>
        <time>2018-03-30T11:16:10Z</time>
      </trkpt>
      <trkpt lat="62.611763367404" lon="17.971217137407">
        <ele>138.6</ele>
        <time>2018-03-30T11:16:11Z</time>
      </trkpt>
      <trkpt lat="62.61178633381" lon="17.971192243164">
        <ele>138.6</ele>
        <time>2018-03-30T11:16:12Z</time>
      </trkpt>
      <trkpt lat="62.611812150062" lon="17.971172042785">
        <ele>138.8</ele>
        <time>2018-03-30T11:16:13Z</time>
      </trkpt>
      <trkpt lat="62.611837714857" lon="17.971158045012">
        <ele>139</ele>
        <time>2018-03-30T11:16:14Z</time>
      </trkpt>
      <trkpt lat="62.611862441462" lon="17.971141784126">
        <ele>139</ele>
        <time>2018-03-30T11:16:15Z</time>
      </trkpt>
      <trkpt lat="62.611889263542" lon="17.971148070551">
        <ele>139</ele>
        <time>2018-03-30T11:16:16Z</time>
      </trkpt>
      <trkpt lat="62.611912481405" lon="17.971146058895">
        <ele>139.2</ele>
        <time>2018-03-30T11:16:17Z</time>
      </trkpt>
      <trkpt lat="62.611936872734" lon="17.971161481591">
        <ele>139.2</ele>
        <time>2018-03-30T11:16:18Z</time>
      </trkpt>
      <trkpt lat="62.611962437529" lon="17.971167684197">
        <ele>139.2</ele>
        <time>2018-03-30T11:16:19Z</time>
      </trkpt>
      <trkpt lat="62.611991019808" lon="17.971175144088">
        <ele>139.4</ele>
        <time>2018-03-30T11:16:20Z</time>
      </trkpt>
      <trkpt lat="62.612017758069" lon="17.971174808812">
        <ele>139.2</ele>
        <time>2018-03-30T11:16:21Z</time>
      </trkpt>
      <trkpt lat="62.612043239045" lon="17.971173886803">
        <ele>139.2</ele>
        <time>2018-03-30T11:16:22Z</time>
      </trkpt>
      <trkpt lat="62.612071150772" lon="17.971171707509">
        <ele>139.2</ele>
        <time>2018-03-30T11:16:23Z</time>
      </trkpt>
      <trkpt lat="62.612097721395" lon="17.971161733048">
        <ele>139.4</ele>
        <time>2018-03-30T11:16:24Z</time>
      </trkpt>
      <trkpt lat="62.612122615638" lon="17.97114396342">
        <ele>139.4</ele>
        <time>2018-03-30T11:16:25Z</time>
      </trkpt>
      <trkpt lat="62.612149521537" lon="17.971161733048">
        <ele>139.6</ele>
        <time>2018-03-30T11:16:26Z</time>
      </trkpt>
      <trkpt lat="62.612174248142" lon="17.971152093863">
        <ele>139.6</ele>
        <time>2018-03-30T11:16:27Z</time>
      </trkpt>
      <trkpt lat="62.612195705806" lon="17.971169695853">
        <ele>139.8</ele>
        <time>2018-03-30T11:16:28Z</time>
      </trkpt>
      <trkpt lat="62.612220432411" lon="17.971176066097">
        <ele>139.8</ele>
        <time>2018-03-30T11:16:29Z</time>
      </trkpt>
      <trkpt lat="62.612243314998" lon="17.9711875493">
        <ele>139.8</ele>
        <time>2018-03-30T11:16:30Z</time>
      </trkpt>
      <trkpt lat="62.612265694671" lon="17.971200792702">
        <ele>140</ele>
        <time>2018-03-30T11:16:31Z</time>
      </trkpt>
      <trkpt lat="62.612286230326" lon="17.971215712484">
        <ele>140.2</ele>
        <time>2018-03-30T11:16:32Z</time>
      </trkpt>
      <trkpt lat="62.612306682162" lon="17.971230548447">
        <ele>140.6</ele>
        <time>2018-03-30T11:16:33Z</time>
      </trkpt>
      <trkpt lat="62.612328810378" lon="17.971249240084">
        <ele>140.6</ele>
        <time>2018-03-30T11:16:34Z</time>
      </trkpt>
      <trkpt lat="62.612353117888" lon="17.97126633916">
        <ele>141</ele>
        <time>2018-03-30T11:16:35Z</time>
      </trkpt>
      <trkpt lat="62.612376838665" lon="17.971286707177">
        <ele>141</ele>
        <time>2018-03-30T11:16:36Z</time>
      </trkpt>
      <trkpt lat="62.612401313813" lon="17.971306488461">
        <ele>141</ele>
        <time>2018-03-30T11:16:37Z</time>
      </trkpt>
      <trkpt lat="62.612427046246" lon="17.971320989148">
        <ele>141</ele>
        <time>2018-03-30T11:16:38Z</time>
      </trkpt>
      <trkpt lat="62.612451689032" lon="17.97133339436">
        <ele>141</ele>
        <time>2018-03-30T11:16:39Z</time>
      </trkpt>
      <trkpt lat="62.612477421465" lon="17.971346134848">
        <ele>140.8</ele>
        <time>2018-03-30T11:16:40Z</time>
      </trkpt>
      <trkpt lat="62.612505836106" lon="17.971358288603">
        <ele>140.8</ele>
        <time>2018-03-30T11:16:41Z</time>
      </trkpt>
      <trkpt lat="62.612536094765" lon="17.971365161761">
        <ele>140.8</ele>
        <time>2018-03-30T11:16:42Z</time>
      </trkpt>
      <trkpt lat="62.612575238238" lon="17.971363904476">
        <ele>141</ele>
        <time>2018-03-30T11:16:43Z</time>
      </trkpt>
      <trkpt lat="62.612611448046" lon="17.971354852024">
        <ele>140.4</ele>
        <time>2018-03-30T11:16:44Z</time>
      </trkpt>
      <trkpt lat="62.612642461076" lon="17.971341105708">
        <ele>140.2</ele>
        <time>2018-03-30T11:16:45Z</time>
      </trkpt>
      <trkpt lat="62.612672049183" lon="17.971321575881">
        <ele>139.8</ele>
        <time>2018-03-30T11:16:46Z</time>
      </trkpt>
      <trkpt lat="62.612699290358" lon="17.971293077421">
        <ele>139.6</ele>
        <time>2018-03-30T11:16:47Z</time>
      </trkpt>
      <trkpt lat="62.612728794646" lon="17.971253011939">
        <ele>139.2</ele>
        <time>2018-03-30T11:16:48Z</time>
      </trkpt>
      <trkpt lat="62.612760478228" lon="17.971203726367">
        <ele>138.8</ele>
        <time>2018-03-30T11:16:49Z</time>
      </trkpt>
      <trkpt lat="62.612800124615" lon="17.971134072778">
        <ele>138.4</ele>
        <time>2018-03-30T11:16:50Z</time>
      </trkpt>
      <trkpt lat="62.612841866477" lon="17.971058887135">
        <ele>138</ele>
        <time>2018-03-30T11:16:51Z</time>
      </trkpt>
      <trkpt lat="62.612885452357" lon="17.970980851646">
        <ele>137.6</ele>
        <time>2018-03-30T11:16:52Z</time>
      </trkpt>
      <trkpt lat="62.61292962497" lon="17.970894518076">
        <ele>136.6</ele>
        <time>2018-03-30T11:16:53Z</time>
      </trkpt>
      <trkpt lat="62.612970444823" lon="17.97081623113">
        <ele>135.6</ele>
        <time>2018-03-30T11:16:54Z</time>
      </trkpt>
      <trkpt lat="62.613009001563" lon="17.970738363279">
        <ele>135.2</ele>
        <time>2018-03-30T11:16:55Z</time>
      </trkpt>
      <trkpt lat="62.613039595498" lon="17.970657477944">
        <ele>134.2</ele>
        <time>2018-03-30T11:16:56Z</time>
      </trkpt>
      <trkpt lat="62.613068513053" lon="17.970576257333">
        <ele>134</ele>
        <time>2018-03-30T11:16:57Z</time>
      </trkpt>
      <trkpt lat="62.613083516654" lon="17.970482044777">
        <ele>133.8</ele>
        <time>2018-03-30T11:16:58Z</time>
      </trkpt>
      <trkpt lat="62.613098184979" lon="17.970406607677">
        <ele>133.6</ele>
        <time>2018-03-30T11:16:59Z</time>
      </trkpt>
      <trkpt lat="62.613108075621" lon="17.970341983228">
        <ele>133.8</ele>
        <time>2018-03-30T11:17:00Z</time>
      </trkpt>
      <trkpt lat="62.613117547168" lon="17.970278867521">
        <ele>134</ele>
        <time>2018-03-30T11:17:01Z</time>
      </trkpt>
      <trkpt lat="62.613127102534" lon="17.970217260556">
        <ele>134</ele>
        <time>2018-03-30T11:17:02Z</time>
      </trkpt>
      <trkpt lat="62.613139423927" lon="17.970171746839">
        <ele>134.4</ele>
        <time>2018-03-30T11:17:03Z</time>
      </trkpt>
      <trkpt lat="62.613152751148" lon="17.970121958353">
        <ele>134.4</ele>
        <time>2018-03-30T11:17:04Z</time>
      </trkpt>
      <trkpt lat="62.613167503292" lon="17.970071331677">
        <ele>134.8</ele>
        <time>2018-03-30T11:17:05Z</time>
      </trkpt>
      <trkpt lat="62.613178986495" lon="17.970023638666">
        <ele>135.2</ele>
        <time>2018-03-30T11:17:06Z</time>
      </trkpt>
      <trkpt lat="62.61318862568" lon="17.969977705854">
        <ele>135.2</ele>
        <time>2018-03-30T11:17:07Z</time>
      </trkpt>
      <trkpt lat="62.613205138023" lon="17.969938981476">
        <ele>135.4</ele>
        <time>2018-03-30T11:17:08Z</time>
      </trkpt>
      <trkpt lat="62.61322215328" lon="17.969896066148">
        <ele>135.6</ele>
        <time>2018-03-30T11:17:09Z</time>
      </trkpt>
      <trkpt lat="62.613241934564" lon="17.969852061173">
        <ele>135.8</ele>
        <time>2018-03-30T11:17:10Z</time>
      </trkpt>
      <trkpt lat="62.613265403884" lon="17.969772852218">
        <ele>136</ele>
        <time>2018-03-30T11:17:11Z</time>
      </trkpt>
      <trkpt lat="62.613286442453" lon="17.969704036819">
        <ele>136</ele>
        <time>2018-03-30T11:17:12Z</time>
      </trkpt>
      <trkpt lat="62.613300775502" lon="17.969614434308">
        <ele>136</ele>
        <time>2018-03-30T11:17:13Z</time>
      </trkpt>
      <trkpt lat="62.613304044443" lon="17.969530699127">
        <ele>136</ele>
        <time>2018-03-30T11:17:14Z</time>
      </trkpt>
      <trkpt lat="62.613303625348" lon="17.969447969774">
        <ele>136</ele>
        <time>2018-03-30T11:17:15Z</time>
      </trkpt>
      <trkpt lat="62.613281245675" lon="17.969381417488">
        <ele>135.8</ele>
        <time>2018-03-30T11:17:16Z</time>
      </trkpt>
      <trkpt lat="62.613261883486" lon="17.969317044496">
        <ele>135.8</ele>
        <time>2018-03-30T11:17:17Z</time>
      </trkpt>
      <trkpt lat="62.613227433877" lon="17.969272788064">
        <ele>135.4</ele>
        <time>2018-03-30T11:17:18Z</time>
      </trkpt>
      <trkpt lat="62.613199270693" lon="17.969233393134">
        <ele>135.2</ele>
        <time>2018-03-30T11:17:19Z</time>
      </trkpt>
      <trkpt lat="62.613177226296" lon="17.969199949353">
        <ele>135</ele>
        <time>2018-03-30T11:17:20Z</time>
      </trkpt>
      <trkpt lat="62.61316096541" lon="17.969170528884">
        <ele>135</ele>
        <time>2018-03-30T11:17:21Z</time>
      </trkpt>
      <trkpt lat="62.613145458895" lon="17.96913649837">
        <ele>135</ele>
        <time>2018-03-30T11:17:22Z</time>
      </trkpt>
      <trkpt lat="62.613127353991" lon="17.969113280507">
        <ele>135</ele>
        <time>2018-03-30T11:17:23Z</time>
      </trkpt>
      <trkpt lat="62.6131115122" lon="17.96908033964">
        <ele>135</ele>
        <time>2018-03-30T11:17:24Z</time>
      </trkpt>
      <trkpt lat="62.613096173323" lon="17.969040357977">
        <ele>135.2</ele>
        <time>2018-03-30T11:17:25Z</time>
      </trkpt>
      <trkpt lat="62.613079074247" lon="17.968997526468">
        <ele>135.4</ele>
        <time>2018-03-30T11:17:26Z</time>
      </trkpt>
      <trkpt lat="62.613063651551" lon="17.968953689131">
        <ele>135.4</ele>
        <time>2018-03-30T11:17:27Z</time>
      </trkpt>
      <trkpt lat="62.613049821416" lon="17.968908259233">
        <ele>135</ele>
        <time>2018-03-30T11:17:28Z</time>
      </trkpt>
      <trkpt lat="62.613035739824" lon="17.968855872358">
        <ele>135</ele>
        <time>2018-03-30T11:17:29Z</time>
      </trkpt>
      <trkpt lat="62.613024005164" lon="17.968800048904">
        <ele>134.8</ele>
        <time>2018-03-30T11:17:30Z</time>
      </trkpt>
      <trkpt lat="62.613021658232" lon="17.968739699224">
        <ele>134.4</ele>
        <time>2018-03-30T11:17:31Z</time>
      </trkpt>
      <trkpt lat="62.613026519734" lon="17.968679433363">
        <ele>134.2</ele>
        <time>2018-03-30T11:17:32Z</time>
      </trkpt>
      <trkpt lat="62.613018808386" lon="17.968594021802">
        <ele>133.8</ele>
        <time>2018-03-30T11:17:33Z</time>
      </trkpt>
      <trkpt lat="62.613016209997" lon="17.968512801191">
        <ele>133.4</ele>
        <time>2018-03-30T11:17:34Z</time>
      </trkpt>
      <trkpt lat="62.613017802558" lon="17.968428395458">
        <ele>132.8</ele>
        <time>2018-03-30T11:17:35Z</time>
      </trkpt>
      <trkpt lat="62.613024843354" lon="17.968347091028">
        <ele>132.4</ele>
        <time>2018-03-30T11:17:36Z</time>
      </trkpt>
      <trkpt lat="62.613034985453" lon="17.968270480462">
        <ele>131.8</ele>
        <time>2018-03-30T11:17:37Z</time>
      </trkpt>
      <trkpt lat="62.613045043733" lon="17.968211471886">
        <ele>130.6</ele>
        <time>2018-03-30T11:17:38Z</time>
      </trkpt>
      <trkpt lat="62.613057113669" lon="17.968153804414">
        <ele>129.8</ele>
        <time>2018-03-30T11:17:39Z</time>
      </trkpt>
      <trkpt lat="62.613070105614" lon="17.968100663168">
        <ele>129.4</ele>
        <time>2018-03-30T11:17:40Z</time>
      </trkpt>
      <trkpt lat="62.613090641269" lon="17.968059172763">
        <ele>128.8</ele>
        <time>2018-03-30T11:17:41Z</time>
      </trkpt>
      <trkpt lat="62.613110087277" lon="17.968018269091">
        <ele>128.6</ele>
        <time>2018-03-30T11:17:42Z</time>
      </trkpt>
      <trkpt lat="62.613122827765" lon="17.968004019861">
        <ele>128.6</ele>
        <time>2018-03-30T11:17:43Z</time>
      </trkpt>
      <trkpt lat="62.613168676758" lon="17.967938054308">
        <ele>128.4</ele>
        <time>2018-03-30T11:17:44Z</time>
      </trkpt>
      <trkpt lat="62.613197426675" lon="17.967892037677">
        <ele>128.2</ele>
        <time>2018-03-30T11:17:45Z</time>
      </trkpt>
      <trkpt lat="62.613229194076" lon="17.967841411001">
        <ele>128</ele>
        <time>2018-03-30T11:17:46Z</time>
      </trkpt>
      <trkpt lat="62.613261212934" lon="17.967797489845">
        <ele>127.8</ele>
        <time>2018-03-30T11:17:47Z</time>
      </trkpt>
      <trkpt lat="62.613301110778" lon="17.967738229812">
        <ele>127.6</ele>
        <time>2018-03-30T11:17:48Z</time>
      </trkpt>
      <trkpt lat="62.613339751337" lon="17.96768894424">
        <ele>127.4</ele>
        <time>2018-03-30T11:17:49Z</time>
      </trkpt>
      <trkpt lat="62.613378140439" lon="17.967638317564">
        <ele>127</ele>
        <time>2018-03-30T11:17:50Z</time>
      </trkpt>
      <trkpt lat="62.613412673867" lon="17.967593642037">
        <ele>126.8</ele>
        <time>2018-03-30T11:17:51Z</time>
      </trkpt>
      <trkpt lat="62.613448380761" lon="17.967556594039">
        <ele>126.8</ele>
        <time>2018-03-30T11:17:52Z</time>
      </trkpt>
      <trkpt lat="62.613494313573" lon="17.967546200483">
        <ele>126.4</ele>
        <time>2018-03-30T11:17:53Z</time>
      </trkpt>
      <trkpt lat="62.613536893625" lon="17.967562042274">
        <ele>126.2</ele>
        <time>2018-03-30T11:17:54Z</time>
      </trkpt>
      <trkpt lat="62.613575701822" lon="17.967595318417">
        <ele>126</ele>
        <time>2018-03-30T11:17:55Z</time>
      </trkpt>
      <trkpt lat="62.613614929114" lon="17.967643598161">
        <ele>125.6</ele>
        <time>2018-03-30T11:17:56Z</time>
      </trkpt>
      <trkpt lat="62.613650133094" lon="17.967692129362">
        <ele>125.4</ele>
        <time>2018-03-30T11:17:57Z</time>
      </trkpt>
      <trkpt lat="62.613676787536" lon="17.967730350826">
        <ele>124.8</ele>
        <time>2018-03-30T11:17:58Z</time>
      </trkpt>
      <trkpt lat="62.613702771426" lon="17.9677677341">
        <ele>124.6</ele>
        <time>2018-03-30T11:17:59Z</time>
      </trkpt>
      <trkpt lat="62.613723726176" lon="17.967812577265">
        <ele>124.6</ele>
        <time>2018-03-30T11:18:00Z</time>
      </trkpt>
      <trkpt lat="62.613743926555" lon="17.96786664052">
        <ele>124.6</ele>
        <time>2018-03-30T11:18:01Z</time>
      </trkpt>
      <trkpt lat="62.613765468038" lon="17.967923469802">
        <ele>124.4</ele>
        <time>2018-03-30T11:18:02Z</time>
      </trkpt>
      <trkpt lat="62.613781142191" lon="17.967981640188">
        <ele>124.6</ele>
        <time>2018-03-30T11:18:03Z</time>
      </trkpt>
      <trkpt lat="62.613791535747" lon="17.968019777833">
        <ele>124.6</ele>
        <time>2018-03-30T11:18:04Z</time>
      </trkpt>
      <trkpt lat="62.613798241267" lon="17.968045091171">
        <ele>124.6</ele>
        <time>2018-03-30T11:18:05Z</time>
      </trkpt>
      <trkpt lat="62.613797403077" lon="17.968047857198">
        <ele>124.6</ele>
        <time>2018-03-30T11:18:06Z</time>
      </trkpt>
      <trkpt lat="62.613801761665" lon="17.968048946845">
        <ele>124.6</ele>
        <time>2018-03-30T11:18:07Z</time>
      </trkpt>
      <trkpt lat="62.61379966619" lon="17.968028327371">
        <ele>124.8</ele>
        <time>2018-03-30T11:18:08Z</time>
      </trkpt>
      <trkpt lat="62.613788518263" lon="17.968002343481">
        <ele>125</ele>
        <time>2018-03-30T11:18:09Z</time>
      </trkpt>
      <trkpt lat="62.613773849938" lon="17.967973342107">
        <ele>125</ele>
        <time>2018-03-30T11:18:10Z</time>
      </trkpt>
      <trkpt lat="62.613750632075" lon="17.967934198634">
        <ele>125</ele>
        <time>2018-03-30T11:18:11Z</time>
      </trkpt>
      <trkpt lat="62.613731940438" lon="17.96788927165">
        <ele>125</ele>
        <time>2018-03-30T11:18:12Z</time>
      </trkpt>
      <trkpt lat="62.613713584077" lon="17.967837387689">
        <ele>125</ele>
        <time>2018-03-30T11:18:13Z</time>
      </trkpt>
      <trkpt lat="62.613694473345" lon="17.967791454877">
        <ele>125</ele>
        <time>2018-03-30T11:18:14Z</time>
      </trkpt>
      <trkpt lat="62.613670501111" lon="17.9677509703">
        <ele>124.8</ele>
        <time>2018-03-30T11:18:15Z</time>
      </trkpt>
      <trkpt lat="62.613639152805" lon="17.967702774375">
        <ele>124.6</ele>
        <time>2018-03-30T11:18:16Z</time>
      </trkpt>
      <trkpt lat="62.613607804499" lon="17.967651560966">
        <ele>124.8</ele>
        <time>2018-03-30T11:18:17Z</time>
      </trkpt>
      <trkpt lat="62.613581569152" lon="17.967605628154">
        <ele>124.6</ele>
        <time>2018-03-30T11:18:18Z</time>
      </trkpt>
      <trkpt lat="62.613551478131" lon="17.967563634835">
        <ele>124.6</ele>
        <time>2018-03-30T11:18:19Z</time>
      </trkpt>
      <trkpt lat="62.61351803435" lon="17.967548798872">
        <ele>124.4</ele>
        <time>2018-03-30T11:18:20Z</time>
      </trkpt>
      <trkpt lat="62.613488949157" lon="17.967546116664">
        <ele>124.4</ele>
        <time>2018-03-30T11:18:21Z</time>
      </trkpt>
      <trkpt lat="62.61346103743" lon="17.967539914058">
        <ele>124.6</ele>
        <time>2018-03-30T11:18:22Z</time>
      </trkpt>
      <trkpt lat="62.613435724092" lon="17.967565478853">
        <ele>124.6</ele>
        <time>2018-03-30T11:18:23Z</time>
      </trkpt>
      <trkpt lat="62.613413428238" lon="17.967586265965">
        <ele>124.6</ele>
        <time>2018-03-30T11:18:24Z</time>
      </trkpt>
      <trkpt lat="62.613391551479" lon="17.967603616498">
        <ele>125</ele>
        <time>2018-03-30T11:18:25Z</time>
      </trkpt>
      <trkpt lat="62.613372943661" lon="17.967629851845">
        <ele>125.2</ele>
        <time>2018-03-30T11:18:26Z</time>
      </trkpt>
      <trkpt lat="62.613358945888" lon="17.967662038341">
        <ele>125.2</ele>
        <time>2018-03-30T11:18:27Z</time>
      </trkpt>
      <trkpt lat="62.613331620894" lon="17.967694979208">
        <ele>125.4</ele>
        <time>2018-03-30T11:18:28Z</time>
      </trkpt>
      <trkpt lat="62.613311420515" lon="17.96773253012">
        <ele>125.6</ele>
        <time>2018-03-30T11:18:29Z</time>
      </trkpt>
      <trkpt lat="62.61329423762" lon="17.967764716616">
        <ele>125.8</ele>
        <time>2018-03-30T11:18:30Z</time>
      </trkpt>
      <trkpt lat="62.613272779956" lon="17.967793634171">
        <ele>126</ele>
        <time>2018-03-30T11:18:31Z</time>
      </trkpt>
      <trkpt lat="62.613249981188" lon="17.967822970821">
        <ele>126</ele>
        <time>2018-03-30T11:18:32Z</time>
      </trkpt>
      <trkpt lat="62.613231205732" lon="17.967854402946">
        <ele>126.2</ele>
        <time>2018-03-30T11:18:33Z</time>
      </trkpt>
      <trkpt lat="62.613213436104" lon="17.967886589442">
        <ele>126.4</ele>
        <time>2018-03-30T11:18:34Z</time>
      </trkpt>
      <trkpt lat="62.61319114025" lon="17.96791525554">
        <ele>126.6</ele>
        <time>2018-03-30T11:18:35Z</time>
      </trkpt>
      <trkpt lat="62.613166413645" lon="17.967941574706">
        <ele>126.8</ele>
        <time>2018-03-30T11:18:36Z</time>
      </trkpt>
      <trkpt lat="62.61314168704" lon="17.967959092877">
        <ele>127</ele>
        <time>2018-03-30T11:18:37Z</time>
      </trkpt>
      <trkpt lat="62.613118385358" lon="17.967954482832">
        <ele>127.2</ele>
        <time>2018-03-30T11:18:38Z</time>
      </trkpt>
      <trkpt lat="62.613106063965" lon="17.967919949404">
        <ele>127.4</ele>
        <time>2018-03-30T11:18:39Z</time>
      </trkpt>
      <trkpt lat="62.61310061573" lon="17.967862784846">
        <ele>127.8</ele>
        <time>2018-03-30T11:18:40Z</time>
      </trkpt>
      <trkpt lat="62.613096676237" lon="17.967798076578">
        <ele>127.8</ele>
        <time>2018-03-30T11:18:41Z</time>
      </trkpt>
      <trkpt lat="62.613088797251" lon="17.967742085486">
        <ele>128</ele>
        <time>2018-03-30T11:18:42Z</time>
      </trkpt>
      <trkpt lat="62.613075805306" lon="17.967691877905">
        <ele>127.8</ele>
        <time>2018-03-30T11:18:43Z</time>
      </trkpt>
      <trkpt lat="62.613062226628" lon="17.967647705292">
        <ele>128</ele>
        <time>2018-03-30T11:18:44Z</time>
      </trkpt>
      <trkpt lat="62.61304613338" lon="17.967607388353">
        <ele>128</ele>
        <time>2018-03-30T11:18:45Z</time>
      </trkpt>
      <trkpt lat="62.613029956313" lon="17.967561874636">
        <ele>128.2</ele>
        <time>2018-03-30T11:18:46Z</time>
      </trkpt>
      <trkpt lat="62.613014365979" lon="17.967510242132">
        <ele>128.2</ele>
        <time>2018-03-30T11:18:47Z</time>
      </trkpt>
      <trkpt lat="62.612994752333" lon="17.967474451419">
        <ele>128.4</ele>
        <time>2018-03-30T11:18:48Z</time>
      </trkpt>
      <trkpt lat="62.612978407628" lon="17.967435894679">
        <ele>128.4</ele>
        <time>2018-03-30T11:18:49Z</time>
      </trkpt>
      <trkpt lat="62.612961140914" lon="17.967392308799">
        <ele>128.4</ele>
        <time>2018-03-30T11:18:50Z</time>
      </trkpt>
      <trkpt lat="62.612942868372" lon="17.967352159498">
        <ele>128.4</ele>
        <time>2018-03-30T11:18:51Z</time>
      </trkpt>
      <trkpt lat="62.61292291945" lon="17.967317709889">
        <ele>128.4</ele>
        <time>2018-03-30T11:18:52Z</time>
      </trkpt>
      <trkpt lat="62.612907245297" lon="17.967269513964">
        <ele>128.6</ele>
        <time>2018-03-30T11:18:53Z</time>
      </trkpt>
      <trkpt lat="62.612860725752" lon="17.967205224791">
        <ele>128.6</ele>
        <time>2018-03-30T11:18:55Z</time>
      </trkpt>
      <trkpt lat="62.61284412959" lon="17.967187119887">
        <ele>128.6</ele>
        <time>2018-03-30T11:18:56Z</time>
      </trkpt>
      <trkpt lat="62.612827617247" lon="17.967174211761">
        <ele>128.6</ele>
        <time>2018-03-30T11:18:57Z</time>
      </trkpt>
      <trkpt lat="62.61280305828" lon="17.967146467672">
        <ele>128.6</ele>
        <time>2018-03-30T11:18:58Z</time>
      </trkpt>
      <trkpt lat="62.612784115186" lon="17.967133811003">
        <ele>128.8</ele>
        <time>2018-03-30T11:18:59Z</time>
      </trkpt>
      <trkpt lat="62.612762070789" lon="17.967125596741">
        <ele>128.8</ele>
        <time>2018-03-30T11:19:00Z</time>
      </trkpt>
      <trkpt lat="62.612742038048" lon="17.967124674732">
        <ele>129</ele>
        <time>2018-03-30T11:19:01Z</time>
      </trkpt>
      <trkpt lat="62.61272678299" lon="17.967127189302">
        <ele>129</ele>
        <time>2018-03-30T11:19:02Z</time>
      </trkpt>
      <trkpt lat="62.612698116892" lon="17.967112437158">
        <ele>129.6</ele>
        <time>2018-03-30T11:19:03Z</time>
      </trkpt>
      <trkpt lat="62.612674647572" lon="17.967104893448">
        <ele>129.8</ele>
        <time>2018-03-30T11:19:04Z</time>
      </trkpt>
      <trkpt lat="62.612651764985" lon="17.967097265919">
        <ele>130</ele>
        <time>2018-03-30T11:19:05Z</time>
      </trkpt>
      <trkpt lat="62.61263206752" lon="17.967092404417">
        <ele>130.2</ele>
        <time>2018-03-30T11:19:06Z</time>
      </trkpt>
      <trkpt lat="62.612611615684" lon="17.967087207639">
        <ele>130.2</ele>
        <time>2018-03-30T11:19:07Z</time>
      </trkpt>
      <trkpt lat="62.612587727269" lon="17.967090057485">
        <ele>130.2</ele>
        <time>2018-03-30T11:19:08Z</time>
      </trkpt>
      <trkpt lat="62.612568448899" lon="17.967100115765">
        <ele>130.4</ele>
        <time>2018-03-30T11:19:09Z</time>
      </trkpt>
      <trkpt lat="62.612548332339" lon="17.967112688615">
        <ele>130.4</ele>
        <time>2018-03-30T11:19:10Z</time>
      </trkpt>
      <trkpt lat="62.612532155272" lon="17.967130290605">
        <ele>130.6</ele>
        <time>2018-03-30T11:19:11Z</time>
      </trkpt>
      <trkpt lat="62.612515223834" lon="17.967154262839">
        <ele>130.8</ele>
        <time>2018-03-30T11:19:12Z</time>
      </trkpt>
      <trkpt lat="62.612492341247" lon="17.967175469046">
        <ele>131</ele>
        <time>2018-03-30T11:19:13Z</time>
      </trkpt>
      <trkpt lat="62.612475745085" lon="17.967192568122">
        <ele>131</ele>
        <time>2018-03-30T11:19:14Z</time>
      </trkpt>
      <trkpt lat="62.612459987113" lon="17.967210840664">
        <ele>131</ele>
        <time>2018-03-30T11:19:15Z</time>
      </trkpt>
      <trkpt lat="62.612441044019" lon="17.967227353007">
        <ele>131.2</ele>
        <time>2018-03-30T11:19:16Z</time>
      </trkpt>
      <trkpt lat="62.612421346554" lon="17.967244116807">
        <ele>131.2</ele>
        <time>2018-03-30T11:19:17Z</time>
      </trkpt>
      <trkpt lat="62.612405588582" lon="17.967255097096">
        <ele>131.2</ele>
        <time>2018-03-30T11:19:18Z</time>
      </trkpt>
      <trkpt lat="62.612386310212" lon="17.967265323014">
        <ele>131.4</ele>
        <time>2018-03-30T11:19:19Z</time>
      </trkpt>
      <trkpt lat="62.612367115661" lon="17.967280410434">
        <ele>131.6</ele>
        <time>2018-03-30T11:19:20Z</time>
      </trkpt>
      <trkpt lat="62.612352028241" lon="17.967294827302">
        <ele>131.8</ele>
        <time>2018-03-30T11:19:21Z</time>
      </trkpt>
      <trkpt lat="62.612338868658" lon="17.967306226686">
        <ele>132</ele>
        <time>2018-03-30T11:19:22Z</time>
      </trkpt>
      <trkpt lat="62.61232026084" lon="17.96731175874">
        <ele>132.2</ele>
        <time>2018-03-30T11:19:23Z</time>
      </trkpt>
      <trkpt lat="62.612307604171" lon="17.967328103445">
        <ele>132.6</ele>
        <time>2018-03-30T11:19:24Z</time>
      </trkpt>
      <trkpt lat="62.612291594742" lon="17.967343526141">
        <ele>132.8</ele>
        <time>2018-03-30T11:19:25Z</time>
      </trkpt>
      <trkpt lat="62.612275585313" lon="17.967369007117">
        <ele>133.2</ele>
        <time>2018-03-30T11:19:26Z</time>
      </trkpt>
      <trkpt lat="62.612261503721" lon="17.96740228326">
        <ele>133.4</ele>
        <time>2018-03-30T11:19:27Z</time>
      </trkpt>
      <trkpt lat="62.612239291686" lon="17.967406725667">
        <ele>133.6</ele>
        <time>2018-03-30T11:19:28Z</time>
      </trkpt>
      <trkpt lat="62.61222386899" lon="17.967425668761">
        <ele>133.8</ele>
        <time>2018-03-30T11:19:29Z</time>
      </trkpt>
      <trkpt lat="62.612206602276" lon="17.967445785321">
        <ele>134</ele>
        <time>2018-03-30T11:19:30Z</time>
      </trkpt>
      <trkpt lat="62.612185144612" lon="17.967466991528">
        <ele>134.2</ele>
        <time>2018-03-30T11:19:31Z</time>
      </trkpt>
      <trkpt lat="62.612165866242" lon="17.967491885771">
        <ele>134.2</ele>
        <time>2018-03-30T11:19:32Z</time>
      </trkpt>
      <trkpt lat="62.612140301447" lon="17.967512253788">
        <ele>134.2</ele>
        <time>2018-03-30T11:19:33Z</time>
      </trkpt>
      <trkpt lat="62.612120603982" lon="17.967537818583">
        <ele>134.4</ele>
        <time>2018-03-30T11:19:34Z</time>
      </trkpt>
      <trkpt lat="62.612099062499" lon="17.967562545188">
        <ele>134.4</ele>
        <time>2018-03-30T11:19:35Z</time>
      </trkpt>
      <trkpt lat="62.612079784129" lon="17.967586349784">
        <ele>134.6</ele>
        <time>2018-03-30T11:19:36Z</time>
      </trkpt>
      <trkpt lat="62.612060505759" lon="17.967608897095">
        <ele>134.6</ele>
        <time>2018-03-30T11:19:37Z</time>
      </trkpt>
      <trkpt lat="62.612037036439" lon="17.967639071935">
        <ele>134.8</ele>
        <time>2018-03-30T11:19:38Z</time>
      </trkpt>
      <trkpt lat="62.612019099173" lon="17.967663379445">
        <ele>134.8</ele>
        <time>2018-03-30T11:19:39Z</time>
      </trkpt>
      <trkpt lat="62.611999736984" lon="17.967687770774">
        <ele>135</ele>
        <time>2018-03-30T11:19:40Z</time>
      </trkpt>
      <trkpt lat="62.611975932388" lon="17.96771073718">
        <ele>135.2</ele>
        <time>2018-03-30T11:19:41Z</time>
      </trkpt>
      <trkpt lat="62.611954055629" lon="17.967734709414">
        <ele>135.2</ele>
        <time>2018-03-30T11:19:42Z</time>
      </trkpt>
      <trkpt lat="62.611934358164" lon="17.967762369684">
        <ele>135.2</ele>
        <time>2018-03-30T11:19:43Z</time>
      </trkpt>
      <trkpt lat="62.611913487233" lon="17.967783240615">
        <ele>135.4</ele>
        <time>2018-03-30T11:19:44Z</time>
      </trkpt>
      <trkpt lat="62.61189446032" lon="17.96780293808">
        <ele>135.4</ele>
        <time>2018-03-30T11:19:45Z</time>
      </trkpt>
      <trkpt lat="62.611875098131" lon="17.967822300269">
        <ele>135.6</ele>
        <time>2018-03-30T11:19:46Z</time>
      </trkpt>
      <trkpt lat="62.611854813933" lon="17.967838896431">
        <ele>135.8</ele>
        <time>2018-03-30T11:19:47Z</time>
      </trkpt>
      <trkpt lat="62.611833020993" lon="17.967859264448">
        <ele>136</ele>
        <time>2018-03-30T11:19:48Z</time>
      </trkpt>
      <trkpt lat="62.611812066243" lon="17.967876279705">
        <ele>136.2</ele>
        <time>2018-03-30T11:19:49Z</time>
      </trkpt>
      <trkpt lat="62.611792620235" lon="17.96789681536">
        <ele>136.4</ele>
        <time>2018-03-30T11:19:50Z</time>
      </trkpt>
      <trkpt lat="62.61177711372" lon="17.967914165893">
        <ele>136.4</ele>
        <time>2018-03-30T11:19:51Z</time>
      </trkpt>
      <trkpt lat="62.611761104291" lon="17.967928498942">
        <ele>136.6</ele>
        <time>2018-03-30T11:19:52Z</time>
      </trkpt>
      <trkpt lat="62.611738221704" lon="17.96795381228">
        <ele>136.8</ele>
        <time>2018-03-30T11:19:53Z</time>
      </trkpt>
      <trkpt lat="62.611717686049" lon="17.967974515573">
        <ele>137</ele>
        <time>2018-03-30T11:19:54Z</time>
      </trkpt>
      <trkpt lat="62.611700251697" lon="17.968000415644">
        <ele>137.2</ele>
        <time>2018-03-30T11:19:55Z</time>
      </trkpt>
      <trkpt lat="62.61168239825" lon="17.968022879136">
        <ele>137.4</ele>
        <time>2018-03-30T11:19:56Z</time>
      </trkpt>
      <trkpt lat="62.611662365509" lon="17.968038385651">
        <ele>137.4</ele>
        <time>2018-03-30T11:19:57Z</time>
      </trkpt>
      <trkpt lat="62.611645350252" lon="17.96807199707">
        <ele>137.6</ele>
        <time>2018-03-30T11:19:58Z</time>
      </trkpt>
      <trkpt lat="62.611627580624" lon="17.968093538553">
        <ele>137.6</ele>
        <time>2018-03-30T11:19:59Z</time>
      </trkpt>
      <trkpt lat="62.611612409385" lon="17.968105608489">
        <ele>137.8</ele>
        <time>2018-03-30T11:20:00Z</time>
      </trkpt>
      <trkpt lat="62.611592460463" lon="17.968117426968">
        <ele>137.8</ele>
        <time>2018-03-30T11:20:01Z</time>
      </trkpt>
      <trkpt lat="62.611572679179" lon="17.968130838008">
        <ele>138</ele>
        <time>2018-03-30T11:20:02Z</time>
      </trkpt>
      <trkpt lat="62.611545270366" lon="17.968144751962">
        <ele>138.2</ele>
        <time>2018-03-30T11:20:03Z</time>
      </trkpt>
      <trkpt lat="62.611520962856" lon="17.968151960396">
        <ele>138.6</ele>
        <time>2018-03-30T11:20:04Z</time>
      </trkpt>
      <trkpt lat="62.611500008106" lon="17.968171993137">
        <ele>138.8</ele>
        <time>2018-03-30T11:20:05Z</time>
      </trkpt>
      <trkpt lat="62.611476790243" lon="17.968193115525">
        <ele>138.8</ele>
        <time>2018-03-30T11:20:06Z</time>
      </trkpt>
      <trkpt lat="62.611456506045" lon="17.96821868032">
        <ele>139</ele>
        <time>2018-03-30T11:20:07Z</time>
      </trkpt>
      <trkpt lat="62.611434126372" lon="17.968245921495">
        <ele>139</ele>
        <time>2018-03-30T11:20:08Z</time>
      </trkpt>
      <trkpt lat="62.611411076147" lon="17.968268636444">
        <ele>139.2</ele>
        <time>2018-03-30T11:20:09Z</time>
      </trkpt>
      <trkpt lat="62.611389367026" lon="17.968291854307">
        <ele>139.2</ele>
        <time>2018-03-30T11:20:10Z</time>
      </trkpt>
      <trkpt lat="62.611365981525" lon="17.968314401618">
        <ele>139.4</ele>
        <time>2018-03-30T11:20:11Z</time>
      </trkpt>
      <trkpt lat="62.61134796044" lon="17.968341642793">
        <ele>139.4</ele>
        <time>2018-03-30T11:20:12Z</time>
      </trkpt>
      <trkpt lat="62.611329352622" lon="17.968372739642">
        <ele>139.6</ele>
        <time>2018-03-30T11:20:13Z</time>
      </trkpt>
      <trkpt lat="62.611307643501" lon="17.968399058808">
        <ele>139.6</ele>
        <time>2018-03-30T11:20:14Z</time>
      </trkpt>
      <trkpt lat="62.611285682923" lon="17.968423617775">
        <ele>139.8</ele>
        <time>2018-03-30T11:20:15Z</time>
      </trkpt>
      <trkpt lat="62.61126665601" lon="17.968454882262">
        <ele>139.8</ele>
        <time>2018-03-30T11:20:16Z</time>
      </trkpt>
      <trkpt lat="62.611244443975" lon="17.968480027962">
        <ele>140</ele>
        <time>2018-03-30T11:20:17Z</time>
      </trkpt>
      <trkpt lat="62.611218627723" lon="17.968506850042">
        <ele>140.2</ele>
        <time>2018-03-30T11:20:18Z</time>
      </trkpt>
      <trkpt lat="62.611200271362" lon="17.968536438149">
        <ele>140.2</ele>
        <time>2018-03-30T11:20:19Z</time>
      </trkpt>
      <trkpt lat="62.611189039616" lon="17.968569630473">
        <ele>140.2</ele>
        <time>2018-03-30T11:20:20Z</time>
      </trkpt>
      <trkpt lat="62.611178226965" lon="17.968613048715">
        <ele>140.4</ele>
        <time>2018-03-30T11:20:21Z</time>
      </trkpt>
      <trkpt lat="62.611165570296" lon="17.968664429762">
        <ele>140.4</ele>
        <time>2018-03-30T11:20:22Z</time>
      </trkpt>
      <trkpt lat="62.611151740161" lon="17.968723941252">
        <ele>140.4</ele>
        <time>2018-03-30T11:20:23Z</time>
      </trkpt>
      <trkpt lat="62.611133635257" lon="17.9687903259">
        <ele>140.4</ele>
        <time>2018-03-30T11:20:24Z</time>
      </trkpt>
      <trkpt lat="62.611114189249" lon="17.968868445208">
        <ele>140.4</ele>
        <time>2018-03-30T11:20:25Z</time>
      </trkpt>
      <trkpt lat="62.611098431277" lon="17.968940278091">
        <ele>140.4</ele>
        <time>2018-03-30T11:20:26Z</time>
      </trkpt>
      <trkpt lat="62.611086528979" lon="17.969006327463">
        <ele>140.2</ele>
        <time>2018-03-30T11:20:27Z</time>
      </trkpt>
      <trkpt lat="62.611084433504" lon="17.969089895006">
        <ele>139.8</ele>
        <time>2018-03-30T11:20:28Z</time>
      </trkpt>
      <trkpt lat="62.611075297233" lon="17.96917170235">
        <ele>139.4</ele>
        <time>2018-03-30T11:20:29Z</time>
      </trkpt>
      <trkpt lat="62.611061383279" lon="17.96925803592">
        <ele>139.4</ele>
        <time>2018-03-30T11:20:30Z</time>
      </trkpt>
      <trkpt lat="62.61104621204" lon="17.969350655915">
        <ele>139</ele>
        <time>2018-03-30T11:20:31Z</time>
      </trkpt>
      <trkpt lat="62.611030873163" lon="17.969441934806">
        <ele>138.8</ele>
        <time>2018-03-30T11:20:32Z</time>
      </trkpt>
      <trkpt lat="62.611017545942" lon="17.969530950584">
        <ele>138.6</ele>
        <time>2018-03-30T11:20:33Z</time>
      </trkpt>
      <trkpt lat="62.611000698323" lon="17.969624492588">
        <ele>138.4</ele>
        <time>2018-03-30T11:20:34Z</time>
      </trkpt>
      <trkpt lat="62.610984521256" lon="17.969710071787">
        <ele>138</ele>
        <time>2018-03-30T11:20:35Z</time>
      </trkpt>
      <trkpt lat="62.610965913438" lon="17.969788526371">
        <ele>137.6</ele>
        <time>2018-03-30T11:20:36Z</time>
      </trkpt>
      <trkpt lat="62.610945545421" lon="17.969864969299">
        <ele>137.4</ele>
        <time>2018-03-30T11:20:37Z</time>
      </trkpt>
      <trkpt lat="62.610921405549" lon="17.969949710308">
        <ele>137.2</ele>
        <time>2018-03-30T11:20:38Z</time>
      </trkpt>
      <trkpt lat="62.610902462455" lon="17.970009305617">
        <ele>136.8</ele>
        <time>2018-03-30T11:20:39Z</time>
      </trkpt>
      <trkpt lat="62.610881507705" lon="17.97006269832">
        <ele>136.8</ele>
        <time>2018-03-30T11:20:40Z</time>
      </trkpt>
      <trkpt lat="62.610856613462" lon="17.970122042172">
        <ele>136.6</ele>
        <time>2018-03-30T11:20:41Z</time>
      </trkpt>
      <trkpt lat="62.610832641228" lon="17.97017501578">
        <ele>136.6</ele>
        <time>2018-03-30T11:20:42Z</time>
      </trkpt>
      <trkpt lat="62.610810093917" lon="17.970227737931">
        <ele>136.6</ele>
        <time>2018-03-30T11:20:43Z</time>
      </trkpt>
      <trkpt lat="62.610783104199" lon="17.970299738452">
        <ele>136.4</ele>
        <time>2018-03-30T11:20:44Z</time>
      </trkpt>
      <trkpt lat="62.610754773377" lon="17.970375678466">
        <ele>136.4</ele>
        <time>2018-03-30T11:20:45Z</time>
      </trkpt>
      <trkpt lat="62.610725436727" lon="17.970452624308">
        <ele>136.2</ele>
        <time>2018-03-30T11:20:46Z</time>
      </trkpt>
      <trkpt lat="62.610699620475" lon="17.970515069463">
        <ele>136</ele>
        <time>2018-03-30T11:20:47Z</time>
      </trkpt>
      <trkpt lat="62.610661650468" lon="17.970595200427">
        <ele>135.6</ele>
        <time>2018-03-30T11:20:48Z</time>
      </trkpt>
      <trkpt lat="62.610630721257" lon="17.970660495428">
        <ele>135</ele>
        <time>2018-03-30T11:20:49Z</time>
      </trkpt>
      <trkpt lat="62.610593421802" lon="17.970728891732">
        <ele>134.6</ele>
        <time>2018-03-30T11:20:50Z</time>
      </trkpt>
      <trkpt lat="62.610554445967" lon="17.970798042407">
        <ele>134.2</ele>
        <time>2018-03-30T11:20:51Z</time>
      </trkpt>
      <trkpt lat="62.610521253643" lon="17.970854368775">
        <ele>133.8</ele>
        <time>2018-03-30T11:20:52Z</time>
      </trkpt>
      <trkpt lat="62.610478170677" lon="17.970908599668">
        <ele>133.4</ele>
        <time>2018-03-30T11:20:53Z</time>
      </trkpt>
      <trkpt lat="62.610439781575" lon="17.970959645439">
        <ele>133.2</ele>
        <time>2018-03-30T11:20:54Z</time>
      </trkpt>
      <trkpt lat="62.610401727749" lon="17.971010775029">
        <ele>133.2</ele>
        <time>2018-03-30T11:20:55Z</time>
      </trkpt>
      <trkpt lat="62.610363422466" lon="17.971060731153">
        <ele>133.2</ele>
        <time>2018-03-30T11:20:56Z</time>
      </trkpt>
      <trkpt lat="62.610332409436" lon="17.971094929305">
        <ele>133</ele>
        <time>2018-03-30T11:20:57Z</time>
      </trkpt>
      <trkpt lat="62.610279100552" lon="17.971173132432">
        <ele>132.8</ele>
        <time>2018-03-30T11:20:58Z</time>
      </trkpt>
      <trkpt lat="62.610226965134" lon="17.971248904808">
        <ele>132.6</ele>
        <time>2018-03-30T11:20:59Z</time>
      </trkpt>
      <trkpt lat="62.61017868539" lon="17.971325263917">
        <ele>132</ele>
        <time>2018-03-30T11:21:00Z</time>
      </trkpt>
      <trkpt lat="62.610136105338" lon="17.971393157307">
        <ele>131.4</ele>
        <time>2018-03-30T11:21:01Z</time>
      </trkpt>
      <trkpt lat="62.610101320453" lon="17.971447807295">
        <ele>131.2</ele>
        <time>2018-03-30T11:21:02Z</time>
      </trkpt>
      <trkpt lat="62.610049687949" lon="17.971509665717">
        <ele>130.6</ele>
        <time>2018-03-30T11:21:03Z</time>
      </trkpt>
      <trkpt lat="62.610008616639" lon="17.971556436719">
        <ele>130.2</ele>
        <time>2018-03-30T11:21:04Z</time>
      </trkpt>
      <trkpt lat="62.609907279468" lon="17.971588120301">
        <ele>129.6</ele>
        <time>2018-03-30T11:21:06Z</time>
      </trkpt>
      <trkpt lat="62.609867633081" lon="17.971582672066">
        <ele>129.2</ele>
        <time>2018-03-30T11:21:07Z</time>
      </trkpt>
      <trkpt lat="62.609830082169" lon="17.971557526366">
        <ele>128.8</ele>
        <time>2018-03-30T11:21:08Z</time>
      </trkpt>
      <trkpt lat="62.609803260089" lon="17.971531291019">
        <ele>128.8</ele>
        <time>2018-03-30T11:21:09Z</time>
      </trkpt>
      <trkpt lat="62.609779120217" lon="17.971505139491">
        <ele>128.8</ele>
        <time>2018-03-30T11:21:10Z</time>
      </trkpt>
      <trkpt lat="62.609751879042" lon="17.971481586352">
        <ele>128.8</ele>
        <time>2018-03-30T11:21:11Z</time>
      </trkpt>
      <trkpt lat="62.609722961487" lon="17.971465493104">
        <ele>129.2</ele>
        <time>2018-03-30T11:21:12Z</time>
      </trkpt>
      <trkpt lat="62.609694714484" lon="17.971447639657">
        <ele>129.6</ele>
        <time>2018-03-30T11:21:13Z</time>
      </trkpt>
      <trkpt lat="62.609665629291" lon="17.971436575549">
        <ele>129.6</ele>
        <time>2018-03-30T11:21:14Z</time>
      </trkpt>
      <trkpt lat="62.609631850234" lon="17.971424589432">
        <ele>129.6</ele>
        <time>2018-03-30T11:21:15Z</time>
      </trkpt>
      <trkpt lat="62.609602513584" lon="17.971414950247">
        <ele>129.8</ele>
        <time>2018-03-30T11:21:16Z</time>
      </trkpt>
      <trkpt lat="62.609580385368" lon="17.971407238899">
        <ele>130</ele>
        <time>2018-03-30T11:21:17Z</time>
      </trkpt>
      <trkpt lat="62.609543002094" lon="17.971393157307">
        <ele>130.2</ele>
        <time>2018-03-30T11:21:18Z</time>
      </trkpt>
      <trkpt lat="62.609509642132" lon="17.97138284757">
        <ele>130.2</ele>
        <time>2018-03-30T11:21:19Z</time>
      </trkpt>
      <trkpt lat="62.609480221663" lon="17.971372873109">
        <ele>130.2</ele>
        <time>2018-03-30T11:21:20Z</time>
      </trkpt>
      <trkpt lat="62.609457674352" lon="17.97136189282">
        <ele>130.4</ele>
        <time>2018-03-30T11:21:21Z</time>
      </trkpt>
      <trkpt lat="62.609440742914" lon="17.971349068513">
        <ele>130.4</ele>
        <time>2018-03-30T11:21:22Z</time>
      </trkpt>
      <trkpt lat="62.60939330136" lon="17.971343536459">
        <ele>130.4</ele>
        <time>2018-03-30T11:21:23Z</time>
      </trkpt>
      <trkpt lat="62.609356840095" lon="17.971328197582">
        <ele>130.4</ele>
        <time>2018-03-30T11:21:24Z</time>
      </trkpt>
      <trkpt lat="62.609316942251" lon="17.971316965836">
        <ele>130.2</ele>
        <time>2018-03-30T11:21:25Z</time>
      </trkpt>
      <trkpt lat="62.609272182905" lon="17.971305817909">
        <ele>130.4</ele>
        <time>2018-03-30T11:21:26Z</time>
      </trkpt>
      <trkpt lat="62.609231782147" lon="17.971293915611">
        <ele>130.4</ele>
        <time>2018-03-30T11:21:27Z</time>
      </trkpt>
      <trkpt lat="62.60919465033" lon="17.971256783794">
        <ele>130</ele>
        <time>2018-03-30T11:21:28Z</time>
      </trkpt>
      <trkpt lat="62.609146957319" lon="17.971213449371">
        <ele>130</ele>
        <time>2018-03-30T11:21:29Z</time>
      </trkpt>
      <trkpt lat="62.609098426118" lon="17.971166343093">
        <ele>129.8</ele>
        <time>2018-03-30T11:21:30Z</time>
      </trkpt>
      <trkpt lat="62.609062300129" lon="17.971108172707">
        <ele>129.8</ele>
        <time>2018-03-30T11:21:31Z</time>
      </trkpt>
      <trkpt lat="62.609039501361" lon="17.971051930158">
        <ele>129.8</ele>
        <time>2018-03-30T11:21:32Z</time>
      </trkpt>
      <trkpt lat="62.609014858575" lon="17.970970877185">
        <ele>129.8</ele>
        <time>2018-03-30T11:21:33Z</time>
      </trkpt>
      <trkpt lat="62.608996250757" lon="17.970901810329">
        <ele>129.8</ele>
        <time>2018-03-30T11:21:34Z</time>
      </trkpt>
      <trkpt lat="62.608977978215" lon="17.97083802407">
        <ele>129.8</ele>
        <time>2018-03-30T11:21:35Z</time>
      </trkpt>
      <trkpt lat="62.6089624717" lon="17.970782535892">
        <ele>129.8</ele>
        <time>2018-03-30T11:21:36Z</time>
      </trkpt>
      <trkpt lat="62.608954676533" lon="17.970729813741">
        <ele>129.8</ele>
        <time>2018-03-30T11:21:37Z</time>
      </trkpt>
      <trkpt lat="62.608940594941" lon="17.970684886757">
        <ele>130</ele>
        <time>2018-03-30T11:21:38Z</time>
      </trkpt>
      <trkpt lat="62.608917796173" lon="17.970640630325">
        <ele>130.4</ele>
        <time>2018-03-30T11:21:39Z</time>
      </trkpt>
      <trkpt lat="62.608889213894" lon="17.970592350581">
        <ele>130.6</ele>
        <time>2018-03-30T11:21:40Z</time>
      </trkpt>
      <trkpt lat="62.608862643271" lon="17.970541388629">
        <ele>130.6</ele>
        <time>2018-03-30T11:21:41Z</time>
      </trkpt>
      <trkpt lat="62.608832719888" lon="17.970502161337">
        <ele>130.8</ele>
        <time>2018-03-30T11:21:42Z</time>
      </trkpt>
      <trkpt lat="62.608803299419" lon="17.970450193557">
        <ele>130.6</ele>
        <time>2018-03-30T11:21:43Z</time>
      </trkpt>
      <trkpt lat="62.608778321357" lon="17.970386491117">
        <ele>130.6</ele>
        <time>2018-03-30T11:21:44Z</time>
      </trkpt>
      <trkpt lat="62.60875795334" lon="17.970333182233">
        <ele>130.6</ele>
        <time>2018-03-30T11:21:45Z</time>
      </trkpt>
      <trkpt lat="62.608738088237" lon="17.970276772046">
        <ele>130.6</ele>
        <time>2018-03-30T11:21:46Z</time>
      </trkpt>
      <trkpt lat="62.608720905342" lon="17.970219942764">
        <ele>130.6</ele>
        <time>2018-03-30T11:21:47Z</time>
      </trkpt>
      <trkpt lat="62.608717552582" lon="17.97016411931">
        <ele>130.6</ele>
        <time>2018-03-30T11:21:48Z</time>
      </trkpt>
      <trkpt lat="62.608711769071" lon="17.970119359964">
        <ele>130.4</ele>
        <time>2018-03-30T11:21:49Z</time>
      </trkpt>
      <trkpt lat="62.608708332492" lon="17.97007527117">
        <ele>130.6</ele>
        <time>2018-03-30T11:21:50Z</time>
      </trkpt>
      <trkpt lat="62.608707075207" lon="17.970033696946">
        <ele>130.8</ele>
        <time>2018-03-30T11:21:51Z</time>
      </trkpt>
      <trkpt lat="62.608708081035" lon="17.969995391663">
        <ele>131</ele>
        <time>2018-03-30T11:21:52Z</time>
      </trkpt>
      <trkpt lat="62.608703806266" lon="17.969946441367">
        <ele>131.4</ele>
        <time>2018-03-30T11:21:53Z</time>
      </trkpt>
      <trkpt lat="62.608704392999" lon="17.969900760012">
        <ele>131.8</ele>
        <time>2018-03-30T11:21:54Z</time>
      </trkpt>
      <trkpt lat="62.608704979732" lon="17.969853318458">
        <ele>132.4</ele>
        <time>2018-03-30T11:21:55Z</time>
      </trkpt>
      <trkpt lat="62.608704812094" lon="17.969806798913">
        <ele>132.8</ele>
        <time>2018-03-30T11:21:56Z</time>
      </trkpt>
      <trkpt lat="62.608704979732" lon="17.969764721775">
        <ele>132.8</ele>
        <time>2018-03-30T11:21:57Z</time>
      </trkpt>
      <trkpt lat="62.60870766194" lon="17.969715603841">
        <ele>133.2</ele>
        <time>2018-03-30T11:21:58Z</time>
      </trkpt>
      <trkpt lat="62.608710427967" lon="17.969675203083">
        <ele>133.4</ele>
        <time>2018-03-30T11:21:59Z</time>
      </trkpt>
      <trkpt lat="62.608711517614" lon="17.969635808153">
        <ele>133.6</ele>
        <time>2018-03-30T11:22:00Z</time>
      </trkpt>
      <trkpt lat="62.608714786555" lon="17.969597921965">
        <ele>134</ele>
        <time>2018-03-30T11:22:01Z</time>
      </trkpt>
      <trkpt lat="62.608722078808" lon="17.969566741297">
        <ele>134.2</ele>
        <time>2018-03-30T11:22:02Z</time>
      </trkpt>
      <trkpt lat="62.608724761016" lon="17.969531956412">
        <ele>134.4</ele>
        <time>2018-03-30T11:22:03Z</time>
      </trkpt>
      <trkpt lat="62.608729538699" lon="17.969489041084">
        <ele>134.6</ele>
        <time>2018-03-30T11:22:04Z</time>
      </trkpt>
      <trkpt lat="62.608739932255" lon="17.969446712489">
        <ele>134.8</ele>
        <time>2018-03-30T11:22:05Z</time>
      </trkpt>
      <trkpt lat="62.608747475965" lon="17.969406814645">
        <ele>135</ele>
        <time>2018-03-30T11:22:06Z</time>
      </trkpt>
      <trkpt lat="62.608755271132" lon="17.969368593181">
        <ele>135</ele>
        <time>2018-03-30T11:22:07Z</time>
      </trkpt>
      <trkpt lat="62.60876717343" lon="17.969331545183">
        <ele>135.4</ele>
        <time>2018-03-30T11:22:08Z</time>
      </trkpt>
      <trkpt lat="62.608779075728" lon="17.969300532153">
        <ele>135.6</ele>
        <time>2018-03-30T11:22:09Z</time>
      </trkpt>
      <trkpt lat="62.608782177031" lon="17.969262645965">
        <ele>136</ele>
        <time>2018-03-30T11:22:10Z</time>
      </trkpt>
      <trkpt lat="62.608792654406" lon="17.969233309315">
        <ele>136.2</ele>
        <time>2018-03-30T11:22:11Z</time>
      </trkpt>
      <trkpt lat="62.608801203944" lon="17.969204894674">
        <ele>136.6</ele>
        <time>2018-03-30T11:22:12Z</time>
      </trkpt>
      <trkpt lat="62.60880992112" lon="17.969176228576">
        <ele>136.8</ele>
        <time>2018-03-30T11:22:13Z</time>
      </trkpt>
      <trkpt lat="62.608818554477" lon="17.969145215546">
        <ele>137</ele>
        <time>2018-03-30T11:22:14Z</time>
      </trkpt>
      <trkpt lat="62.608827690748" lon="17.969111687946">
        <ele>137.4</ele>
        <time>2018-03-30T11:22:15Z</time>
      </trkpt>
      <trkpt lat="62.608836910838" lon="17.969079669088">
        <ele>137.6</ele>
        <time>2018-03-30T11:22:16Z</time>
      </trkpt>
      <trkpt lat="62.608845376557" lon="17.969051170628">
        <ele>137.8</ele>
        <time>2018-03-30T11:22:17Z</time>
      </trkpt>
      <trkpt lat="62.608848310222" lon="17.969013116802">
        <ele>138.2</ele>
        <time>2018-03-30T11:22:18Z</time>
      </trkpt>
      <trkpt lat="62.608851579163" lon="17.968974979157">
        <ele>138.4</ele>
        <time>2018-03-30T11:22:19Z</time>
      </trkpt>
      <trkpt lat="62.608854093733" lon="17.968936338598">
        <ele>138.6</ele>
        <time>2018-03-30T11:22:20Z</time>
      </trkpt>
      <trkpt lat="62.60885602157" lon="17.968898368591">
        <ele>139</ele>
        <time>2018-03-30T11:22:21Z</time>
      </trkpt>
      <trkpt lat="62.608858200864" lon="17.968861069136">
        <ele>139.2</ele>
        <time>2018-03-30T11:22:22Z</time>
      </trkpt>
      <trkpt lat="62.608857362674" lon="17.968810526279">
        <ele>139.4</ele>
        <time>2018-03-30T11:22:23Z</time>
      </trkpt>
      <trkpt lat="62.608857195036" lon="17.968766353666">
        <ele>139.4</ele>
        <time>2018-03-30T11:22:24Z</time>
      </trkpt>
      <trkpt lat="62.608854596647" lon="17.968721929596">
        <ele>139.6</ele>
        <time>2018-03-30T11:22:25Z</time>
      </trkpt>
      <trkpt lat="62.608851243887" lon="17.968676583517">
        <ele>139.6</ele>
        <time>2018-03-30T11:22:26Z</time>
      </trkpt>
      <trkpt lat="62.608848896955" lon="17.968634087284">
        <ele>139.6</ele>
        <time>2018-03-30T11:22:27Z</time>
      </trkpt>
      <trkpt lat="62.60884261053" lon="17.968596284915">
        <ele>139.8</ele>
        <time>2018-03-30T11:22:28Z</time>
      </trkpt>
      <trkpt lat="62.608835234458" lon="17.968548591904">
        <ele>140</ele>
        <time>2018-03-30T11:22:29Z</time>
      </trkpt>
      <trkpt lat="62.608826852558" lon="17.968505928033">
        <ele>140</ele>
        <time>2018-03-30T11:22:30Z</time>
      </trkpt>
      <trkpt lat="62.608821823418" lon="17.968459324669">
        <ele>140</ele>
        <time>2018-03-30T11:22:31Z</time>
      </trkpt>
      <trkpt lat="62.608819057391" lon="17.968414313866">
        <ele>140</ele>
        <time>2018-03-30T11:22:32Z</time>
      </trkpt>
      <trkpt lat="62.608815453174" lon="17.968382797922">
        <ele>140.4</ele>
        <time>2018-03-30T11:22:33Z</time>
      </trkpt>
      <trkpt lat="62.608810088758" lon="17.968340888422">
        <ele>140.6</ele>
        <time>2018-03-30T11:22:34Z</time>
      </trkpt>
      <trkpt lat="62.608802964143" lon="17.968305516804">
        <ele>140.8</ele>
        <time>2018-03-30T11:22:35Z</time>
      </trkpt>
      <trkpt lat="62.608796174804" lon="17.968268804082">
        <ele>141</ele>
        <time>2018-03-30T11:22:36Z</time>
      </trkpt>
      <trkpt lat="62.608792151492" lon="17.968229409152">
        <ele>141.2</ele>
        <time>2018-03-30T11:22:37Z</time>
      </trkpt>
      <trkpt lat="62.608788044361" lon="17.968187415833">
        <ele>141.4</ele>
        <time>2018-03-30T11:22:38Z</time>
      </trkpt>
      <trkpt lat="62.608783685773" lon="17.968150870749">
        <ele>141.6</ele>
        <time>2018-03-30T11:22:39Z</time>
      </trkpt>
      <trkpt lat="62.608782763764" lon="17.968098567693">
        <ele>141.8</ele>
        <time>2018-03-30T11:22:40Z</time>
      </trkpt>
      <trkpt lat="62.60877890809" lon="17.968048276293">
        <ele>141.8</ele>
        <time>2018-03-30T11:22:41Z</time>
      </trkpt>
      <trkpt lat="62.608774549502" lon="17.967997901074">
        <ele>142</ele>
        <time>2018-03-30T11:22:42Z</time>
      </trkpt>
      <trkpt lat="62.608771029104" lon="17.967944843647">
        <ele>142</ele>
        <time>2018-03-30T11:22:43Z</time>
      </trkpt>
      <trkpt lat="62.60876465886" lon="17.967891367125">
        <ele>142.2</ele>
        <time>2018-03-30T11:22:44Z</time>
      </trkpt>
      <trkpt lat="62.608758623892" lon="17.967845099037">
        <ele>142.2</ele>
        <time>2018-03-30T11:22:45Z</time>
      </trkpt>
      <trkpt lat="62.608749906716" lon="17.967794807637">
        <ele>142.2</ele>
        <time>2018-03-30T11:22:46Z</time>
      </trkpt>
      <trkpt lat="62.608738423513" lon="17.967747952816">
        <ele>142.2</ele>
        <time>2018-03-30T11:22:47Z</time>
      </trkpt>
      <trkpt lat="62.608732640002" lon="17.967698583425">
        <ele>142.2</ele>
        <time>2018-03-30T11:22:48Z</time>
      </trkpt>
      <trkpt lat="62.608723922826" lon="17.967653404984">
        <ele>142.2</ele>
        <time>2018-03-30T11:22:49Z</time>
      </trkpt>
      <trkpt lat="62.608714702736" lon="17.967613004226">
        <ele>142.2</ele>
        <time>2018-03-30T11:22:50Z</time>
      </trkpt>
      <trkpt lat="62.608708919225" lon="17.967570927088">
        <ele>142.4</ele>
        <time>2018-03-30T11:22:51Z</time>
      </trkpt>
      <trkpt lat="62.608704057723" lon="17.96752717357">
        <ele>142.4</ele>
        <time>2018-03-30T11:22:52Z</time>
      </trkpt>
      <trkpt lat="62.608691317235" lon="17.967489790296">
        <ele>142.6</ele>
        <time>2018-03-30T11:22:53Z</time>
      </trkpt>
      <trkpt lat="62.608678073833" lon="17.967441845828">
        <ele>142.8</ele>
        <time>2018-03-30T11:22:54Z</time>
      </trkpt>
      <trkpt lat="62.608673128512" lon="17.967399601052">
        <ele>143.2</ele>
        <time>2018-03-30T11:22:55Z</time>
      </trkpt>
      <trkpt lat="62.608663321689" lon="17.967356266629">
        <ele>143.4</ele>
        <time>2018-03-30T11:22:56Z</time>
      </trkpt>
      <trkpt lat="62.608653263409" lon="17.967311088188">
        <ele>143.6</ele>
        <time>2018-03-30T11:22:57Z</time>
      </trkpt>
      <trkpt lat="62.608644210957" lon="17.967280410434">
        <ele>143.8</ele>
        <time>2018-03-30T11:22:58Z</time>
      </trkpt>
      <trkpt lat="62.608634404134" lon="17.967243781531">
        <ele>143.8</ele>
        <time>2018-03-30T11:22:59Z</time>
      </trkpt>
      <trkpt lat="62.608625603139" lon="17.967208745189">
        <ele>144.2</ele>
        <time>2018-03-30T11:23:00Z</time>
      </trkpt>
      <trkpt lat="62.608618143248" lon="17.967171278096">
        <ele>144.4</ele>
        <time>2018-03-30T11:23:01Z</time>
      </trkpt>
      <trkpt lat="62.60860707914" lon="17.967129452415">
        <ele>144.4</ele>
        <time>2018-03-30T11:23:02Z</time>
      </trkpt>
      <trkpt lat="62.608592243177" lon="17.967093577883">
        <ele>144.6</ele>
        <time>2018-03-30T11:23:03Z</time>
      </trkpt>
      <trkpt lat="62.60857774249" lon="17.967054769686">
        <ele>144.8</ele>
        <time>2018-03-30T11:23:04Z</time>
      </trkpt>
      <trkpt lat="62.608560894871" lon="17.96700581939">
        <ele>144.8</ele>
        <time>2018-03-30T11:23:05Z</time>
      </trkpt>
      <trkpt lat="62.608546813279" lon="17.966965921546">
        <ele>145</ele>
        <time>2018-03-30T11:23:06Z</time>
      </trkpt>
      <trkpt lat="62.608537090275" lon="17.966932980679">
        <ele>145</ele>
        <time>2018-03-30T11:23:07Z</time>
      </trkpt>
      <trkpt lat="62.608524265968" lon="17.966869362058">
        <ele>145.2</ele>
        <time>2018-03-30T11:23:08Z</time>
      </trkpt>
      <trkpt lat="62.608512196032" lon="17.966820244124">
        <ele>145.4</ele>
        <time>2018-03-30T11:23:09Z</time>
      </trkpt>
      <trkpt lat="62.608505239055" lon="17.96676693524">
        <ele>145.4</ele>
        <time>2018-03-30T11:23:10Z</time>
      </trkpt>
      <trkpt lat="62.608496018965" lon="17.966717314392">
        <ele>145.4</ele>
        <time>2018-03-30T11:23:11Z</time>
      </trkpt>
      <trkpt lat="62.608487050332" lon="17.966675404892">
        <ele>145.4</ele>
        <time>2018-03-30T11:23:12Z</time>
      </trkpt>
      <trkpt lat="62.60848805616" lon="17.966621341637">
        <ele>145.6</ele>
        <time>2018-03-30T11:23:13Z</time>
      </trkpt>
      <trkpt lat="62.608486882694" lon="17.966572726617">
        <ele>145.8</ele>
        <time>2018-03-30T11:23:14Z</time>
      </trkpt>
      <trkpt lat="62.608487720884" lon="17.966529559832">
        <ele>146</ele>
        <time>2018-03-30T11:23:15Z</time>
      </trkpt>
      <trkpt lat="62.608488978169" lon="17.966491086911">
        <ele>146</ele>
        <time>2018-03-30T11:23:16Z</time>
      </trkpt>
      <trkpt lat="62.608492833843" lon="17.966448171583">
        <ele>146.4</ele>
        <time>2018-03-30T11:23:17Z</time>
      </trkpt>
      <trkpt lat="62.608494929318" lon="17.966411458861">
        <ele>146.6</ele>
        <time>2018-03-30T11:23:18Z</time>
      </trkpt>
      <trkpt lat="62.608497779164" lon="17.966371225741">
        <ele>147.2</ele>
        <time>2018-03-30T11:23:19Z</time>
      </trkpt>
      <trkpt lat="62.608504317046" lon="17.966325628205">
        <ele>147.4</ele>
        <time>2018-03-30T11:23:20Z</time>
      </trkpt>
      <trkpt lat="62.608510184376" lon="17.966279443936">
        <ele>147.8</ele>
        <time>2018-03-30T11:23:21Z</time>
      </trkpt>
      <trkpt lat="62.608517644267" lon="17.966234516952">
        <ele>147.8</ele>
        <time>2018-03-30T11:23:22Z</time>
      </trkpt>
      <trkpt lat="62.608527367271" lon="17.966193780918">
        <ele>148</ele>
        <time>2018-03-30T11:23:23Z</time>
      </trkpt>
      <trkpt lat="62.608532396411" lon="17.966165617734">
        <ele>148</ele>
        <time>2018-03-30T11:23:24Z</time>
      </trkpt>
      <trkpt lat="62.608544131071" lon="17.96612823446">
        <ele>148.2</ele>
        <time>2018-03-30T11:23:25Z</time>
      </trkpt>
      <trkpt lat="62.608558296482" lon="17.966102082932">
        <ele>148.6</ele>
        <time>2018-03-30T11:23:26Z</time>
      </trkpt>
      <trkpt lat="62.608574808825" lon="17.96607878125">
        <ele>148.6</ele>
        <time>2018-03-30T11:23:27Z</time>
      </trkpt>
      <trkpt lat="62.608588303684" lon="17.966053970826">
        <ele>148.8</ele>
        <time>2018-03-30T11:23:28Z</time>
      </trkpt>
      <trkpt lat="62.608605235122" lon="17.966028992764">
        <ele>149</ele>
        <time>2018-03-30T11:23:29Z</time>
      </trkpt>
      <trkpt lat="62.608625100225" lon="17.96601004967">
        <ele>149.2</ele>
        <time>2018-03-30T11:23:30Z</time>
      </trkpt>
      <trkpt lat="62.608640942016" lon="17.965995465164">
        <ele>149.2</ele>
        <time>2018-03-30T11:23:31Z</time>
      </trkpt>
      <trkpt lat="62.608653933961" lon="17.96598155121">
        <ele>149.2</ele>
        <time>2018-03-30T11:23:32Z</time>
      </trkpt>
      <trkpt lat="62.608666758268" lon="17.965971912025">
        <ele>149.4</ele>
        <time>2018-03-30T11:23:33Z</time>
      </trkpt>
      <trkpt lat="62.608680085489" lon="17.965967553437">
        <ele>149.6</ele>
        <time>2018-03-30T11:23:34Z</time>
      </trkpt>
      <trkpt lat="62.608693161253" lon="17.965961350831">
        <ele>149.8</ele>
        <time>2018-03-30T11:23:35Z</time>
      </trkpt>
      <trkpt lat="62.608709841234" lon="17.965956824605">
        <ele>150.2</ele>
        <time>2018-03-30T11:23:36Z</time>
      </trkpt>
      <trkpt lat="62.608729371061" lon="17.965956321691">
        <ele>150.6</ele>
        <time>2018-03-30T11:23:37Z</time>
      </trkpt>
      <trkpt lat="62.608743536472" lon="17.965948358886">
        <ele>151.2</ele>
        <time>2018-03-30T11:23:38Z</time>
      </trkpt>
      <trkpt lat="62.608766502878" lon="17.96594718542">
        <ele>151.6</ele>
        <time>2018-03-30T11:23:39Z</time>
      </trkpt>
      <trkpt lat="62.608785362153" lon="17.965941485728">
        <ele>152</ele>
        <time>2018-03-30T11:23:40Z</time>
      </trkpt>
      <trkpt lat="62.608805227256" lon="17.96594383266">
        <ele>152.2</ele>
        <time>2018-03-30T11:23:41Z</time>
      </trkpt>
      <trkpt lat="62.608822242513" lon="17.965950705818">
        <ele>152.4</ele>
        <time>2018-03-30T11:23:42Z</time>
      </trkpt>
      <trkpt lat="62.608841856159" lon="17.965955148225">
        <ele>152.4</ele>
        <time>2018-03-30T11:23:43Z</time>
      </trkpt>
      <trkpt lat="62.608860799253" lon="17.965966799066">
        <ele>152.6</ele>
        <time>2018-03-30T11:23:44Z</time>
      </trkpt>
      <trkpt lat="62.608882592193" lon="17.965976773527">
        <ele>152.6</ele>
        <time>2018-03-30T11:23:45Z</time>
      </trkpt>
      <trkpt lat="62.608907486436" lon="17.965988843463">
        <ele>152.6</ele>
        <time>2018-03-30T11:23:46Z</time>
      </trkpt>
      <trkpt lat="62.608932213041" lon="17.966008205652">
        <ele>152.6</ele>
        <time>2018-03-30T11:23:47Z</time>
      </trkpt>
      <trkpt lat="62.608956352913" lon="17.966016000819">
        <ele>152.8</ele>
        <time>2018-03-30T11:23:48Z</time>
      </trkpt>
      <trkpt lat="62.608979906052" lon="17.966021365235">
        <ele>152.8</ele>
        <time>2018-03-30T11:23:49Z</time>
      </trkpt>
      <trkpt lat="62.609003123915" lon="17.966027735479">
        <ele>152.8</ele>
        <time>2018-03-30T11:23:50Z</time>
      </trkpt>
      <trkpt lat="62.609021647914" lon="17.96603351899">
        <ele>152.8</ele>
        <time>2018-03-30T11:23:51Z</time>
      </trkpt>
      <trkpt lat="62.609037405886" lon="17.966039973053">
        <ele>152.8</ele>
        <time>2018-03-30T11:23:52Z</time>
      </trkpt>
      <trkpt lat="62.609055762247" lon="17.966043661089">
        <ele>153</ele>
        <time>2018-03-30T11:23:53Z</time>
      </trkpt>
      <trkpt lat="62.609073196599" lon="17.966044331641">
        <ele>153</ele>
        <time>2018-03-30T11:23:54Z</time>
      </trkpt>
      <trkpt lat="62.609091385322" lon="17.966044499279">
        <ele>153.2</ele>
        <time>2018-03-30T11:23:55Z</time>
      </trkpt>
      <trkpt lat="62.609110747511" lon="17.966049193143">
        <ele>153.4</ele>
        <time>2018-03-30T11:23:56Z</time>
      </trkpt>
      <trkpt lat="62.609130277338" lon="17.966056736853">
        <ele>153.6</ele>
        <time>2018-03-30T11:23:57Z</time>
      </trkpt>
      <trkpt lat="62.609151735002" lon="17.966053970826">
        <ele>153.8</ele>
        <time>2018-03-30T11:23:58Z</time>
      </trkpt>
      <trkpt lat="62.609170929553" lon="17.966059167604">
        <ele>154.2</ele>
        <time>2018-03-30T11:23:59Z</time>
      </trkpt>
      <trkpt lat="62.609189872647" lon="17.966062352726">
        <ele>154.6</ele>
        <time>2018-03-30T11:24:00Z</time>
      </trkpt>
      <trkpt lat="62.609210743578" lon="17.966068303875">
        <ele>154.8</ele>
        <time>2018-03-30T11:24:01Z</time>
      </trkpt>
      <trkpt lat="62.609230860138" lon="17.966078445974">
        <ele>155</ele>
        <time>2018-03-30T11:24:02Z</time>
      </trkpt>
      <trkpt lat="62.609256508752" lon="17.966067717142">
        <ele>155.2</ele>
        <time>2018-03-30T11:24:03Z</time>
      </trkpt>
      <trkpt lat="62.609284420479" lon="17.966071656635">
        <ele>155.4</ele>
        <time>2018-03-30T11:24:04Z</time>
      </trkpt>
      <trkpt lat="62.609310655826" lon="17.966071069902">
        <ele>155.6</ele>
        <time>2018-03-30T11:24:05Z</time>
      </trkpt>
      <trkpt lat="62.60933630444" lon="17.966074422662">
        <ele>155.6</ele>
        <time>2018-03-30T11:24:06Z</time>
      </trkpt>
      <trkpt lat="62.609358181199" lon="17.966082804562">
        <ele>155.6</ele>
        <time>2018-03-30T11:24:07Z</time>
      </trkpt>
      <trkpt lat="62.609388691315" lon="17.966085989684">
        <ele>155.8</ele>
        <time>2018-03-30T11:24:08Z</time>
      </trkpt>
      <trkpt lat="62.609414507567" lon="17.966100741828">
        <ele>155.8</ele>
        <time>2018-03-30T11:24:09Z</time>
      </trkpt>
      <trkpt lat="62.609440826733" lon="17.966119433465">
        <ele>156</ele>
        <time>2018-03-30T11:24:10Z</time>
      </trkpt>
      <trkpt lat="62.609459350732" lon="17.966134604704">
        <ele>156</ele>
        <time>2018-03-30T11:24:11Z</time>
      </trkpt>
      <trkpt lat="62.609474773428" lon="17.966143154242">
        <ele>156.2</ele>
        <time>2018-03-30T11:24:12Z</time>
      </trkpt>
      <trkpt lat="62.60948047312" lon="17.9661500274">
        <ele>156.2</ele>
        <time>2018-03-30T11:24:13Z</time>
      </trkpt>
      <trkpt lat="62.609501763146" lon="17.966151033228">
        <ele>156.4</ele>
        <time>2018-03-30T11:24:14Z</time>
      </trkpt>
      <trkpt lat="62.609521209154" lon="17.966151955237">
        <ele>156.4</ele>
        <time>2018-03-30T11:24:15Z</time>
      </trkpt>
      <trkpt lat="62.609549791433" lon="17.966165617734">
        <ele>156.6</ele>
        <time>2018-03-30T11:24:16Z</time>
      </trkpt>
      <trkpt lat="62.609571332916" lon="17.966178944955">
        <ele>156.8</ele>
        <time>2018-03-30T11:24:17Z</time>
      </trkpt>
      <trkpt lat="62.609594550779" lon="17.966169389589">
        <ele>157</ele>
        <time>2018-03-30T11:24:18Z</time>
      </trkpt>
      <trkpt lat="62.609620786126" lon="17.966176514204">
        <ele>157.2</ele>
        <time>2018-03-30T11:24:19Z</time>
      </trkpt>
      <trkpt lat="62.609653224079" lon="17.96617936405">
        <ele>157.6</ele>
        <time>2018-03-30T11:24:20Z</time>
      </trkpt>
      <trkpt lat="62.609693876294" lon="17.96618774595">
        <ele>157.8</ele>
        <time>2018-03-30T11:24:21Z</time>
      </trkpt>
      <trkpt lat="62.609733103586" lon="17.966202917189">
        <ele>158</ele>
        <time>2018-03-30T11:24:22Z</time>
      </trkpt>
      <trkpt lat="62.60976294315" lon="17.966186321027">
        <ele>157.8</ele>
        <time>2018-03-30T11:24:23Z</time>
      </trkpt>
      <trkpt lat="62.609789094678" lon="17.966185315199">
        <ele>157.8</ele>
        <time>2018-03-30T11:24:24Z</time>
      </trkpt>
      <trkpt lat="62.609800242605" lon="17.966185063742">
        <ele>157.8</ele>
        <time>2018-03-30T11:24:25Z</time>
      </trkpt>
      <trkpt lat="62.609818934242" lon="17.966181543344">
        <ele>158</ele>
        <time>2018-03-30T11:24:26Z</time>
      </trkpt>
      <trkpt lat="62.609839888992" lon="17.966176262747">
        <ele>158.2</ele>
        <time>2018-03-30T11:24:27Z</time>
      </trkpt>
      <trkpt lat="62.609868303633" lon="17.966173077625">
        <ele>158.8</ele>
        <time>2018-03-30T11:24:28Z</time>
      </trkpt>
      <trkpt lat="62.60989621536" lon="17.966163019345">
        <ele>159</ele>
        <time>2018-03-30T11:24:29Z</time>
      </trkpt>
      <trkpt lat="62.609928988589" lon="17.966153128703">
        <ele>159.2</ele>
        <time>2018-03-30T11:24:30Z</time>
      </trkpt>
      <trkpt lat="62.609964024931" lon="17.96615589473">
        <ele>159.6</ele>
        <time>2018-03-30T11:24:31Z</time>
      </trkpt>
      <trkpt lat="62.609995373237" lon="17.966156481463">
        <ele>159.6</ele>
        <time>2018-03-30T11:24:32Z</time>
      </trkpt>
      <trkpt lat="62.610024793706" lon="17.966163606078">
        <ele>159.4</ele>
        <time>2018-03-30T11:24:33Z</time>
      </trkpt>
      <trkpt lat="62.610049268854" lon="17.966177603851">
        <ele>159.6</ele>
        <time>2018-03-30T11:24:34Z</time>
      </trkpt>
      <trkpt lat="62.610071816165" lon="17.966190176701">
        <ele>159.6</ele>
        <time>2018-03-30T11:24:35Z</time>
      </trkpt>
      <trkpt lat="62.61009319001" lon="17.966201240809">
        <ele>159.6</ele>
        <time>2018-03-30T11:24:36Z</time>
      </trkpt>
      <trkpt lat="62.610113977122" lon="17.966211466727">
        <ele>159.6</ele>
        <time>2018-03-30T11:24:37Z</time>
      </trkpt>
      <trkpt lat="62.610151695672" lon="17.966227643794">
        <ele>159.8</ele>
        <time>2018-03-30T11:24:38Z</time>
      </trkpt>
      <trkpt lat="62.610183295435" lon="17.966234768409">
        <ele>160</ele>
        <time>2018-03-30T11:24:39Z</time>
      </trkpt>
      <trkpt lat="62.610212883542" lon="17.96622294993">
        <ele>160</ele>
        <time>2018-03-30T11:24:40Z</time>
      </trkpt>
      <trkpt lat="62.610242974563" lon="17.966199732067">
        <ele>160.2</ele>
        <time>2018-03-30T11:24:41Z</time>
      </trkpt>
      <trkpt lat="62.610270718652" lon="17.966170563055">
        <ele>160.2</ele>
        <time>2018-03-30T11:24:42Z</time>
      </trkpt>
      <trkpt lat="62.610285051701" lon="17.966107782624">
        <ele>160.6</ele>
        <time>2018-03-30T11:24:43Z</time>
      </trkpt>
      <trkpt lat="62.610297205456" lon="17.966051288618">
        <ele>160.6</ele>
        <time>2018-03-30T11:24:44Z</time>
      </trkpt>
      <trkpt lat="62.610307431374" lon="17.965989346377">
        <ele>160.6</ele>
        <time>2018-03-30T11:24:45Z</time>
      </trkpt>
      <trkpt lat="62.610307682831" lon="17.965915920933">
        <ele>160.6</ele>
        <time>2018-03-30T11:24:46Z</time>
      </trkpt>
      <trkpt lat="62.610314555989" lon="17.965843417498">
        <ele>160.6</ele>
        <time>2018-03-30T11:24:47Z</time>
      </trkpt>
      <trkpt lat="62.610316232369" lon="17.965767309846">
        <ele>160.4</ele>
        <time>2018-03-30T11:24:48Z</time>
      </trkpt>
      <trkpt lat="62.610319836586" lon="17.96567645005">
        <ele>160</ele>
        <time>2018-03-30T11:24:49Z</time>
      </trkpt>
      <trkpt lat="62.61032369226" lon="17.965580980209">
        <ele>160</ele>
        <time>2018-03-30T11:24:50Z</time>
      </trkpt>
      <trkpt lat="62.61032369226" lon="17.965490455689">
        <ele>159.8</ele>
        <time>2018-03-30T11:24:51Z</time>
      </trkpt>
      <trkpt lat="62.610319249853" lon="17.965401775187">
        <ele>159.6</ele>
        <time>2018-03-30T11:24:52Z</time>
      </trkpt>
      <trkpt lat="62.610321093871" lon="17.965303623138">
        <ele>159.2</ele>
        <time>2018-03-30T11:24:53Z</time>
      </trkpt>
      <trkpt lat="62.610319585129" lon="17.965213098618">
        <ele>159.2</ele>
        <time>2018-03-30T11:24:54Z</time>
      </trkpt>
      <trkpt lat="62.610307263736" lon="17.965144367038">
        <ele>158.6</ele>
        <time>2018-03-30T11:24:55Z</time>
      </trkpt>
      <trkpt lat="62.610309107754" lon="17.965053591061">
        <ele>158.6</ele>
        <time>2018-03-30T11:24:56Z</time>
      </trkpt>
      <trkpt lat="62.610309275392" lon="17.964964994378">
        <ele>158.4</ele>
        <time>2018-03-30T11:24:57Z</time>
      </trkpt>
      <trkpt lat="62.610307263736" lon="17.964920654127">
        <ele>158.4</ele>
        <time>2018-03-30T11:24:58Z</time>
      </trkpt>
      <trkpt lat="62.610310867953" lon="17.96486675851">
        <ele>158.2</ele>
        <time>2018-03-30T11:24:59Z</time>
      </trkpt>
      <trkpt lat="62.610316735283" lon="17.964819652232">
        <ele>158.2</ele>
        <time>2018-03-30T11:25:00Z</time>
      </trkpt>
      <trkpt lat="62.610321512966" lon="17.964774306153">
        <ele>158.2</ele>
        <time>2018-03-30T11:25:01Z</time>
      </trkpt>
      <trkpt lat="62.610325117183" lon="17.964730636454">
        <ele>158.4</ele>
        <time>2018-03-30T11:25:02Z</time>
      </trkpt>
      <trkpt lat="62.610324195174" lon="17.964651930413">
        <ele>158.6</ele>
        <time>2018-03-30T11:25:03Z</time>
      </trkpt>
      <trkpt lat="62.610324698088" lon="17.96458093572">
        <ele>158.6</ele>
        <time>2018-03-30T11:25:04Z</time>
      </trkpt>
      <trkpt lat="62.610312041419" lon="17.964495524159">
        <ele>159</ele>
        <time>2018-03-30T11:25:05Z</time>
      </trkpt>
      <trkpt lat="62.610301983139" lon="17.964407514209">
        <ele>159.2</ele>
        <time>2018-03-30T11:25:06Z</time>
      </trkpt>
      <trkpt lat="62.610292595411" lon="17.964321264458">
        <ele>159.2</ele>
        <time>2018-03-30T11:25:07Z</time>
      </trkpt>
      <trkpt lat="62.610266108607" lon="17.96427164361">
        <ele>159</ele>
        <time>2018-03-30T11:25:08Z</time>
      </trkpt>
      <trkpt lat="62.610247919884" lon="17.96422554316">
        <ele>158.8</ele>
        <time>2018-03-30T11:25:09Z</time>
      </trkpt>
      <trkpt lat="62.610216068664" lon="17.964163181824">
        <ele>158.4</ele>
        <time>2018-03-30T11:25:10Z</time>
      </trkpt>
      <trkpt lat="62.610193521353" lon="17.964110962587">
        <ele>158.2</ele>
        <time>2018-03-30T11:25:11Z</time>
      </trkpt>
      <trkpt lat="62.610175835544" lon="17.964060838825">
        <ele>158.2</ele>
        <time>2018-03-30T11:25:12Z</time>
      </trkpt>
      <trkpt lat="62.61016611254" lon="17.963991185236">
        <ele>158.2</ele>
        <time>2018-03-30T11:25:13Z</time>
      </trkpt>
      <trkpt lat="62.610151779491" lon="17.9639372058">
        <ele>158.4</ele>
        <time>2018-03-30T11:25:14Z</time>
      </trkpt>
      <trkpt lat="62.610138871365" lon="17.963890937712">
        <ele>158.4</ele>
        <time>2018-03-30T11:25:15Z</time>
      </trkpt>
      <trkpt lat="62.610125711782" lon="17.963840897769">
        <ele>158.4</ele>
        <time>2018-03-30T11:25:16Z</time>
      </trkpt>
      <trkpt lat="62.61011330657" lon="17.963792618025">
        <ele>158.4</ele>
        <time>2018-03-30T11:25:17Z</time>
      </trkpt>
      <trkpt lat="62.610110456724" lon="17.963756575855">
        <ele>158.4</ele>
        <time>2018-03-30T11:25:18Z</time>
      </trkpt>
      <trkpt lat="62.610099811711" lon="17.963714163441">
        <ele>158.6</ele>
        <time>2018-03-30T11:25:19Z</time>
      </trkpt>
      <trkpt lat="62.610092016544" lon="17.963673595045">
        <ele>158.8</ele>
        <time>2018-03-30T11:25:20Z</time>
      </trkpt>
      <trkpt lat="62.610085981576" lon="17.963637636694">
        <ele>158.8</ele>
        <time>2018-03-30T11:25:21Z</time>
      </trkpt>
      <trkpt lat="62.610080784798" lon="17.96360276799">
        <ele>159</ele>
        <time>2018-03-30T11:25:22Z</time>
      </trkpt>
      <trkpt lat="62.610071732346" lon="17.963538897912">
        <ele>159</ele>
        <time>2018-03-30T11:25:23Z</time>
      </trkpt>
      <trkpt lat="62.610071061794" lon="17.963513333117">
        <ele>159.2</ele>
        <time>2018-03-30T11:25:24Z</time>
      </trkpt>
      <trkpt lat="62.610061590247" lon="17.963436303456">
        <ele>159.2</ele>
        <time>2018-03-30T11:25:25Z</time>
      </trkpt>
      <trkpt lat="62.610055722917" lon="17.963376624328">
        <ele>159.2</ele>
        <time>2018-03-30T11:25:26Z</time>
      </trkpt>
      <trkpt lat="62.610052621614" lon="17.963319040675">
        <ele>159.2</ele>
        <time>2018-03-30T11:25:27Z</time>
      </trkpt>
      <trkpt lat="62.610050693777" lon="17.9632582719">
        <ele>159.2</ele>
        <time>2018-03-30T11:25:28Z</time>
      </trkpt>
      <trkpt lat="62.610055387641" lon="17.963195323831">
        <ele>159.2</ele>
        <time>2018-03-30T11:25:29Z</time>
      </trkpt>
      <trkpt lat="62.610060752057" lon="17.963140422386">
        <ele>159.4</ele>
        <time>2018-03-30T11:25:30Z</time>
      </trkpt>
      <trkpt lat="62.610067709034" lon="17.963089292796">
        <ele>159.6</ele>
        <time>2018-03-30T11:25:31Z</time>
      </trkpt>
      <trkpt lat="62.6100772644" lon="17.963045958373">
        <ele>159.6</ele>
        <time>2018-03-30T11:25:32Z</time>
      </trkpt>
      <trkpt lat="62.610084221377" lon="17.963005473796">
        <ele>160</ele>
        <time>2018-03-30T11:25:33Z</time>
      </trkpt>
      <trkpt lat="62.610094782571" lon="17.962961720278">
        <ele>160.2</ele>
        <time>2018-03-30T11:25:34Z</time>
      </trkpt>
      <trkpt lat="62.61010911562" lon="17.962915284552">
        <ele>160.4</ele>
        <time>2018-03-30T11:25:35Z</time>
      </trkpt>
      <trkpt lat="62.610121101737" lon="17.962872033948">
        <ele>160.6</ele>
        <time>2018-03-30T11:25:36Z</time>
      </trkpt>
      <trkpt lat="62.610132836397" lon="17.962833058113">
        <ele>160.6</ele>
        <time>2018-03-30T11:25:37Z</time>
      </trkpt>
      <trkpt lat="62.610157479183" lon="17.962776731745">
        <ele>160.8</ele>
        <time>2018-03-30T11:25:38Z</time>
      </trkpt>
      <trkpt lat="62.61017281806" lon="17.962724596327">
        <ele>160.8</ele>
        <time>2018-03-30T11:25:39Z</time>
      </trkpt>
      <trkpt lat="62.61019880195" lon="17.962697858066">
        <ele>160.8</ele>
        <time>2018-03-30T11:25:40Z</time>
      </trkpt>
      <trkpt lat="62.610222355089" lon="17.96265309872">
        <ele>161</ele>
        <time>2018-03-30T11:25:41Z</time>
      </trkpt>
      <trkpt lat="62.610241884916" lon="17.96260951284">
        <ele>161</ele>
        <time>2018-03-30T11:25:42Z</time>
      </trkpt>
      <trkpt lat="62.610279184371" lon="17.962570034091">
        <ele>161</ele>
        <time>2018-03-30T11:25:43Z</time>
      </trkpt>
      <trkpt lat="62.610301731682" lon="17.962538937242">
        <ele>161</ele>
        <time>2018-03-30T11:25:44Z</time>
      </trkpt>
      <trkpt lat="62.610324111355" lon="17.96251144461">
        <ele>161.2</ele>
        <time>2018-03-30T11:25:45Z</time>
      </trkpt>
      <trkpt lat="62.610349005598" lon="17.962473474603">
        <ele>161.2</ele>
        <time>2018-03-30T11:25:46Z</time>
      </trkpt>
      <trkpt lat="62.610371888185" lon="17.962437348614">
        <ele>161.2</ele>
        <time>2018-03-30T11:25:47Z</time>
      </trkpt>
      <trkpt lat="62.610397536799" lon="17.962398708055">
        <ele>161.2</ele>
        <time>2018-03-30T11:25:48Z</time>
      </trkpt>
      <trkpt lat="62.610422682499" lon="17.962359313125">
        <ele>161.4</ele>
        <time>2018-03-30T11:25:49Z</time>
      </trkpt>
      <trkpt lat="62.610447660561" lon="17.962317738901">
        <ele>161.4</ele>
        <time>2018-03-30T11:25:50Z</time>
      </trkpt>
      <trkpt lat="62.610479427962" lon="17.962271303175">
        <ele>161.4</ele>
        <time>2018-03-30T11:25:51Z</time>
      </trkpt>
      <trkpt lat="62.610514045209" lon="17.962222688155">
        <ele>161.2</ele>
        <time>2018-03-30T11:25:52Z</time>
      </trkpt>
      <trkpt lat="62.610545644972" lon="17.962160913552">
        <ele>161</ele>
        <time>2018-03-30T11:25:53Z</time>
      </trkpt>
      <trkpt lat="62.610577412373" lon="17.96209905513">
        <ele>161</ele>
        <time>2018-03-30T11:25:54Z</time>
      </trkpt>
      <trkpt lat="62.610603312444" lon="17.962065778987">
        <ele>160.6</ele>
        <time>2018-03-30T11:25:55Z</time>
      </trkpt>
      <trkpt lat="62.610625943574" lon="17.962025797324">
        <ele>160.6</ele>
        <time>2018-03-30T11:25:56Z</time>
      </trkpt>
      <trkpt lat="62.610648239428" lon="17.961988330231">
        <ele>160.6</ele>
        <time>2018-03-30T11:25:57Z</time>
      </trkpt>
      <trkpt lat="62.610670619101" lon="17.961938457926">
        <ele>160.6</ele>
        <time>2018-03-30T11:25:58Z</time>
      </trkpt>
      <trkpt lat="62.610685622702" lon="17.961890178182">
        <ele>160.6</ele>
        <time>2018-03-30T11:25:59Z</time>
      </trkpt>
      <trkpt lat="62.610698027914" lon="17.961834941461">
        <ele>160.6</ele>
        <time>2018-03-30T11:26:00Z</time>
      </trkpt>
      <trkpt lat="62.610712277144" lon="17.961763108578">
        <ele>160.8</ele>
        <time>2018-03-30T11:26:01Z</time>
      </trkpt>
      <trkpt lat="62.610730130591" lon="17.961680882139">
        <ele>160.8</ele>
        <time>2018-03-30T11:26:02Z</time>
      </trkpt>
      <trkpt lat="62.610749408961" lon="17.961595973492">
        <ele>161</ele>
        <time>2018-03-30T11:26:03Z</time>
      </trkpt>
      <trkpt lat="62.610767765322" lon="17.961512908863">
        <ele>161</ele>
        <time>2018-03-30T11:26:04Z</time>
      </trkpt>
      <trkpt lat="62.610787378968" lon="17.961431436795">
        <ele>160.6</ele>
        <time>2018-03-30T11:26:05Z</time>
      </trkpt>
      <trkpt lat="62.610808501356" lon="17.961352060202">
        <ele>160.4</ele>
        <time>2018-03-30T11:26:06Z</time>
      </trkpt>
      <trkpt lat="62.610832892685" lon="17.961275281998">
        <ele>160.2</ele>
        <time>2018-03-30T11:26:07Z</time>
      </trkpt>
      <trkpt lat="62.610868180484" lon="17.961188864609">
        <ele>159.4</ele>
        <time>2018-03-30T11:26:08Z</time>
      </trkpt>
      <trkpt lat="62.610905060844" lon="17.961116025898">
        <ele>158.8</ele>
        <time>2018-03-30T11:26:09Z</time>
      </trkpt>
      <trkpt lat="62.610947557077" lon="17.961084677592">
        <ele>157.6</ele>
        <time>2018-03-30T11:26:10Z</time>
      </trkpt>
      <trkpt lat="62.610985107989" lon="17.961074535493">
        <ele>156.2</ele>
        <time>2018-03-30T11:26:11Z</time>
      </trkpt>
      <trkpt lat="62.611017043028" lon="17.961083336488">
        <ele>155.2</ele>
        <time>2018-03-30T11:26:12Z</time>
      </trkpt>
      <trkpt lat="62.611051827913" lon="17.96110747636">
        <ele>154.2</ele>
        <time>2018-03-30T11:26:13Z</time>
      </trkpt>
      <trkpt lat="62.611085858427" lon="17.961140836322">
        <ele>153.6</ele>
        <time>2018-03-30T11:26:14Z</time>
      </trkpt>
      <trkpt lat="62.61111997276" lon="17.961176627035">
        <ele>153</ele>
        <time>2018-03-30T11:26:15Z</time>
      </trkpt>
      <trkpt lat="62.611156350206" lon="17.961214429404">
        <ele>152.8</ele>
        <time>2018-03-30T11:26:16Z</time>
      </trkpt>
      <trkpt lat="62.611190883634" lon="17.961249298108">
        <ele>152.6</ele>
        <time>2018-03-30T11:26:17Z</time>
      </trkpt>
      <trkpt lat="62.61123145203" lon="17.961287771029">
        <ele>152.4</ele>
        <time>2018-03-30T11:26:18Z</time>
      </trkpt>
      <trkpt lat="62.61127671429" lon="17.961320879534">
        <ele>152.2</ele>
        <time>2018-03-30T11:26:19Z</time>
      </trkpt>
      <trkpt lat="62.611323317654" lon="17.96134636051">
        <ele>152</ele>
        <time>2018-03-30T11:26:20Z</time>
      </trkpt>
      <trkpt lat="62.611364472783" lon="17.9613639625">
        <ele>151.8</ele>
        <time>2018-03-30T11:26:21Z</time>
      </trkpt>
      <trkpt lat="62.611405711731" lon="17.961378966101">
        <ele>151.8</ele>
        <time>2018-03-30T11:26:22Z</time>
      </trkpt>
      <trkpt lat="62.611449549068" lon="17.96139497553">
        <ele>151.4</ele>
        <time>2018-03-30T11:26:23Z</time>
      </trkpt>
      <trkpt lat="62.611491793844" lon="17.96141173933">
        <ele>151.2</ele>
        <time>2018-03-30T11:26:24Z</time>
      </trkpt>
      <trkpt lat="62.611538061932" lon="17.96143017951">
        <ele>150.8</ele>
        <time>2018-03-30T11:26:25Z</time>
      </trkpt>
      <trkpt lat="62.611582905097" lon="17.961449625518">
        <ele>150.4</ele>
        <time>2018-03-30T11:26:26Z</time>
      </trkpt>
      <trkpt lat="62.611626323339" lon="17.961469742078">
        <ele>150</ele>
        <time>2018-03-30T11:26:27Z</time>
      </trkpt>
      <trkpt lat="62.6116698254" lon="17.961483069299">
        <ele>149.2</ele>
        <time>2018-03-30T11:26:28Z</time>
      </trkpt>
      <trkpt lat="62.611715422936" lon="17.961500503651">
        <ele>148.6</ele>
        <time>2018-03-30T11:26:29Z</time>
      </trkpt>
      <trkpt lat="62.611759595549" lon="17.961514585243">
        <ele>148.2</ele>
        <time>2018-03-30T11:26:30Z</time>
      </trkpt>
      <trkpt lat="62.611802846153" lon="17.961525146437">
        <ele>147.8</ele>
        <time>2018-03-30T11:26:31Z</time>
      </trkpt>
      <trkpt lat="62.611844755653" lon="17.961524224428">
        <ele>147.4</ele>
        <time>2018-03-30T11:26:32Z</time>
      </trkpt>
      <trkpt lat="62.611892197207" lon="17.9615232186">
        <ele>146.8</ele>
        <time>2018-03-30T11:26:33Z</time>
      </trkpt>
      <trkpt lat="62.611940141675" lon="17.961523553876">
        <ele>146.4</ele>
        <time>2018-03-30T11:26:34Z</time>
      </trkpt>
      <trkpt lat="62.611983727555" lon="17.961523302419">
        <ele>145.8</ele>
        <time>2018-03-30T11:26:35Z</time>
      </trkpt>
      <trkpt lat="62.612024798865" lon="17.961524978799">
        <ele>145.4</ele>
        <time>2018-03-30T11:26:36Z</time>
      </trkpt>
      <trkpt lat="62.612064529071" lon="17.961528583016">
        <ele>145.2</ele>
        <time>2018-03-30T11:26:37Z</time>
      </trkpt>
      <trkpt lat="62.612108869322" lon="17.961558087304">
        <ele>144.6</ele>
        <time>2018-03-30T11:26:38Z</time>
      </trkpt>
      <trkpt lat="62.612149856813" lon="17.961593207465">
        <ele>144.2</ele>
        <time>2018-03-30T11:26:39Z</time>
      </trkpt>
      <trkpt lat="62.612188748829" lon="17.961642157761">
        <ele>143.6</ele>
        <time>2018-03-30T11:26:40Z</time>
      </trkpt>
      <trkpt lat="62.612224036628" lon="17.961707452762">
        <ele>142.8</ele>
        <time>2018-03-30T11:26:41Z</time>
      </trkpt>
      <trkpt lat="62.612250858708" lon="17.961789846839">
        <ele>142.2</ele>
        <time>2018-03-30T11:26:42Z</time>
      </trkpt>
      <trkpt lat="62.612269550345" lon="17.961879030255">
        <ele>142</ele>
        <time>2018-03-30T11:26:43Z</time>
      </trkpt>
      <trkpt lat="62.612283129023" lon="17.961976847028">
        <ele>141.4</ele>
        <time>2018-03-30T11:26:44Z</time>
      </trkpt>
      <trkpt lat="62.612294360769" lon="17.962074579982">
        <ele>141.2</ele>
        <time>2018-03-30T11:26:45Z</time>
      </trkpt>
      <trkpt lat="62.612290505095" lon="17.962169379271">
        <ele>141</ele>
        <time>2018-03-30T11:26:46Z</time>
      </trkpt>
      <trkpt lat="62.612296875339" lon="17.962257975954">
        <ele>140.8</ele>
        <time>2018-03-30T11:26:47Z</time>
      </trkpt>
      <trkpt lat="62.612277345512" lon="17.962338190737">
        <ele>140.6</ele>
        <time>2018-03-30T11:26:48Z</time>
      </trkpt>
      <trkpt lat="62.612249769061" lon="17.962396193485">
        <ele>140.4</ele>
        <time>2018-03-30T11:26:49Z</time>
      </trkpt>
      <trkpt lat="62.612221019144" lon="17.962440449917">
        <ele>140.6</ele>
        <time>2018-03-30T11:26:50Z</time>
      </trkpt>
      <trkpt lat="62.612195286711" lon="17.962474228974">
        <ele>140.6</ele>
        <time>2018-03-30T11:26:51Z</time>
      </trkpt>
      <trkpt lat="62.612169889554" lon="17.962502727434">
        <ele>140.6</ele>
        <time>2018-03-30T11:26:52Z</time>
      </trkpt>
      <trkpt lat="62.612141391094" lon="17.962514378275">
        <ele>140.4</ele>
        <time>2018-03-30T11:26:53Z</time>
      </trkpt>
      <trkpt lat="62.612114149919" lon="17.962518485406">
        <ele>140.6</ele>
        <time>2018-03-30T11:26:54Z</time>
      </trkpt>
      <trkpt lat="62.612090932056" lon="17.96251479737">
        <ele>140.6</ele>
        <time>2018-03-30T11:26:55Z</time>
      </trkpt>
      <trkpt lat="62.612070731677" lon="17.962506583108">
        <ele>141</ele>
        <time>2018-03-30T11:26:56Z</time>
      </trkpt>
      <trkpt lat="62.612052542954" lon="17.962498285027">
        <ele>141.2</ele>
        <time>2018-03-30T11:26:57Z</time>
      </trkpt>
      <trkpt lat="62.612034354231" lon="17.962481102132">
        <ele>141.6</ele>
        <time>2018-03-30T11:26:58Z</time>
      </trkpt>
      <trkpt lat="62.61201599787" lon="17.962457381355">
        <ele>141.8</ele>
        <time>2018-03-30T11:26:59Z</time>
      </trkpt>
      <trkpt lat="62.611997725328" lon="17.962435588415">
        <ele>142.2</ele>
        <time>2018-03-30T11:27:00Z</time>
      </trkpt>
      <trkpt lat="62.61198163208" lon="17.962418321701">
        <ele>142.4</ele>
        <time>2018-03-30T11:27:01Z</time>
      </trkpt>
      <trkpt lat="62.611961347882" lon="17.962378256219">
        <ele>142.4</ele>
        <time>2018-03-30T11:27:02Z</time>
      </trkpt>
      <trkpt lat="62.611940476951" lon="17.962348165198">
        <ele>142.6</ele>
        <time>2018-03-30T11:27:03Z</time>
      </trkpt>
      <trkpt lat="62.611921030943" lon="17.962317235987">
        <ele>142.8</ele>
        <time>2018-03-30T11:27:04Z</time>
      </trkpt>
      <trkpt lat="62.611900746745" lon="17.962288653708">
        <ele>143</ele>
        <time>2018-03-30T11:27:05Z</time>
      </trkpt>
      <trkpt lat="62.611879121443" lon="17.96226585494">
        <ele>143.2</ele>
        <time>2018-03-30T11:27:06Z</time>
      </trkpt>
      <trkpt lat="62.611856490313" lon="17.962243894362">
        <ele>143.4</ele>
        <time>2018-03-30T11:27:07Z</time>
      </trkpt>
      <trkpt lat="62.611840313246" lon="17.962234087539">
        <ele>143.6</ele>
        <time>2018-03-30T11:27:08Z</time>
      </trkpt>
      <trkpt lat="62.61182237598" lon="17.962221933784">
        <ele>143.8</ele>
        <time>2018-03-30T11:27:09Z</time>
      </trkpt>
      <trkpt lat="62.611802175601" lon="17.962209528572">
        <ele>144.2</ele>
        <time>2018-03-30T11:27:10Z</time>
      </trkpt>
      <trkpt lat="62.611781723765" lon="17.962204834708">
        <ele>144.4</ele>
        <time>2018-03-30T11:27:11Z</time>
      </trkpt>
      <trkpt lat="62.611763535042" lon="17.962204415613">
        <ele>144.8</ele>
        <time>2018-03-30T11:27:12Z</time>
      </trkpt>
      <trkpt lat="62.611742245016" lon="17.962210115305">
        <ele>145.2</ele>
        <time>2018-03-30T11:27:13Z</time>
      </trkpt>
      <trkpt lat="62.611721625542" lon="17.962219000119">
        <ele>145.4</ele>
        <time>2018-03-30T11:27:14Z</time>
      </trkpt>
      <trkpt lat="62.611704861742" lon="17.962236266833">
        <ele>145.8</ele>
        <time>2018-03-30T11:27:15Z</time>
      </trkpt>
      <trkpt lat="62.611690025779" lon="17.962260155248">
        <ele>145.8</ele>
        <time>2018-03-30T11:27:16Z</time>
      </trkpt>
      <trkpt lat="62.611666137364" lon="17.962286977328">
        <ele>146.2</ele>
        <time>2018-03-30T11:27:17Z</time>
      </trkpt>
      <trkpt lat="62.611647781003" lon="17.962318744729">
        <ele>146.6</ele>
        <time>2018-03-30T11:27:18Z</time>
      </trkpt>
      <trkpt lat="62.611630765746" lon="17.962352859062">
        <ele>146.8</ele>
        <time>2018-03-30T11:27:19Z</time>
      </trkpt>
      <trkpt lat="62.611609140444" lon="17.962385380834">
        <ele>147</ele>
        <time>2018-03-30T11:27:20Z</time>
      </trkpt>
      <trkpt lat="62.611593466291" lon="17.962412622009">
        <ele>147.2</ele>
        <time>2018-03-30T11:27:21Z</time>
      </trkpt>
      <trkpt lat="62.611580641984" lon="17.962441288107">
        <ele>147.4</ele>
        <time>2018-03-30T11:27:22Z</time>
      </trkpt>
      <trkpt lat="62.611562369442" lon="17.962479761028">
        <ele>147.6</ele>
        <time>2018-03-30T11:27:23Z</time>
      </trkpt>
      <trkpt lat="62.611547282022" lon="17.962508594764">
        <ele>147.8</ele>
        <time>2018-03-30T11:27:24Z</time>
      </trkpt>
      <trkpt lat="62.611530518222" lon="17.962540194527">
        <ele>147.8</ele>
        <time>2018-03-30T11:27:25Z</time>
      </trkpt>
      <trkpt lat="62.611516855725" lon="17.962575314688">
        <ele>148</ele>
        <time>2018-03-30T11:27:26Z</time>
      </trkpt>
      <trkpt lat="62.611506545988" lon="17.962611440677">
        <ele>148.2</ele>
        <time>2018-03-30T11:27:27Z</time>
      </trkpt>
      <trkpt lat="62.611483831039" lon="17.962636251101">
        <ele>148.2</ele>
        <time>2018-03-30T11:27:28Z</time>
      </trkpt>
      <trkpt lat="62.611468408343" lon="17.962669694882">
        <ele>148.4</ele>
        <time>2018-03-30T11:27:29Z</time>
      </trkpt>
      <trkpt lat="62.611451979819" lon="17.962699785903">
        <ele>148.4</ele>
        <time>2018-03-30T11:27:30Z</time>
      </trkpt>
      <trkpt lat="62.611434629286" lon="17.962729122553">
        <ele>148.6</ele>
        <time>2018-03-30T11:27:31Z</time>
      </trkpt>
      <trkpt lat="62.611427169395" lon="17.962748233285">
        <ele>148.6</ele>
        <time>2018-03-30T11:27:32Z</time>
      </trkpt>
      <trkpt lat="62.61140495736" lon="17.962772205519">
        <ele>149</ele>
        <time>2018-03-30T11:27:33Z</time>
      </trkpt>
      <trkpt lat="62.611391043406" lon="17.962798776142">
        <ele>149.2</ele>
        <time>2018-03-30T11:27:34Z</time>
      </trkpt>
      <trkpt lat="62.611374111968" lon="17.962823083652">
        <ele>149.4</ele>
        <time>2018-03-30T11:27:35Z</time>
      </trkpt>
      <trkpt lat="62.611359192186" lon="17.962850324827">
        <ele>149.8</ele>
        <time>2018-03-30T11:27:36Z</time>
      </trkpt>
      <trkpt lat="62.611347792802" lon="17.962882427504">
        <ele>150</ele>
        <time>2018-03-30T11:27:37Z</time>
      </trkpt>
      <trkpt lat="62.611327424785" lon="17.962908411394">
        <ele>150.2</ele>
        <time>2018-03-30T11:27:38Z</time>
      </trkpt>
      <trkpt lat="62.611308984605" lon="17.962933976189">
        <ele>150.4</ele>
        <time>2018-03-30T11:27:39Z</time>
      </trkpt>
      <trkpt lat="62.611297333764" lon="17.962961217364">
        <ele>150.8</ele>
        <time>2018-03-30T11:27:40Z</time>
      </trkpt>
      <trkpt lat="62.611279312679" lon="17.962981753019">
        <ele>151</ele>
        <time>2018-03-30T11:27:41Z</time>
      </trkpt>
      <trkpt lat="62.611261207775" lon="17.963002288674">
        <ele>151</ele>
        <time>2018-03-30T11:27:42Z</time>
      </trkpt>
      <trkpt lat="62.61124821583" lon="17.963027266736">
        <ele>151.2</ele>
        <time>2018-03-30T11:27:43Z</time>
      </trkpt>
      <trkpt lat="62.611227847813" lon="17.963046293649">
        <ele>151.4</ele>
        <time>2018-03-30T11:27:44Z</time>
      </trkpt>
      <trkpt lat="62.611210413461" lon="17.963065823476">
        <ele>151.6</ele>
        <time>2018-03-30T11:27:45Z</time>
      </trkpt>
      <trkpt lat="62.611194739308" lon="17.963088622244">
        <ele>151.6</ele>
        <time>2018-03-30T11:27:46Z</time>
      </trkpt>
      <trkpt lat="62.611173952196" lon="17.963100021628">
        <ele>151.6</ele>
        <time>2018-03-30T11:27:47Z</time>
      </trkpt>
      <trkpt lat="62.611155595835" lon="17.963109660813">
        <ele>151.8</ele>
        <time>2018-03-30T11:27:48Z</time>
      </trkpt>
      <trkpt lat="62.611135395456" lon="17.963122149844">
        <ele>152</ele>
        <time>2018-03-30T11:27:49Z</time>
      </trkpt>
      <trkpt lat="62.611112177593" lon="17.963130783201">
        <ele>152.2</ele>
        <time>2018-03-30T11:27:50Z</time>
      </trkpt>
      <trkpt lat="62.611091809576" lon="17.963140003291">
        <ele>152.4</ele>
        <time>2018-03-30T11:27:51Z</time>
      </trkpt>
      <trkpt lat="62.611072447387" lon="17.963153162874">
        <ele>152.6</ele>
        <time>2018-03-30T11:27:52Z</time>
      </trkpt>
      <trkpt lat="62.611049145705" lon="17.963156431815">
        <ele>153</ele>
        <time>2018-03-30T11:27:53Z</time>
      </trkpt>
      <trkpt lat="62.611031292258" lon="17.963169088484">
        <ele>153.2</ele>
        <time>2018-03-30T11:27:54Z</time>
      </trkpt>
      <trkpt lat="62.611012181526" lon="17.96318199661">
        <ele>153.4</ele>
        <time>2018-03-30T11:27:55Z</time>
      </trkpt>
      <trkpt lat="62.610993154613" lon="17.963198257496">
        <ele>153.6</ele>
        <time>2018-03-30T11:27:56Z</time>
      </trkpt>
      <trkpt lat="62.610975133528" lon="17.963219212246">
        <ele>153.8</ele>
        <time>2018-03-30T11:27:57Z</time>
      </trkpt>
      <trkpt lat="62.61095987847" lon="17.963247543068">
        <ele>154.2</ele>
        <time>2018-03-30T11:27:58Z</time>
      </trkpt>
      <trkpt lat="62.610943533765" lon="17.963277047356">
        <ele>154.4</ele>
        <time>2018-03-30T11:27:59Z</time>
      </trkpt>
      <trkpt lat="62.610936828245" lon="17.96331107787">
        <ele>154.8</ele>
        <time>2018-03-30T11:28:00Z</time>
      </trkpt>
      <trkpt lat="62.610934481313" lon="17.963351478628">
        <ele>154.8</ele>
        <time>2018-03-30T11:28:01Z</time>
      </trkpt>
      <trkpt lat="62.610945713059" lon="17.963394142499">
        <ele>155</ele>
        <time>2018-03-30T11:28:02Z</time>
      </trkpt>
      <trkpt lat="62.610963734144" lon="17.963414259059">
        <ele>155.2</ele>
        <time>2018-03-30T11:28:03Z</time>
      </trkpt>
      <trkpt lat="62.610985778541" lon="17.963425658443">
        <ele>155.2</ele>
        <time>2018-03-30T11:28:04Z</time>
      </trkpt>
      <trkpt lat="62.611006481834" lon="17.963417192724">
        <ele>155.4</ele>
        <time>2018-03-30T11:28:05Z</time>
      </trkpt>
      <trkpt lat="62.611027688041" lon="17.963393388128">
        <ele>155.4</ele>
        <time>2018-03-30T11:28:06Z</time>
      </trkpt>
      <trkpt lat="62.611051995551" lon="17.963370505541">
        <ele>155.4</ele>
        <time>2018-03-30T11:28:07Z</time>
      </trkpt>
      <trkpt lat="62.611081332201" lon="17.963338067588">
        <ele>155.4</ele>
        <time>2018-03-30T11:28:08Z</time>
      </trkpt>
      <trkpt lat="62.611114273068" lon="17.963303115065">
        <ele>155.2</ele>
        <time>2018-03-30T11:28:09Z</time>
      </trkpt>
      <trkpt lat="62.611154087093" lon="17.963267911085">
        <ele>155.2</ele>
        <time>2018-03-30T11:28:10Z</time>
      </trkpt>
      <trkpt lat="62.611196331869" lon="17.963243016842">
        <ele>154.8</ele>
        <time>2018-03-30T11:28:11Z</time>
      </trkpt>
      <trkpt lat="62.611237989912" lon="17.963228348517">
        <ele>154.8</ele>
        <time>2018-03-30T11:28:12Z</time>
      </trkpt>
      <trkpt lat="62.611275289367" lon="17.963201861713">
        <ele>154.2</ele>
        <time>2018-03-30T11:28:13Z</time>
      </trkpt>
      <trkpt lat="62.6113177856" lon="17.96317948204">
        <ele>153.4</ele>
        <time>2018-03-30T11:28:14Z</time>
      </trkpt>
      <trkpt lat="62.611360365652" lon="17.963161544774">
        <ele>153.2</ele>
        <time>2018-03-30T11:28:15Z</time>
      </trkpt>
      <trkpt lat="62.61140579555" lon="17.963146960268">
        <ele>152.4</ele>
        <time>2018-03-30T11:28:16Z</time>
      </trkpt>
      <trkpt lat="62.611457847149" lon="17.963132627219">
        <ele>151.4</ele>
        <time>2018-03-30T11:28:17Z</time>
      </trkpt>
      <trkpt lat="62.611511072214" lon="17.963121479292">
        <ele>150.6</ele>
        <time>2018-03-30T11:28:18Z</time>
      </trkpt>
      <trkpt lat="62.611559435777" lon="17.963112929754">
        <ele>150</ele>
        <time>2018-03-30T11:28:19Z</time>
      </trkpt>
      <trkpt lat="62.611605368589" lon="17.963102284741">
        <ele>149</ele>
        <time>2018-03-30T11:28:20Z</time>
      </trkpt>
      <trkpt lat="62.611648619193" lon="17.963095076307">
        <ele>148.4</ele>
        <time>2018-03-30T11:28:21Z</time>
      </trkpt>
      <trkpt lat="62.611693713815" lon="17.96309231028">
        <ele>148</ele>
        <time>2018-03-30T11:28:22Z</time>
      </trkpt>
      <trkpt lat="62.611741155369" lon="17.963078647783">
        <ele>147.4</ele>
        <time>2018-03-30T11:28:23Z</time>
      </trkpt>
      <trkpt lat="62.611785830896" lon="17.963072696634">
        <ele>146.8</ele>
        <time>2018-03-30T11:28:24Z</time>
      </trkpt>
      <trkpt lat="62.61183327245" lon="17.963069343874">
        <ele>146.4</ele>
        <time>2018-03-30T11:28:25Z</time>
      </trkpt>
      <trkpt lat="62.611883647669" lon="17.963066577847">
        <ele>145.8</ele>
        <time>2018-03-30T11:28:26Z</time>
      </trkpt>
      <trkpt lat="62.611934358164" lon="17.963064147096">
        <ele>145.6</ele>
        <time>2018-03-30T11:28:27Z</time>
      </trkpt>
      <trkpt lat="62.611982554089" lon="17.963050652237">
        <ele>145</ele>
        <time>2018-03-30T11:28:28Z</time>
      </trkpt>
      <trkpt lat="62.612031755842" lon="17.963027099098">
        <ele>144.4</ele>
        <time>2018-03-30T11:28:29Z</time>
      </trkpt>
      <trkpt lat="62.612080203224" lon="17.962986614521">
        <ele>144</ele>
        <time>2018-03-30T11:28:30Z</time>
      </trkpt>
      <trkpt lat="62.612127058045" lon="17.96293053961">
        <ele>143.6</ele>
        <time>2018-03-30T11:28:31Z</time>
      </trkpt>
      <trkpt lat="62.612178439092" lon="17.962855605424">
        <ele>143.2</ele>
        <time>2018-03-30T11:28:32Z</time>
      </trkpt>
      <trkpt lat="62.612229903958" lon="17.962771534967">
        <ele>143</ele>
        <time>2018-03-30T11:28:33Z</time>
      </trkpt>
      <trkpt lat="62.612281033548" lon="17.962689392347">
        <ele>142.6</ele>
        <time>2018-03-30T11:28:34Z</time>
      </trkpt>
      <trkpt lat="62.612336102631" lon="17.96261538017">
        <ele>142.2</ele>
        <time>2018-03-30T11:28:35Z</time>
      </trkpt>
      <trkpt lat="62.6123906688" lon="17.962549498436">
        <ele>141.8</ele>
        <time>2018-03-30T11:28:36Z</time>
      </trkpt>
      <trkpt lat="62.612444480598" lon="17.962485041625">
        <ele>141.2</ele>
        <time>2018-03-30T11:28:37Z</time>
      </trkpt>
      <trkpt lat="62.612492508885" lon="17.962403066643">
        <ele>140</ele>
        <time>2018-03-30T11:28:38Z</time>
      </trkpt>
      <trkpt lat="62.612535424213" lon="17.962320169652">
        <ele>139.2</ele>
        <time>2018-03-30T11:28:39Z</time>
      </trkpt>
      <trkpt lat="62.612571969297" lon="17.962227465838">
        <ele>138.8</ele>
        <time>2018-03-30T11:28:40Z</time>
      </trkpt>
      <trkpt lat="62.612598875196" lon="17.962123111183">
        <ele>138.4</ele>
        <time>2018-03-30T11:28:41Z</time>
      </trkpt>
      <trkpt lat="62.612620249041" lon="17.962018253614">
        <ele>138.2</ele>
        <time>2018-03-30T11:28:42Z</time>
      </trkpt>
      <trkpt lat="62.612617650652" lon="17.961932674415">
        <ele>138.4</ele>
        <time>2018-03-30T11:28:43Z</time>
      </trkpt>
      <trkpt lat="62.612617399195" lon="17.961847681949">
        <ele>138.4</ele>
        <time>2018-03-30T11:28:44Z</time>
      </trkpt>
      <trkpt lat="62.612614046435" lon="17.961773418315">
        <ele>138.2</ele>
        <time>2018-03-30T11:28:45Z</time>
      </trkpt>
      <trkpt lat="62.612610693675" lon="17.961701082518">
        <ele>138.2</ele>
        <time>2018-03-30T11:28:46Z</time>
      </trkpt>
      <trkpt lat="62.612609101114" lon="17.96161374312">
        <ele>138.2</ele>
        <time>2018-03-30T11:28:47Z</time>
      </trkpt>
      <trkpt lat="62.612618069747" lon="17.961501928574">
        <ele>138</ele>
        <time>2018-03-30T11:28:48Z</time>
      </trkpt>
      <trkpt lat="62.612623266525" lon="17.961416517013">
        <ele>138</ele>
        <time>2018-03-30T11:28:49Z</time>
      </trkpt>
      <trkpt lat="62.612628295665" lon="17.961330770176">
        <ele>137.8</ele>
        <time>2018-03-30T11:28:50Z</time>
      </trkpt>
      <trkpt lat="62.612629469131" lon="17.961242173493">
        <ele>137.8</ele>
        <time>2018-03-30T11:28:51Z</time>
      </trkpt>
      <trkpt lat="62.612628128027" lon="17.961158438312">
        <ele>138</ele>
        <time>2018-03-30T11:28:52Z</time>
      </trkpt>
      <trkpt lat="62.612609017295" lon="17.961101776668">
        <ele>138</ele>
        <time>2018-03-30T11:28:53Z</time>
      </trkpt>
      <trkpt lat="62.612596192988" lon="17.961027680672">
        <ele>138.2</ele>
        <time>2018-03-30T11:28:54Z</time>
      </trkpt>
      <trkpt lat="62.612580435016" lon="17.960967247173">
        <ele>138.4</ele>
        <time>2018-03-30T11:28:55Z</time>
      </trkpt>
      <trkpt lat="62.612563503578" lon="17.96091720723">
        <ele>138.4</ele>
        <time>2018-03-30T11:28:56Z</time>
      </trkpt>
      <trkpt lat="62.612545901588" lon="17.960869765676">
        <ele>138.6</ele>
        <time>2018-03-30T11:28:57Z</time>
      </trkpt>
      <trkpt lat="62.612535340394" lon="17.96083255004">
        <ele>138.4</ele>
        <time>2018-03-30T11:28:58Z</time>
      </trkpt>
      <trkpt lat="62.61252142644" lon="17.96080153701">
        <ele>138.8</ele>
        <time>2018-03-30T11:28:59Z</time>
      </trkpt>
      <trkpt lat="62.612506506658" lon="17.960764489012">
        <ele>139.2</ele>
        <time>2018-03-30T11:29:00Z</time>
      </trkpt>
      <trkpt lat="62.6124912516" lon="17.960732302516">
        <ele>139.4</ele>
        <time>2018-03-30T11:29:01Z</time>
      </trkpt>
      <trkpt lat="62.612479852216" lon="17.960718472381">
        <ele>139.8</ele>
        <time>2018-03-30T11:29:02Z</time>
      </trkpt>
      <trkpt lat="62.612464094244" lon="17.960680586193">
        <ele>140</ele>
        <time>2018-03-30T11:29:03Z</time>
      </trkpt>
      <trkpt lat="62.612450683204" lon="17.960651836276">
        <ele>140.2</ele>
        <time>2018-03-30T11:29:04Z</time>
      </trkpt>
      <trkpt lat="62.612433751766" lon="17.960619314504">
        <ele>140.6</ele>
        <time>2018-03-30T11:29:05Z</time>
      </trkpt>
      <trkpt lat="62.612414473396" lon="17.960584864895">
        <ele>140.8</ele>
        <time>2018-03-30T11:29:06Z</time>
      </trkpt>
      <trkpt lat="62.612397290501" lon="17.960554103322">
        <ele>140.8</ele>
        <time>2018-03-30T11:29:07Z</time>
      </trkpt>
      <trkpt lat="62.612386394031" lon="17.960529544355">
        <ele>141</ele>
        <time>2018-03-30T11:29:08Z</time>
      </trkpt>
      <trkpt lat="62.612370971335" lon="17.960486461389">
        <ele>141.2</ele>
        <time>2018-03-30T11:29:09Z</time>
      </trkpt>
      <trkpt lat="62.612352782612" lon="17.960459052576">
        <ele>141.4</ele>
        <time>2018-03-30T11:29:10Z</time>
      </trkpt>
      <trkpt lat="62.612337192278" lon="17.960424938243">
        <ele>141.6</ele>
        <time>2018-03-30T11:29:11Z</time>
      </trkpt>
      <trkpt lat="62.612322859229" lon="17.960388225521">
        <ele>141.6</ele>
        <time>2018-03-30T11:29:12Z</time>
      </trkpt>
      <trkpt lat="62.612301904479" lon="17.960365426753">
        <ele>142</ele>
        <time>2018-03-30T11:29:13Z</time>
      </trkpt>
      <trkpt lat="62.612283045204" lon="17.960329803678">
        <ele>142.2</ele>
        <time>2018-03-30T11:29:14Z</time>
      </trkpt>
      <trkpt lat="62.612264521205" lon="17.960295773164">
        <ele>142.2</ele>
        <time>2018-03-30T11:29:15Z</time>
      </trkpt>
      <trkpt lat="62.612246583939" lon="17.960272722939">
        <ele>142.6</ele>
        <time>2018-03-30T11:29:16Z</time>
      </trkpt>
      <trkpt lat="62.612228730492" lon="17.960237351321">
        <ele>142.8</ele>
        <time>2018-03-30T11:29:17Z</time>
      </trkpt>
      <trkpt lat="62.612216744375" lon="17.960211283612">
        <ele>143</ele>
        <time>2018-03-30T11:29:18Z</time>
      </trkpt>
      <trkpt lat="62.612202578964" lon="17.960181946962">
        <ele>143.2</ele>
        <time>2018-03-30T11:29:19Z</time>
      </trkpt>
      <trkpt lat="62.612184222603" lon="17.960149509009">
        <ele>143.6</ele>
        <time>2018-03-30T11:29:20Z</time>
      </trkpt>
      <trkpt lat="62.612166285337" lon="17.960122519291">
        <ele>143.6</ele>
        <time>2018-03-30T11:29:21Z</time>
      </trkpt>
      <trkpt lat="62.612149940632" lon="17.960096954496">
        <ele>143.8</ele>
        <time>2018-03-30T11:29:22Z</time>
      </trkpt>
      <trkpt lat="62.612134098841" lon="17.96005470972">
        <ele>144</ele>
        <time>2018-03-30T11:29:23Z</time>
      </trkpt>
      <trkpt lat="62.612114149919" lon="17.960024199604">
        <ele>144.2</ele>
        <time>2018-03-30T11:29:24Z</time>
      </trkpt>
      <trkpt lat="62.612100235965" lon="17.959997628981">
        <ele>144.4</ele>
        <time>2018-03-30T11:29:25Z</time>
      </trkpt>
      <trkpt lat="62.612087830753" lon="17.959963430829">
        <ele>144.8</ele>
        <time>2018-03-30T11:29:26Z</time>
      </trkpt>
      <trkpt lat="62.61207634755" lon="17.959926215193">
        <ele>144.8</ele>
        <time>2018-03-30T11:29:27Z</time>
      </trkpt>
      <trkpt lat="62.612067462736" lon="17.959886904082">
        <ele>145.2</ele>
        <time>2018-03-30T11:29:28Z</time>
      </trkpt>
      <trkpt lat="62.612058913198" lon="17.959845748953">
        <ele>145.4</ele>
        <time>2018-03-30T11:29:29Z</time>
      </trkpt>
      <trkpt lat="62.612052542954" lon="17.959802079254">
        <ele>145.6</ele>
        <time>2018-03-30T11:29:30Z</time>
      </trkpt>
      <trkpt lat="62.612046340348" lon="17.959762684324">
        <ele>145.8</ele>
        <time>2018-03-30T11:29:31Z</time>
      </trkpt>
      <trkpt lat="62.612039634828" lon="17.959730581647">
        <ele>146</ele>
        <time>2018-03-30T11:29:32Z</time>
      </trkpt>
      <trkpt lat="62.61201851244" lon="17.959709878354">
        <ele>146</ele>
        <time>2018-03-30T11:29:33Z</time>
      </trkpt>
      <trkpt lat="62.611998312061" lon="17.95968506793">
        <ele>146.2</ele>
        <time>2018-03-30T11:29:34Z</time>
      </trkpt>
      <trkpt lat="62.61197660294" lon="17.959656653289">
        <ele>146.8</ele>
        <time>2018-03-30T11:29:35Z</time>
      </trkpt>
      <trkpt lat="62.611958078941" lon="17.959635111806">
        <ele>146.8</ele>
        <time>2018-03-30T11:29:36Z</time>
      </trkpt>
      <trkpt lat="62.611941818055" lon="17.959621114033">
        <ele>146.8</ele>
        <time>2018-03-30T11:29:37Z</time>
      </trkpt>
      <trkpt lat="62.611934358164" lon="17.95958783789">
        <ele>147</ele>
        <time>2018-03-30T11:29:38Z</time>
      </trkpt>
      <trkpt lat="62.611932597965" lon="17.959581802922">
        <ele>147.2</ele>
        <time>2018-03-30T11:29:39Z</time>
      </trkpt>
      <trkpt lat="62.611923461694" lon="17.959571996099">
        <ele>147.4</ele>
        <time>2018-03-30T11:29:40Z</time>
      </trkpt>
      <trkpt lat="62.611910721206" lon="17.959553053005">
        <ele>147.6</ele>
        <time>2018-03-30T11:29:41Z</time>
      </trkpt>
      <trkpt lat="62.6118961367" lon="17.959524806002">
        <ele>147.8</ele>
        <time>2018-03-30T11:29:42Z</time>
      </trkpt>
      <trkpt lat="62.611880127271" lon="17.959503935071">
        <ele>148</ele>
        <time>2018-03-30T11:29:43Z</time>
      </trkpt>
      <trkpt lat="62.611863531109" lon="17.959481639217">
        <ele>148.2</ele>
        <time>2018-03-30T11:29:44Z</time>
      </trkpt>
      <trkpt lat="62.611845593843" lon="17.959457583164">
        <ele>148.2</ele>
        <time>2018-03-30T11:29:45Z</time>
      </trkpt>
      <trkpt lat="62.611827488939" lon="17.959436712233">
        <ele>148.2</ele>
        <time>2018-03-30T11:29:46Z</time>
      </trkpt>
      <trkpt lat="62.611808545845" lon="17.959421457175">
        <ele>148.2</ele>
        <time>2018-03-30T11:29:47Z</time>
      </trkpt>
      <trkpt lat="62.61178884838" lon="17.959379212399">
        <ele>148.4</ele>
        <time>2018-03-30T11:29:48Z</time>
      </trkpt>
      <trkpt lat="62.611771916942" lon="17.959348450826">
        <ele>148.4</ele>
        <time>2018-03-30T11:29:49Z</time>
      </trkpt>
      <trkpt lat="62.611754063495" lon="17.959319533271">
        <ele>148.6</ele>
        <time>2018-03-30T11:29:50Z</time>
      </trkpt>
      <trkpt lat="62.611735288039" lon="17.959287346775">
        <ele>148.6</ele>
        <time>2018-03-30T11:29:51Z</time>
      </trkpt>
      <trkpt lat="62.611719949162" lon="17.959251639881">
        <ele>148.8</ele>
        <time>2018-03-30T11:29:52Z</time>
      </trkpt>
      <trkpt lat="62.611703604457" lon="17.959228170561">
        <ele>148.8</ele>
        <time>2018-03-30T11:29:53Z</time>
      </trkpt>
      <trkpt lat="62.611698826774" lon="17.959177460066">
        <ele>149</ele>
        <time>2018-03-30T11:29:54Z</time>
      </trkpt>
      <trkpt lat="62.611704358828" lon="17.959142256086">
        <ele>149.2</ele>
        <time>2018-03-30T11:29:55Z</time>
      </trkpt>
      <trkpt lat="62.611723553379" lon="17.959123564449">
        <ele>149.4</ele>
        <time>2018-03-30T11:29:56Z</time>
      </trkpt>
      <trkpt lat="62.611751884201" lon="17.959115853101">
        <ele>149.4</ele>
        <time>2018-03-30T11:29:57Z</time>
      </trkpt>
      <trkpt lat="62.611773593322" lon="17.959097664378">
        <ele>149.6</ele>
        <time>2018-03-30T11:29:58Z</time>
      </trkpt>
      <trkpt lat="62.61180309761" lon="17.959078469827">
        <ele>149.6</ele>
        <time>2018-03-30T11:29:59Z</time>
      </trkpt>
      <trkpt lat="62.611834194459" lon="17.959054162317">
        <ele>149.8</ele>
        <time>2018-03-30T11:30:00Z</time>
      </trkpt>
      <trkpt lat="62.611867889697" lon="17.95902708878">
        <ele>150</ele>
        <time>2018-03-30T11:30:01Z</time>
      </trkpt>
      <trkpt lat="62.611900411469" lon="17.959002278356">
        <ele>149.8</ele>
        <time>2018-03-30T11:30:02Z</time>
      </trkpt>
      <trkpt lat="62.611951708697" lon="17.958967661109">
        <ele>149.6</ele>
        <time>2018-03-30T11:30:03Z</time>
      </trkpt>
      <trkpt lat="62.611998982613" lon="17.958940503753">
        <ele>149.4</ele>
        <time>2018-03-30T11:30:04Z</time>
      </trkpt>
      <trkpt lat="62.612049190194" lon="17.958904964497">
        <ele>149.2</ele>
        <time>2018-03-30T11:30:05Z</time>
      </trkpt>
      <trkpt lat="62.61209562592" lon="17.958879399702">
        <ele>148.8</ele>
        <time>2018-03-30T11:30:06Z</time>
      </trkpt>
      <trkpt lat="62.612140301447" lon="17.958861043341">
        <ele>148.6</ele>
        <time>2018-03-30T11:30:07Z</time>
      </trkpt>
      <trkpt lat="62.612178187635" lon="17.958847883758">
        <ele>148.2</ele>
        <time>2018-03-30T11:30:08Z</time>
      </trkpt>
      <trkpt lat="62.612218588393" lon="17.958828018655">
        <ele>148</ele>
        <time>2018-03-30T11:30:09Z</time>
      </trkpt>
      <trkpt lat="62.612258905332" lon="17.958802202403">
        <ele>147.6</ele>
        <time>2018-03-30T11:30:10Z</time>
      </trkpt>
      <trkpt lat="62.612296288606" lon="17.958766830785">
        <ele>147.2</ele>
        <time>2018-03-30T11:30:11Z</time>
      </trkpt>
      <trkpt lat="62.612329900025" lon="17.958743277646">
        <ele>147</ele>
        <time>2018-03-30T11:30:12Z</time>
      </trkpt>
      <trkpt lat="62.612358314666" lon="17.958722909629">
        <ele>146.8</ele>
        <time>2018-03-30T11:30:13Z</time>
      </trkpt>
      <trkpt lat="62.612387399859" lon="17.958704469449">
        <ele>146.6</ele>
        <time>2018-03-30T11:30:14Z</time>
      </trkpt>
      <trkpt lat="62.612415143948" lon="17.95868846002">
        <ele>146.6</ele>
        <time>2018-03-30T11:30:15Z</time>
      </trkpt>
      <trkpt lat="62.612455293249" lon="17.958668259641">
        <ele>146.4</ele>
        <time>2018-03-30T11:30:16Z</time>
      </trkpt>
      <trkpt lat="62.612491503057" lon="17.958650490013">
        <ele>146.4</ele>
        <time>2018-03-30T11:30:17Z</time>
      </trkpt>
      <trkpt lat="62.612540537172" lon="17.958615705128">
        <ele>146.2</ele>
        <time>2018-03-30T11:30:18Z</time>
      </trkpt>
      <trkpt lat="62.612586889079" lon="17.958585278831">
        <ele>146</ele>
        <time>2018-03-30T11:30:19Z</time>
      </trkpt>
      <trkpt lat="62.612632570434" lon="17.958546554453">
        <ele>145.8</ele>
        <time>2018-03-30T11:30:20Z</time>
      </trkpt>
      <trkpt lat="62.612677162142" lon="17.958507997713">
        <ele>145.6</ele>
        <time>2018-03-30T11:30:21Z</time>
      </trkpt>
      <trkpt lat="62.612723933144" lon="17.958452341897">
        <ele>145.2</ele>
        <time>2018-03-30T11:30:22Z</time>
      </trkpt>
      <trkpt lat="62.612750084672" lon="17.958375312236">
        <ele>144.8</ele>
        <time>2018-03-30T11:30:23Z</time>
      </trkpt>
      <trkpt lat="62.612766513196" lon="17.958277579282">
        <ele>144.2</ele>
        <time>2018-03-30T11:30:24Z</time>
      </trkpt>
      <trkpt lat="62.612772631983" lon="17.958180181604">
        <ele>143.6</ele>
        <time>2018-03-30T11:30:25Z</time>
      </trkpt>
      <trkpt lat="62.61277539801" lon="17.958088735075">
        <ele>143.2</ele>
        <time>2018-03-30T11:30:26Z</time>
      </trkpt>
      <trkpt lat="62.61277539801" lon="17.957998294374">
        <ele>143</ele>
        <time>2018-03-30T11:30:27Z</time>
      </trkpt>
      <trkpt lat="62.612777493485" lon="17.957936519771">
        <ele>143</ele>
        <time>2018-03-30T11:30:28Z</time>
      </trkpt>
      <trkpt lat="62.612780259512" lon="17.95782931527">
        <ele>142.6</ele>
        <time>2018-03-30T11:30:29Z</time>
      </trkpt>
      <trkpt lat="62.61278545629" lon="17.957734851257">
        <ele>142.4</ele>
        <time>2018-03-30T11:30:30Z</time>
      </trkpt>
      <trkpt lat="62.612793167638" lon="17.957641895986">
        <ele>142.2</ele>
        <time>2018-03-30T11:30:31Z</time>
      </trkpt>
      <trkpt lat="62.61280305828" lon="17.957554305131">
        <ele>142.2</ele>
        <time>2018-03-30T11:30:32Z</time>
      </trkpt>
      <trkpt lat="62.612809428524" lon="17.957446010983">
        <ele>142.2</ele>
        <time>2018-03-30T11:30:33Z</time>
      </trkpt>
      <trkpt lat="62.61281646932" lon="17.957349451495">
        <ele>142</ele>
        <time>2018-03-30T11:30:34Z</time>
      </trkpt>
      <trkpt lat="62.61282820398" lon="17.957264542848">
        <ele>141.8</ele>
        <time>2018-03-30T11:30:35Z</time>
      </trkpt>
      <trkpt lat="62.612837675527" lon="17.957172006672">
        <ele>141.6</ele>
        <time>2018-03-30T11:30:36Z</time>
      </trkpt>
      <trkpt lat="62.612846979436" lon="17.957086930387">
        <ele>141.6</ele>
        <time>2018-03-30T11:30:37Z</time>
      </trkpt>
      <trkpt lat="62.612863659417" lon="17.957010152183">
        <ele>141.4</ele>
        <time>2018-03-30T11:30:38Z</time>
      </trkpt>
      <trkpt lat="62.612856367164" lon="17.956876209421">
        <ele>141.2</ele>
        <time>2018-03-30T11:30:39Z</time>
      </trkpt>
      <trkpt lat="62.612856367164" lon="17.956775291345">
        <ele>141</ele>
        <time>2018-03-30T11:30:40Z</time>
      </trkpt>
      <trkpt lat="62.612846141246" lon="17.956694908924">
        <ele>141</ele>
        <time>2018-03-30T11:30:41Z</time>
      </trkpt>
      <trkpt lat="62.612841447382" lon="17.956615532331">
        <ele>141</ele>
        <time>2018-03-30T11:30:42Z</time>
      </trkpt>
      <trkpt lat="62.612839184269" lon="17.956563899827">
        <ele>141</ele>
        <time>2018-03-30T11:30:43Z</time>
      </trkpt>
      <trkpt lat="62.612835160957" lon="17.9565108424">
        <ele>140.8</ele>
        <time>2018-03-30T11:30:44Z</time>
      </trkpt>
      <trkpt lat="62.612833652215" lon="17.956460718638">
        <ele>141</ele>
        <time>2018-03-30T11:30:45Z</time>
      </trkpt>
      <trkpt lat="62.61283993864" lon="17.956414199093">
        <ele>141.2</ele>
        <time>2018-03-30T11:30:46Z</time>
      </trkpt>
      <trkpt lat="62.612852679128" lon="17.956362901865">
        <ele>141.4</ele>
        <time>2018-03-30T11:30:47Z</time>
      </trkpt>
      <trkpt lat="62.612858965553" lon="17.956319232166">
        <ele>141.8</ele>
        <time>2018-03-30T11:30:48Z</time>
      </trkpt>
      <trkpt lat="62.612870867851" lon="17.956281429797">
        <ele>142</ele>
        <time>2018-03-30T11:30:49Z</time>
      </trkpt>
      <trkpt lat="62.612880507036" lon="17.956256787011">
        <ele>142.2</ele>
        <time>2018-03-30T11:30:50Z</time>
      </trkpt>
      <trkpt lat="62.61288855366" lon="17.956239352659">
        <ele>142.4</ele>
        <time>2018-03-30T11:30:51Z</time>
      </trkpt>
      <trkpt lat="62.612885452357" lon="17.956245052351">
        <ele>142.6</ele>
        <time>2018-03-30T11:30:52Z</time>
      </trkpt>
      <trkpt lat="62.612882099597" lon="17.956258379572">
        <ele>142.6</ele>
        <time>2018-03-30T11:30:53Z</time>
      </trkpt>
      <trkpt lat="62.612871370765" lon="17.956277238847">
        <ele>142.6</ele>
        <time>2018-03-30T11:30:54Z</time>
      </trkpt>
      <trkpt lat="62.612858127363" lon="17.956303306556">
        <ele>142.6</ele>
        <time>2018-03-30T11:30:55Z</time>
      </trkpt>
      <trkpt lat="62.612844297228" lon="17.956336415061">
        <ele>142.6</ele>
        <time>2018-03-30T11:30:56Z</time>
      </trkpt>
      <trkpt lat="62.612832227292" lon="17.956371367584">
        <ele>142.6</ele>
        <time>2018-03-30T11:30:57Z</time>
      </trkpt>
      <trkpt lat="62.612829125989" lon="17.956413947636">
        <ele>142.4</ele>
        <time>2018-03-30T11:30:58Z</time>
      </trkpt>
      <trkpt lat="62.612830299455" lon="17.95646977109">
        <ele>142.4</ele>
        <time>2018-03-30T11:30:59Z</time>
      </trkpt>
      <trkpt lat="62.612831892016" lon="17.956543028896">
        <ele>142.4</ele>
        <time>2018-03-30T11:31:00Z</time>
      </trkpt>
      <trkpt lat="62.61283658588" lon="17.956627769905">
        <ele>142.4</ele>
        <time>2018-03-30T11:31:01Z</time>
      </trkpt>
      <trkpt lat="62.612842285572" lon="17.956715528398">
        <ele>142.4</ele>
        <time>2018-03-30T11:31:02Z</time>
      </trkpt>
      <trkpt lat="62.612850751291" lon="17.956807058746">
        <ele>142.2</ele>
        <time>2018-03-30T11:31:03Z</time>
      </trkpt>
      <trkpt lat="62.612846141246" lon="17.95691987912">
        <ele>142</ele>
        <time>2018-03-30T11:31:04Z</time>
      </trkpt>
      <trkpt lat="62.61283407131" lon="17.957020629558">
        <ele>141.4</ele>
        <time>2018-03-30T11:31:05Z</time>
      </trkpt>
      <trkpt lat="62.612823091021" lon="17.95711098644">
        <ele>140.8</ele>
        <time>2018-03-30T11:31:06Z</time>
      </trkpt>
      <trkpt lat="62.612813451836" lon="17.957193883431">
        <ele>140.4</ele>
        <time>2018-03-30T11:31:07Z</time>
      </trkpt>
      <trkpt lat="62.61280054371" lon="17.957248533419">
        <ele>140.2</ele>
        <time>2018-03-30T11:31:08Z</time>
      </trkpt>
      <trkpt lat="62.612793586733" lon="17.957307290538">
        <ele>140</ele>
        <time>2018-03-30T11:31:09Z</time>
      </trkpt>
      <trkpt lat="62.612794844018" lon="17.957365880019">
        <ele>140</ele>
        <time>2018-03-30T11:31:10Z</time>
      </trkpt>
      <trkpt lat="62.612793922009" lon="17.957430839744">
        <ele>140.2</ele>
        <time>2018-03-30T11:31:11Z</time>
      </trkpt>
      <trkpt lat="62.612791155982" lon="17.957493452537">
        <ele>140.6</ele>
        <time>2018-03-30T11:31:12Z</time>
      </trkpt>
      <trkpt lat="62.612790736887" lon="17.957555813873">
        <ele>140.6</ele>
        <time>2018-03-30T11:31:13Z</time>
      </trkpt>
      <trkpt lat="62.612789898697" lon="17.957618845761">
        <ele>140.4</ele>
        <time>2018-03-30T11:31:14Z</time>
      </trkpt>
      <trkpt lat="62.612791994172" lon="17.957679614536">
        <ele>140.4</ele>
        <time>2018-03-30T11:31:15Z</time>
      </trkpt>
      <trkpt lat="62.61279467638" lon="17.957732420506">
        <ele>140.4</ele>
        <time>2018-03-30T11:31:16Z</time>
      </trkpt>
      <trkpt lat="62.612788138498" lon="17.957801738819">
        <ele>140.6</ele>
        <time>2018-03-30T11:31:17Z</time>
      </trkpt>
      <trkpt lat="62.612793335276" lon="17.957860998852">
        <ele>140.4</ele>
        <time>2018-03-30T11:31:18Z</time>
      </trkpt>
      <trkpt lat="62.612795011656" lon="17.957915732659">
        <ele>140.6</ele>
        <time>2018-03-30T11:31:19Z</time>
      </trkpt>
      <trkpt lat="62.612796604217" lon="17.957975914701">
        <ele>140.8</ele>
        <time>2018-03-30T11:31:20Z</time>
      </trkpt>
      <trkpt lat="62.612799621701" lon="17.958035342372">
        <ele>140.8</ele>
        <time>2018-03-30T11:31:21Z</time>
      </trkpt>
      <trkpt lat="62.612799956977" lon="17.958087729247">
        <ele>140.8</ele>
        <time>2018-03-30T11:31:22Z</time>
      </trkpt>
      <trkpt lat="62.612799956977" lon="17.95815034204">
        <ele>141</ele>
        <time>2018-03-30T11:31:23Z</time>
      </trkpt>
      <trkpt lat="62.612801968633" lon="17.958215888498">
        <ele>141</ele>
        <time>2018-03-30T11:31:24Z</time>
      </trkpt>
      <trkpt lat="62.612797023312" lon="17.958277830739">
        <ele>141.2</ele>
        <time>2018-03-30T11:31:25Z</time>
      </trkpt>
      <trkpt lat="62.61279048543" lon="17.958340946446">
        <ele>141.4</ele>
        <time>2018-03-30T11:31:26Z</time>
      </trkpt>
      <trkpt lat="62.612783612272" lon="17.958407247275">
        <ele>141.6</ele>
        <time>2018-03-30T11:31:27Z</time>
      </trkpt>
      <trkpt lat="62.612758382753" lon="17.958461142892">
        <ele>141.8</ele>
        <time>2018-03-30T11:31:28Z</time>
      </trkpt>
      <trkpt lat="62.612738685288" lon="17.958511266654">
        <ele>142</ele>
        <time>2018-03-30T11:31:29Z</time>
      </trkpt>
      <trkpt lat="62.6127175629" lon="17.958552924697">
        <ele>142</ele>
        <time>2018-03-30T11:31:30Z</time>
      </trkpt>
      <trkpt lat="62.612692752476" lon="17.958591313799">
        <ele>142.2</ele>
        <time>2018-03-30T11:31:31Z</time>
      </trkpt>
      <trkpt lat="62.612667942052" lon="17.958626769236">
        <ele>142.4</ele>
        <time>2018-03-30T11:31:32Z</time>
      </trkpt>
      <trkpt lat="62.612648663682" lon="17.958637581887">
        <ele>142.4</ele>
        <time>2018-03-30T11:31:33Z</time>
      </trkpt>
      <trkpt lat="62.612626786923" lon="17.958654848601">
        <ele>142.6</ele>
        <time>2018-03-30T11:31:34Z</time>
      </trkpt>
      <trkpt lat="62.612602563232" lon="17.95867169622">
        <ele>142.8</ele>
        <time>2018-03-30T11:31:35Z</time>
      </trkpt>
      <trkpt lat="62.612581943758" lon="17.958688711477">
        <ele>143</ele>
        <time>2018-03-30T11:31:36Z</time>
      </trkpt>
      <trkpt lat="62.61256836508" lon="17.958705978191">
        <ele>143.2</ele>
        <time>2018-03-30T11:31:37Z</time>
      </trkpt>
      <trkpt lat="62.612548835253" lon="17.958710336779">
        <ele>143.2</ele>
        <time>2018-03-30T11:31:38Z</time>
      </trkpt>
      <trkpt lat="62.612529724521" lon="17.958715114462">
        <ele>143.4</ele>
        <time>2018-03-30T11:31:39Z</time>
      </trkpt>
      <trkpt lat="62.612509524142" lon="17.958727352036">
        <ele>143.6</ele>
        <time>2018-03-30T11:31:40Z</time>
      </trkpt>
      <trkpt lat="62.612492257428" lon="17.958742607094">
        <ele>143.8</ele>
        <time>2018-03-30T11:31:41Z</time>
      </trkpt>
      <trkpt lat="62.612473230515" lon="17.95875467703">
        <ele>144</ele>
        <time>2018-03-30T11:31:42Z</time>
      </trkpt>
      <trkpt lat="62.612449006824" lon="17.95876976445">
        <ele>144.4</ele>
        <time>2018-03-30T11:31:43Z</time>
      </trkpt>
      <trkpt lat="62.612428806445" lon="17.958784516594">
        <ele>144.6</ele>
        <time>2018-03-30T11:31:44Z</time>
      </trkpt>
      <trkpt lat="62.612404331297" lon="17.95879826291">
        <ele>144.8</ele>
        <time>2018-03-30T11:31:45Z</time>
      </trkpt>
      <trkpt lat="62.61239234518" lon="17.958827012827">
        <ele>145.2</ele>
        <time>2018-03-30T11:31:46Z</time>
      </trkpt>
      <trkpt lat="62.612364601091" lon="17.958826845189">
        <ele>145.4</ele>
        <time>2018-03-30T11:31:47Z</time>
      </trkpt>
      <trkpt lat="62.612355883915" lon="17.958853918726">
        <ele>145.8</ele>
        <time>2018-03-30T11:31:48Z</time>
      </trkpt>
      <trkpt lat="62.61233702464" lon="17.958871017802">
        <ele>145.6</ele>
        <time>2018-03-30T11:31:49Z</time>
      </trkpt>
      <trkpt lat="62.612318165365" lon="17.95888878743">
        <ele>145.8</ele>
        <time>2018-03-30T11:31:50Z</time>
      </trkpt>
      <trkpt lat="62.612292768208" lon="17.958895660588">
        <ele>145.8</ele>
        <time>2018-03-30T11:31:51Z</time>
      </trkpt>
      <trkpt lat="62.612271226725" lon="17.958904461583">
        <ele>145.8</ele>
        <time>2018-03-30T11:31:52Z</time>
      </trkpt>
      <trkpt lat="62.612259156789" lon="17.958913849311">
        <ele>146</ele>
        <time>2018-03-30T11:31:53Z</time>
      </trkpt>
      <trkpt lat="62.612215906185" lon="17.958918375537">
        <ele>146</ele>
        <time>2018-03-30T11:31:54Z</time>
      </trkpt>
      <trkpt lat="62.612192436865" lon="17.958929523464">
        <ele>146</ele>
        <time>2018-03-30T11:31:55Z</time>
      </trkpt>
      <trkpt lat="62.612169554278" lon="17.958936648079">
        <ele>146.2</ele>
        <time>2018-03-30T11:31:56Z</time>
      </trkpt>
      <trkpt lat="62.612150695003" lon="17.958944694703">
        <ele>146.2</ele>
        <time>2018-03-30T11:31:57Z</time>
      </trkpt>
      <trkpt lat="62.612123202371" lon="17.958949388567">
        <ele>146.2</ele>
        <time>2018-03-30T11:31:58Z</time>
      </trkpt>
      <trkpt lat="62.612093781902" lon="17.958956764639">
        <ele>146.2</ele>
        <time>2018-03-30T11:31:59Z</time>
      </trkpt>
      <trkpt lat="62.612067211279" lon="17.958975540095">
        <ele>146.4</ele>
        <time>2018-03-30T11:32:00Z</time>
      </trkpt>
      <trkpt lat="62.612042317036" lon="17.958995991931">
        <ele>146.4</ele>
        <time>2018-03-30T11:32:01Z</time>
      </trkpt>
      <trkpt lat="62.612020607915" lon="17.959013174826">
        <ele>146.4</ele>
        <time>2018-03-30T11:32:02Z</time>
      </trkpt>
      <trkpt lat="62.611998814975" lon="17.959019964165">
        <ele>146.8</ele>
        <time>2018-03-30T11:32:03Z</time>
      </trkpt>
      <trkpt lat="62.611984733383" lon="17.959031866463">
        <ele>147</ele>
        <time>2018-03-30T11:32:04Z</time>
      </trkpt>
      <trkpt lat="62.611969143049" lon="17.95904301439">
        <ele>147</ele>
        <time>2018-03-30T11:32:05Z</time>
      </trkpt>
      <trkpt lat="62.611947182471" lon="17.959065477882">
        <ele>147.2</ele>
        <time>2018-03-30T11:32:06Z</time>
      </trkpt>
      <trkpt lat="62.611919941296" lon="17.959093138152">
        <ele>147.2</ele>
        <time>2018-03-30T11:32:07Z</time>
      </trkpt>
      <trkpt lat="62.611905021514" lon="17.95910336407">
        <ele>147.8</ele>
        <time>2018-03-30T11:32:08Z</time>
      </trkpt>
      <trkpt lat="62.611887587162" lon="17.959129767055">
        <ele>148.2</ele>
        <time>2018-03-30T11:32:09Z</time>
      </trkpt>
      <trkpt lat="62.611867386783" lon="17.959149632158">
        <ele>148.2</ele>
        <time>2018-03-30T11:32:10Z</time>
      </trkpt>
      <trkpt lat="62.611836792848" lon="17.95916203737">
        <ele>148.4</ele>
        <time>2018-03-30T11:32:11Z</time>
      </trkpt>
      <trkpt lat="62.611809551673" lon="17.959175364591">
        <ele>148.6</ele>
        <time>2018-03-30T11:32:12Z</time>
      </trkpt>
      <trkpt lat="62.611783986878" lon="17.959179555541">
        <ele>148.8</ele>
        <time>2018-03-30T11:32:13Z</time>
      </trkpt>
      <trkpt lat="62.61175783535" lon="17.959183243577">
        <ele>148.8</ele>
        <time>2018-03-30T11:32:14Z</time>
      </trkpt>
      <trkpt lat="62.6117368806" lon="17.959185674328">
        <ele>149</ele>
        <time>2018-03-30T11:32:15Z</time>
      </trkpt>
      <trkpt lat="62.611714333289" lon="17.959184836138">
        <ele>149.2</ele>
        <time>2018-03-30T11:32:16Z</time>
      </trkpt>
      <trkpt lat="62.611690612512" lon="17.959180896645">
        <ele>149.2</ele>
        <time>2018-03-30T11:32:17Z</time>
      </trkpt>
      <trkpt lat="62.611666556459" lon="17.959178717351">
        <ele>149.6</ele>
        <time>2018-03-30T11:32:18Z</time>
      </trkpt>
      <trkpt lat="62.61164551789" lon="17.959176538057">
        <ele>149.8</ele>
        <time>2018-03-30T11:32:19Z</time>
      </trkpt>
      <trkpt lat="62.61162121038" lon="17.959172263288">
        <ele>150.2</ele>
        <time>2018-03-30T11:32:20Z</time>
      </trkpt>
      <trkpt lat="62.611598914526" lon="17.959169245804">
        <ele>150.8</ele>
        <time>2018-03-30T11:32:21Z</time>
      </trkpt>
      <trkpt lat="62.611579384699" lon="17.959171676555">
        <ele>150.8</ele>
        <time>2018-03-30T11:32:22Z</time>
      </trkpt>
      <trkpt lat="62.611555244827" lon="17.95914946452">
        <ele>150.8</ele>
        <time>2018-03-30T11:32:23Z</time>
      </trkpt>
      <trkpt lat="62.611533703344" lon="17.959150889443">
        <ele>151.2</ele>
        <time>2018-03-30T11:32:24Z</time>
      </trkpt>
      <trkpt lat="62.611513754422" lon="17.959144267742">
        <ele>151.2</ele>
        <time>2018-03-30T11:32:25Z</time>
      </trkpt>
      <trkpt lat="62.611495817156" lon="17.959137981317">
        <ele>151.4</ele>
        <time>2018-03-30T11:32:26Z</time>
      </trkpt>
      <trkpt lat="62.611478885718" lon="17.959134880014">
        <ele>151.4</ele>
        <time>2018-03-30T11:32:27Z</time>
      </trkpt>
      <trkpt lat="62.611455584036" lon="17.959131359616">
        <ele>151.4</ele>
        <time>2018-03-30T11:32:28Z</time>
      </trkpt>
      <trkpt lat="62.611429516327" lon="17.959131108159">
        <ele>151.6</ele>
        <time>2018-03-30T11:32:29Z</time>
      </trkpt>
      <trkpt lat="62.611402023695" lon="17.95912683339">
        <ele>151.8</ele>
        <time>2018-03-30T11:32:30Z</time>
      </trkpt>
      <trkpt lat="62.611378554375" lon="17.959129767055">
        <ele>152</ele>
        <time>2018-03-30T11:32:31Z</time>
      </trkpt>
      <trkpt lat="62.611357264349" lon="17.959138065136">
        <ele>152</ele>
        <time>2018-03-30T11:32:32Z</time>
      </trkpt>
      <trkpt lat="62.611338488893" lon="17.959147285226">
        <ele>152.2</ele>
        <time>2018-03-30T11:32:33Z</time>
      </trkpt>
      <trkpt lat="62.611320132532" lon="17.959160863904">
        <ele>152.4</ele>
        <time>2018-03-30T11:32:34Z</time>
      </trkpt>
      <trkpt lat="62.611304458379" lon="17.959185087595">
        <ele>152.4</ele>
        <time>2018-03-30T11:32:35Z</time>
      </trkpt>
      <trkpt lat="62.61128761076" lon="17.959217274091">
        <ele>152.8</ele>
        <time>2018-03-30T11:32:36Z</time>
      </trkpt>
      <trkpt lat="62.611269002942" lon="17.959248622397">
        <ele>153</ele>
        <time>2018-03-30T11:32:37Z</time>
      </trkpt>
      <trkpt lat="62.611255005169" lon="17.959275109201">
        <ele>153</ele>
        <time>2018-03-30T11:32:38Z</time>
      </trkpt>
      <trkpt lat="62.611245282165" lon="17.959319197995">
        <ele>153.2</ele>
        <time>2018-03-30T11:32:39Z</time>
      </trkpt>
      <trkpt lat="62.61123564298" lon="17.959366052816">
        <ele>153.4</ele>
        <time>2018-03-30T11:32:40Z</time>
      </trkpt>
      <trkpt lat="62.611227344899" lon="17.959412907637">
        <ele>153.4</ele>
        <time>2018-03-30T11:32:41Z</time>
      </trkpt>
      <trkpt lat="62.611216196972" lon="17.959454146585">
        <ele>153.4</ele>
        <time>2018-03-30T11:32:42Z</time>
      </trkpt>
      <trkpt lat="62.611213598583" lon="17.959521117966">
        <ele>153.6</ele>
        <time>2018-03-30T11:32:43Z</time>
      </trkpt>
      <trkpt lat="62.611207731253" lon="17.959576019411">
        <ele>153.6</ele>
        <time>2018-03-30T11:32:44Z</time>
      </trkpt>
      <trkpt lat="62.611199684629" lon="17.95963310015">
        <ele>153.6</ele>
        <time>2018-03-30T11:32:45Z</time>
      </trkpt>
      <trkpt lat="62.611192811471" lon="17.95969680259">
        <ele>153.6</ele>
        <time>2018-03-30T11:32:46Z</time>
      </trkpt>
      <trkpt lat="62.61118535158" lon="17.959739298823">
        <ele>153.6</ele>
        <time>2018-03-30T11:32:47Z</time>
      </trkpt>
      <trkpt lat="62.611182334096" lon="17.959806102566">
        <ele>153.6</ele>
        <time>2018-03-30T11:32:48Z</time>
      </trkpt>
      <trkpt lat="62.611189961625" lon="17.959853795577">
        <ele>153.6</ele>
        <time>2018-03-30T11:32:49Z</time>
      </trkpt>
      <trkpt lat="62.611201528647" lon="17.95989126267">
        <ele>153.6</ele>
        <time>2018-03-30T11:32:50Z</time>
      </trkpt>
      <trkpt lat="62.611213598583" lon="17.959919006759">
        <ele>153.8</ele>
        <time>2018-03-30T11:32:51Z</time>
      </trkpt>
      <trkpt lat="62.611224578872" lon="17.959945661201">
        <ele>153.8</ele>
        <time>2018-03-30T11:32:52Z</time>
      </trkpt>
      <trkpt lat="62.611243354328" lon="17.959949600694">
        <ele>154</ele>
        <time>2018-03-30T11:32:53Z</time>
      </trkpt>
      <trkpt lat="62.611266153096" lon="17.959961838268">
        <ele>154.2</ele>
        <time>2018-03-30T11:32:54Z</time>
      </trkpt>
      <trkpt lat="62.611289790054" lon="17.959963933743">
        <ele>154</ele>
        <time>2018-03-30T11:32:55Z</time>
      </trkpt>
      <trkpt lat="62.611319713437" lon="17.959945996477">
        <ele>154</ele>
        <time>2018-03-30T11:32:56Z</time>
      </trkpt>
      <trkpt lat="62.611353408675" lon="17.959926718107">
        <ele>153.8</ele>
        <time>2018-03-30T11:32:57Z</time>
      </trkpt>
      <trkpt lat="62.611386600999" lon="17.959886065892">
        <ele>153.6</ele>
        <time>2018-03-30T11:32:58Z</time>
      </trkpt>
      <trkpt lat="62.611422307893" lon="17.959854801405">
        <ele>153.2</ele>
        <time>2018-03-30T11:32:59Z</time>
      </trkpt>
      <trkpt lat="62.611454494389" lon="17.959825380936">
        <ele>153</ele>
        <time>2018-03-30T11:33:00Z</time>
      </trkpt>
      <trkpt lat="62.611486932342" lon="17.959799313227">
        <ele>152.8</ele>
        <time>2018-03-30T11:33:01Z</time>
      </trkpt>
      <trkpt lat="62.611520124666" lon="17.959781627418">
        <ele>152.6</ele>
        <time>2018-03-30T11:33:02Z</time>
      </trkpt>
      <trkpt lat="62.611565303107" lon="17.95975044675">
        <ele>152.4</ele>
        <time>2018-03-30T11:33:03Z</time>
      </trkpt>
      <trkpt lat="62.611606877331" lon="17.959732090389">
        <ele>152.2</ele>
        <time>2018-03-30T11:33:04Z</time>
      </trkpt>
      <trkpt lat="62.611652055772" lon="17.959713063476">
        <ele>152</ele>
        <time>2018-03-30T11:33:05Z</time>
      </trkpt>
      <trkpt lat="62.611696144566" lon="17.959700490626">
        <ele>152</ele>
        <time>2018-03-30T11:33:06Z</time>
      </trkpt>
      <trkpt lat="62.611738221704" lon="17.959698059875">
        <ele>151.8</ele>
        <time>2018-03-30T11:33:07Z</time>
      </trkpt>
      <trkpt lat="62.611772000761" lon="17.959707531422">
        <ele>151.4</ele>
        <time>2018-03-30T11:33:08Z</time>
      </trkpt>
      <trkpt lat="62.611805360723" lon="17.959726306878">
        <ele>150.8</ele>
        <time>2018-03-30T11:33:09Z</time>
      </trkpt>
      <trkpt lat="62.611842073445" lon="17.959752626044">
        <ele>150.2</ele>
        <time>2018-03-30T11:33:10Z</time>
      </trkpt>
      <trkpt lat="62.611878115615" lon="17.959785147816">
        <ele>149.8</ele>
        <time>2018-03-30T11:33:11Z</time>
      </trkpt>
      <trkpt lat="62.611913571052" lon="17.959822782547">
        <ele>149.4</ele>
        <time>2018-03-30T11:33:12Z</time>
      </trkpt>
      <trkpt lat="62.611942907702" lon="17.959865614056">
        <ele>149</ele>
        <time>2018-03-30T11:33:13Z</time>
      </trkpt>
      <trkpt lat="62.611973836913" lon="17.959911546868">
        <ele>148.8</ele>
        <time>2018-03-30T11:33:14Z</time>
      </trkpt>
      <trkpt lat="62.612003844115" lon="17.95995915606">
        <ele>148.6</ele>
        <time>2018-03-30T11:33:15Z</time>
      </trkpt>
      <trkpt lat="62.6120302471" lon="17.960005759424">
        <ele>148</ele>
        <time>2018-03-30T11:33:16Z</time>
      </trkpt>
      <trkpt lat="62.61205874556" lon="17.960052111331">
        <ele>147.8</ele>
        <time>2018-03-30T11:33:17Z</time>
      </trkpt>
      <trkpt lat="62.612093698083" lon="17.960114388848">
        <ele>147.2</ele>
        <time>2018-03-30T11:33:18Z</time>
      </trkpt>
      <trkpt lat="62.612131416633" lon="17.960181863143">
        <ele>146.8</ele>
        <time>2018-03-30T11:33:19Z</time>
      </trkpt>
      <trkpt lat="62.612171985029" lon="17.96025671351">
        <ele>146.6</ele>
        <time>2018-03-30T11:33:20Z</time>
      </trkpt>
      <trkpt lat="62.612209284484" lon="17.960327456746">
        <ele>146.2</ele>
        <time>2018-03-30T11:33:21Z</time>
      </trkpt>
      <trkpt lat="62.612246248663" lon="17.960398116163">
        <ele>145.6</ele>
        <time>2018-03-30T11:33:22Z</time>
      </trkpt>
      <trkpt lat="62.61228254229" lon="17.960468859399">
        <ele>145.2</ele>
        <time>2018-03-30T11:33:23Z</time>
      </trkpt>
      <trkpt lat="62.612323026867" lon="17.960558964824">
        <ele>144.2</ele>
        <time>2018-03-30T11:33:24Z</time>
      </trkpt>
      <trkpt lat="62.612357727933" lon="17.960642197091">
        <ele>143.8</ele>
        <time>2018-03-30T11:33:25Z</time>
      </trkpt>
      <trkpt lat="62.612393434827" lon="17.960729536489">
        <ele>143.4</ele>
        <time>2018-03-30T11:33:26Z</time>
      </trkpt>
      <trkpt lat="62.612429644635" lon="17.960819725733">
        <ele>143.2</ele>
        <time>2018-03-30T11:33:27Z</time>
      </trkpt>
      <trkpt lat="62.612460573846" lon="17.960910920805">
        <ele>143</ele>
        <time>2018-03-30T11:33:28Z</time>
      </trkpt>
      <trkpt lat="62.612491922152" lon="17.961008318483">
        <ele>142.8</ele>
        <time>2018-03-30T11:33:29Z</time>
      </trkpt>
      <trkpt lat="62.612517822223" lon="17.961106889627">
        <ele>142.6</ele>
        <time>2018-03-30T11:33:30Z</time>
      </trkpt>
      <trkpt lat="62.612536849136" lon="17.961213675033">
        <ele>142.4</ele>
        <time>2018-03-30T11:33:31Z</time>
      </trkpt>
      <trkpt lat="62.612551685099" lon="17.961323142647">
        <ele>142.2</ele>
        <time>2018-03-30T11:33:32Z</time>
      </trkpt>
      <trkpt lat="62.612533328738" lon="17.961414672995">
        <ele>141.4</ele>
        <time>2018-03-30T11:33:33Z</time>
      </trkpt>
      <trkpt lat="62.612512793083" lon="17.961491535018">
        <ele>140.8</ele>
        <time>2018-03-30T11:33:34Z</time>
      </trkpt>
      <trkpt lat="62.612486390098" lon="17.961543502798">
        <ele>140.4</ele>
        <time>2018-03-30T11:33:35Z</time>
      </trkpt>
      <trkpt lat="62.612452275765" lon="17.961561272426">
        <ele>140.2</ele>
        <time>2018-03-30T11:33:36Z</time>
      </trkpt>
      <trkpt lat="62.612419418717" lon="17.961568061765">
        <ele>140</ele>
        <time>2018-03-30T11:33:37Z</time>
      </trkpt>
      <trkpt lat="62.612392177542" lon="17.961532773966">
        <ele>140</ele>
        <time>2018-03-30T11:33:38Z</time>
      </trkpt>
      <trkpt lat="62.612364601091" lon="17.961510478112">
        <ele>140.2</ele>
        <time>2018-03-30T11:33:39Z</time>
      </trkpt>
      <trkpt lat="62.612340461219" lon="17.96148801462">
        <ele>140.2</ele>
        <time>2018-03-30T11:33:40Z</time>
      </trkpt>
      <trkpt lat="62.612318835917" lon="17.961467143689">
        <ele>140.4</ele>
        <time>2018-03-30T11:33:41Z</time>
      </trkpt>
      <trkpt lat="62.612298970814" lon="17.961451553355">
        <ele>140.4</ele>
        <time>2018-03-30T11:33:42Z</time>
      </trkpt>
      <trkpt lat="62.612272819286" lon="17.961440153971">
        <ele>140.8</ele>
        <time>2018-03-30T11:33:43Z</time>
      </trkpt>
      <trkpt lat="62.61224985288" lon="17.96142850313">
        <ele>141</ele>
        <time>2018-03-30T11:33:44Z</time>
      </trkpt>
      <trkpt lat="62.612226132103" lon="17.961415511185">
        <ele>141.2</ele>
        <time>2018-03-30T11:33:45Z</time>
      </trkpt>
      <trkpt lat="62.612206350819" lon="17.961408554208">
        <ele>141.4</ele>
        <time>2018-03-30T11:33:46Z</time>
      </trkpt>
      <trkpt lat="62.612190509028" lon="17.96140838657">
        <ele>141.8</ele>
        <time>2018-03-30T11:33:47Z</time>
      </trkpt>
      <trkpt lat="62.612164441319" lon="17.961391538951">
        <ele>142</ele>
        <time>2018-03-30T11:33:48Z</time>
      </trkpt>
      <trkpt lat="62.61214256456" lon="17.961381396852">
        <ele>142.2</ele>
        <time>2018-03-30T11:33:49Z</time>
      </trkpt>
      <trkpt lat="62.61212496257" lon="17.961374439875">
        <ele>142.4</ele>
        <time>2018-03-30T11:33:50Z</time>
      </trkpt>
      <trkpt lat="62.612108617865" lon="17.961366057975">
        <ele>142.6</ele>
        <time>2018-03-30T11:33:51Z</time>
      </trkpt>
      <trkpt lat="62.612090764418" lon="17.961356251152">
        <ele>142.6</ele>
        <time>2018-03-30T11:33:52Z</time>
      </trkpt>
      <trkpt lat="62.612072491876" lon="17.961355664419">
        <ele>142.8</ele>
        <time>2018-03-30T11:33:53Z</time>
      </trkpt>
      <trkpt lat="62.612053967877" lon="17.961348372166">
        <ele>143</ele>
        <time>2018-03-30T11:33:54Z</time>
      </trkpt>
      <trkpt lat="62.612035862973" lon="17.961342672474">
        <ele>143.2</ele>
        <time>2018-03-30T11:33:55Z</time>
      </trkpt>
      <trkpt lat="62.61201767425" lon="17.96134049318">
        <ele>143.6</ele>
        <time>2018-03-30T11:33:56Z</time>
      </trkpt>
      <trkpt lat="62.611997390052" lon="17.961339738809">
        <ele>143.6</ele>
        <time>2018-03-30T11:33:57Z</time>
      </trkpt>
      <trkpt lat="62.61197408837" lon="17.961326914502">
        <ele>144</ele>
        <time>2018-03-30T11:33:58Z</time>
      </trkpt>
      <trkpt lat="62.611952127792" lon="17.961324399932">
        <ele>144.2</ele>
        <time>2018-03-30T11:33:59Z</time>
      </trkpt>
      <trkpt lat="62.611928909929" lon="17.961319622249">
        <ele>144.4</ele>
        <time>2018-03-30T11:34:00Z</time>
      </trkpt>
      <trkpt lat="62.611904853876" lon="17.961309563969">
        <ele>144.6</ele>
        <time>2018-03-30T11:34:01Z</time>
      </trkpt>
      <trkpt lat="62.611882977117" lon="17.961302858449">
        <ele>144.8</ele>
        <time>2018-03-30T11:34:02Z</time>
      </trkpt>
      <trkpt lat="62.611866716231" lon="17.961295901472">
        <ele>145.2</ele>
        <time>2018-03-30T11:34:03Z</time>
      </trkpt>
      <trkpt lat="62.611848024594" lon="17.961284753545">
        <ele>145.4</ele>
        <time>2018-03-30T11:34:04Z</time>
      </trkpt>
      <trkpt lat="62.611832350441" lon="17.961278131844">
        <ele>145.6</ele>
        <time>2018-03-30T11:34:05Z</time>
      </trkpt>
      <trkpt lat="62.61181483227" lon="17.961274192351">
        <ele>146</ele>
        <time>2018-03-30T11:34:06Z</time>
      </trkpt>
      <trkpt lat="62.611795302443" lon="17.961269079392">
        <ele>146.2</ele>
        <time>2018-03-30T11:34:07Z</time>
      </trkpt>
      <trkpt lat="62.611781891403" lon="17.961260948949">
        <ele>146.4</ele>
        <time>2018-03-30T11:34:08Z</time>
      </trkpt>
      <trkpt lat="62.611762277757" lon="17.961263295881">
        <ele>146.4</ele>
        <time>2018-03-30T11:34:09Z</time>
      </trkpt>
      <trkpt lat="62.611743250844" lon="17.961250052479">
        <ele>146.6</ele>
        <time>2018-03-30T11:34:10Z</time>
      </trkpt>
      <trkpt lat="62.611722799008" lon="17.961241419122">
        <ele>146.8</ele>
        <time>2018-03-30T11:34:11Z</time>
      </trkpt>
      <trkpt lat="62.611702850086" lon="17.961238317819">
        <ele>146.8</ele>
        <time>2018-03-30T11:34:12Z</time>
      </trkpt>
      <trkpt lat="62.611682817345" lon="17.961231779937">
        <ele>146.8</ele>
        <time>2018-03-30T11:34:13Z</time>
      </trkpt>
      <trkpt lat="62.611662030233" lon="17.961225493512">
        <ele>147</ele>
        <time>2018-03-30T11:34:14Z</time>
      </trkpt>
      <trkpt lat="62.611642584225" lon="17.961225493512">
        <ele>147.2</ele>
        <time>2018-03-30T11:34:15Z</time>
      </trkpt>
      <trkpt lat="62.611627580624" lon="17.961214429404">
        <ele>147.4</ele>
        <time>2018-03-30T11:34:16Z</time>
      </trkpt>
      <trkpt lat="62.611600423268" lon="17.961196073043">
        <ele>147.6</ele>
        <time>2018-03-30T11:34:17Z</time>
      </trkpt>
      <trkpt lat="62.611579049423" lon="17.961189199885">
        <ele>148</ele>
        <time>2018-03-30T11:34:18Z</time>
      </trkpt>
      <trkpt lat="62.611555580103" lon="17.961178638691">
        <ele>148.2</ele>
        <time>2018-03-30T11:34:19Z</time>
      </trkpt>
      <trkpt lat="62.611534206258" lon="17.961168999506">
        <ele>148.4</ele>
        <time>2018-03-30T11:34:20Z</time>
      </trkpt>
      <trkpt lat="62.611514089698" lon="17.961156342837">
        <ele>148.4</ele>
        <time>2018-03-30T11:34:21Z</time>
      </trkpt>
      <trkpt lat="62.61149212912" lon="17.961150894602">
        <ele>148.6</ele>
        <time>2018-03-30T11:34:22Z</time>
      </trkpt>
      <trkpt lat="62.61147452713" lon="17.961146452195">
        <ele>148.8</ele>
        <time>2018-03-30T11:34:23Z</time>
      </trkpt>
      <trkpt lat="62.611457260416" lon="17.961143602349">
        <ele>149</ele>
        <time>2018-03-30T11:34:24Z</time>
      </trkpt>
      <trkpt lat="62.61143932315" lon="17.961141758331">
        <ele>149.2</ele>
        <time>2018-03-30T11:34:25Z</time>
      </trkpt>
      <trkpt lat="62.611419793323" lon="17.961136896829">
        <ele>149.4</ele>
        <time>2018-03-30T11:34:26Z</time>
      </trkpt>
      <trkpt lat="62.611401185505" lon="17.961137902657">
        <ele>149.4</ele>
        <time>2018-03-30T11:34:27Z</time>
      </trkpt>
      <trkpt lat="62.611377967642" lon="17.961113678966">
        <ele>149.6</ele>
        <time>2018-03-30T11:34:28Z</time>
      </trkpt>
      <trkpt lat="62.611351983752" lon="17.961103704505">
        <ele>149.8</ele>
        <time>2018-03-30T11:34:29Z</time>
      </trkpt>
      <trkpt lat="62.611331867192" lon="17.961102195763">
        <ele>150</ele>
        <time>2018-03-30T11:34:30Z</time>
      </trkpt>
      <trkpt lat="62.611309068424" lon="17.961090293465">
        <ele>150.2</ele>
        <time>2018-03-30T11:34:31Z</time>
      </trkpt>
      <trkpt lat="62.611295405927" lon="17.961094316777">
        <ele>150.2</ele>
        <time>2018-03-30T11:34:32Z</time>
      </trkpt>
      <trkpt lat="62.611276546652" lon="17.961087695076">
        <ele>150.2</ele>
        <time>2018-03-30T11:34:33Z</time>
      </trkpt>
      <trkpt lat="62.611254250798" lon="17.961068584344">
        <ele>150.4</ele>
        <time>2018-03-30T11:34:34Z</time>
      </trkpt>
      <trkpt lat="62.611235223885" lon="17.96106975781">
        <ele>150.6</ele>
        <time>2018-03-30T11:34:35Z</time>
      </trkpt>
      <trkpt lat="62.611215107325" lon="17.961064644851">
        <ele>150.8</ele>
        <time>2018-03-30T11:34:36Z</time>
      </trkpt>
      <trkpt lat="62.611194906946" lon="17.961060956815">
        <ele>150.8</ele>
        <time>2018-03-30T11:34:37Z</time>
      </trkpt>
      <trkpt lat="62.611175377119" lon="17.961059028978">
        <ele>151.2</ele>
        <time>2018-03-30T11:34:38Z</time>
      </trkpt>
      <trkpt lat="62.611153751817" lon="17.961051401449">
        <ele>151.4</ele>
        <time>2018-03-30T11:34:39Z</time>
      </trkpt>
      <trkpt lat="62.611132880886" lon="17.961053413105">
        <ele>151.8</ele>
        <time>2018-03-30T11:34:40Z</time>
      </trkpt>
      <trkpt lat="62.611115865629" lon="17.961036900762">
        <ele>152</ele>
        <time>2018-03-30T11:34:41Z</time>
      </trkpt>
      <trkpt lat="62.611100862028" lon="17.961022986808">
        <ele>152.2</ele>
        <time>2018-03-30T11:34:42Z</time>
      </trkpt>
      <trkpt lat="62.611078817631" lon="17.96101527546">
        <ele>152.4</ele>
        <time>2018-03-30T11:34:43Z</time>
      </trkpt>
      <trkpt lat="62.611057359967" lon="17.961006642103">
        <ele>152.4</ele>
        <time>2018-03-30T11:34:44Z</time>
      </trkpt>
      <trkpt lat="62.611036069941" lon="17.96099180614">
        <ele>152.6</ele>
        <time>2018-03-30T11:34:45Z</time>
      </trkpt>
      <trkpt lat="62.611021485435" lon="17.96098510062">
        <ele>152.8</ele>
        <time>2018-03-30T11:34:46Z</time>
      </trkpt>
      <trkpt lat="62.611005224549" lon="17.960963894413">
        <ele>153</ele>
        <time>2018-03-30T11:34:47Z</time>
      </trkpt>
      <trkpt lat="62.610980078849" lon="17.960925672949">
        <ele>153.2</ele>
        <time>2018-03-30T11:34:48Z</time>
      </trkpt>
      <trkpt lat="62.610964153239" lon="17.960890301331">
        <ele>153.4</ele>
        <time>2018-03-30T11:34:49Z</time>
      </trkpt>
      <trkpt lat="62.610951915665" lon="17.960848391831">
        <ele>153.6</ele>
        <time>2018-03-30T11:34:50Z</time>
      </trkpt>
      <trkpt lat="62.610938588444" lon="17.960800112087">
        <ele>153.8</ele>
        <time>2018-03-30T11:34:51Z</time>
      </trkpt>
      <trkpt lat="62.610936157693" lon="17.960741857882">
        <ele>153.8</ele>
        <time>2018-03-30T11:34:52Z</time>
      </trkpt>
      <trkpt lat="62.610941103014" lon="17.960678071623">
        <ele>154</ele>
        <time>2018-03-30T11:34:53Z</time>
      </trkpt>
      <trkpt lat="62.610947054163" lon="17.960611854613">
        <ele>153.8</ele>
        <time>2018-03-30T11:34:54Z</time>
      </trkpt>
      <trkpt lat="62.610951748027" lon="17.960546475793">
        <ele>153.8</ele>
        <time>2018-03-30T11:34:55Z</time>
      </trkpt>
      <trkpt lat="62.610953843502" lon="17.960487131941">
        <ele>154</ele>
        <time>2018-03-30T11:34:56Z</time>
      </trkpt>
      <trkpt lat="62.610955938977" lon="17.960436505265">
        <ele>154</ele>
        <time>2018-03-30T11:34:57Z</time>
      </trkpt>
      <trkpt lat="62.610956022796" lon="17.960359307966">
        <ele>154.2</ele>
        <time>2018-03-30T11:34:58Z</time>
      </trkpt>
      <trkpt lat="62.610949568733" lon="17.960291330757">
        <ele>154.2</ele>
        <time>2018-03-30T11:34:59Z</time>
      </trkpt>
      <trkpt lat="62.610953089131" lon="17.960231232534">
        <ele>154.2</ele>
        <time>2018-03-30T11:35:00Z</time>
      </trkpt>
      <trkpt lat="62.610955436063" lon="17.960163590601">
        <ele>154.2</ele>
        <time>2018-03-30T11:35:01Z</time>
      </trkpt>
      <trkpt lat="62.610952250941" lon="17.960107180414">
        <ele>154</ele>
        <time>2018-03-30T11:35:02Z</time>
      </trkpt>
      <trkpt lat="62.610956860986" lon="17.960034341703">
        <ele>154</ele>
        <time>2018-03-30T11:35:03Z</time>
      </trkpt>
      <trkpt lat="62.610957280081" lon="17.95996753796">
        <ele>153.8</ele>
        <time>2018-03-30T11:35:04Z</time>
      </trkpt>
      <trkpt lat="62.610965159067" lon="17.959892184679">
        <ele>154</ele>
        <time>2018-03-30T11:35:05Z</time>
      </trkpt>
      <trkpt lat="62.610963817963" lon="17.959818675416">
        <ele>154</ele>
        <time>2018-03-30T11:35:06Z</time>
      </trkpt>
      <trkpt lat="62.610961387212" lon="17.959753296596">
        <ele>154</ele>
        <time>2018-03-30T11:35:07Z</time>
      </trkpt>
      <trkpt lat="62.610967757456" lon="17.95968674431">
        <ele>154</ele>
        <time>2018-03-30T11:35:08Z</time>
      </trkpt>
      <trkpt lat="62.610977564279" lon="17.95962388006">
        <ele>154</ele>
        <time>2018-03-30T11:35:09Z</time>
      </trkpt>
      <trkpt lat="62.610991310595" lon="17.959577444334">
        <ele>154.2</ele>
        <time>2018-03-30T11:35:10Z</time>
      </trkpt>
      <trkpt lat="62.611000698323" lon="17.959492787144">
        <ele>154.2</ele>
        <time>2018-03-30T11:35:11Z</time>
      </trkpt>
      <trkpt lat="62.611013354992" lon="17.959426737772">
        <ele>154.2</ele>
        <time>2018-03-30T11:35:12Z</time>
      </trkpt>
      <trkpt lat="62.611027688041" lon="17.959361442771">
        <ele>154.2</ele>
        <time>2018-03-30T11:35:13Z</time>
      </trkpt>
      <trkpt lat="62.611036321398" lon="17.959287346775">
        <ele>154.2</ele>
        <time>2018-03-30T11:35:14Z</time>
      </trkpt>
      <trkpt lat="62.611042440185" lon="17.959219118109">
        <ele>154.2</ele>
        <time>2018-03-30T11:35:15Z</time>
      </trkpt>
      <trkpt lat="62.611058281976" lon="17.959161534456">
        <ele>154.2</ele>
        <time>2018-03-30T11:35:16Z</time>
      </trkpt>
      <trkpt lat="62.611086864255" lon="17.959065058787">
        <ele>154.2</ele>
        <time>2018-03-30T11:35:17Z</time>
      </trkpt>
      <trkpt lat="62.611114189249" lon="17.95899356118">
        <ele>154.2</ele>
        <time>2018-03-30T11:35:18Z</time>
      </trkpt>
      <trkpt lat="62.611138748216" lon="17.958930445473">
        <ele>154.2</ele>
        <time>2018-03-30T11:35:19Z</time>
      </trkpt>
      <trkpt lat="62.611162133717" lon="17.958877974779">
        <ele>154.2</ele>
        <time>2018-03-30T11:35:20Z</time>
      </trkpt>
      <trkpt lat="62.611185686856" lon="17.958835562365">
        <ele>154</ele>
        <time>2018-03-30T11:35:21Z</time>
      </trkpt>
      <trkpt lat="62.611203037389" lon="17.9587823373">
        <ele>154</ele>
        <time>2018-03-30T11:35:22Z</time>
      </trkpt>
      <trkpt lat="62.611219549732" lon="17.958723747819">
        <ele>154</ele>
        <time>2018-03-30T11:35:23Z</time>
      </trkpt>
      <trkpt lat="62.611239079559" lon="17.958687035097">
        <ele>154</ele>
        <time>2018-03-30T11:35:24Z</time>
      </trkpt>
      <trkpt lat="62.611265985458" lon="17.958656944076">
        <ele>154</ele>
        <time>2018-03-30T11:35:25Z</time>
      </trkpt>
      <trkpt lat="62.611286940208" lon="17.958624506123">
        <ele>154.2</ele>
        <time>2018-03-30T11:35:26Z</time>
      </trkpt>
      <trkpt lat="62.611303033456" lon="17.958592738722">
        <ele>154.4</ele>
        <time>2018-03-30T11:35:27Z</time>
      </trkpt>
      <trkpt lat="62.611320970722" lon="17.958573041257">
        <ele>154.8</ele>
        <time>2018-03-30T11:35:28Z</time>
      </trkpt>
      <trkpt lat="62.611353241037" lon="17.958547225005">
        <ele>155</ele>
        <time>2018-03-30T11:35:29Z</time>
      </trkpt>
      <trkpt lat="62.611381990954" lon="17.958528952463">
        <ele>155.2</ele>
        <time>2018-03-30T11:35:30Z</time>
      </trkpt>
      <trkpt lat="62.611411327604" lon="17.958509422636">
        <ele>155.4</ele>
        <time>2018-03-30T11:35:31Z</time>
      </trkpt>
      <trkpt lat="62.611444184652" lon="17.958490898637">
        <ele>155.4</ele>
        <time>2018-03-30T11:35:32Z</time>
      </trkpt>
      <trkpt lat="62.611488189627" lon="17.958469608611">
        <ele>155.4</ele>
        <time>2018-03-30T11:35:33Z</time>
      </trkpt>
      <trkpt lat="62.611540073588" lon="17.958441277789">
        <ele>155.4</ele>
        <time>2018-03-30T11:35:34Z</time>
      </trkpt>
      <trkpt lat="62.611583910925" lon="17.958413785157">
        <ele>155.4</ele>
        <time>2018-03-30T11:35:35Z</time>
      </trkpt>
      <trkpt lat="62.611623138217" lon="17.958391656941">
        <ele>155.2</ele>
        <time>2018-03-30T11:35:36Z</time>
      </trkpt>
      <trkpt lat="62.611659348025" lon="17.958373384399">
        <ele>155</ele>
        <time>2018-03-30T11:35:37Z</time>
      </trkpt>
      <trkpt lat="62.611695306376" lon="17.9583548604">
        <ele>154.6</ele>
        <time>2018-03-30T11:35:38Z</time>
      </trkpt>
      <trkpt lat="62.611731767641" lon="17.958332983641">
        <ele>154.6</ele>
        <time>2018-03-30T11:35:39Z</time>
      </trkpt>
      <trkpt lat="62.611764792327" lon="17.958305826285">
        <ele>154.4</ele>
        <time>2018-03-30T11:35:40Z</time>
      </trkpt>
      <trkpt lat="62.611804857809" lon="17.958245392786">
        <ele>154.2</ele>
        <time>2018-03-30T11:35:41Z</time>
      </trkpt>
      <trkpt lat="62.611841486712" lon="17.958197113042">
        <ele>154.2</ele>
        <time>2018-03-30T11:35:42Z</time>
      </trkpt>
      <trkpt lat="62.611872835018" lon="17.958123855236">
        <ele>154</ele>
        <time>2018-03-30T11:35:43Z</time>
      </trkpt>
      <trkpt lat="62.611901249659" lon="17.958044311005">
        <ele>154</ele>
        <time>2018-03-30T11:35:44Z</time>
      </trkpt>
      <trkpt lat="62.611927652644" lon="17.957966275516">
        <ele>153.8</ele>
        <time>2018-03-30T11:35:45Z</time>
      </trkpt>
      <trkpt lat="62.611951541059" lon="17.957889832588">
        <ele>153.2</ele>
        <time>2018-03-30T11:35:46Z</time>
      </trkpt>
      <trkpt lat="62.61198247027" lon="17.957781454621">
        <ele>152.8</ele>
        <time>2018-03-30T11:35:47Z</time>
      </trkpt>
      <trkpt lat="62.61202270339" lon="17.957652624818">
        <ele>151.8</ele>
        <time>2018-03-30T11:35:48Z</time>
      </trkpt>
      <trkpt lat="62.612058577922" lon="17.957521364264">
        <ele>151</ele>
        <time>2018-03-30T11:35:49Z</time>
      </trkpt>
      <trkpt lat="62.612088249848" lon="17.957396473954">
        <ele>149.8</ele>
        <time>2018-03-30T11:35:50Z</time>
      </trkpt>
      <trkpt lat="62.612113479367" lon="17.957278959716">
        <ele>148.8</ele>
        <time>2018-03-30T11:35:51Z</time>
      </trkpt>
      <trkpt lat="62.61213585904" lon="17.957172928681">
        <ele>148.2</ele>
        <time>2018-03-30T11:35:52Z</time>
      </trkpt>
      <trkpt lat="62.612144324759" lon="17.95707662065">
        <ele>147.4</ele>
        <time>2018-03-30T11:35:53Z</time>
      </trkpt>
      <trkpt lat="62.612152874297" lon="17.956992466374">
        <ele>147.2</ele>
        <time>2018-03-30T11:35:54Z</time>
      </trkpt>
      <trkpt lat="62.61216184293" lon="17.956917867464">
        <ele>147.4</ele>
        <time>2018-03-30T11:35:55Z</time>
      </trkpt>
      <trkpt lat="62.612165447147" lon="17.956811082058">
        <ele>148</ele>
        <time>2018-03-30T11:35:56Z</time>
      </trkpt>
      <trkpt lat="62.612172907038" lon="17.9567203899">
        <ele>148.2</ele>
        <time>2018-03-30T11:35:57Z</time>
      </trkpt>
      <trkpt lat="62.612173996685" lon="17.95666506936">
        <ele>148.4</ele>
        <time>2018-03-30T11:35:58Z</time>
      </trkpt>
      <trkpt lat="62.612153712487" lon="17.956577394686">
        <ele>149</ele>
        <time>2018-03-30T11:35:59Z</time>
      </trkpt>
      <trkpt lat="62.612135272307" lon="17.956501287034">
        <ele>149</ele>
        <time>2018-03-30T11:36:00Z</time>
      </trkpt>
      <trkpt lat="62.612113479367" lon="17.95643875806">
        <ele>149.4</ele>
        <time>2018-03-30T11:36:01Z</time>
      </trkpt>
      <trkpt lat="62.612096631748" lon="17.956379330389">
        <ele>149.2</ele>
        <time>2018-03-30T11:36:02Z</time>
      </trkpt>
      <trkpt lat="62.61206209832" lon="17.95634404259">
        <ele>149.2</ele>
        <time>2018-03-30T11:36:03Z</time>
      </trkpt>
      <trkpt lat="62.612023960675" lon="17.956301965452">
        <ele>149.2</ele>
        <time>2018-03-30T11:36:04Z</time>
      </trkpt>
      <trkpt lat="62.61198917579" lon="17.956265420368">
        <ele>149.2</ele>
        <time>2018-03-30T11:36:05Z</time>
      </trkpt>
      <trkpt lat="62.611962102253" lon="17.956239939392">
        <ele>149.4</ele>
        <time>2018-03-30T11:36:06Z</time>
      </trkpt>
      <trkpt lat="62.611939219666" lon="17.956218146452">
        <ele>149.6</ele>
        <time>2018-03-30T11:36:07Z</time>
      </trkpt>
      <trkpt lat="62.611914241604" lon="17.95619484477">
        <ele>149.8</ele>
        <time>2018-03-30T11:36:08Z</time>
      </trkpt>
      <trkpt lat="62.611894292682" lon="17.956176991323">
        <ele>149.8</ele>
        <time>2018-03-30T11:36:09Z</time>
      </trkpt>
      <trkpt lat="62.611876187778" lon="17.956151677985">
        <ele>150.4</ele>
        <time>2018-03-30T11:36:10Z</time>
      </trkpt>
      <trkpt lat="62.611851880268" lon="17.956130723235">
        <ele>150.6</ele>
        <time>2018-03-30T11:36:11Z</time>
      </trkpt>
      <trkpt lat="62.611836122296" lon="17.956111109589">
        <ele>150.8</ele>
        <time>2018-03-30T11:36:12Z</time>
      </trkpt>
      <trkpt lat="62.611813239709" lon="17.956073726315">
        <ele>151.2</ele>
        <time>2018-03-30T11:36:13Z</time>
      </trkpt>
      <trkpt lat="62.611791027674" lon="17.956044641122">
        <ele>151.4</ele>
        <time>2018-03-30T11:36:14Z</time>
      </trkpt>
      <trkpt lat="62.611768899458" lon="17.956019411603">
        <ele>151.4</ele>
        <time>2018-03-30T11:36:15Z</time>
      </trkpt>
      <trkpt lat="62.611742328835" lon="17.955982698881">
        <ele>151.4</ele>
        <time>2018-03-30T11:36:16Z</time>
      </trkpt>
      <trkpt lat="62.611711651081" lon="17.955925031409">
        <ele>151.4</ele>
        <time>2018-03-30T11:36:17Z</time>
      </trkpt>
      <trkpt lat="62.611691785978" lon="17.955857305657">
        <ele>151.2</ele>
        <time>2018-03-30T11:36:18Z</time>
      </trkpt>
      <trkpt lat="62.611674686902" lon="17.955795279597">
        <ele>151</ele>
        <time>2018-03-30T11:36:19Z</time>
      </trkpt>
      <trkpt lat="62.611661611138" lon="17.955731996252">
        <ele>150.8</ele>
        <time>2018-03-30T11:36:20Z</time>
      </trkpt>
      <trkpt lat="62.611652642505" lon="17.955671981848">
        <ele>150.6</ele>
        <time>2018-03-30T11:36:21Z</time>
      </trkpt>
      <trkpt lat="62.611642919501" lon="17.955605932476">
        <ele>150.4</ele>
        <time>2018-03-30T11:36:22Z</time>
      </trkpt>
      <trkpt lat="62.611641410759" lon="17.955518676897">
        <ele>150.2</ele>
        <time>2018-03-30T11:36:23Z</time>
      </trkpt>
      <trkpt lat="62.611643590053" lon="17.955430918404">
        <ele>150</ele>
        <time>2018-03-30T11:36:24Z</time>
      </trkpt>
      <trkpt lat="62.611649289745" lon="17.955337711676">
        <ele>149.6</ele>
        <time>2018-03-30T11:36:25Z</time>
      </trkpt>
      <trkpt lat="62.611656162903" lon="17.955247773889">
        <ele>149.4</ele>
        <time>2018-03-30T11:36:26Z</time>
      </trkpt>
      <trkpt lat="62.611663874251" lon="17.955162529966">
        <ele>149</ele>
        <time>2018-03-30T11:36:27Z</time>
      </trkpt>
      <trkpt lat="62.611676028006" lon="17.955082901916">
        <ele>148.2</ele>
        <time>2018-03-30T11:36:28Z</time>
      </trkpt>
      <trkpt lat="62.611686924476" lon="17.954973769578">
        <ele>147.2</ele>
        <time>2018-03-30T11:36:29Z</time>
      </trkpt>
      <trkpt lat="62.611699245869" lon="17.954882742144">
        <ele>146.8</ele>
        <time>2018-03-30T11:36:30Z</time>
      </trkpt>
      <trkpt lat="62.61170167662" lon="17.9547757891">
        <ele>146</ele>
        <time>2018-03-30T11:36:31Z</time>
      </trkpt>
      <trkpt lat="62.611705699932" lon="17.954676631223">
        <ele>145.6</ele>
        <time>2018-03-30T11:36:32Z</time>
      </trkpt>
      <trkpt lat="62.611698659136" lon="17.954595494431">
        <ele>145.2</ele>
        <time>2018-03-30T11:36:33Z</time>
      </trkpt>
      <trkpt lat="62.611686840657" lon="17.954518548589">
        <ele>144.6</ele>
        <time>2018-03-30T11:36:34Z</time>
      </trkpt>
      <trkpt lat="62.611670328314" lon="17.9544405131">
        <ele>144.2</ele>
        <time>2018-03-30T11:36:35Z</time>
      </trkpt>
      <trkpt lat="62.611651971953" lon="17.95437681066">
        <ele>143.8</ele>
        <time>2018-03-30T11:36:36Z</time>
      </trkpt>
      <trkpt lat="62.611633867049" lon="17.954321238663">
        <ele>143.8</ele>
        <time>2018-03-30T11:36:37Z</time>
      </trkpt>
      <trkpt lat="62.611581312536" lon="17.954256781852">
        <ele>143.6</ele>
        <time>2018-03-30T11:36:38Z</time>
      </trkpt>
      <trkpt lat="62.611538564846" lon="17.954203556787">
        <ele>143.6</ele>
        <time>2018-03-30T11:36:39Z</time>
      </trkpt>
      <trkpt lat="62.611493721681" lon="17.954194839611">
        <ele>143.4</ele>
        <time>2018-03-30T11:36:40Z</time>
      </trkpt>
      <trkpt lat="62.611452650371" lon="17.954225433546">
        <ele>143.2</ele>
        <time>2018-03-30T11:36:41Z</time>
      </trkpt>
      <trkpt lat="62.611417027296" lon="17.954244711916">
        <ele>143.2</ele>
        <time>2018-03-30T11:36:42Z</time>
      </trkpt>
      <trkpt lat="62.611401436962" lon="17.954278910068">
        <ele>143</ele>
        <time>2018-03-30T11:36:43Z</time>
      </trkpt>
      <trkpt lat="62.611382577687" lon="17.954309923098">
        <ele>142.8</ele>
        <time>2018-03-30T11:36:44Z</time>
      </trkpt>
      <trkpt lat="62.611361203842" lon="17.954339762662">
        <ele>142.8</ele>
        <time>2018-03-30T11:36:45Z</time>
      </trkpt>
      <trkpt lat="62.611347541345" lon="17.954364405448">
        <ele>142.8</ele>
        <time>2018-03-30T11:36:46Z</time>
      </trkpt>
      <trkpt lat="62.611336561056" lon="17.95441620559">
        <ele>142.6</ele>
        <time>2018-03-30T11:36:47Z</time>
      </trkpt>
      <trkpt lat="62.611321305998" lon="17.95444302767">
        <ele>142.8</ele>
        <time>2018-03-30T11:36:48Z</time>
      </trkpt>
      <trkpt lat="62.611308481691" lon="17.954474711252">
        <ele>143</ele>
        <time>2018-03-30T11:36:49Z</time>
      </trkpt>
      <trkpt lat="62.611297166126" lon="17.954504802273">
        <ele>143.2</ele>
        <time>2018-03-30T11:36:50Z</time>
      </trkpt>
      <trkpt lat="62.611287359303" lon="17.954535647665">
        <ele>143.4</ele>
        <time>2018-03-30T11:36:51Z</time>
      </trkpt>
      <trkpt lat="62.611266320734" lon="17.954557692062">
        <ele>143.8</ele>
        <time>2018-03-30T11:36:52Z</time>
      </trkpt>
      <trkpt lat="62.611260201947" lon="17.954577808622">
        <ele>144.4</ele>
        <time>2018-03-30T11:36:53Z</time>
      </trkpt>
      <trkpt lat="62.611253077332" lon="17.954600355933">
        <ele>144.8</ele>
        <time>2018-03-30T11:36:54Z</time>
      </trkpt>
      <trkpt lat="62.611242516138" lon="17.954630446954">
        <ele>145</ele>
        <time>2018-03-30T11:36:55Z</time>
      </trkpt>
      <trkpt lat="62.611229356555" lon="17.954661208527">
        <ele>145.4</ele>
        <time>2018-03-30T11:36:56Z</time>
      </trkpt>
      <trkpt lat="62.611215191144" lon="17.95468945553">
        <ele>145.4</ele>
        <time>2018-03-30T11:36:57Z</time>
      </trkpt>
      <trkpt lat="62.611207563615" lon="17.954716780524">
        <ele>145.8</ele>
        <time>2018-03-30T11:36:58Z</time>
      </trkpt>
      <trkpt lat="62.61119289529" lon="17.954756762187">
        <ele>146.2</ele>
        <time>2018-03-30T11:36:59Z</time>
      </trkpt>
      <trkpt lat="62.611176802042" lon="17.954792888176">
        <ele>146.4</ele>
        <time>2018-03-30T11:37:00Z</time>
      </trkpt>
      <trkpt lat="62.611166743762" lon="17.954835719685">
        <ele>146.6</ele>
        <time>2018-03-30T11:37:01Z</time>
      </trkpt>
      <trkpt lat="62.611147046297" lon="17.954869498742">
        <ele>146.8</ele>
        <time>2018-03-30T11:37:02Z</time>
      </trkpt>
      <trkpt lat="62.611143944994" lon="17.954905792369">
        <ele>147</ele>
        <time>2018-03-30T11:37:03Z</time>
      </trkpt>
      <trkpt lat="62.611133467619" lon="17.954934542286">
        <ele>147</ele>
        <time>2018-03-30T11:37:04Z</time>
      </trkpt>
      <trkpt lat="62.611125672452" lon="17.954983241125">
        <ele>147.2</ele>
        <time>2018-03-30T11:37:05Z</time>
      </trkpt>
      <trkpt lat="62.611118883113" lon="17.955019367114">
        <ele>147.4</ele>
        <time>2018-03-30T11:37:06Z</time>
      </trkpt>
      <trkpt lat="62.61111326724" lon="17.955054738732">
        <ele>147.4</ele>
        <time>2018-03-30T11:37:07Z</time>
      </trkpt>
      <trkpt lat="62.611097928363" lon="17.955095223309">
        <ele>147.6</ele>
        <time>2018-03-30T11:37:08Z</time>
      </trkpt>
      <trkpt lat="62.611085858427" lon="17.955134785877">
        <ele>147.8</ele>
        <time>2018-03-30T11:37:09Z</time>
      </trkpt>
      <trkpt lat="62.611078817631" lon="17.955174935178">
        <ele>148</ele>
        <time>2018-03-30T11:37:10Z</time>
      </trkpt>
      <trkpt lat="62.611066999152" lon="17.955219694524">
        <ele>148.2</ele>
        <time>2018-03-30T11:37:11Z</time>
      </trkpt>
      <trkpt lat="62.611057527605" lon="17.955257664531">
        <ele>148.6</ele>
        <time>2018-03-30T11:37:12Z</time>
      </trkpt>
      <trkpt lat="62.611049480981" lon="17.955305106085">
        <ele>149</ele>
        <time>2018-03-30T11:37:13Z</time>
      </trkpt>
      <trkpt lat="62.611038835968" lon="17.955351541811">
        <ele>149.2</ele>
        <time>2018-03-30T11:37:14Z</time>
      </trkpt>
      <trkpt lat="62.611026849851" lon="17.955399653917">
        <ele>149.6</ele>
        <time>2018-03-30T11:37:15Z</time>
      </trkpt>
      <trkpt lat="62.611009164042" lon="17.955442904521">
        <ele>149.8</ele>
        <time>2018-03-30T11:37:16Z</time>
      </trkpt>
      <trkpt lat="62.611004218721" lon="17.955480539252">
        <ele>149.8</ele>
        <time>2018-03-30T11:37:17Z</time>
      </trkpt>
      <trkpt lat="62.610973373329" lon="17.955531585023">
        <ele>150</ele>
        <time>2018-03-30T11:37:18Z</time>
      </trkpt>
      <trkpt lat="62.610963734144" lon="17.955574332713">
        <ele>150.2</ele>
        <time>2018-03-30T11:37:19Z</time>
      </trkpt>
      <trkpt lat="62.610957699176" lon="17.955612805634">
        <ele>150.2</ele>
        <time>2018-03-30T11:37:20Z</time>
      </trkpt>
      <trkpt lat="62.610948395267" lon="17.955644237759">
        <ele>150.4</ele>
        <time>2018-03-30T11:37:21Z</time>
      </trkpt>
      <trkpt lat="62.610925428861" lon="17.955681704852">
        <ele>150.4</ele>
        <time>2018-03-30T11:37:22Z</time>
      </trkpt>
      <trkpt lat="62.610910676717" lon="17.955728475854">
        <ele>150.8</ele>
        <time>2018-03-30T11:37:23Z</time>
      </trkpt>
      <trkpt lat="62.610895673116" lon="17.955774660123">
        <ele>151</ele>
        <time>2018-03-30T11:37:24Z</time>
      </trkpt>
      <trkpt lat="62.610878238764" lon="17.955826711722">
        <ele>151.2</ele>
        <time>2018-03-30T11:37:25Z</time>
      </trkpt>
      <trkpt lat="62.610859798584" lon="17.955881445529">
        <ele>151.4</ele>
        <time>2018-03-30T11:37:26Z</time>
      </trkpt>
      <trkpt lat="62.610845800811" lon="17.955935173508">
        <ele>151.4</ele>
        <time>2018-03-30T11:37:27Z</time>
      </trkpt>
      <trkpt lat="62.610843118603" lon="17.955996780473">
        <ele>151.6</ele>
        <time>2018-03-30T11:37:28Z</time>
      </trkpt>
      <trkpt lat="62.61081570979" lon="17.956046820416">
        <ele>151.8</ele>
        <time>2018-03-30T11:37:29Z</time>
      </trkpt>
      <trkpt lat="62.61080229875" lon="17.956099458748">
        <ele>151.8</ele>
        <time>2018-03-30T11:37:30Z</time>
      </trkpt>
      <trkpt lat="62.610778158878" lon="17.956137931669">
        <ele>151.8</ele>
        <time>2018-03-30T11:37:31Z</time>
      </trkpt>
      <trkpt lat="62.610761059802" lon="17.956180008807">
        <ele>151.8</ele>
        <time>2018-03-30T11:37:32Z</time>
      </trkpt>
      <trkpt lat="62.610749660418" lon="17.956224851972">
        <ele>152</ele>
        <time>2018-03-30T11:37:33Z</time>
      </trkpt>
      <trkpt lat="62.610726694012" lon="17.956266510015">
        <ele>152</ele>
        <time>2018-03-30T11:37:34Z</time>
      </trkpt>
      <trkpt lat="62.610713115334" lon="17.956317052872">
        <ele>152.2</ele>
        <time>2018-03-30T11:37:35Z</time>
      </trkpt>
      <trkpt lat="62.610699704294" lon="17.956358040363">
        <ele>152.2</ele>
        <time>2018-03-30T11:37:36Z</time>
      </trkpt>
      <trkpt lat="62.610688388729" lon="17.95639852494">
        <ele>152.4</ele>
        <time>2018-03-30T11:37:37Z</time>
      </trkpt>
      <trkpt lat="62.610669613273" lon="17.956443871019">
        <ele>152.6</ele>
        <time>2018-03-30T11:37:38Z</time>
      </trkpt>
      <trkpt lat="62.610660896097" lon="17.956488127451">
        <ele>152.6</ele>
        <time>2018-03-30T11:37:39Z</time>
      </trkpt>
      <trkpt lat="62.610644216116" lon="17.956536574833">
        <ele>152.8</ele>
        <time>2018-03-30T11:37:40Z</time>
      </trkpt>
      <trkpt lat="62.610639857528" lon="17.956584016387">
        <ele>153</ele>
        <time>2018-03-30T11:37:41Z</time>
      </trkpt>
      <trkpt lat="62.610629715429" lon="17.956625506792">
        <ele>153.2</ele>
        <time>2018-03-30T11:37:42Z</time>
      </trkpt>
      <trkpt lat="62.610617142579" lon="17.956671523423">
        <ele>153.2</ele>
        <time>2018-03-30T11:37:43Z</time>
      </trkpt>
      <trkpt lat="62.610599540589" lon="17.956719216434">
        <ele>153.4</ele>
        <time>2018-03-30T11:37:44Z</time>
      </trkpt>
      <trkpt lat="62.610580429857" lon="17.956765400703">
        <ele>153.4</ele>
        <time>2018-03-30T11:37:45Z</time>
      </trkpt>
      <trkpt lat="62.610563666057" lon="17.95680337071">
        <ele>153.4</ele>
        <time>2018-03-30T11:37:46Z</time>
      </trkpt>
      <trkpt lat="62.610538017443" lon="17.956844525839">
        <ele>153.4</ele>
        <time>2018-03-30T11:37:47Z</time>
      </trkpt>
      <trkpt lat="62.61051982872" lon="17.956900852207">
        <ele>153.4</ele>
        <time>2018-03-30T11:37:48Z</time>
      </trkpt>
      <trkpt lat="62.610500801807" lon="17.956934463626">
        <ele>153.4</ele>
        <time>2018-03-30T11:37:49Z</time>
      </trkpt>
      <trkpt lat="62.610481104342" lon="17.956973774737">
        <ele>153.4</ele>
        <time>2018-03-30T11:37:50Z</time>
      </trkpt>
      <trkpt lat="62.610465514008" lon="17.957012331477">
        <ele>153.4</ele>
        <time>2018-03-30T11:37:51Z</time>
      </trkpt>
      <trkpt lat="62.61044187705" lon="17.957023647042">
        <ele>153.4</ele>
        <time>2018-03-30T11:37:52Z</time>
      </trkpt>
      <trkpt lat="62.61040918764" lon="17.957057426099">
        <ele>153.6</ele>
        <time>2018-03-30T11:37:53Z</time>
      </trkpt>
      <trkpt lat="62.610379934809" lon="17.957084583455">
        <ele>153.8</ele>
        <time>2018-03-30T11:37:54Z</time>
      </trkpt>
      <trkpt lat="62.610349843788" lon="17.95710931006">
        <ele>153.8</ele>
        <time>2018-03-30T11:37:55Z</time>
      </trkpt>
      <trkpt lat="62.610317992568" lon="17.957134120484">
        <ele>153.8</ele>
        <time>2018-03-30T11:37:56Z</time>
      </trkpt>
      <trkpt lat="62.610295026162" lon="17.957157757442">
        <ele>153.8</ele>
        <time>2018-03-30T11:37:57Z</time>
      </trkpt>
      <trkpt lat="62.610266862978" lon="17.95718558535">
        <ele>154</ele>
        <time>2018-03-30T11:37:58Z</time>
      </trkpt>
      <trkpt lat="62.610246327323" lon="17.957231350524">
        <ele>153.8</ele>
        <time>2018-03-30T11:37:59Z</time>
      </trkpt>
      <trkpt lat="62.61023568231" lon="17.957270410178">
        <ele>153.8</ele>
        <time>2018-03-30T11:38:00Z</time>
      </trkpt>
      <trkpt lat="62.61020802204" lon="17.95730796109">
        <ele>154</ele>
        <time>2018-03-30T11:38:01Z</time>
      </trkpt>
      <trkpt lat="62.610189246584" lon="17.957353390988">
        <ele>154</ele>
        <time>2018-03-30T11:38:02Z</time>
      </trkpt>
      <trkpt lat="62.610189414222" lon="17.957381386534">
        <ele>154.2</ele>
        <time>2018-03-30T11:38:03Z</time>
      </trkpt>
      <trkpt lat="62.610172650422" lon="17.957425726785">
        <ele>154.4</ele>
        <time>2018-03-30T11:38:04Z</time>
      </trkpt>
      <trkpt lat="62.610154629337" lon="17.957450369571">
        <ele>154.6</ele>
        <time>2018-03-30T11:38:05Z</time>
      </trkpt>
      <trkpt lat="62.610141469754" lon="17.957484483904">
        <ele>154.8</ele>
        <time>2018-03-30T11:38:06Z</time>
      </trkpt>
      <trkpt lat="62.610132836397" lon="17.957518514418">
        <ele>155</ele>
        <time>2018-03-30T11:38:07Z</time>
      </trkpt>
      <trkpt lat="62.610123448669" lon="17.957550617095">
        <ele>155.4</ele>
        <time>2018-03-30T11:38:08Z</time>
      </trkpt>
      <trkpt lat="62.610114060941" lon="17.957584479971">
        <ele>155.4</ele>
        <time>2018-03-30T11:38:09Z</time>
      </trkpt>
      <trkpt lat="62.610107271602" lon="17.957642901814">
        <ele>155.6</ele>
        <time>2018-03-30T11:38:10Z</time>
      </trkpt>
      <trkpt lat="62.610091010716" lon="17.957714567059">
        <ele>156</ele>
        <time>2018-03-30T11:38:11Z</time>
      </trkpt>
      <trkpt lat="62.61008229354" lon="17.95777902387">
        <ele>156.2</ele>
        <time>2018-03-30T11:38:12Z</time>
      </trkpt>
      <trkpt lat="62.610062931351" lon="17.957831159288">
        <ele>156.4</ele>
        <time>2018-03-30T11:38:13Z</time>
      </trkpt>
      <trkpt lat="62.610052873071" lon="17.957888240027">
        <ele>156.6</ele>
        <time>2018-03-30T11:38:14Z</time>
      </trkpt>
      <trkpt lat="62.610046921922" lon="17.957948002974">
        <ele>156.6</ele>
        <time>2018-03-30T11:38:15Z</time>
      </trkpt>
      <trkpt lat="62.610039462031" lon="17.958003239695">
        <ele>156.4</ele>
        <time>2018-03-30T11:38:16Z</time>
      </trkpt>
      <trkpt lat="62.610040300221" lon="17.958051351801">
        <ele>156.4</ele>
        <time>2018-03-30T11:38:17Z</time>
      </trkpt>
      <trkpt lat="62.610036025452" lon="17.958103822495">
        <ele>156.4</ele>
        <time>2018-03-30T11:38:18Z</time>
      </trkpt>
      <trkpt lat="62.610034600529" lon="17.958155957913">
        <ele>156.2</ele>
        <time>2018-03-30T11:38:19Z</time>
      </trkpt>
      <trkpt lat="62.610036779823" lon="17.958201639268">
        <ele>156.2</ele>
        <time>2018-03-30T11:38:20Z</time>
      </trkpt>
      <trkpt lat="62.610042814791" lon="17.95824505751">
        <ele>156.2</ele>
        <time>2018-03-30T11:38:21Z</time>
      </trkpt>
      <trkpt lat="62.610029739027" lon="17.958308676131">
        <ele>156.2</ele>
        <time>2018-03-30T11:38:22Z</time>
      </trkpt>
      <trkpt lat="62.610020854213" lon="17.958357207332">
        <ele>156.2</ele>
        <time>2018-03-30T11:38:23Z</time>
      </trkpt>
      <trkpt lat="62.610016579444" lon="17.958411270587">
        <ele>156.2</ele>
        <time>2018-03-30T11:38:24Z</time>
      </trkpt>
      <trkpt lat="62.610011466485" lon="17.958467848412">
        <ele>156.2</ele>
        <time>2018-03-30T11:38:25Z</time>
      </trkpt>
      <trkpt lat="62.610006940259" lon="17.958523839504">
        <ele>156.4</ele>
        <time>2018-03-30T11:38:26Z</time>
      </trkpt>
      <trkpt lat="62.610006604983" lon="17.958575052913">
        <ele>156.4</ele>
        <time>2018-03-30T11:38:27Z</time>
      </trkpt>
      <trkpt lat="62.60999176902" lon="17.958630541091">
        <ele>156.4</ele>
        <time>2018-03-30T11:38:28Z</time>
      </trkpt>
      <trkpt lat="62.609985147319" lon="17.958705307639">
        <ele>156.4</ele>
        <time>2018-03-30T11:38:29Z</time>
      </trkpt>
      <trkpt lat="62.6099766816" lon="17.958766495509">
        <ele>156.4</ele>
        <time>2018-03-30T11:38:30Z</time>
      </trkpt>
      <trkpt lat="62.609976513962" lon="17.958825168809">
        <ele>156.6</ele>
        <time>2018-03-30T11:38:31Z</time>
      </trkpt>
      <trkpt lat="62.609977016876" lon="17.958875795485">
        <ele>156.6</ele>
        <time>2018-03-30T11:38:32Z</time>
      </trkpt>
      <trkpt lat="62.60996578513" lon="17.958944862341">
        <ele>156.6</ele>
        <time>2018-03-30T11:38:33Z</time>
      </trkpt>
      <trkpt lat="62.609965617492" lon="17.959012755731">
        <ele>156.4</ele>
        <time>2018-03-30T11:38:34Z</time>
      </trkpt>
      <trkpt lat="62.609952541728" lon="17.959082493139">
        <ele>156.6</ele>
        <time>2018-03-30T11:38:35Z</time>
      </trkpt>
      <trkpt lat="62.609947680226" lon="17.959145357389">
        <ele>156.6</ele>
        <time>2018-03-30T11:38:36Z</time>
      </trkpt>
      <trkpt lat="62.609945500932" lon="17.959200258834">
        <ele>156.6</ele>
        <time>2018-03-30T11:38:37Z</time>
      </trkpt>
      <trkpt lat="62.609942148172" lon="17.959274187192">
        <ele>156.4</ele>
        <time>2018-03-30T11:38:38Z</time>
      </trkpt>
      <trkpt lat="62.60994734495" lon="17.959330345922">
        <ele>156.4</ele>
        <time>2018-03-30T11:38:39Z</time>
      </trkpt>
      <trkpt lat="62.609940974706" lon="17.959396479113">
        <ele>156.4</ele>
        <time>2018-03-30T11:38:40Z</time>
      </trkpt>
      <trkpt lat="62.609939130688" lon="17.959480465751">
        <ele>156.4</ele>
        <time>2018-03-30T11:38:41Z</time>
      </trkpt>
      <trkpt lat="62.609945417113" lon="17.959550203159">
        <ele>156.4</ele>
        <time>2018-03-30T11:38:42Z</time>
      </trkpt>
      <trkpt lat="62.609962013275" lon="17.959615581979">
        <ele>156.6</ele>
        <time>2018-03-30T11:38:43Z</time>
      </trkpt>
      <trkpt lat="62.610002833128" lon="17.959726223059">
        <ele>156.6</ele>
        <time>2018-03-30T11:38:45Z</time>
      </trkpt>
      <trkpt lat="62.610030661036" lon="17.959747429266">
        <ele>156.6</ele>
        <time>2018-03-30T11:38:46Z</time>
      </trkpt>
      <trkpt lat="62.610063937179" lon="17.959760169754">
        <ele>156.6</ele>
        <time>2018-03-30T11:38:47Z</time>
      </trkpt>
      <trkpt lat="62.610085059567" lon="17.959782968522">
        <ele>156.4</ele>
        <time>2018-03-30T11:38:48Z</time>
      </trkpt>
      <trkpt lat="62.610113641846" lon="17.959779448124">
        <ele>156.4</ele>
        <time>2018-03-30T11:38:49Z</time>
      </trkpt>
      <trkpt lat="62.610139122822" lon="17.959777436468">
        <ele>156.4</ele>
        <time>2018-03-30T11:38:50Z</time>
      </trkpt>
      <trkpt lat="62.610164603798" lon="17.959789506404">
        <ele>156.4</ele>
        <time>2018-03-30T11:38:51Z</time>
      </trkpt>
      <trkpt lat="62.610191761154" lon="17.959788752033">
        <ele>156.4</ele>
        <time>2018-03-30T11:38:52Z</time>
      </trkpt>
      <trkpt lat="62.610212129171" lon="17.959788668214">
        <ele>156.2</ele>
        <time>2018-03-30T11:38:53Z</time>
      </trkpt>
      <trkpt lat="62.6102449024" lon="17.95979570901">
        <ele>156.2</ele>
        <time>2018-03-30T11:38:54Z</time>
      </trkpt>
      <trkpt lat="62.610270718652" lon="17.959791015146">
        <ele>156.2</ele>
        <time>2018-03-30T11:38:55Z</time>
      </trkpt>
      <trkpt lat="62.61029687018" lon="17.959783471436">
        <ele>156.2</ele>
        <time>2018-03-30T11:38:56Z</time>
      </trkpt>
      <trkpt lat="62.610332996169" lon="17.959791853336">
        <ele>156.2</ele>
        <time>2018-03-30T11:38:57Z</time>
      </trkpt>
      <trkpt lat="62.610358477145" lon="17.959771485319">
        <ele>156.2</ele>
        <time>2018-03-30T11:38:58Z</time>
      </trkpt>
      <trkpt lat="62.610390998917" lon="17.959789757861">
        <ele>156</ele>
        <time>2018-03-30T11:38:59Z</time>
      </trkpt>
      <trkpt lat="62.610426286716" lon="17.959790344594">
        <ele>156</ele>
        <time>2018-03-30T11:39:00Z</time>
      </trkpt>
      <trkpt lat="62.610453527891" lon="17.959816244665">
        <ele>155.8</ele>
        <time>2018-03-30T11:39:01Z</time>
      </trkpt>
      <trkpt lat="62.610487223129" lon="17.959835439216">
        <ele>155.6</ele>
        <time>2018-03-30T11:39:02Z</time>
      </trkpt>
      <trkpt lat="62.6105131232" lon="17.959856393966">
        <ele>156</ele>
        <time>2018-03-30T11:39:03Z</time>
      </trkpt>
      <trkpt lat="62.610542208393" lon="17.959905847176">
        <ele>155.8</ele>
        <time>2018-03-30T11:39:04Z</time>
      </trkpt>
      <trkpt lat="62.610574394889" lon="17.959974830213">
        <ele>156.2</ele>
        <time>2018-03-30T11:39:05Z</time>
      </trkpt>
      <trkpt lat="62.61059107487" lon="17.960032749142">
        <ele>156.2</ele>
        <time>2018-03-30T11:39:06Z</time>
      </trkpt>
      <trkpt lat="62.610607754851" lon="17.960085387474">
        <ele>156.2</ele>
        <time>2018-03-30T11:39:07Z</time>
      </trkpt>
      <trkpt lat="62.610600211141" lon="17.960146659163">
        <ele>155.8</ele>
        <time>2018-03-30T11:39:08Z</time>
      </trkpt>
      <trkpt lat="62.610600462598" lon="17.960200973875">
        <ele>156</ele>
        <time>2018-03-30T11:39:09Z</time>
      </trkpt>
      <trkpt lat="62.610594176173" lon="17.960253947483">
        <ele>156</ele>
        <time>2018-03-30T11:39:10Z</time>
      </trkpt>
      <trkpt lat="62.610575903631" lon="17.960300634666">
        <ele>156.2</ele>
        <time>2018-03-30T11:39:11Z</time>
      </trkpt>
      <trkpt lat="62.610563246962" lon="17.960344974917">
        <ele>156.4</ele>
        <time>2018-03-30T11:39:12Z</time>
      </trkpt>
      <trkpt lat="62.610543884773" lon="17.960393841394">
        <ele>156.8</ele>
        <time>2018-03-30T11:39:13Z</time>
      </trkpt>
      <trkpt lat="62.610527707706" lon="17.960438768378">
        <ele>157</ele>
        <time>2018-03-30T11:39:14Z</time>
      </trkpt>
      <trkpt lat="62.610509267526" lon="17.960480594059">
        <ele>157</ele>
        <time>2018-03-30T11:39:15Z</time>
      </trkpt>
      <trkpt lat="62.61049049207" lon="17.960532729477">
        <ele>157.2</ele>
        <time>2018-03-30T11:39:16Z</time>
      </trkpt>
      <trkpt lat="62.610468363854" lon="17.960563574869">
        <ele>157.2</ele>
        <time>2018-03-30T11:39:17Z</time>
      </trkpt>
      <trkpt lat="62.610439530118" lon="17.960595677546">
        <ele>157.4</ele>
        <time>2018-03-30T11:39:18Z</time>
      </trkpt>
      <trkpt lat="62.610418240092" lon="17.960625936205">
        <ele>157.4</ele>
        <time>2018-03-30T11:39:19Z</time>
      </trkpt>
      <trkpt lat="62.610389322537" lon="17.960620907065">
        <ele>157.6</ele>
        <time>2018-03-30T11:39:20Z</time>
      </trkpt>
      <trkpt lat="62.610365266484" lon="17.960624595101">
        <ele>157.6</ele>
        <time>2018-03-30T11:39:21Z</time>
      </trkpt>
      <trkpt lat="62.610339450232" lon="17.960625098015">
        <ele>157.8</ele>
        <time>2018-03-30T11:39:22Z</time>
      </trkpt>
      <trkpt lat="62.610313214885" lon="17.960623086359">
        <ele>157.8</ele>
        <time>2018-03-30T11:39:23Z</time>
      </trkpt>
      <trkpt lat="62.610290751393" lon="17.960630210974">
        <ele>158</ele>
        <time>2018-03-30T11:39:24Z</time>
      </trkpt>
      <trkpt lat="62.610260073639" lon="17.960628450775">
        <ele>158</ele>
        <time>2018-03-30T11:39:25Z</time>
      </trkpt>
      <trkpt lat="62.610232664826" lon="17.960619063047">
        <ele>158</ele>
        <time>2018-03-30T11:39:26Z</time>
      </trkpt>
      <trkpt lat="62.610214811379" lon="17.96063222263">
        <ele>158.2</ele>
        <time>2018-03-30T11:39:27Z</time>
      </trkpt>
      <trkpt lat="62.610184217444" lon="17.960616799934">
        <ele>158.2</ele>
        <time>2018-03-30T11:39:28Z</time>
      </trkpt>
      <trkpt lat="62.610148426731" lon="17.960634066648">
        <ele>158.2</ele>
        <time>2018-03-30T11:39:29Z</time>
      </trkpt>
      <trkpt lat="62.610118251891" lon="17.960614955916">
        <ele>158.4</ele>
        <time>2018-03-30T11:39:30Z</time>
      </trkpt>
      <trkpt lat="62.610091262173" lon="17.960625098015">
        <ele>158.4</ele>
        <time>2018-03-30T11:39:31Z</time>
      </trkpt>
      <trkpt lat="62.610055220003" lon="17.960617554305">
        <ele>158.4</ele>
        <time>2018-03-30T11:39:32Z</time>
      </trkpt>
      <trkpt lat="62.61002278205" lon="17.960621661436">
        <ele>158.4</ele>
        <time>2018-03-30T11:39:33Z</time>
      </trkpt>
      <trkpt lat="62.610005599155" lon="17.960641694177">
        <ele>158.2</ele>
        <time>2018-03-30T11:39:34Z</time>
      </trkpt>
      <trkpt lat="62.609972155374" lon="17.960632641725">
        <ele>158.2</ele>
        <time>2018-03-30T11:39:35Z</time>
      </trkpt>
      <trkpt lat="62.609952290271" lon="17.96064060453">
        <ele>158.2</ele>
        <time>2018-03-30T11:39:36Z</time>
      </trkpt>
      <trkpt lat="62.609924965277" lon="17.960634485743">
        <ele>158.2</ele>
        <time>2018-03-30T11:39:37Z</time>
      </trkpt>
      <trkpt lat="62.609902837061" lon="17.960635826847">
        <ele>158.2</ele>
        <time>2018-03-30T11:39:38Z</time>
      </trkpt>
      <trkpt lat="62.609883726329" lon="17.960640436892">
        <ele>158.4</ele>
        <time>2018-03-30T11:39:39Z</time>
      </trkpt>
      <trkpt lat="62.609855730783" lon="17.96063725177">
        <ele>158.6</ele>
        <time>2018-03-30T11:39:40Z</time>
      </trkpt>
      <trkpt lat="62.609825220667" lon="17.960644376385">
        <ele>159</ele>
        <time>2018-03-30T11:39:41Z</time>
      </trkpt>
      <trkpt lat="62.609802673356" lon="17.960647477688">
        <ele>159.2</ele>
        <time>2018-03-30T11:39:42Z</time>
      </trkpt>
      <trkpt lat="62.609774174896" lon="17.960639431064">
        <ele>159.4</ele>
        <time>2018-03-30T11:39:43Z</time>
      </trkpt>
      <trkpt lat="62.60974450297" lon="17.960658374158">
        <ele>159.6</ele>
        <time>2018-03-30T11:39:44Z</time>
      </trkpt>
      <trkpt lat="62.609723967315" lon="17.96064898643">
        <ele>159.8</ele>
        <time>2018-03-30T11:39:45Z</time>
      </trkpt>
      <trkpt lat="62.609701420004" lon="17.96065066281">
        <ele>160</ele>
        <time>2018-03-30T11:39:46Z</time>
      </trkpt>
      <trkpt lat="62.609679207969" lon="17.960663570936">
        <ele>160.2</ele>
        <time>2018-03-30T11:39:47Z</time>
      </trkpt>
      <trkpt lat="62.609652385889" lon="17.960656111045">
        <ele>160.2</ele>
        <time>2018-03-30T11:39:48Z</time>
      </trkpt>
      <trkpt lat="62.60962296542" lon="17.960647980602">
        <ele>160.2</ele>
        <time>2018-03-30T11:39:49Z</time>
      </trkpt>
      <trkpt lat="62.609610057294" lon="17.960656781597">
        <ele>160.4</ele>
        <time>2018-03-30T11:39:50Z</time>
      </trkpt>
      <trkpt lat="62.609573931305" lon="17.960638425236">
        <ele>160.6</ele>
        <time>2018-03-30T11:39:51Z</time>
      </trkpt>
      <trkpt lat="62.60955339565" lon="17.960616045563">
        <ele>160.4</ele>
        <time>2018-03-30T11:39:52Z</time>
      </trkpt>
      <trkpt lat="62.609530932158" lon="17.960596934831">
        <ele>160.4</ele>
        <time>2018-03-30T11:39:53Z</time>
      </trkpt>
      <trkpt lat="62.60951148615" lon="17.960569526018">
        <ele>160.6</ele>
        <time>2018-03-30T11:39:54Z</time>
      </trkpt>
      <trkpt lat="62.60948466407" lon="17.960553684227">
        <ele>160.6</ele>
        <time>2018-03-30T11:39:55Z</time>
      </trkpt>
      <trkpt lat="62.60945868018" lon="17.960520324265">
        <ele>160.8</ele>
        <time>2018-03-30T11:39:56Z</time>
      </trkpt>
      <trkpt lat="62.609439988543" lon="17.960487634855">
        <ele>160.8</ele>
        <time>2018-03-30T11:39:57Z</time>
      </trkpt>
      <trkpt lat="62.609427499512" lon="17.960483443905">
        <ele>161</ele>
        <time>2018-03-30T11:39:58Z</time>
      </trkpt>
      <trkpt lat="62.60940000688" lon="17.960430470297">
        <ele>161</ele>
        <time>2018-03-30T11:39:59Z</time>
      </trkpt>
      <trkpt lat="62.60937150842" lon="17.960397613249">
        <ele>161.2</ele>
        <time>2018-03-30T11:40:00Z</time>
      </trkpt>
      <trkpt lat="62.609360192855" lon="17.9603665164">
        <ele>161.4</ele>
        <time>2018-03-30T11:40:01Z</time>
      </trkpt>
      <trkpt lat="62.609328006359" lon="17.960326702375">
        <ele>161.4</ele>
        <time>2018-03-30T11:40:02Z</time>
      </trkpt>
      <trkpt lat="62.609307135428" lon="17.960316811733">
        <ele>161.4</ele>
        <time>2018-03-30T11:40:03Z</time>
      </trkpt>
      <trkpt lat="62.609286599773" lon="17.960275572785">
        <ele>161.6</ele>
        <time>2018-03-30T11:40:04Z</time>
      </trkpt>
      <trkpt lat="62.609265477385" lon="17.960263921944">
        <ele>161.4</ele>
        <time>2018-03-30T11:40:05Z</time>
      </trkpt>
      <trkpt lat="62.609233542346" lon="17.960223102091">
        <ele>161.4</ele>
        <time>2018-03-30T11:40:06Z</time>
      </trkpt>
      <trkpt lat="62.609200014746" lon="17.960201309151">
        <ele>161.4</ele>
        <time>2018-03-30T11:40:07Z</time>
      </trkpt>
      <trkpt lat="62.609186100792" lon="17.960174067976">
        <ele>161.4</ele>
        <time>2018-03-30T11:40:08Z</time>
      </trkpt>
      <trkpt lat="62.609144610387" lon="17.960157387995">
        <ele>161.4</ele>
        <time>2018-03-30T11:40:09Z</time>
      </trkpt>
      <trkpt lat="62.609123152723" lon="17.96012930863">
        <ele>161.4</ele>
        <time>2018-03-30T11:40:10Z</time>
      </trkpt>
      <trkpt lat="62.609090211856" lon="17.960118998893">
        <ele>161.4</ele>
        <time>2018-03-30T11:40:11Z</time>
      </trkpt>
      <trkpt lat="62.609069592382" lon="17.960095948668">
        <ele>161.4</ele>
        <time>2018-03-30T11:40:12Z</time>
      </trkpt>
      <trkpt lat="62.609035980963" lon="17.960072646986">
        <ele>161.4</ele>
        <time>2018-03-30T11:40:13Z</time>
      </trkpt>
      <trkpt lat="62.60901527767" lon="17.960063426896">
        <ele>161.4</ele>
        <time>2018-03-30T11:40:14Z</time>
      </trkpt>
      <trkpt lat="62.608984935192" lon="17.960030737486">
        <ele>161.4</ele>
        <time>2018-03-30T11:40:15Z</time>
      </trkpt>
      <trkpt lat="62.608961382053" lon="17.960021852672">
        <ele>161.4</ele>
        <time>2018-03-30T11:40:16Z</time>
      </trkpt>
      <trkpt lat="62.608925423702" lon="17.959997964257">
        <ele>161.6</ele>
        <time>2018-03-30T11:40:17Z</time>
      </trkpt>
      <trkpt lat="62.608893321025" lon="17.959961251535">
        <ele>161.6</ele>
        <time>2018-03-30T11:40:18Z</time>
      </trkpt>
      <trkpt lat="62.608862140357" lon="17.959910289583">
        <ele>161.6</ele>
        <time>2018-03-30T11:40:19Z</time>
      </trkpt>
      <trkpt lat="62.608833474259" lon="17.959873828318">
        <ele>161.6</ele>
        <time>2018-03-30T11:40:20Z</time>
      </trkpt>
      <trkpt lat="62.608805981627" lon="17.959840803632">
        <ele>161.8</ele>
        <time>2018-03-30T11:40:21Z</time>
      </trkpt>
      <trkpt lat="62.608781841755" lon="17.959800067598">
        <ele>161.8</ele>
        <time>2018-03-30T11:40:22Z</time>
      </trkpt>
      <trkpt lat="62.608757701883" lon="17.95975296132">
        <ele>161.8</ele>
        <time>2018-03-30T11:40:23Z</time>
      </trkpt>
      <trkpt lat="62.608735908943" lon="17.959669729053">
        <ele>161.8</ele>
        <time>2018-03-30T11:40:24Z</time>
      </trkpt>
      <trkpt lat="62.608731550355" lon="17.959597979989">
        <ele>161.8</ele>
        <time>2018-03-30T11:40:25Z</time>
      </trkpt>
      <trkpt lat="62.608741860092" lon="17.959537714128">
        <ele>161.8</ele>
        <time>2018-03-30T11:40:26Z</time>
      </trkpt>
      <trkpt lat="62.608738004418" lon="17.959452134929">
        <ele>161.8</ele>
        <time>2018-03-30T11:40:27Z</time>
      </trkpt>
      <trkpt lat="62.608742614463" lon="17.959380721141">
        <ele>161.8</ele>
        <time>2018-03-30T11:40:28Z</time>
      </trkpt>
      <trkpt lat="62.60873951316" lon="17.959304864946">
        <ele>161.8</ele>
        <time>2018-03-30T11:40:29Z</time>
      </trkpt>
      <trkpt lat="62.608745045214" lon="17.959229846941">
        <ele>161.8</ele>
        <time>2018-03-30T11:40:30Z</time>
      </trkpt>
      <trkpt lat="62.608749822897" lon="17.959153068737">
        <ele>162</ele>
        <time>2018-03-30T11:40:31Z</time>
      </trkpt>
      <trkpt lat="62.608756444598" lon="17.959075117067">
        <ele>161.8</ele>
        <time>2018-03-30T11:40:32Z</time>
      </trkpt>
      <trkpt lat="62.608767341068" lon="17.959017617233">
        <ele>161.8</ele>
        <time>2018-03-30T11:40:33Z</time>
      </trkpt>
      <trkpt lat="62.608770023276" lon="17.95891560951">
        <ele>162</ele>
        <time>2018-03-30T11:40:34Z</time>
      </trkpt>
      <trkpt lat="62.608786032705" lon="17.958826845189">
        <ele>162</ele>
        <time>2018-03-30T11:40:35Z</time>
      </trkpt>
      <trkpt lat="62.608801120125" lon="17.958749899347">
        <ele>162</ele>
        <time>2018-03-30T11:40:36Z</time>
      </trkpt>
      <trkpt lat="62.608814782622" lon="17.958671780039">
        <ele>162</ele>
        <time>2018-03-30T11:40:37Z</time>
      </trkpt>
      <trkpt lat="62.608849902783" lon="17.958590727066">
        <ele>161.8</ele>
        <time>2018-03-30T11:40:38Z</time>
      </trkpt>
      <trkpt lat="62.608881083451" lon="17.95847891252">
        <ele>161.8</ele>
        <time>2018-03-30T11:40:39Z</time>
      </trkpt>
      <trkpt lat="62.60891134211" lon="17.958405067981">
        <ele>161.8</ele>
        <time>2018-03-30T11:40:40Z</time>
      </trkpt>
      <trkpt lat="62.608935314344" lon="17.958340359713">
        <ele>161.6</ele>
        <time>2018-03-30T11:40:41Z</time>
      </trkpt>
      <trkpt lat="62.608967668478" lon="17.95824086656">
        <ele>161.4</ele>
        <time>2018-03-30T11:40:42Z</time>
      </trkpt>
      <trkpt lat="62.608984683735" lon="17.958168698401">
        <ele>161.2</ele>
        <time>2018-03-30T11:40:43Z</time>
      </trkpt>
      <trkpt lat="62.609000022612" lon="17.958119412829">
        <ele>161</ele>
        <time>2018-03-30T11:40:44Z</time>
      </trkpt>
      <trkpt lat="62.609011505815" lon="17.958049088688">
        <ele>160.8</ele>
        <time>2018-03-30T11:40:45Z</time>
      </trkpt>
      <trkpt lat="62.609017121688" lon="17.957996785632">
        <ele>160.8</ele>
        <time>2018-03-30T11:40:46Z</time>
      </trkpt>
      <trkpt lat="62.609034220764" lon="17.957928054052">
        <ele>161</ele>
        <time>2018-03-30T11:40:47Z</time>
      </trkpt>
      <trkpt lat="62.609043273216" lon="17.957880109584">
        <ele>161</ele>
        <time>2018-03-30T11:40:48Z</time>
      </trkpt>
      <trkpt lat="62.609051571297" lon="17.957805091579">
        <ele>161.4</ele>
        <time>2018-03-30T11:40:49Z</time>
      </trkpt>
      <trkpt lat="62.609044446682" lon="17.957736527637">
        <ele>161.4</ele>
        <time>2018-03-30T11:40:50Z</time>
      </trkpt>
      <trkpt lat="62.609036483877" lon="17.957674836853">
        <ele>161.6</ele>
        <time>2018-03-30T11:40:51Z</time>
      </trkpt>
      <trkpt lat="62.609036735334" lon="17.957569979284">
        <ele>161.6</ele>
        <time>2018-03-30T11:40:52Z</time>
      </trkpt>
      <trkpt lat="62.609014858575" lon="17.957520106979">
        <ele>161.2</ele>
        <time>2018-03-30T11:40:53Z</time>
      </trkpt>
      <trkpt lat="62.609016786412" lon="17.957394797574">
        <ele>161.2</ele>
        <time>2018-03-30T11:40:54Z</time>
      </trkpt>
      <trkpt lat="62.609013768928" lon="17.957321539768">
        <ele>161.2</ele>
        <time>2018-03-30T11:40:55Z</time>
      </trkpt>
      <trkpt lat="62.609026341778" lon="17.957239480967">
        <ele>161</ele>
        <time>2018-03-30T11:40:56Z</time>
      </trkpt>
      <trkpt lat="62.609040004275" lon="17.957186507359">
        <ele>161</ele>
        <time>2018-03-30T11:40:57Z</time>
      </trkpt>
      <trkpt lat="62.609055426971" lon="17.957128420792">
        <ele>160.8</ele>
        <time>2018-03-30T11:40:58Z</time>
      </trkpt>
      <trkpt lat="62.609071687857" lon="17.957070334225">
        <ele>160.8</ele>
        <time>2018-03-30T11:40:59Z</time>
      </trkpt>
      <trkpt lat="62.609078309558" lon="17.957018869359">
        <ele>160.8</ele>
        <time>2018-03-30T11:41:00Z</time>
      </trkpt>
      <trkpt lat="62.609088032562" lon="17.956971343986">
        <ele>161</ele>
        <time>2018-03-30T11:41:01Z</time>
      </trkpt>
      <trkpt lat="62.609101946516" lon="17.956921471681">
        <ele>161</ele>
        <time>2018-03-30T11:41:02Z</time>
      </trkpt>
      <trkpt lat="62.609132037537" lon="17.956868665711">
        <ele>161.2</ele>
        <time>2018-03-30T11:41:03Z</time>
      </trkpt>
      <trkpt lat="62.609149974803" lon="17.956803957443">
        <ele>161.6</ele>
        <time>2018-03-30T11:41:04Z</time>
      </trkpt>
      <trkpt lat="62.609163553481" lon="17.956751570568">
        <ele>161.8</ele>
        <time>2018-03-30T11:41:05Z</time>
      </trkpt>
      <trkpt lat="62.6091720192" lon="17.956695160381">
        <ele>162.2</ele>
        <time>2018-03-30T11:41:06Z</time>
      </trkpt>
      <trkpt lat="62.609182161299" lon="17.956625506792">
        <ele>162.6</ele>
        <time>2018-03-30T11:41:07Z</time>
      </trkpt>
      <trkpt lat="62.609181490747" lon="17.956575969763">
        <ele>162.6</ele>
        <time>2018-03-30T11:41:08Z</time>
      </trkpt>
      <trkpt lat="62.60919213576" lon="17.956531880969">
        <ele>162.8</ele>
        <time>2018-03-30T11:41:09Z</time>
      </trkpt>
      <trkpt lat="62.609201858764" lon="17.956481254293">
        <ele>162.8</ele>
        <time>2018-03-30T11:41:10Z</time>
      </trkpt>
      <trkpt lat="62.609213258148" lon="17.956420820794">
        <ele>163</ele>
        <time>2018-03-30T11:41:11Z</time>
      </trkpt>
      <trkpt lat="62.609223316428" lon="17.956364829702">
        <ele>163</ele>
        <time>2018-03-30T11:41:12Z</time>
      </trkpt>
      <trkpt lat="62.609225998636" lon="17.956301043443">
        <ele>163.2</ele>
        <time>2018-03-30T11:41:13Z</time>
      </trkpt>
      <trkpt lat="62.609232033604" lon="17.956236670451">
        <ele>163.4</ele>
        <time>2018-03-30T11:41:14Z</time>
      </trkpt>
      <trkpt lat="62.609244354997" lon="17.956160562799">
        <ele>163.6</ele>
        <time>2018-03-30T11:41:15Z</time>
      </trkpt>
      <trkpt lat="62.609236811287" lon="17.956125777914">
        <ele>163.6</ele>
        <time>2018-03-30T11:41:16Z</time>
      </trkpt>
      <trkpt lat="62.609237900934" lon="17.956043886751">
        <ele>163.6</ele>
        <time>2018-03-30T11:41:17Z</time>
      </trkpt>
      <trkpt lat="62.609249551775" lon="17.955984207623">
        <ele>163.8</ele>
        <time>2018-03-30T11:41:18Z</time>
      </trkpt>
      <trkpt lat="62.609244774092" lon="17.955924360857">
        <ele>163.8</ele>
        <time>2018-03-30T11:41:19Z</time>
      </trkpt>
      <trkpt lat="62.609241756608" lon="17.955842385875">
        <ele>163.8</ele>
        <time>2018-03-30T11:41:20Z</time>
      </trkpt>
      <trkpt lat="62.609241672789" lon="17.955787987344">
        <ele>163.8</ele>
        <time>2018-03-30T11:41:21Z</time>
      </trkpt>
      <trkpt lat="62.609242259522" lon="17.955736773935">
        <ele>164</ele>
        <time>2018-03-30T11:41:22Z</time>
      </trkpt>
      <trkpt lat="62.609231027776" lon="17.955649266899">
        <ele>164</ele>
        <time>2018-03-30T11:41:23Z</time>
      </trkpt>
      <trkpt lat="62.609223567885" lon="17.95553435105">
        <ele>164</ele>
        <time>2018-03-30T11:41:24Z</time>
      </trkpt>
      <trkpt lat="62.609227255921" lon="17.955443072159">
        <ele>164</ele>
        <time>2018-03-30T11:41:25Z</time>
      </trkpt>
      <trkpt lat="62.609223484066" lon="17.95535581658">
        <ele>164</ele>
        <time>2018-03-30T11:41:26Z</time>
      </trkpt>
      <trkpt lat="62.609220382763" lon="17.95528289405">
        <ele>164</ele>
        <time>2018-03-30T11:41:27Z</time>
      </trkpt>
      <trkpt lat="62.609224489894" lon="17.955220365076">
        <ele>163.8</ele>
        <time>2018-03-30T11:41:28Z</time>
      </trkpt>
      <trkpt lat="62.609222645876" lon="17.955152639324">
        <ele>163.6</ele>
        <time>2018-03-30T11:41:29Z</time>
      </trkpt>
      <trkpt lat="62.609212084682" lon="17.955106371236">
        <ele>163.8</ele>
        <time>2018-03-30T11:41:30Z</time>
      </trkpt>
      <trkpt lat="62.609193393045" lon="17.955072005446">
        <ele>163.8</ele>
        <time>2018-03-30T11:41:31Z</time>
      </trkpt>
      <trkpt lat="62.6091720192" lon="17.955045267185">
        <ele>164</ele>
        <time>2018-03-30T11:41:32Z</time>
      </trkpt>
      <trkpt lat="62.609138659238" lon="17.955041662968">
        <ele>164.2</ele>
        <time>2018-03-30T11:41:33Z</time>
      </trkpt>
      <trkpt lat="62.609105886009" lon="17.955038896941">
        <ele>164.2</ele>
        <time>2018-03-30T11:41:34Z</time>
      </trkpt>
      <trkpt lat="62.60907395097" lon="17.955045518642">
        <ele>164.4</ele>
        <time>2018-03-30T11:41:35Z</time>
      </trkpt>
      <trkpt lat="62.609046709795" lon="17.955045099547">
        <ele>164.4</ele>
        <time>2018-03-30T11:41:36Z</time>
      </trkpt>
      <trkpt lat="62.609019887715" lon="17.95504820085">
        <ele>164.4</ele>
        <time>2018-03-30T11:41:37Z</time>
      </trkpt>
      <trkpt lat="62.608995664024" lon="17.955058175311">
        <ele>164.4</ele>
        <time>2018-03-30T11:41:38Z</time>
      </trkpt>
      <trkpt lat="62.608968506668" lon="17.955068149772">
        <ele>164.4</ele>
        <time>2018-03-30T11:41:39Z</time>
      </trkpt>
      <trkpt lat="62.60893984057" lon="17.955074939111">
        <ele>164.4</ele>
        <time>2018-03-30T11:41:40Z</time>
      </trkpt>
      <trkpt lat="62.608905977694" lon="17.955129337642">
        <ele>164.4</ele>
        <time>2018-03-30T11:41:41Z</time>
      </trkpt>
      <trkpt lat="62.60887697632" lon="17.955177533567">
        <ele>164.2</ele>
        <time>2018-03-30T11:41:42Z</time>
      </trkpt>
      <trkpt lat="62.608835653553" lon="17.955256407246">
        <ele>164</ele>
        <time>2018-03-30T11:41:43Z</time>
      </trkpt>
      <trkpt lat="62.608799946659" lon="17.955336873486">
        <ele>164.2</ele>
        <time>2018-03-30T11:41:44Z</time>
      </trkpt>
      <trkpt lat="62.608766419059" lon="17.955421363038">
        <ele>164.2</ele>
        <time>2018-03-30T11:41:45Z</time>
      </trkpt>
      <trkpt lat="62.608746637775" lon="17.955518593078">
        <ele>163.6</ele>
        <time>2018-03-30T11:41:46Z</time>
      </trkpt>
      <trkpt lat="62.608726018301" lon="17.955604088458">
        <ele>163.4</ele>
        <time>2018-03-30T11:41:47Z</time>
      </trkpt>
      <trkpt lat="62.608701543153" lon="17.955714813357">
        <ele>162.8</ele>
        <time>2018-03-30T11:41:48Z</time>
      </trkpt>
      <trkpt lat="62.608683102973" lon="17.955812546311">
        <ele>162.4</ele>
        <time>2018-03-30T11:41:49Z</time>
      </trkpt>
      <trkpt lat="62.608669356657" lon="17.955919583174">
        <ele>161.2</ele>
        <time>2018-03-30T11:41:50Z</time>
      </trkpt>
      <trkpt lat="62.608661980585" lon="17.956021171802">
        <ele>161</ele>
        <time>2018-03-30T11:41:51Z</time>
      </trkpt>
      <trkpt lat="62.608659130739" lon="17.956119575308">
        <ele>161</ele>
        <time>2018-03-30T11:41:52Z</time>
      </trkpt>
      <trkpt lat="62.608659298377" lon="17.956239771754">
        <ele>160.6</ele>
        <time>2018-03-30T11:41:53Z</time>
      </trkpt>
      <trkpt lat="62.608664578974" lon="17.956339767821">
        <ele>160.4</ele>
        <time>2018-03-30T11:41:54Z</time>
      </trkpt>
      <trkpt lat="62.608681258955" lon="17.956429705608">
        <ele>160.4</ele>
        <time>2018-03-30T11:41:55Z</time>
      </trkpt>
      <trkpt lat="62.608685785181" lon="17.956523079974">
        <ele>160</ele>
        <time>2018-03-30T11:41:56Z</time>
      </trkpt>
      <trkpt lat="62.608691401054" lon="17.956615364693">
        <ele>159.8</ele>
        <time>2018-03-30T11:41:57Z</time>
      </trkpt>
      <trkpt lat="62.608713110175" lon="17.956668589758">
        <ele>159.8</ele>
        <time>2018-03-30T11:41:58Z</time>
      </trkpt>
      <trkpt lat="62.608697519841" lon="17.956772441499">
        <ele>159.6</ele>
        <time>2018-03-30T11:41:59Z</time>
      </trkpt>
      <trkpt lat="62.608689808493" lon="17.956856931051">
        <ele>159.8</ele>
        <time>2018-03-30T11:42:00Z</time>
      </trkpt>
      <trkpt lat="62.608684024982" lon="17.956933541617">
        <ele>159.8</ele>
        <time>2018-03-30T11:42:01Z</time>
      </trkpt>
      <trkpt lat="62.608677738557" lon="17.95700369812">
        <ele>159.8</ele>
        <time>2018-03-30T11:42:02Z</time>
      </trkpt>
      <trkpt lat="62.608669775752" lon="17.95707913522">
        <ele>160</ele>
        <time>2018-03-30T11:42:03Z</time>
      </trkpt>
      <trkpt lat="62.608668769924" lon="17.957110651164">
        <ele>160</ele>
        <time>2018-03-30T11:42:04Z</time>
      </trkpt>
      <trkpt lat="62.608650748839" lon="17.957257334414">
        <ele>160</ele>
        <time>2018-03-30T11:42:05Z</time>
      </trkpt>
      <trkpt lat="62.608639433274" lon="17.95733981231">
        <ele>160</ele>
        <time>2018-03-30T11:42:06Z</time>
      </trkpt>
      <trkpt lat="62.608630380822" lon="17.95741357303">
        <ele>160</ele>
        <time>2018-03-30T11:42:07Z</time>
      </trkpt>
      <trkpt lat="62.608630380822" lon="17.957477107832">
        <ele>160.2</ele>
        <time>2018-03-30T11:42:08Z</time>
      </trkpt>
      <trkpt lat="62.608633314487" lon="17.957553634579">
        <ele>160</ele>
        <time>2018-03-30T11:42:09Z</time>
      </trkpt>
      <trkpt lat="62.608638008351" lon="17.957631837706">
        <ele>160</ele>
        <time>2018-03-30T11:42:10Z</time>
      </trkpt>
      <trkpt lat="62.608653682504" lon="17.957730492669">
        <ele>159.8</ele>
        <time>2018-03-30T11:42:11Z</time>
      </trkpt>
      <trkpt lat="62.608665249526" lon="17.957838032446">
        <ele>159.6</ele>
        <time>2018-03-30T11:42:12Z</time>
      </trkpt>
      <trkpt lat="62.608669021381" lon="17.95791732522">
        <ele>159.2</ele>
        <time>2018-03-30T11:42:13Z</time>
      </trkpt>
      <trkpt lat="62.608693161253" lon="17.957965185869">
        <ele>159.2</ele>
        <time>2018-03-30T11:42:14Z</time>
      </trkpt>
      <trkpt lat="62.608709841234" lon="17.958018830029">
        <ele>159.2</ele>
        <time>2018-03-30T11:42:15Z</time>
      </trkpt>
      <trkpt lat="62.608730712165" lon="17.958081359003">
        <ele>159.2</ele>
        <time>2018-03-30T11:42:16Z</time>
      </trkpt>
      <trkpt lat="62.608765245593" lon="17.958145145262">
        <ele>159.2</ele>
        <time>2018-03-30T11:42:17Z</time>
      </trkpt>
      <trkpt lat="62.608776309701" lon="17.958207422779">
        <ele>159.4</ele>
        <time>2018-03-30T11:42:18Z</time>
      </trkpt>
      <trkpt lat="62.608777315529" lon="17.958272969237">
        <ele>159.4</ele>
        <time>2018-03-30T11:42:19Z</time>
      </trkpt>
      <trkpt lat="62.608775806787" lon="17.958337928962">
        <ele>159.4</ele>
        <time>2018-03-30T11:42:20Z</time>
      </trkpt>
      <trkpt lat="62.608779327185" lon="17.958407163456">
        <ele>159.6</ele>
        <time>2018-03-30T11:42:21Z</time>
      </trkpt>
      <trkpt lat="62.608773543674" lon="17.958473380466">
        <ele>159.8</ele>
        <time>2018-03-30T11:42:22Z</time>
      </trkpt>
      <trkpt lat="62.608757366607" lon="17.958553008516">
        <ele>159.8</ele>
        <time>2018-03-30T11:42:23Z</time>
      </trkpt>
      <trkpt lat="62.608752421286" lon="17.958620985725">
        <ele>159.6</ele>
        <time>2018-03-30T11:42:24Z</time>
      </trkpt>
      <trkpt lat="62.608744039386" lon="17.958692231875">
        <ele>159.6</ele>
        <time>2018-03-30T11:42:25Z</time>
      </trkpt>
      <trkpt lat="62.608745715766" lon="17.95875132427">
        <ele>159.8</ele>
        <time>2018-03-30T11:42:26Z</time>
      </trkpt>
      <trkpt lat="62.608756779874" lon="17.958801364213">
        <ele>159.8</ele>
        <time>2018-03-30T11:42:27Z</time>
      </trkpt>
      <trkpt lat="62.608750158173" lon="17.958860791884">
        <ele>159.6</ele>
        <time>2018-03-30T11:42:28Z</time>
      </trkpt>
      <trkpt lat="62.608730963622" lon="17.958938995011">
        <ele>159.6</ele>
        <time>2018-03-30T11:42:29Z</time>
      </trkpt>
      <trkpt lat="62.60872358755" lon="17.958994147913">
        <ele>159.8</ele>
        <time>2018-03-30T11:42:30Z</time>
      </trkpt>
      <trkpt lat="62.608722916998" lon="17.959052653575">
        <ele>159.8</ele>
        <time>2018-03-30T11:42:31Z</time>
      </trkpt>
      <trkpt lat="62.608725347749" lon="17.959109734314">
        <ele>159.8</ele>
        <time>2018-03-30T11:42:32Z</time>
      </trkpt>
      <trkpt lat="62.608746637775" lon="17.959159941895">
        <ele>160</ele>
        <time>2018-03-30T11:42:33Z</time>
      </trkpt>
      <trkpt lat="62.608743117377" lon="17.959215765349">
        <ele>160</ele>
        <time>2018-03-30T11:42:34Z</time>
      </trkpt>
      <trkpt lat="62.608738758789" lon="17.959287598232">
        <ele>160.4</ele>
        <time>2018-03-30T11:42:35Z</time>
      </trkpt>
      <trkpt lat="62.608737250047" lon="17.959354485794">
        <ele>160.6</ele>
        <time>2018-03-30T11:42:36Z</time>
      </trkpt>
      <trkpt lat="62.60873699859" lon="17.959417936777">
        <ele>160.8</ele>
        <time>2018-03-30T11:42:37Z</time>
      </trkpt>
      <trkpt lat="62.608745715766" lon="17.959473508774">
        <ele>161</ele>
        <time>2018-03-30T11:42:38Z</time>
      </trkpt>
      <trkpt lat="62.608758037159" lon="17.959517513749">
        <ele>161.2</ele>
        <time>2018-03-30T11:42:39Z</time>
      </trkpt>
      <trkpt lat="62.608772118751" lon="17.959597225618">
        <ele>161.4</ele>
        <time>2018-03-30T11:42:40Z</time>
      </trkpt>
      <trkpt lat="62.608783182859" lon="17.959656653289">
        <ele>161.4</ele>
        <time>2018-03-30T11:42:41Z</time>
      </trkpt>
      <trkpt lat="62.608791313302" lon="17.959724295222">
        <ele>161.4</ele>
        <time>2018-03-30T11:42:42Z</time>
      </trkpt>
      <trkpt lat="62.608817548649" lon="17.959774921898">
        <ele>161.4</ele>
        <time>2018-03-30T11:42:43Z</time>
      </trkpt>
      <trkpt lat="62.608834731544" lon="17.959833259922">
        <ele>161.4</ele>
        <time>2018-03-30T11:42:44Z</time>
      </trkpt>
      <trkpt lat="62.608858871416" lon="17.959886065892">
        <ele>161.2</ele>
        <time>2018-03-30T11:42:45Z</time>
      </trkpt>
      <trkpt lat="62.608870354619" lon="17.959931998704">
        <ele>161.2</ele>
        <time>2018-03-30T11:42:46Z</time>
      </trkpt>
      <trkpt lat="62.608899942726" lon="17.959969717254">
        <ele>161.2</ele>
        <time>2018-03-30T11:42:47Z</time>
      </trkpt>
      <trkpt lat="62.608919975467" lon="17.960001652293">
        <ele>161.2</ele>
        <time>2018-03-30T11:42:48Z</time>
      </trkpt>
      <trkpt lat="62.608945037348" lon="17.960032832961">
        <ele>161</ele>
        <time>2018-03-30T11:42:49Z</time>
      </trkpt>
      <trkpt lat="62.608969428677" lon="17.960052698064">
        <ele>161.2</ele>
        <time>2018-03-30T11:42:50Z</time>
      </trkpt>
      <trkpt lat="62.608992395083" lon="17.960067114932">
        <ele>161.2</ele>
        <time>2018-03-30T11:42:51Z</time>
      </trkpt>
      <trkpt lat="62.609025838864" lon="17.960071724977">
        <ele>161.4</ele>
        <time>2018-03-30T11:42:52Z</time>
      </trkpt>
      <trkpt lat="62.609066826355" lon="17.960070886787">
        <ele>161.4</ele>
        <time>2018-03-30T11:42:53Z</time>
      </trkpt>
      <trkpt lat="62.609104880181" lon="17.960078095221">
        <ele>161.6</ele>
        <time>2018-03-30T11:42:54Z</time>
      </trkpt>
      <trkpt lat="62.609145951491" lon="17.960091841537">
        <ele>161.8</ele>
        <time>2018-03-30T11:42:55Z</time>
      </trkpt>
      <trkpt lat="62.609188028629" lon="17.96010583931">
        <ele>161.8</ele>
        <time>2018-03-30T11:42:56Z</time>
      </trkpt>
      <trkpt lat="62.609228764663" lon="17.960122016377">
        <ele>161.8</ele>
        <time>2018-03-30T11:42:57Z</time>
      </trkpt>
      <trkpt lat="62.609273775466" lon="17.960162249497">
        <ele>161.6</ele>
        <time>2018-03-30T11:42:58Z</time>
      </trkpt>
      <trkpt lat="62.609317193708" lon="17.960200135685">
        <ele>161.4</ele>
        <time>2018-03-30T11:42:59Z</time>
      </trkpt>
      <trkpt lat="62.609345943625" lon="17.96024414066">
        <ele>161.2</ele>
        <time>2018-03-30T11:43:00Z</time>
      </trkpt>
      <trkpt lat="62.60937150842" lon="17.960289486739">
        <ele>161.2</ele>
        <time>2018-03-30T11:43:01Z</time>
      </trkpt>
      <trkpt lat="62.609394558645" lon="17.960338604673">
        <ele>161.2</ele>
        <time>2018-03-30T11:43:02Z</time>
      </trkpt>
      <trkpt lat="62.60942096163" lon="17.960393422299">
        <ele>161.2</ele>
        <time>2018-03-30T11:43:03Z</time>
      </trkpt>
      <trkpt lat="62.60943437267" lon="17.960468440304">
        <ele>161.4</ele>
        <time>2018-03-30T11:43:04Z</time>
      </trkpt>
      <trkpt lat="62.609426074589" lon="17.96053583078">
        <ele>161.4</ele>
        <time>2018-03-30T11:43:05Z</time>
      </trkpt>
      <trkpt lat="62.609422889467" lon="17.960600539048">
        <ele>161.6</ele>
        <time>2018-03-30T11:43:06Z</time>
      </trkpt>
      <trkpt lat="62.609420291078" lon="17.960656781597">
        <ele>161.4</ele>
        <time>2018-03-30T11:43:07Z</time>
      </trkpt>
      <trkpt lat="62.609419033793" lon="17.960708917015">
        <ele>161.8</ele>
        <time>2018-03-30T11:43:08Z</time>
      </trkpt>
      <trkpt lat="62.609416686861" lon="17.960754011637">
        <ele>162</ele>
        <time>2018-03-30T11:43:09Z</time>
      </trkpt>
      <trkpt lat="62.609409310789" lon="17.960797094603">
        <ele>162</ele>
        <time>2018-03-30T11:43:10Z</time>
      </trkpt>
      <trkpt lat="62.609405119839" lon="17.960820312466">
        <ele>162</ele>
        <time>2018-03-30T11:43:11Z</time>
      </trkpt>
      <trkpt lat="62.609401347984" lon="17.960837830637">
        <ele>162.2</ele>
        <time>2018-03-30T11:43:12Z</time>
      </trkpt>
      <trkpt lat="62.609397827586" lon="17.960864485079">
        <ele>162.6</ele>
        <time>2018-03-30T11:43:13Z</time>
      </trkpt>
      <trkpt lat="62.609394893921" lon="17.960882589983">
        <ele>162.8</ele>
        <time>2018-03-30T11:43:14Z</time>
      </trkpt>
      <trkpt lat="62.609391876437" lon="17.960901533077">
        <ele>163.4</ele>
        <time>2018-03-30T11:43:15Z</time>
      </trkpt>
      <trkpt lat="62.609383745994" lon="17.960917710144">
        <ele>163.8</ele>
        <time>2018-03-30T11:43:16Z</time>
      </trkpt>
      <trkpt lat="62.609377459569" lon="17.960936653238">
        <ele>164.4</ele>
        <time>2018-03-30T11:43:17Z</time>
      </trkpt>
      <trkpt lat="62.609369664402" lon="17.960958949092">
        <ele>164.8</ele>
        <time>2018-03-30T11:43:18Z</time>
      </trkpt>
      <trkpt lat="62.609369245307" lon="17.960980406756">
        <ele>165</ele>
        <time>2018-03-30T11:43:19Z</time>
      </trkpt>
      <trkpt lat="62.609369077669" lon="17.960996500004">
        <ele>165</ele>
        <time>2018-03-30T11:43:20Z</time>
      </trkpt>
      <trkpt lat="62.60936899385" lon="17.961008150845">
        <ele>165.2</ele>
        <time>2018-03-30T11:43:21Z</time>
      </trkpt>
      <trkpt lat="62.609371340782" lon="17.961028435043">
        <ele>165.6</ele>
        <time>2018-03-30T11:43:22Z</time>
      </trkpt>
      <trkpt lat="62.609371843696" lon="17.961044695929">
        <ele>165.6</ele>
        <time>2018-03-30T11:43:23Z</time>
      </trkpt>
      <trkpt lat="62.609372514248" lon="17.96106556686">
        <ele>165.8</ele>
        <time>2018-03-30T11:43:24Z</time>
      </trkpt>
      <trkpt lat="62.609379387406" lon="17.961087192162">
        <ele>166.2</ele>
        <time>2018-03-30T11:43:25Z</time>
      </trkpt>
      <trkpt lat="62.609383410718" lon="17.961109739473">
        <ele>166.4</ele>
        <time>2018-03-30T11:43:26Z</time>
      </trkpt>
      <trkpt lat="62.609385673831" lon="17.961133544069">
        <ele>166.4</ele>
        <time>2018-03-30T11:43:27Z</time>
      </trkpt>
      <trkpt lat="62.60938659584" lon="17.961156342837">
        <ele>166.6</ele>
        <time>2018-03-30T11:43:28Z</time>
      </trkpt>
      <trkpt lat="62.60938324308" lon="17.961186517677">
        <ele>167</ele>
        <time>2018-03-30T11:43:29Z</time>
      </trkpt>
      <trkpt lat="62.60938911041" lon="17.961217614526">
        <ele>167.4</ele>
        <time>2018-03-30T11:43:30Z</time>
      </trkpt>
      <trkpt lat="62.609400593613" lon="17.961249549565">
        <ele>167.6</ele>
        <time>2018-03-30T11:43:31Z</time>
      </trkpt>
      <trkpt lat="62.609411573902" lon="17.961282238975">
        <ele>167.6</ele>
        <time>2018-03-30T11:43:32Z</time>
      </trkpt>
      <trkpt lat="62.609421129268" lon="17.961316520946">
        <ele>167.8</ele>
        <time>2018-03-30T11:43:33Z</time>
      </trkpt>
      <trkpt lat="62.609439988543" lon="17.961343594483">
        <ele>168.2</ele>
        <time>2018-03-30T11:43:34Z</time>
      </trkpt>
      <trkpt lat="62.609452058479" lon="17.961363711043">
        <ele>168.8</ele>
        <time>2018-03-30T11:43:35Z</time>
      </trkpt>
      <trkpt lat="62.60946622389" lon="17.96139078458">
        <ele>168.8</ele>
        <time>2018-03-30T11:43:36Z</time>
      </trkpt>
      <trkpt lat="62.609479383473" lon="17.961417774298">
        <ele>169</ele>
        <time>2018-03-30T11:43:37Z</time>
      </trkpt>
      <trkpt lat="62.609503774802" lon="17.961432861718">
        <ele>169.4</ele>
        <time>2018-03-30T11:43:38Z</time>
      </trkpt>
      <trkpt lat="62.60952741176" lon="17.961451888631">
        <ele>169.6</ele>
        <time>2018-03-30T11:43:39Z</time>
      </trkpt>
      <trkpt lat="62.60954249918" lon="17.96149891109">
        <ele>169.8</ele>
        <time>2018-03-30T11:43:40Z</time>
      </trkpt>
      <trkpt lat="62.609560604084" lon="17.961560853331">
        <ele>170.2</ele>
        <time>2018-03-30T11:43:41Z</time>
      </trkpt>
      <trkpt lat="62.609579966273" lon="17.961626651246">
        <ele>170.4</ele>
        <time>2018-03-30T11:43:42Z</time>
      </trkpt>
      <trkpt lat="62.609602262127" lon="17.96168666565">
        <ele>170.4</ele>
        <time>2018-03-30T11:43:43Z</time>
      </trkpt>
      <trkpt lat="62.609632604605" lon="17.961741315638">
        <ele>170.2</ele>
        <time>2018-03-30T11:43:44Z</time>
      </trkpt>
      <trkpt lat="62.609668898232" lon="17.961781213482">
        <ele>169.8</ele>
        <time>2018-03-30T11:43:45Z</time>
      </trkpt>
      <trkpt lat="62.609708544619" lon="17.961811136865">
        <ele>169.4</ele>
        <time>2018-03-30T11:43:46Z</time>
      </trkpt>
      <trkpt lat="62.609746346988" lon="17.961804431345">
        <ele>169</ele>
        <time>2018-03-30T11:43:47Z</time>
      </trkpt>
      <trkpt lat="62.609771241231" lon="17.961778782731">
        <ele>168</ele>
        <time>2018-03-30T11:43:48Z</time>
      </trkpt>
      <trkpt lat="62.609797141302" lon="17.961759252904">
        <ele>167.8</ele>
        <time>2018-03-30T11:43:49Z</time>
      </trkpt>
      <trkpt lat="62.609824633934" lon="17.961749948995">
        <ele>167.4</ele>
        <time>2018-03-30T11:43:50Z</time>
      </trkpt>
      <trkpt lat="62.609853551489" lon="17.961745674226">
        <ele>167.4</ele>
        <time>2018-03-30T11:43:51Z</time>
      </trkpt>
      <trkpt lat="62.609880122112" lon="17.961766964252">
        <ele>167</ele>
        <time>2018-03-30T11:43:52Z</time>
      </trkpt>
      <trkpt lat="62.609911051323" lon="17.961794875979">
        <ele>166.8</ele>
        <time>2018-03-30T11:43:53Z</time>
      </trkpt>
      <trkpt lat="62.609936783756" lon="17.961830499054">
        <ele>166.4</ele>
        <time>2018-03-30T11:43:54Z</time>
      </trkpt>
      <trkpt lat="62.609960420714" lon="17.961882466834">
        <ele>166.2</ele>
        <time>2018-03-30T11:43:55Z</time>
      </trkpt>
      <trkpt lat="62.60998003436" lon="17.961950444043">
        <ele>165.4</ele>
        <time>2018-03-30T11:43:56Z</time>
      </trkpt>
      <trkpt lat="62.609997384893" lon="17.962023031297">
        <ele>165.2</ele>
        <time>2018-03-30T11:43:57Z</time>
      </trkpt>
      <trkpt lat="62.610002330214" lon="17.962102994623">
        <ele>164.6</ele>
        <time>2018-03-30T11:43:58Z</time>
      </trkpt>
      <trkpt lat="62.609991685201" lon="17.962202739233">
        <ele>163.6</ele>
        <time>2018-03-30T11:43:59Z</time>
      </trkpt>
      <trkpt lat="62.609980201998" lon="17.962289072803">
        <ele>163</ele>
        <time>2018-03-30T11:44:00Z</time>
      </trkpt>
      <trkpt lat="62.609963605836" lon="17.962382279531">
        <ele>162.6</ele>
        <time>2018-03-30T11:44:01Z</time>
      </trkpt>
      <trkpt lat="62.609944243647" lon="17.962476072992">
        <ele>162</ele>
        <time>2018-03-30T11:44:02Z</time>
      </trkpt>
      <trkpt lat="62.609914571721" lon="17.962557461241">
        <ele>161.6</ele>
        <time>2018-03-30T11:44:03Z</time>
      </trkpt>
      <trkpt lat="62.609876434076" lon="17.962628120658">
        <ele>161</ele>
        <time>2018-03-30T11:44:04Z</time>
      </trkpt>
      <trkpt lat="62.609843744666" lon="17.962694756763">
        <ele>160.6</ele>
        <time>2018-03-30T11:44:05Z</time>
      </trkpt>
      <trkpt lat="62.609818012233" lon="17.962758794479">
        <ele>160.4</ele>
        <time>2018-03-30T11:44:06Z</time>
      </trkpt>
      <trkpt lat="62.609796722207" lon="17.962821826367">
        <ele>160.4</ele>
        <time>2018-03-30T11:44:07Z</time>
      </trkpt>
      <trkpt lat="62.609763026969" lon="17.962896760553">
        <ele>160.4</ele>
        <time>2018-03-30T11:44:08Z</time>
      </trkpt>
      <trkpt lat="62.609733857957" lon="17.962974544585">
        <ele>160.4</ele>
        <time>2018-03-30T11:44:09Z</time>
      </trkpt>
      <trkpt lat="62.609701503823" lon="17.963028356383">
        <ele>160.4</ele>
        <time>2018-03-30T11:44:10Z</time>
      </trkpt>
      <trkpt lat="62.60966990406" lon="17.963111169555">
        <ele>160.4</ele>
        <time>2018-03-30T11:44:11Z</time>
      </trkpt>
      <trkpt lat="62.609639896858" lon="17.963178140936">
        <ele>160.4</ele>
        <time>2018-03-30T11:44:12Z</time>
      </trkpt>
      <trkpt lat="62.609620367031" lon="17.963273946053">
        <ele>160.2</ele>
        <time>2018-03-30T11:44:13Z</time>
      </trkpt>
      <trkpt lat="62.609597735901" lon="17.963350640438">
        <ele>160</ele>
        <time>2018-03-30T11:44:14Z</time>
      </trkpt>
      <trkpt lat="62.609572422563" lon="17.963425406986">
        <ele>159.8</ele>
        <time>2018-03-30T11:44:15Z</time>
      </trkpt>
      <trkpt lat="62.609539230239" lon="17.963488857969">
        <ele>159.8</ele>
        <time>2018-03-30T11:44:16Z</time>
      </trkpt>
      <trkpt lat="62.60950897158" lon="17.963567144915">
        <ele>159.6</ele>
        <time>2018-03-30T11:44:17Z</time>
      </trkpt>
      <trkpt lat="62.609463876958" lon="17.963640737997">
        <ele>159.4</ele>
        <time>2018-03-30T11:44:18Z</time>
      </trkpt>
      <trkpt lat="62.609420374897" lon="17.963703518428">
        <ele>159</ele>
        <time>2018-03-30T11:44:19Z</time>
      </trkpt>
      <trkpt lat="62.609368574755" lon="17.963747355765">
        <ele>158.6</ele>
        <time>2018-03-30T11:44:20Z</time>
      </trkpt>
      <trkpt lat="62.609315601147" lon="17.963780380451">
        <ele>158.4</ele>
        <time>2018-03-30T11:44:21Z</time>
      </trkpt>
      <trkpt lat="62.609262795177" lon="17.96377711151">
        <ele>157.8</ele>
        <time>2018-03-30T11:44:22Z</time>
      </trkpt>
      <trkpt lat="62.609196075253" lon="17.963757414045">
        <ele>157.4</ele>
        <time>2018-03-30T11:44:23Z</time>
      </trkpt>
      <trkpt lat="62.609148801337" lon="17.96375615676">
        <ele>156.8</ele>
        <time>2018-03-30T11:44:24Z</time>
      </trkpt>
      <trkpt lat="62.609100186317" lon="17.963762443185">
        <ele>156.6</ele>
        <time>2018-03-30T11:44:25Z</time>
      </trkpt>
      <trkpt lat="62.609043524673" lon="17.963770322171">
        <ele>156.4</ele>
        <time>2018-03-30T11:44:26Z</time>
      </trkpt>
      <trkpt lat="62.608988958504" lon="17.963781973012">
        <ele>156.2</ele>
        <time>2018-03-30T11:44:27Z</time>
      </trkpt>
      <trkpt lat="62.608935481982" lon="17.963805107056">
        <ele>155.8</ele>
        <time>2018-03-30T11:44:28Z</time>
      </trkpt>
      <trkpt lat="62.608888040428" lon="17.963838718475">
        <ele>155.4</ele>
        <time>2018-03-30T11:44:29Z</time>
      </trkpt>
      <trkpt lat="62.608842778168" lon="17.963871324066">
        <ele>154.8</ele>
        <time>2018-03-30T11:44:30Z</time>
      </trkpt>
      <trkpt lat="62.608797767365" lon="17.963903762019">
        <ele>154.4</ele>
        <time>2018-03-30T11:44:31Z</time>
      </trkpt>
      <trkpt lat="62.608755354951" lon="17.963935780877">
        <ele>154</ele>
        <time>2018-03-30T11:44:32Z</time>
      </trkpt>
      <trkpt lat="62.60870766194" lon="17.963934104497">
        <ele>153.8</ele>
        <time>2018-03-30T11:44:33Z</time>
      </trkpt>
      <trkpt lat="62.608666339173" lon="17.963947431718">
        <ele>153.8</ele>
        <time>2018-03-30T11:44:34Z</time>
      </trkpt>
      <trkpt lat="62.608625854596" lon="17.963968470287">
        <ele>154</ele>
        <time>2018-03-30T11:44:35Z</time>
      </trkpt>
      <trkpt lat="62.608578832137" lon="17.963998896584">
        <ele>154</ele>
        <time>2018-03-30T11:44:36Z</time>
      </trkpt>
      <trkpt lat="62.608533150782" lon="17.964030999261">
        <ele>154</ele>
        <time>2018-03-30T11:44:37Z</time>
      </trkpt>
      <trkpt lat="62.608503059761" lon="17.96408053629">
        <ele>154.4</ele>
        <time>2018-03-30T11:44:38Z</time>
      </trkpt>
      <trkpt lat="62.608473136378" lon="17.96413920959">
        <ele>154.6</ele>
        <time>2018-03-30T11:44:39Z</time>
      </trkpt>
      <trkpt lat="62.608447487764" lon="17.964208695541">
        <ele>154.6</ele>
        <time>2018-03-30T11:44:40Z</time>
      </trkpt>
      <trkpt lat="62.608428963765" lon="17.964286563392">
        <ele>154.6</ele>
        <time>2018-03-30T11:44:41Z</time>
      </trkpt>
      <trkpt lat="62.608416139458" lon="17.964360240293">
        <ele>154.6</ele>
        <time>2018-03-30T11:44:42Z</time>
      </trkpt>
      <trkpt lat="62.608411110318" lon="17.964484376232">
        <ele>154.2</ele>
        <time>2018-03-30T11:44:43Z</time>
      </trkpt>
      <trkpt lat="62.608410858861" lon="17.964593760027">
        <ele>153.6</ele>
        <time>2018-03-30T11:44:44Z</time>
      </trkpt>
      <trkpt lat="62.608415636544" lon="17.964696857397">
        <ele>153.6</ele>
        <time>2018-03-30T11:44:45Z</time>
      </trkpt>
      <trkpt lat="62.608414630716" lon="17.964824094639">
        <ele>153</ele>
        <time>2018-03-30T11:44:46Z</time>
      </trkpt>
      <trkpt lat="62.608416893829" lon="17.964946805655">
        <ele>152.4</ele>
        <time>2018-03-30T11:44:47Z</time>
      </trkpt>
      <trkpt lat="62.608418654028" lon="17.965079910227">
        <ele>152</ele>
        <time>2018-03-30T11:44:48Z</time>
      </trkpt>
      <trkpt lat="62.608421587693" lon="17.965207147469">
        <ele>151.6</ele>
        <time>2018-03-30T11:44:49Z</time>
      </trkpt>
      <trkpt lat="62.608420665684" lon="17.965337402195">
        <ele>151</ele>
        <time>2018-03-30T11:44:50Z</time>
      </trkpt>
      <trkpt lat="62.608416726191" lon="17.965464974713">
        <ele>150.6</ele>
        <time>2018-03-30T11:44:51Z</time>
      </trkpt>
      <trkpt lat="62.608413121974" lon="17.965593888335">
        <ele>150.4</ele>
        <time>2018-03-30T11:44:52Z</time>
      </trkpt>
      <trkpt lat="62.608406667911" lon="17.96573009421">
        <ele>149.8</ele>
        <time>2018-03-30T11:44:53Z</time>
      </trkpt>
      <trkpt lat="62.608404153341" lon="17.965855571253">
        <ele>149.4</ele>
        <time>2018-03-30T11:44:54Z</time>
      </trkpt>
      <trkpt lat="62.608405578264" lon="17.965980796839">
        <ele>149</ele>
        <time>2018-03-30T11:44:55Z</time>
      </trkpt>
      <trkpt lat="62.608407757558" lon="17.966106357701">
        <ele>148.8</ele>
        <time>2018-03-30T11:44:56Z</time>
      </trkpt>
      <trkpt lat="62.608410691223" lon="17.966232002382">
        <ele>148.8</ele>
        <time>2018-03-30T11:44:57Z</time>
      </trkpt>
      <trkpt lat="62.608404488617" lon="17.966358652891">
        <ele>148.4</ele>
        <time>2018-03-30T11:44:58Z</time>
      </trkpt>
      <trkpt lat="62.608408344291" lon="17.966490416359">
        <ele>148.2</ele>
        <time>2018-03-30T11:44:59Z</time>
      </trkpt>
      <trkpt lat="62.608427790299" lon="17.966607260045">
        <ele>147.6</ele>
        <time>2018-03-30T11:45:00Z</time>
      </trkpt>
      <trkpt lat="62.608458551872" lon="17.96670155642">
        <ele>147.4</ele>
        <time>2018-03-30T11:45:01Z</time>
      </trkpt>
      <trkpt lat="62.608494342585" lon="17.966786381248">
        <ele>147</ele>
        <time>2018-03-30T11:45:02Z</time>
      </trkpt>
      <trkpt lat="62.608532564049" lon="17.966852765896">
        <ele>146.4</ele>
        <time>2018-03-30T11:45:03Z</time>
      </trkpt>
      <trkpt lat="62.608566091649" lon="17.966919066725">
        <ele>146</ele>
        <time>2018-03-30T11:45:04Z</time>
      </trkpt>
      <trkpt lat="62.608595595937" lon="17.966989642323">
        <ele>146</ele>
        <time>2018-03-30T11:45:05Z</time>
      </trkpt>
      <trkpt lat="62.608620154904" lon="17.967059966464">
        <ele>145.8</ele>
        <time>2018-03-30T11:45:06Z</time>
      </trkpt>
      <trkpt lat="62.608643288948" lon="17.967133475727">
        <ele>145.6</ele>
        <time>2018-03-30T11:45:07Z</time>
      </trkpt>
      <trkpt lat="62.6086607233" lon="17.96722123422">
        <ele>145.4</ele>
        <time>2018-03-30T11:45:08Z</time>
      </trkpt>
      <trkpt lat="62.608673882883" lon="17.967310585274">
        <ele>145</ele>
        <time>2018-03-30T11:45:09Z</time>
      </trkpt>
      <trkpt lat="62.608683941163" lon="17.967408653504">
        <ele>144.6</ele>
        <time>2018-03-30T11:45:10Z</time>
      </trkpt>
      <trkpt lat="62.608692323063" lon="17.967509236304">
        <ele>144.4</ele>
        <time>2018-03-30T11:45:11Z</time>
      </trkpt>
      <trkpt lat="62.608699196221" lon="17.967605460516">
        <ele>144.2</ele>
        <time>2018-03-30T11:45:12Z</time>
      </trkpt>
      <trkpt lat="62.608707494302" lon="17.967717945614">
        <ele>144</ele>
        <time>2018-03-30T11:45:13Z</time>
      </trkpt>
      <trkpt lat="62.60871436746" lon="17.96783143654">
        <ele>143.8</ele>
        <time>2018-03-30T11:45:14Z</time>
      </trkpt>
      <trkpt lat="62.608717971677" lon="17.967940065964">
        <ele>143.6</ele>
        <time>2018-03-30T11:45:15Z</time>
      </trkpt>
      <trkpt lat="62.608720067152" lon="17.968054562718">
        <ele>143.4</ele>
        <time>2018-03-30T11:45:16Z</time>
      </trkpt>
      <trkpt lat="62.608721408256" lon="17.968167886006">
        <ele>143.2</ele>
        <time>2018-03-30T11:45:17Z</time>
      </trkpt>
      <trkpt lat="62.608724928654" lon="17.968282131303">
        <ele>142.6</ele>
        <time>2018-03-30T11:45:18Z</time>
      </trkpt>
      <trkpt lat="62.608727359405" lon="17.968396544238">
        <ele>142.4</ele>
        <time>2018-03-30T11:45:19Z</time>
      </trkpt>
      <trkpt lat="62.608725096292" lon="17.968502994368">
        <ele>141.8</ele>
        <time>2018-03-30T11:45:20Z</time>
      </trkpt>
      <trkpt lat="62.608715540926" lon="17.968590082309">
        <ele>141.2</ele>
        <time>2018-03-30T11:45:21Z</time>
      </trkpt>
      <trkpt lat="62.608705901741" lon="17.968670967644">
        <ele>140.8</ele>
        <time>2018-03-30T11:45:22Z</time>
      </trkpt>
      <trkpt lat="62.608690311407" lon="17.968761240707">
        <ele>140</ele>
        <time>2018-03-30T11:45:23Z</time>
      </trkpt>
      <trkpt lat="62.608685449905" lon="17.968859392756">
        <ele>139.6</ele>
        <time>2018-03-30T11:45:24Z</time>
      </trkpt>
      <trkpt lat="62.608685785181" lon="17.96896383123">
        <ele>139.2</ele>
        <time>2018-03-30T11:45:25Z</time>
      </trkpt>
      <trkpt lat="62.608694586176" lon="17.969072628292">
        <ele>138.8</ele>
        <time>2018-03-30T11:45:26Z</time>
      </trkpt>
      <trkpt lat="62.608706069379" lon="17.969180419526">
        <ele>138.6</ele>
        <time>2018-03-30T11:45:27Z</time>
      </trkpt>
      <trkpt lat="62.608707745759" lon="17.969290390054">
        <ele>138</ele>
        <time>2018-03-30T11:45:28Z</time>
      </trkpt>
      <trkpt lat="62.608703303352" lon="17.969382004221">
        <ele>137.6</ele>
        <time>2018-03-30T11:45:29Z</time>
      </trkpt>
      <trkpt lat="62.608692155425" lon="17.969456435493">
        <ele>136.8</ele>
        <time>2018-03-30T11:45:30Z</time>
      </trkpt>
      <trkpt lat="62.608674721073" lon="17.969535057715">
        <ele>136</ele>
        <time>2018-03-30T11:45:31Z</time>
      </trkpt>
      <trkpt lat="62.608658041092" lon="17.969612422652">
        <ele>135.6</ele>
        <time>2018-03-30T11:45:32Z</time>
      </trkpt>
      <trkpt lat="62.608638678903" lon="17.969713508366">
        <ele>134.8</ele>
        <time>2018-03-30T11:45:33Z</time>
      </trkpt>
      <trkpt lat="62.608633817401" lon="17.969828591853">
        <ele>134.2</ele>
        <time>2018-03-30T11:45:34Z</time>
      </trkpt>
      <trkpt lat="62.608635829057" lon="17.969947279557">
        <ele>134</ele>
        <time>2018-03-30T11:45:35Z</time>
      </trkpt>
      <trkpt lat="62.608646976984" lon="17.970074516799">
        <ele>133.6</ele>
        <time>2018-03-30T11:45:36Z</time>
      </trkpt>
      <trkpt lat="62.608662148223" lon="17.970202592231">
        <ele>133.6</ele>
        <time>2018-03-30T11:45:37Z</time>
      </trkpt>
      <trkpt lat="62.608680923679" lon="17.970343827246">
        <ele>133.2</ele>
        <time>2018-03-30T11:45:38Z</time>
      </trkpt>
      <trkpt lat="62.608700621144" lon="17.970479194931">
        <ele>133</ele>
        <time>2018-03-30T11:45:39Z</time>
      </trkpt>
      <trkpt lat="62.608720989161" lon="17.970606767449">
        <ele>132</ele>
        <time>2018-03-30T11:45:40Z</time>
      </trkpt>
      <trkpt lat="62.608741357178" lon="17.970729813741">
        <ele>130.8</ele>
        <time>2018-03-30T11:45:41Z</time>
      </trkpt>
      <trkpt lat="62.608759294444" lon="17.970849674911">
        <ele>130.2</ele>
        <time>2018-03-30T11:45:42Z</time>
      </trkpt>
      <trkpt lat="62.608782679945" lon="17.970967356787">
        <ele>128.6</ele>
        <time>2018-03-30T11:45:43Z</time>
      </trkpt>
      <trkpt lat="62.608801371582" lon="17.971093085287">
        <ele>127.4</ele>
        <time>2018-03-30T11:45:44Z</time>
      </trkpt>
      <trkpt lat="62.608822326332" lon="17.971223088556">
        <ele>127</ele>
        <time>2018-03-30T11:45:45Z</time>
      </trkpt>
      <trkpt lat="62.608843700177" lon="17.971348649418">
        <ele>126.6</ele>
        <time>2018-03-30T11:45:46Z</time>
      </trkpt>
      <trkpt lat="62.608865576936" lon="17.97147169571">
        <ele>126.6</ele>
        <time>2018-03-30T11:45:47Z</time>
      </trkpt>
      <trkpt lat="62.608886950781" lon="17.97160245335">
        <ele>126.2</ele>
        <time>2018-03-30T11:45:48Z</time>
      </trkpt>
      <trkpt lat="62.608919304915" lon="17.971718291208">
        <ele>126</ele>
        <time>2018-03-30T11:45:49Z</time>
      </trkpt>
      <trkpt lat="62.608951323773" lon="17.971830524849">
        <ele>125.8</ele>
        <time>2018-03-30T11:45:50Z</time>
      </trkpt>
      <trkpt lat="62.608989377599" lon="17.971895903669">
        <ele>125.6</ele>
        <time>2018-03-30T11:45:51Z</time>
      </trkpt>
      <trkpt lat="62.60903455604" lon="17.971974777348">
        <ele>125.6</ele>
        <time>2018-03-30T11:45:52Z</time>
      </trkpt>
      <trkpt lat="62.609093648435" lon="17.972001683247">
        <ele>125.8</ele>
        <time>2018-03-30T11:45:53Z</time>
      </trkpt>
      <trkpt lat="62.609140335618" lon="17.972016100115">
        <ele>125.8</ele>
        <time>2018-03-30T11:45:54Z</time>
      </trkpt>
      <trkpt lat="62.609194985606" lon="17.97202154835">
        <ele>125.8</ele>
        <time>2018-03-30T11:45:55Z</time>
      </trkpt>
      <trkpt lat="62.609247288662" lon="17.972023643825">
        <ele>125.8</ele>
        <time>2018-03-30T11:45:56Z</time>
      </trkpt>
      <trkpt lat="62.609295736044" lon="17.972029427336">
        <ele>126</ele>
        <time>2018-03-30T11:45:57Z</time>
      </trkpt>
      <trkpt lat="62.609344602521" lon="17.972052309923">
        <ele>126</ele>
        <time>2018-03-30T11:45:58Z</time>
      </trkpt>
      <trkpt lat="62.609389026591" lon="17.972081730392">
        <ele>126</ele>
        <time>2018-03-30T11:45:59Z</time>
      </trkpt>
      <trkpt lat="62.609420626354" lon="17.972158676234">
        <ele>125.8</ele>
        <time>2018-03-30T11:46:00Z</time>
      </trkpt>
      <trkpt lat="62.609442503113" lon="17.972233442782">
        <ele>125.6</ele>
        <time>2018-03-30T11:46:01Z</time>
      </trkpt>
      <trkpt lat="62.6094570038" lon="17.972315417764">
        <ele>125.6</ele>
        <time>2018-03-30T11:46:02Z</time>
      </trkpt>
      <trkpt lat="62.609441413466" lon="17.97239119014">
        <ele>125.2</ele>
        <time>2018-03-30T11:46:03Z</time>
      </trkpt>
      <trkpt lat="62.609436300507" lon="17.972465621412">
        <ele>124.6</ele>
        <time>2018-03-30T11:46:04Z</time>
      </trkpt>
      <trkpt lat="62.609434959403" lon="17.972530916413">
        <ele>124.4</ele>
        <time>2018-03-30T11:46:05Z</time>
      </trkpt>
      <trkpt lat="62.609429511168" lon="17.972606521151">
        <ele>124.6</ele>
        <time>2018-03-30T11:46:06Z</time>
      </trkpt>
      <trkpt lat="62.609423560019" lon="17.972688244676">
        <ele>124.6</ele>
        <time>2018-03-30T11:46:07Z</time>
      </trkpt>
      <trkpt lat="62.609412747368" lon="17.972768124183">
        <ele>124.8</ele>
        <time>2018-03-30T11:46:08Z</time>
      </trkpt>
      <trkpt lat="62.60940252145" lon="17.972824869646">
        <ele>125</ele>
        <time>2018-03-30T11:46:09Z</time>
      </trkpt>
      <trkpt lat="62.609384584184" lon="17.972878681444">
        <ele>125</ele>
        <time>2018-03-30T11:46:10Z</time>
      </trkpt>
      <trkpt lat="62.609366060185" lon="17.972936684192">
        <ele>124.8</ele>
        <time>2018-03-30T11:46:11Z</time>
      </trkpt>
      <trkpt lat="62.609352397688" lon="17.972992088551">
        <ele>124.8</ele>
        <time>2018-03-30T11:46:12Z</time>
      </trkpt>
      <trkpt lat="62.609334544241" lon="17.973056880638">
        <ele>125</ele>
        <time>2018-03-30T11:46:13Z</time>
      </trkpt>
      <trkpt lat="62.609321803753" lon="17.973101556165">
        <ele>124.8</ele>
        <time>2018-03-30T11:46:14Z</time>
      </trkpt>
      <trkpt lat="62.609311829292" lon="17.97317741236">
        <ele>125</ele>
        <time>2018-03-30T11:46:15Z</time>
      </trkpt>
      <trkpt lat="62.60930780598" lon="17.973244132284">
        <ele>125</ele>
        <time>2018-03-30T11:46:16Z</time>
      </trkpt>
      <trkpt lat="62.609307135428" lon="17.973306242163">
        <ele>125</ele>
        <time>2018-03-30T11:46:17Z</time>
      </trkpt>
      <trkpt lat="62.609312667482" lon="17.973382601272">
        <ele>125.2</ele>
        <time>2018-03-30T11:46:18Z</time>
      </trkpt>
      <trkpt lat="62.609311074921" lon="17.973448566825">
        <ele>125.2</ele>
        <time>2018-03-30T11:46:19Z</time>
      </trkpt>
      <trkpt lat="62.609318786269" lon="17.973512185446">
        <ele>125.2</ele>
        <time>2018-03-30T11:46:20Z</time>
      </trkpt>
      <trkpt lat="62.609332700223" lon="17.973580497931">
        <ele>125</ele>
        <time>2018-03-30T11:46:21Z</time>
      </trkpt>
      <trkpt lat="62.609345859806" lon="17.973646044389">
        <ele>125</ele>
        <time>2018-03-30T11:46:22Z</time>
      </trkpt>
      <trkpt lat="62.609358767932" lon="17.973725337163">
        <ele>125</ele>
        <time>2018-03-30T11:46:23Z</time>
      </trkpt>
      <trkpt lat="62.609373603895" lon="17.97379683477">
        <ele>125</ele>
        <time>2018-03-30T11:46:24Z</time>
      </trkpt>
      <trkpt lat="62.609385925288" lon="17.973867578006">
        <ele>125</ele>
        <time>2018-03-30T11:46:25Z</time>
      </trkpt>
      <trkpt lat="62.609397324672" lon="17.973935555215">
        <ele>125</ele>
        <time>2018-03-30T11:46:26Z</time>
      </trkpt>
      <trkpt lat="62.609406880038" lon="17.974000850216">
        <ele>125.2</ele>
        <time>2018-03-30T11:46:27Z</time>
      </trkpt>
      <trkpt lat="62.609423392381" lon="17.974085842682">
        <ele>125.4</ele>
        <time>2018-03-30T11:46:28Z</time>
      </trkpt>
      <trkpt lat="62.609433283023" lon="17.974169410225">
        <ele>125.4</ele>
        <time>2018-03-30T11:46:29Z</time>
      </trkpt>
      <trkpt lat="62.609444682407" lon="17.974243841497">
        <ele>125.6</ele>
        <time>2018-03-30T11:46:30Z</time>
      </trkpt>
      <trkpt lat="62.6094570038" lon="17.974306538109">
        <ele>125.4</ele>
        <time>2018-03-30T11:46:31Z</time>
      </trkpt>
      <trkpt lat="62.609465972433" lon="17.974369821454">
        <ele>125.4</ele>
        <time>2018-03-30T11:46:32Z</time>
      </trkpt>
      <trkpt lat="62.609477036541" lon="17.974435200274">
        <ele>125</ele>
        <time>2018-03-30T11:46:33Z</time>
      </trkpt>
      <trkpt lat="62.609491704866" lon="17.974485659312">
        <ele>124.8</ele>
        <time>2018-03-30T11:46:34Z</time>
      </trkpt>
      <trkpt lat="62.609504361535" lon="17.974541063671">
        <ele>124.8</ele>
        <time>2018-03-30T11:46:35Z</time>
      </trkpt>
      <trkpt lat="62.609513665444" lon="17.974609292337">
        <ele>125</ele>
        <time>2018-03-30T11:46:36Z</time>
      </trkpt>
      <trkpt lat="62.609525986837" lon="17.974676598994">
        <ele>125.2</ele>
        <time>2018-03-30T11:46:37Z</time>
      </trkpt>
      <trkpt lat="62.609537972954" lon="17.974723621453">
        <ele>125.2</ele>
        <time>2018-03-30T11:46:38Z</time>
      </trkpt>
      <trkpt lat="62.609548282691" lon="17.974778103803">
        <ele>125.2</ele>
        <time>2018-03-30T11:46:39Z</time>
      </trkpt>
      <trkpt lat="62.609553563288" lon="17.974834430171">
        <ele>125.4</ele>
        <time>2018-03-30T11:46:40Z</time>
      </trkpt>
      <trkpt lat="62.609561861369" lon="17.974893606385">
        <ele>125.2</ele>
        <time>2018-03-30T11:46:41Z</time>
      </trkpt>
      <trkpt lat="62.609570243269" lon="17.974947082907">
        <ele>125.4</ele>
        <time>2018-03-30T11:46:42Z</time>
      </trkpt>
      <trkpt lat="62.609580720644" lon="17.975010030976">
        <ele>125.2</ele>
        <time>2018-03-30T11:46:43Z</time>
      </trkpt>
      <trkpt lat="62.609593880227" lon="17.975064513326">
        <ele>125.4</ele>
        <time>2018-03-30T11:46:44Z</time>
      </trkpt>
      <trkpt lat="62.60962045085" lon="17.975132322897">
        <ele>125.2</ele>
        <time>2018-03-30T11:46:45Z</time>
      </trkpt>
      <trkpt lat="62.609622797782" lon="17.975190325645">
        <ele>125.2</ele>
        <time>2018-03-30T11:46:46Z</time>
      </trkpt>
      <trkpt lat="62.609623049239" lon="17.975234749715">
        <ele>125.4</ele>
        <time>2018-03-30T11:46:47Z</time>
      </trkpt>
      <trkpt lat="62.609635035356" lon="17.975300882906">
        <ele>125.6</ele>
        <time>2018-03-30T11:46:48Z</time>
      </trkpt>
      <trkpt lat="62.609639477763" lon="17.975353772695">
        <ele>125.4</ele>
        <time>2018-03-30T11:46:49Z</time>
      </trkpt>
      <trkpt lat="62.609644590722" lon="17.975407668312">
        <ele>125.6</ele>
        <time>2018-03-30T11:46:50Z</time>
      </trkpt>
      <trkpt lat="62.60965230207" lon="17.975460055187">
        <ele>125.6</ele>
        <time>2018-03-30T11:46:51Z</time>
      </trkpt>
      <trkpt lat="62.60966068397" lon="17.975507832017">
        <ele>125.6</ele>
        <time>2018-03-30T11:46:52Z</time>
      </trkpt>
      <trkpt lat="62.609683566557" lon="17.975553764829">
        <ele>125.4</ele>
        <time>2018-03-30T11:46:53Z</time>
      </trkpt>
      <trkpt lat="62.609686584041" lon="17.975608498636">
        <ele>125.6</ele>
        <time>2018-03-30T11:46:54Z</time>
      </trkpt>
      <trkpt lat="62.609699575986" lon="17.975645546634">
        <ele>125.6</ele>
        <time>2018-03-30T11:46:55Z</time>
      </trkpt>
      <trkpt lat="62.60971432813" lon="17.975682929908">
        <ele>125.6</ele>
        <time>2018-03-30T11:46:56Z</time>
      </trkpt>
      <trkpt lat="62.609727236256" lon="17.975722073381">
        <ele>125.8</ele>
        <time>2018-03-30T11:46:57Z</time>
      </trkpt>
      <trkpt lat="62.609741401667" lon="17.975777813016">
        <ele>126</ele>
        <time>2018-03-30T11:46:58Z</time>
      </trkpt>
      <trkpt lat="62.609754980345" lon="17.975816788851">
        <ele>126.2</ele>
        <time>2018-03-30T11:46:59Z</time>
      </trkpt>
      <trkpt lat="62.609772666154" lon="17.97586884045">
        <ele>126.6</ele>
        <time>2018-03-30T11:47:00Z</time>
      </trkpt>
      <trkpt lat="62.609791022515" lon="17.975909408846">
        <ele>126.6</ele>
        <time>2018-03-30T11:47:01Z</time>
      </trkpt>
      <trkpt lat="62.609807451039" lon="17.975942684989">
        <ele>126.6</ele>
        <time>2018-03-30T11:47:02Z</time>
      </trkpt>
      <trkpt lat="62.609822706097" lon="17.975990126543">
        <ele>126.8</ele>
        <time>2018-03-30T11:47:03Z</time>
      </trkpt>
      <trkpt lat="62.60984173301" lon="17.976025414342">
        <ele>127</ele>
        <time>2018-03-30T11:47:04Z</time>
      </trkpt>
      <trkpt lat="62.609863777407" lon="17.976061875607">
        <ele>127.2</ele>
        <time>2018-03-30T11:47:05Z</time>
      </trkpt>
      <trkpt lat="62.609881798492" lon="17.976102946917">
        <ele>127.2</ele>
        <time>2018-03-30T11:47:06Z</time>
      </trkpt>
      <trkpt lat="62.609898478473" lon="17.97614292858">
        <ele>127.4</ele>
        <time>2018-03-30T11:47:07Z</time>
      </trkpt>
      <trkpt lat="62.609912895341" lon="17.976182826424">
        <ele>127.8</ele>
        <time>2018-03-30T11:47:08Z</time>
      </trkpt>
      <trkpt lat="62.609932341349" lon="17.976227837227">
        <ele>128</ele>
        <time>2018-03-30T11:47:09Z</time>
      </trkpt>
      <trkpt lat="62.609954218108" lon="17.976268321804">
        <ele>128</ele>
        <time>2018-03-30T11:47:10Z</time>
      </trkpt>
      <trkpt lat="62.609972239193" lon="17.976305705078">
        <ele>128.2</ele>
        <time>2018-03-30T11:47:11Z</time>
      </trkpt>
      <trkpt lat="62.609992188115" lon="17.976340489963">
        <ele>128.4</ele>
        <time>2018-03-30T11:47:12Z</time>
      </trkpt>
      <trkpt lat="62.610008281363" lon="17.976376532133">
        <ele>128.6</ele>
        <time>2018-03-30T11:47:13Z</time>
      </trkpt>
      <trkpt lat="62.610025548077" lon="17.976403689489">
        <ele>128.6</ele>
        <time>2018-03-30T11:47:14Z</time>
      </trkpt>
      <trkpt lat="62.610044072076" lon="17.976453142699">
        <ele>128.8</ele>
        <time>2018-03-30T11:47:15Z</time>
      </trkpt>
      <trkpt lat="62.610066284111" lon="17.97648155734">
        <ele>128.8</ele>
        <time>2018-03-30T11:47:16Z</time>
      </trkpt>
      <trkpt lat="62.610079862789" lon="17.976520868451">
        <ele>129</ele>
        <time>2018-03-30T11:47:17Z</time>
      </trkpt>
      <trkpt lat="62.610102745376" lon="17.976569734928">
        <ele>129</ele>
        <time>2018-03-30T11:47:18Z</time>
      </trkpt>
      <trkpt lat="62.610120682642" lon="17.976611560609">
        <ele>128.8</ele>
        <time>2018-03-30T11:47:19Z</time>
      </trkpt>
      <trkpt lat="62.610146498894" lon="17.976647016046">
        <ele>128.8</ele>
        <time>2018-03-30T11:47:20Z</time>
      </trkpt>
      <trkpt lat="62.610178182476" lon="17.976672161746">
        <ele>128.6</ele>
        <time>2018-03-30T11:47:21Z</time>
      </trkpt>
      <trkpt lat="62.610199891597" lon="17.976725889725">
        <ele>128.6</ele>
        <time>2018-03-30T11:47:22Z</time>
      </trkpt>
      <trkpt lat="62.610234760301" lon="17.976764362646">
        <ele>128.6</ele>
        <time>2018-03-30T11:47:23Z</time>
      </trkpt>
      <trkpt lat="62.61026082801" lon="17.976799734264">
        <ele>128.6</ele>
        <time>2018-03-30T11:47:24Z</time>
      </trkpt>
      <trkpt lat="62.610290499936" lon="17.976830160561">
        <ele>128.4</ele>
        <time>2018-03-30T11:47:25Z</time>
      </trkpt>
      <trkpt lat="62.610317992568" lon="17.976869974586">
        <ele>128.6</ele>
        <time>2018-03-30T11:47:26Z</time>
      </trkpt>
      <trkpt lat="62.610341461888" lon="17.976917248502">
        <ele>128.6</ele>
        <time>2018-03-30T11:47:27Z</time>
      </trkpt>
      <trkpt lat="62.610366272312" lon="17.976933006474">
        <ele>128.8</ele>
        <time>2018-03-30T11:47:28Z</time>
      </trkpt>
      <trkpt lat="62.610388568166" lon="17.976963935685">
        <ele>128.6</ele>
        <time>2018-03-30T11:47:29Z</time>
      </trkpt>
      <trkpt lat="62.61041505497" lon="17.976978855467">
        <ele>128.8</ele>
        <time>2018-03-30T11:47:30Z</time>
      </trkpt>
      <trkpt lat="62.610437602281" lon="17.976991679774">
        <ele>129</ele>
        <time>2018-03-30T11:47:31Z</time>
      </trkpt>
      <trkpt lat="62.610463083257" lon="17.977002157149">
        <ele>129.2</ele>
        <time>2018-03-30T11:47:32Z</time>
      </trkpt>
      <trkpt lat="62.610498287237" lon="17.977015735827">
        <ele>129.2</ele>
        <time>2018-03-30T11:47:33Z</time>
      </trkpt>
      <trkpt lat="62.610526198964" lon="17.977023698632">
        <ele>129.4</ele>
        <time>2018-03-30T11:47:34Z</time>
      </trkpt>
      <trkpt lat="62.610536173425" lon="17.977027554306">
        <ele>129.6</ele>
        <time>2018-03-30T11:47:35Z</time>
      </trkpt>
      <trkpt lat="62.610562324953" lon="17.977030739428">
        <ele>129.6</ele>
        <time>2018-03-30T11:47:36Z</time>
      </trkpt>
      <trkpt lat="62.610592667431" lon="17.977036355301">
        <ele>129.6</ele>
        <time>2018-03-30T11:47:37Z</time>
      </trkpt>
      <trkpt lat="62.610613203086" lon="17.977052029454">
        <ele>129.8</ele>
        <time>2018-03-30T11:47:38Z</time>
      </trkpt>
      <trkpt lat="62.610633906379" lon="17.977067955064">
        <ele>130</ele>
        <time>2018-03-30T11:47:39Z</time>
      </trkpt>
      <trkpt lat="62.6106556155" lon="17.977087987805">
        <ele>130</ele>
        <time>2018-03-30T11:47:40Z</time>
      </trkpt>
      <trkpt lat="62.610671122015" lon="17.977128891477">
        <ele>130.2</ele>
        <time>2018-03-30T11:47:41Z</time>
      </trkpt>
      <trkpt lat="62.610695178068" lon="17.977164849828">
        <ele>130.2</ele>
        <time>2018-03-30T11:47:42Z</time>
      </trkpt>
      <trkpt lat="62.610719904673" lon="17.977225534784">
        <ele>130.4</ele>
        <time>2018-03-30T11:47:43Z</time>
      </trkpt>
      <trkpt lat="62.610745469468" lon="17.977280520048">
        <ele>130.4</ele>
        <time>2018-03-30T11:47:44Z</time>
      </trkpt>
      <trkpt lat="62.610761897992" lon="17.977322010453">
        <ele>130.2</ele>
        <time>2018-03-30T11:47:45Z</time>
      </trkpt>
      <trkpt lat="62.610781679276" lon="17.977371128387">
        <ele>130.2</ele>
        <time>2018-03-30T11:47:46Z</time>
      </trkpt>
      <trkpt lat="62.610800119456" lon="17.977388730377">
        <ele>130.2</ele>
        <time>2018-03-30T11:47:47Z</time>
      </trkpt>
      <trkpt lat="62.610824510785" lon="17.977465173305">
        <ele>130.2</ele>
        <time>2018-03-30T11:47:48Z</time>
      </trkpt>
      <trkpt lat="62.610842783327" lon="17.977506915167">
        <ele>130</ele>
        <time>2018-03-30T11:47:49Z</time>
      </trkpt>
      <trkpt lat="62.610861391145" lon="17.977549243762">
        <ele>130</ele>
        <time>2018-03-30T11:47:50Z</time>
      </trkpt>
      <trkpt lat="62.610883016447" lon="17.977588219597">
        <ele>129.8</ele>
        <time>2018-03-30T11:47:51Z</time>
      </trkpt>
      <trkpt lat="62.610913694201" lon="17.977601965913">
        <ele>129.8</ele>
        <time>2018-03-30T11:47:52Z</time>
      </trkpt>
      <trkpt lat="62.610936241512" lon="17.977662734688">
        <ele>129.8</ele>
        <time>2018-03-30T11:47:53Z</time>
      </trkpt>
      <trkpt lat="62.610968930922" lon="17.977692574252">
        <ele>129.8</ele>
        <time>2018-03-30T11:47:54Z</time>
      </trkpt>
      <trkpt lat="62.610998938124" lon="17.977720737436">
        <ele>130</ele>
        <time>2018-03-30T11:47:55Z</time>
      </trkpt>
      <trkpt lat="62.611029280602" lon="17.977745380222">
        <ele>130</ele>
        <time>2018-03-30T11:47:56Z</time>
      </trkpt>
      <trkpt lat="62.611055767406" lon="17.977758372167">
        <ele>129.8</ele>
        <time>2018-03-30T11:47:57Z</time>
      </trkpt>
      <trkpt lat="62.611077308889" lon="17.977773124311">
        <ele>130</ele>
        <time>2018-03-30T11:47:58Z</time>
      </trkpt>
      <trkpt lat="62.611108154281" lon="17.977795503984">
        <ele>130</ele>
        <time>2018-03-30T11:47:59Z</time>
      </trkpt>
      <trkpt lat="62.611135311637" lon="17.977814866173">
        <ele>130.2</ele>
        <time>2018-03-30T11:48:00Z</time>
      </trkpt>
      <trkpt lat="62.611159116233" lon="17.977829702136">
        <ele>130.2</ele>
        <time>2018-03-30T11:48:01Z</time>
      </trkpt>
      <trkpt lat="62.611183004648" lon="17.977847304126">
        <ele>130.4</ele>
        <time>2018-03-30T11:48:02Z</time>
      </trkpt>
      <trkpt lat="62.611195828955" lon="17.977861469537">
        <ele>130.2</ele>
        <time>2018-03-30T11:48:03Z</time>
      </trkpt>
      <trkpt lat="62.611239582473" lon="17.977882424287">
        <ele>130.2</ele>
        <time>2018-03-30T11:48:04Z</time>
      </trkpt>
      <trkpt lat="62.61127168515" lon="17.977919137009">
        <ele>130.4</ele>
        <time>2018-03-30T11:48:05Z</time>
      </trkpt>
      <trkpt lat="62.611302362904" lon="17.977949060392">
        <ele>130.2</ele>
        <time>2018-03-30T11:48:06Z</time>
      </trkpt>
      <trkpt lat="62.611327927699" lon="17.977976720662">
        <ele>130.2</ele>
        <time>2018-03-30T11:48:07Z</time>
      </trkpt>
      <trkpt lat="62.61135550415" lon="17.978004045656">
        <ele>130.2</ele>
        <time>2018-03-30T11:48:08Z</time>
      </trkpt>
      <trkpt lat="62.611378722013" lon="17.978018881619">
        <ele>130.2</ele>
        <time>2018-03-30T11:48:09Z</time>
      </trkpt>
      <trkpt lat="62.61140411917" lon="17.978058025092">
        <ele>130.2</ele>
        <time>2018-03-30T11:48:10Z</time>
      </trkpt>
      <trkpt lat="62.611438065865" lon="17.978093815805">
        <ele>130.2</ele>
        <time>2018-03-30T11:48:11Z</time>
      </trkpt>
      <trkpt lat="62.611468073067" lon="17.978132372545">
        <ele>130.2</ele>
        <time>2018-03-30T11:48:12Z</time>
      </trkpt>
      <trkpt lat="62.611505791617" lon="17.978150812725">
        <ele>130.2</ele>
        <time>2018-03-30T11:48:13Z</time>
      </trkpt>
      <trkpt lat="62.611545270366" lon="17.978170594009">
        <ele>130</ele>
        <time>2018-03-30T11:48:14Z</time>
      </trkpt>
      <trkpt lat="62.611579719975" lon="17.978180065556">
        <ele>129.8</ele>
        <time>2018-03-30T11:48:15Z</time>
      </trkpt>
      <trkpt lat="62.611614672498" lon="17.978202445229">
        <ele>129.6</ele>
        <time>2018-03-30T11:48:16Z</time>
      </trkpt>
      <trkpt lat="62.611654318885" lon="17.978218706115">
        <ele>129.4</ele>
        <time>2018-03-30T11:48:17Z</time>
      </trkpt>
      <trkpt lat="62.611706957217" lon="17.978248545679">
        <ele>129</ele>
        <time>2018-03-30T11:48:18Z</time>
      </trkpt>
      <trkpt lat="62.611758924997" lon="17.978275032483">
        <ele>128.8</ele>
        <time>2018-03-30T11:48:19Z</time>
      </trkpt>
      <trkpt lat="62.611813910261" lon="17.978297328337">
        <ele>128.6</ele>
        <time>2018-03-30T11:48:20Z</time>
      </trkpt>
      <trkpt lat="62.611870488086" lon="17.978312834852">
        <ele>128.4</ele>
        <time>2018-03-30T11:48:21Z</time>
      </trkpt>
      <trkpt lat="62.611911727034" lon="17.978295903414">
        <ele>128</ele>
        <time>2018-03-30T11:48:22Z</time>
      </trkpt>
      <trkpt lat="62.611935615449" lon="17.978233793535">
        <ele>127.8</ele>
        <time>2018-03-30T11:48:23Z</time>
      </trkpt>
      <trkpt lat="62.611955312914" lon="17.97817973028">
        <ele>127.4</ele>
        <time>2018-03-30T11:48:24Z</time>
      </trkpt>
      <trkpt lat="62.611970400334" lon="17.978123320093">
        <ele>127.4</ele>
        <time>2018-03-30T11:48:25Z</time>
      </trkpt>
      <trkpt lat="62.611975513293" lon="17.978058360368">
        <ele>127.2</ele>
        <time>2018-03-30T11:48:26Z</time>
      </trkpt>
      <trkpt lat="62.61197744113" lon="17.97798778477">
        <ele>127.2</ele>
        <time>2018-03-30T11:48:27Z</time>
      </trkpt>
      <trkpt lat="62.6119967195" lon="17.977949311849">
        <ele>127.2</ele>
        <time>2018-03-30T11:48:28Z</time>
      </trkpt>
      <trkpt lat="62.612003592658" lon="17.977868929428">
        <ele>127.2</ele>
        <time>2018-03-30T11:48:29Z</time>
      </trkpt>
      <trkpt lat="62.61199085217" lon="17.977803466789">
        <ele>127.2</ele>
        <time>2018-03-30T11:48:30Z</time>
      </trkpt>
      <trkpt lat="62.611991438903" lon="17.977754516493">
        <ele>127.4</ele>
        <time>2018-03-30T11:48:31Z</time>
      </trkpt>
      <trkpt lat="62.611992360912" lon="17.977703973636">
        <ele>127.4</ele>
        <time>2018-03-30T11:48:32Z</time>
      </trkpt>
      <trkpt lat="62.611992360912" lon="17.977681091049">
        <ele>127.4</ele>
        <time>2018-03-30T11:48:33Z</time>
      </trkpt>
      <trkpt lat="62.611969981239" lon="17.977634320047">
        <ele>127.6</ele>
        <time>2018-03-30T11:48:34Z</time>
      </trkpt>
      <trkpt lat="62.611957576027" lon="17.977584447742">
        <ele>127.8</ele>
        <time>2018-03-30T11:48:35Z</time>
      </trkpt>
      <trkpt lat="62.61194558991" lon="17.977537341464">
        <ele>128</ele>
        <time>2018-03-30T11:48:36Z</time>
      </trkpt>
      <trkpt lat="62.611930837766" lon="17.977505154968">
        <ele>128.2</ele>
        <time>2018-03-30T11:48:37Z</time>
      </trkpt>
      <trkpt lat="62.611917594364" lon="17.977444218555">
        <ele>128.6</ele>
        <time>2018-03-30T11:48:38Z</time>
      </trkpt>
      <trkpt lat="62.611907116989" lon="17.977390742033">
        <ele>128.8</ele>
        <time>2018-03-30T11:48:39Z</time>
      </trkpt>
      <trkpt lat="62.61189446032" lon="17.977346820877">
        <ele>128.8</ele>
        <time>2018-03-30T11:48:40Z</time>
      </trkpt>
      <trkpt lat="62.611879037624" lon="17.977291667975">
        <ele>129</ele>
        <time>2018-03-30T11:48:41Z</time>
      </trkpt>
      <trkpt lat="62.611869985172" lon="17.977248165914">
        <ele>129</ele>
        <time>2018-03-30T11:48:42Z</time>
      </trkpt>
      <trkpt lat="62.611849449517" lon="17.977201897826">
        <ele>129.2</ele>
        <time>2018-03-30T11:48:43Z</time>
      </trkpt>
      <trkpt lat="62.611837882495" lon="17.97715462391">
        <ele>129.2</ele>
        <time>2018-03-30T11:48:44Z</time>
      </trkpt>
      <trkpt lat="62.611826818387" lon="17.977133836798">
        <ele>129.4</ele>
        <time>2018-03-30T11:48:45Z</time>
      </trkpt>
      <trkpt lat="62.611817514478" lon="17.977081449923">
        <ele>129.4</ele>
        <time>2018-03-30T11:48:46Z</time>
      </trkpt>
      <trkpt lat="62.611814245537" lon="17.977060076078">
        <ele>129.6</ele>
        <time>2018-03-30T11:48:47Z</time>
      </trkpt>
      <trkpt lat="62.611797733194" lon="17.97701716075">
        <ele>129.8</ele>
        <time>2018-03-30T11:48:48Z</time>
      </trkpt>
      <trkpt lat="62.611780382661" lon="17.976987656462">
        <ele>130</ele>
        <time>2018-03-30T11:48:49Z</time>
      </trkpt>
      <trkpt lat="62.611752470934" lon="17.976960918201">
        <ele>130</ele>
        <time>2018-03-30T11:48:50Z</time>
      </trkpt>
      <trkpt lat="62.611725900311" lon="17.976930575723">
        <ele>130.2</ele>
        <time>2018-03-30T11:48:51Z</time>
      </trkpt>
      <trkpt lat="62.611702598629" lon="17.976928144972">
        <ele>130.2</ele>
        <time>2018-03-30T11:48:52Z</time>
      </trkpt>
      <trkpt lat="62.611665550631" lon="17.976906854946">
        <ele>130.4</ele>
        <time>2018-03-30T11:48:53Z</time>
      </trkpt>
      <trkpt lat="62.611639985836" lon="17.976894617372">
        <ele>130.4</ele>
        <time>2018-03-30T11:48:54Z</time>
      </trkpt>
      <trkpt lat="62.611615175412" lon="17.976884894368">
        <ele>130.6</ele>
        <time>2018-03-30T11:48:55Z</time>
      </trkpt>
      <trkpt lat="62.611591286997" lon="17.976881625427">
        <ele>130.6</ele>
        <time>2018-03-30T11:48:56Z</time>
      </trkpt>
      <trkpt lat="62.611570667523" lon="17.976882044522">
        <ele>130.6</ele>
        <time>2018-03-30T11:48:57Z</time>
      </trkpt>
      <trkpt lat="62.611541079416" lon="17.976870896595">
        <ele>130.6</ele>
        <time>2018-03-30T11:48:58Z</time>
      </trkpt>
      <trkpt lat="62.611514844069" lon="17.976890091146">
        <ele>130.8</ele>
        <time>2018-03-30T11:48:59Z</time>
      </trkpt>
      <trkpt lat="62.611479975365" lon="17.976876680106">
        <ele>131.2</ele>
        <time>2018-03-30T11:49:00Z</time>
      </trkpt>
      <trkpt lat="62.61145021962" lon="17.976868717301">
        <ele>131.2</ele>
        <time>2018-03-30T11:49:01Z</time>
      </trkpt>
      <trkpt lat="62.611419290409" lon="17.976856144451">
        <ele>131.2</ele>
        <time>2018-03-30T11:49:02Z</time>
      </trkpt>
      <trkpt lat="62.611387858284" lon="17.976877099201">
        <ele>131.4</ele>
        <time>2018-03-30T11:49:03Z</time>
      </trkpt>
      <trkpt lat="62.611355420331" lon="17.976845918533">
        <ele>131.4</ele>
        <time>2018-03-30T11:49:04Z</time>
      </trkpt>
      <trkpt lat="62.611314684297" lon="17.976835189701">
        <ele>131.2</ele>
        <time>2018-03-30T11:49:05Z</time>
      </trkpt>
      <trkpt lat="62.611279731774" lon="17.976823957955">
        <ele>131.4</ele>
        <time>2018-03-30T11:49:06Z</time>
      </trkpt>
      <trkpt lat="62.61124570126" lon="17.976821778661">
        <ele>131.4</ele>
        <time>2018-03-30T11:49:07Z</time>
      </trkpt>
      <trkpt lat="62.611205887235" lon="17.976800404816">
        <ele>131.4</ele>
        <time>2018-03-30T11:49:08Z</time>
      </trkpt>
      <trkpt lat="62.611170096522" lon="17.976798812255">
        <ele>131.2</ele>
        <time>2018-03-30T11:49:09Z</time>
      </trkpt>
      <trkpt lat="62.611132964705" lon="17.976768805053">
        <ele>131.2</ele>
        <time>2018-03-30T11:49:10Z</time>
      </trkpt>
      <trkpt lat="62.611090803748" lon="17.976763356818">
        <ele>131.2</ele>
        <time>2018-03-30T11:49:11Z</time>
      </trkpt>
      <trkpt lat="62.611055096854" lon="17.976751705977">
        <ele>131.2</ele>
        <time>2018-03-30T11:49:12Z</time>
      </trkpt>
      <trkpt lat="62.61101771358" lon="17.976754304366">
        <ele>131</ele>
        <time>2018-03-30T11:49:13Z</time>
      </trkpt>
      <trkpt lat="62.610984772713" lon="17.976738211118">
        <ele>131</ele>
        <time>2018-03-30T11:49:14Z</time>
      </trkpt>
      <trkpt lat="62.610957866814" lon="17.976763692094">
        <ele>131</ele>
        <time>2018-03-30T11:49:15Z</time>
      </trkpt>
      <trkpt lat="62.610907240138" lon="17.976761261343">
        <ele>131</ele>
        <time>2018-03-30T11:49:16Z</time>
      </trkpt>
      <trkpt lat="62.610866420285" lon="17.976772996003">
        <ele>131</ele>
        <time>2018-03-30T11:49:17Z</time>
      </trkpt>
      <trkpt lat="62.610821074206" lon="17.976764195008">
        <ele>130.8</ele>
        <time>2018-03-30T11:49:18Z</time>
      </trkpt>
      <trkpt lat="62.610778075059" lon="17.976765117017">
        <ele>130.8</ele>
        <time>2018-03-30T11:49:19Z</time>
      </trkpt>
      <trkpt lat="62.61073189079" lon="17.976760926067">
        <ele>130.6</ele>
        <time>2018-03-30T11:49:20Z</time>
      </trkpt>
      <trkpt lat="62.610685538883" lon="17.976753801452">
        <ele>130.6</ele>
        <time>2018-03-30T11:49:21Z</time>
      </trkpt>
      <trkpt lat="62.610649664351" lon="17.976730248313">
        <ele>130.2</ele>
        <time>2018-03-30T11:49:22Z</time>
      </trkpt>
      <trkpt lat="62.610599708227" lon="17.976721531137">
        <ele>130</ele>
        <time>2018-03-30T11:49:23Z</time>
      </trkpt>
      <trkpt lat="62.610557882546" lon="17.976711891952">
        <ele>129.8</ele>
        <time>2018-03-30T11:49:24Z</time>
      </trkpt>
      <trkpt lat="62.610516224503" lon="17.976697391265">
        <ele>129.8</ele>
        <time>2018-03-30T11:49:25Z</time>
      </trkpt>
      <trkpt lat="62.610476745754" lon="17.976673083755">
        <ele>129.6</ele>
        <time>2018-03-30T11:49:26Z</time>
      </trkpt>
      <trkpt lat="62.610438775747" lon="17.976647686598">
        <ele>129.4</ele>
        <time>2018-03-30T11:49:27Z</time>
      </trkpt>
      <trkpt lat="62.610396028057" lon="17.976615583921">
        <ele>129.4</ele>
        <time>2018-03-30T11:49:28Z</time>
      </trkpt>
      <trkpt lat="62.610355208204" lon="17.976588175108">
        <ele>129.4</ele>
        <time>2018-03-30T11:49:29Z</time>
      </trkpt>
      <trkpt lat="62.610323356984" lon="17.976546684703">
        <ele>129.4</ele>
        <time>2018-03-30T11:49:30Z</time>
      </trkpt>
      <trkpt lat="62.610290667574" lon="17.976499494606">
        <ele>129.4</ele>
        <time>2018-03-30T11:49:31Z</time>
      </trkpt>
      <trkpt lat="62.610262085295" lon="17.976451633957">
        <ele>129.8</ele>
        <time>2018-03-30T11:49:32Z</time>
      </trkpt>
      <trkpt lat="62.610252027015" lon="17.976394469399">
        <ele>129.8</ele>
        <time>2018-03-30T11:49:33Z</time>
      </trkpt>
      <trkpt lat="62.61022059489" lon="17.976318277928">
        <ele>129.8</ele>
        <time>2018-03-30T11:49:34Z</time>
      </trkpt>
      <trkpt lat="62.610203495814" lon="17.976225657933">
        <ele>129.8</ele>
        <time>2018-03-30T11:49:35Z</time>
      </trkpt>
      <trkpt lat="62.610184636539" lon="17.976150556109">
        <ele>129.6</ele>
        <time>2018-03-30T11:49:36Z</time>
      </trkpt>
      <trkpt lat="62.610162424504" lon="17.976075286647">
        <ele>129.6</ele>
        <time>2018-03-30T11:49:37Z</time>
      </trkpt>
      <trkpt lat="62.61015102512" lon="17.975993898398">
        <ele>129.6</ele>
        <time>2018-03-30T11:49:38Z</time>
      </trkpt>
      <trkpt lat="62.610139039003" lon="17.975916114366">
        <ele>129.2</ele>
        <time>2018-03-30T11:49:39Z</time>
      </trkpt>
      <trkpt lat="62.610139039003" lon="17.975869008088">
        <ele>129.2</ele>
        <time>2018-03-30T11:49:40Z</time>
      </trkpt>
      <trkpt lat="62.610144571057" lon="17.975753337868">
        <ele>129.2</ele>
        <time>2018-03-30T11:49:41Z</time>
      </trkpt>
      <trkpt lat="62.61016778892" lon="17.975679577148">
        <ele>129.2</ele>
        <time>2018-03-30T11:49:42Z</time>
      </trkpt>
      <trkpt lat="62.610187234928" lon="17.975601793116">
        <ele>129.2</ele>
        <time>2018-03-30T11:49:43Z</time>
      </trkpt>
      <trkpt lat="62.610213218818" lon="17.97553272626">
        <ele>129.2</ele>
        <time>2018-03-30T11:49:44Z</time>
      </trkpt>
      <trkpt lat="62.61023819688" lon="17.975474723512">
        <ele>129.2</ele>
        <time>2018-03-30T11:49:45Z</time>
      </trkpt>
      <trkpt lat="62.610251859377" lon="17.975389898684">
        <ele>129.2</ele>
        <time>2018-03-30T11:49:46Z</time>
      </trkpt>
      <trkpt lat="62.610261750019" lon="17.97531647324">
        <ele>129.2</ele>
        <time>2018-03-30T11:49:47Z</time>
      </trkpt>
      <trkpt lat="62.610258061983" lon="17.975265930383">
        <ele>129.2</ele>
        <time>2018-03-30T11:49:48Z</time>
      </trkpt>
      <trkpt lat="62.610260911829" lon="17.97516978999">
        <ele>129.2</ele>
        <time>2018-03-30T11:49:49Z</time>
      </trkpt>
      <trkpt lat="62.610265102779" lon="17.975116229649">
        <ele>129.2</ele>
        <time>2018-03-30T11:49:50Z</time>
      </trkpt>
      <trkpt lat="62.610269712824" lon="17.975047078974">
        <ele>129</ele>
        <time>2018-03-30T11:49:51Z</time>
      </trkpt>
      <trkpt lat="62.610299720026" lon="17.974993686271">
        <ele>129</ele>
        <time>2018-03-30T11:49:52Z</time>
      </trkpt>
      <trkpt lat="62.61031614855" lon="17.974908693805">
        <ele>129.2</ele>
        <time>2018-03-30T11:49:53Z</time>
      </trkpt>
      <trkpt lat="62.610314555989" lon="17.974845829555">
        <ele>129.2</ele>
        <time>2018-03-30T11:49:54Z</time>
      </trkpt>
      <trkpt lat="62.610306341727" lon="17.974766704419">
        <ele>129.2</ele>
        <time>2018-03-30T11:49:55Z</time>
      </trkpt>
      <trkpt lat="62.610306509365" lon="17.974696464097">
        <ele>129.2</ele>
        <time>2018-03-30T11:49:56Z</time>
      </trkpt>
      <trkpt lat="62.610310700315" lon="17.974624212119">
        <ele>129.2</ele>
        <time>2018-03-30T11:49:57Z</time>
      </trkpt>
      <trkpt lat="62.610320507138" lon="17.974561934602">
        <ele>129.2</ele>
        <time>2018-03-30T11:49:58Z</time>
      </trkpt>
      <trkpt lat="62.610309945944" lon="17.974481468362">
        <ele>129.2</ele>
        <time>2018-03-30T11:49:59Z</time>
      </trkpt>
      <trkpt lat="62.610304916804" lon="17.974379879734">
        <ele>129.2</ele>
        <time>2018-03-30T11:50:00Z</time>
      </trkpt>
      <trkpt lat="62.610300642035" lon="17.974298575304">
        <ele>129</ele>
        <time>2018-03-30T11:50:01Z</time>
      </trkpt>
      <trkpt lat="62.610305168261" lon="17.974219869263">
        <ele>129</ele>
        <time>2018-03-30T11:50:02Z</time>
      </trkpt>
      <trkpt lat="62.610278178543" lon="17.974144935077">
        <ele>128.8</ele>
        <time>2018-03-30T11:50:03Z</time>
      </trkpt>
      <trkpt lat="62.610269461367" lon="17.97407008471">
        <ele>128.8</ele>
        <time>2018-03-30T11:50:04Z</time>
      </trkpt>
      <trkpt lat="62.610275999249" lon="17.973992300678">
        <ele>128.8</ele>
        <time>2018-03-30T11:50:05Z</time>
      </trkpt>
      <trkpt lat="62.610286476624" lon="17.973924323469">
        <ele>128.6</ele>
        <time>2018-03-30T11:50:06Z</time>
      </trkpt>
      <trkpt lat="62.61030106113" lon="17.973862800323">
        <ele>128.6</ele>
        <time>2018-03-30T11:50:07Z</time>
      </trkpt>
      <trkpt lat="62.610321596785" lon="17.973782669359">
        <ele>128.8</ele>
        <time>2018-03-30T11:50:08Z</time>
      </trkpt>
      <trkpt lat="62.610323105527" lon="17.973707818992">
        <ele>128.8</ele>
        <time>2018-03-30T11:50:09Z</time>
      </trkpt>
      <trkpt lat="62.610324614269" lon="17.973630118779">
        <ele>129</ele>
        <time>2018-03-30T11:50:10Z</time>
      </trkpt>
      <trkpt lat="62.610316902921" lon="17.973555938964">
        <ele>129</ele>
        <time>2018-03-30T11:50:11Z</time>
      </trkpt>
      <trkpt lat="62.610322351156" lon="17.973472119964">
        <ele>129</ele>
        <time>2018-03-30T11:50:12Z</time>
      </trkpt>
      <trkpt lat="62.610326123011" lon="17.973395760855">
        <ele>129</ele>
        <time>2018-03-30T11:50:13Z</time>
      </trkpt>
      <trkpt lat="62.61033961787" lon="17.973317138633">
        <ele>129</ele>
        <time>2018-03-30T11:50:14Z</time>
      </trkpt>
      <trkpt lat="62.610352525996" lon="17.973251927451">
        <ele>129</ele>
        <time>2018-03-30T11:50:15Z</time>
      </trkpt>
      <trkpt lat="62.61036560176" lon="17.973180010749">
        <ele>129</ele>
        <time>2018-03-30T11:50:16Z</time>
      </trkpt>
      <trkpt lat="62.610382952293" lon="17.973115637757">
        <ele>129.2</ele>
        <time>2018-03-30T11:50:17Z</time>
      </trkpt>
      <trkpt lat="62.610395357505" lon="17.973026035246">
        <ele>129</ele>
        <time>2018-03-30T11:50:18Z</time>
      </trkpt>
      <trkpt lat="62.610406253975" lon="17.972941294237">
        <ele>129</ele>
        <time>2018-03-30T11:50:19Z</time>
      </trkpt>
      <trkpt lat="62.610422514861" lon="17.972854960667">
        <ele>129.2</ele>
        <time>2018-03-30T11:50:20Z</time>
      </trkpt>
      <trkpt lat="62.610439530118" lon="17.972781870499">
        <ele>129</ele>
        <time>2018-03-30T11:50:21Z</time>
      </trkpt>
      <trkpt lat="62.610460652506" lon="17.972719844439">
        <ele>129</ele>
        <time>2018-03-30T11:50:22Z</time>
      </trkpt>
      <trkpt lat="62.610466603655" lon="17.972652286325">
        <ele>129.2</ele>
        <time>2018-03-30T11:50:23Z</time>
      </trkpt>
      <trkpt lat="62.610482529265" lon="17.97258984117">
        <ele>129.2</ele>
        <time>2018-03-30T11:50:24Z</time>
      </trkpt>
      <trkpt lat="62.610500466531" lon="17.972537538114">
        <ele>129.4</ele>
        <time>2018-03-30T11:50:25Z</time>
      </trkpt>
      <trkpt lat="62.610528126801" lon="17.972490180379">
        <ele>129.6</ele>
        <time>2018-03-30T11:50:26Z</time>
      </trkpt>
      <trkpt lat="62.610562324953" lon="17.972449779621">
        <ele>129.8</ele>
        <time>2018-03-30T11:50:27Z</time>
      </trkpt>
      <trkpt lat="62.610583447341" lon="17.972419520962">
        <ele>129.8</ele>
        <time>2018-03-30T11:50:28Z</time>
      </trkpt>
      <trkpt lat="62.610597445114" lon="17.972383059697">
        <ele>130</ele>
        <time>2018-03-30T11:50:29Z</time>
      </trkpt>
      <trkpt lat="62.610604318272" lon="17.972336875428">
        <ele>130</ele>
        <time>2018-03-30T11:50:30Z</time>
      </trkpt>
      <trkpt lat="62.610623429004" lon="17.972299408335">
        <ele>130.2</ele>
        <time>2018-03-30T11:50:31Z</time>
      </trkpt>
      <trkpt lat="62.61064890998" lon="17.97227216716">
        <ele>130.4</ele>
        <time>2018-03-30T11:50:32Z</time>
      </trkpt>
      <trkpt lat="62.610675899698" lon="17.972214583507">
        <ele>130.4</ele>
        <time>2018-03-30T11:50:33Z</time>
      </trkpt>
      <trkpt lat="62.610700626303" lon="17.972192706748">
        <ele>130.6</ele>
        <time>2018-03-30T11:50:34Z</time>
      </trkpt>
      <trkpt lat="62.610715546085" lon="17.972154569103">
        <ele>130.6</ele>
        <time>2018-03-30T11:50:35Z</time>
      </trkpt>
      <trkpt lat="62.61073859631" lon="17.972124310444">
        <ele>130.6</ele>
        <time>2018-03-30T11:50:36Z</time>
      </trkpt>
      <trkpt lat="62.610754605739" lon="17.972094889975">
        <ele>130.6</ele>
        <time>2018-03-30T11:50:37Z</time>
      </trkpt>
      <trkpt lat="62.610769357883" lon="17.972079048184">
        <ele>130.8</ele>
        <time>2018-03-30T11:50:38Z</time>
      </trkpt>
      <trkpt lat="62.610780589629" lon="17.972057003787">
        <ele>130.8</ele>
        <time>2018-03-30T11:50:39Z</time>
      </trkpt>
      <trkpt lat="62.610799113628" lon="17.972037809236">
        <ele>131</ele>
        <time>2018-03-30T11:50:40Z</time>
      </trkpt>
      <trkpt lat="62.610823085862" lon="17.97201484283">
        <ele>131.2</ele>
        <time>2018-03-30T11:50:41Z</time>
      </trkpt>
      <trkpt lat="62.610841777499" lon="17.971995983555">
        <ele>131.4</ele>
        <time>2018-03-30T11:50:42Z</time>
      </trkpt>
      <trkpt lat="62.610857284014" lon="17.971958935557">
        <ele>131.4</ele>
        <time>2018-03-30T11:50:43Z</time>
      </trkpt>
      <trkpt lat="62.610878993135" lon="17.971936723522">
        <ele>131.6</ele>
        <time>2018-03-30T11:50:44Z</time>
      </trkpt>
      <trkpt lat="62.610907743052" lon="17.971908560338">
        <ele>131.6</ele>
        <time>2018-03-30T11:50:45Z</time>
      </trkpt>
      <trkpt lat="62.610938672263" lon="17.971880564792">
        <ele>131.8</ele>
        <time>2018-03-30T11:50:46Z</time>
      </trkpt>
      <trkpt lat="62.610953927321" lon="17.971873859272">
        <ele>131.8</ele>
        <time>2018-03-30T11:50:47Z</time>
      </trkpt>
      <trkpt lat="62.610962728316" lon="17.971856341101">
        <ele>132</ele>
        <time>2018-03-30T11:50:48Z</time>
      </trkpt>
      <trkpt lat="62.61097328951" lon="17.971819209284">
        <ele>132.2</ele>
        <time>2018-03-30T11:50:49Z</time>
      </trkpt>
      <trkpt lat="62.610990975319" lon="17.97179691343">
        <ele>132.4</ele>
        <time>2018-03-30T11:50:50Z</time>
      </trkpt>
      <trkpt lat="62.611008242033" lon="17.971778808526">
        <ele>132.4</ele>
        <time>2018-03-30T11:50:51Z</time>
      </trkpt>
      <trkpt lat="62.611036908131" lon="17.971759530156">
        <ele>132.6</ele>
        <time>2018-03-30T11:50:52Z</time>
      </trkpt>
      <trkpt lat="62.611057024691" lon="17.971738156311">
        <ele>132.8</ele>
        <time>2018-03-30T11:50:53Z</time>
      </trkpt>
      <trkpt lat="62.611083679133" lon="17.97170555072">
        <ele>133</ele>
        <time>2018-03-30T11:50:54Z</time>
      </trkpt>
      <trkpt lat="62.611107232272" lon="17.971666574885">
        <ele>133.2</ele>
        <time>2018-03-30T11:50:55Z</time>
      </trkpt>
      <trkpt lat="62.611117039095" lon="17.971649559628">
        <ele>133.2</ele>
        <time>2018-03-30T11:50:56Z</time>
      </trkpt>
      <trkpt lat="62.611135563094" lon="17.971615193838">
        <ele>133.4</ele>
        <time>2018-03-30T11:50:57Z</time>
      </trkpt>
      <trkpt lat="62.611149057953" lon="17.971600106418">
        <ele>133.6</ele>
        <time>2018-03-30T11:50:58Z</time>
      </trkpt>
      <trkpt lat="62.611173281644" lon="17.97157227851">
        <ele>133.8</ele>
        <time>2018-03-30T11:50:59Z</time>
      </trkpt>
      <trkpt lat="62.611204043217" lon="17.97155551471">
        <ele>133.8</ele>
        <time>2018-03-30T11:51:00Z</time>
      </trkpt>
      <trkpt lat="62.611239498654" lon="17.971520646006">
        <ele>133.8</ele>
        <time>2018-03-30T11:51:01Z</time>
      </trkpt>
      <trkpt lat="62.611262381241" lon="17.971515197771">
        <ele>134</ele>
        <time>2018-03-30T11:51:02Z</time>
      </trkpt>
      <trkpt lat="62.611289454778" lon="17.971513269934">
        <ele>134.2</ele>
        <time>2018-03-30T11:51:03Z</time>
      </trkpt>
      <trkpt lat="62.611322730921" lon="17.971516035961">
        <ele>134.4</ele>
        <time>2018-03-30T11:51:04Z</time>
      </trkpt>
      <trkpt lat="62.611334717038" lon="17.971519807816">
        <ele>134.6</ele>
        <time>2018-03-30T11:51:05Z</time>
      </trkpt>
      <trkpt lat="62.611349888277" lon="17.971515533047">
        <ele>134.8</ele>
        <time>2018-03-30T11:51:06Z</time>
      </trkpt>
      <trkpt lat="62.611364388964" lon="17.971515365409">
        <ele>135.2</ele>
        <time>2018-03-30T11:51:07Z</time>
      </trkpt>
      <trkpt lat="62.611385092257" lon="17.971510755364">
        <ele>135.4</ele>
        <time>2018-03-30T11:51:08Z</time>
      </trkpt>
      <trkpt lat="62.611407974844" lon="17.97151611978">
        <ele>135.8</ele>
        <time>2018-03-30T11:51:09Z</time>
      </trkpt>
      <trkpt lat="62.611421469703" lon="17.971513186115">
        <ele>136</ele>
        <time>2018-03-30T11:51:10Z</time>
      </trkpt>
      <trkpt lat="62.611452231276" lon="17.971521651834">
        <ele>136.4</ele>
        <time>2018-03-30T11:51:11Z</time>
      </trkpt>
      <trkpt lat="62.611474862406" lon="17.971527183888">
        <ele>136.6</ele>
        <time>2018-03-30T11:51:12Z</time>
      </trkpt>
      <trkpt lat="62.611491458568" lon="17.971525088413">
        <ele>136.8</ele>
        <time>2018-03-30T11:51:13Z</time>
      </trkpt>
      <trkpt lat="62.611513335327" lon="17.971546462258">
        <ele>137</ele>
        <time>2018-03-30T11:51:14Z</time>
      </trkpt>
      <trkpt lat="62.611542839615" lon="17.971534057046">
        <ele>137.2</ele>
        <time>2018-03-30T11:51:15Z</time>
      </trkpt>
      <trkpt lat="62.61156588984" lon="17.971533470313">
        <ele>137.2</ele>
        <time>2018-03-30T11:51:16Z</time>
      </trkpt>
      <trkpt lat="62.611592795739" lon="17.971523244395">
        <ele>137.4</ele>
        <time>2018-03-30T11:51:17Z</time>
      </trkpt>
      <trkpt lat="62.611608972806" lon="17.971510839183">
        <ele>137.4</ele>
        <time>2018-03-30T11:51:18Z</time>
      </trkpt>
      <trkpt lat="62.611636633076" lon="17.971500277989">
        <ele>137.4</ele>
        <time>2018-03-30T11:51:19Z</time>
      </trkpt>
      <trkpt lat="62.611658845111" lon="17.971478149773">
        <ele>137.4</ele>
        <time>2018-03-30T11:51:20Z</time>
      </trkpt>
      <trkpt lat="62.611676279463" lon="17.971456021557">
        <ele>137.6</ele>
        <time>2018-03-30T11:51:21Z</time>
      </trkpt>
      <trkpt lat="62.61169916205" lon="17.971432552237">
        <ele>137.6</ele>
        <time>2018-03-30T11:51:22Z</time>
      </trkpt>
      <trkpt lat="62.611718775696" lon="17.971390726556">
        <ele>137.6</ele>
        <time>2018-03-30T11:51:23Z</time>
      </trkpt>
      <trkpt lat="62.611740149541" lon="17.971351918359">
        <ele>137.8</ele>
        <time>2018-03-30T11:51:24Z</time>
      </trkpt>
      <trkpt lat="62.611760517558" lon="17.971319648044">
        <ele>138</ele>
        <time>2018-03-30T11:51:25Z</time>
      </trkpt>
      <trkpt lat="62.611761691024" lon="17.971284527883">
        <ele>138</ele>
        <time>2018-03-30T11:51:26Z</time>
      </trkpt>
      <trkpt lat="62.611781807584" lon="17.971260555649">
        <ele>138.2</ele>
        <time>2018-03-30T11:51:27Z</time>
      </trkpt>
      <trkpt lat="62.611804606352" lon="17.971204145462">
        <ele>138.4</ele>
        <time>2018-03-30T11:51:28Z</time>
      </trkpt>
      <trkpt lat="62.611826315473" lon="17.971179670314">
        <ele>138.6</ele>
        <time>2018-03-30T11:51:29Z</time>
      </trkpt>
      <trkpt lat="62.611849281879" lon="17.971156871546">
        <ele>138.6</ele>
        <time>2018-03-30T11:51:30Z</time>
      </trkpt>
      <trkpt lat="62.611882222746" lon="17.971130049466">
        <ele>138.8</ele>
        <time>2018-03-30T11:51:31Z</time>
      </trkpt>
      <trkpt lat="62.611911559396" lon="17.971137090262">
        <ele>139</ele>
        <time>2018-03-30T11:51:32Z</time>
      </trkpt>
      <trkpt lat="62.611941231322" lon="17.971147651456">
        <ele>139</ele>
        <time>2018-03-30T11:51:33Z</time>
      </trkpt>
      <trkpt lat="62.611976267664" lon="17.971155614261">
        <ele>139</ele>
        <time>2018-03-30T11:51:34Z</time>
      </trkpt>
      <trkpt lat="62.612007867427" lon="17.971172964794">
        <ele>139.2</ele>
        <time>2018-03-30T11:51:35Z</time>
      </trkpt>
      <trkpt lat="62.612043406683" lon="17.97118000559">
        <ele>139.2</ele>
        <time>2018-03-30T11:51:36Z</time>
      </trkpt>
      <trkpt lat="62.612062601234" lon="17.971174892631">
        <ele>139.2</ele>
        <time>2018-03-30T11:51:37Z</time>
      </trkpt>
      <trkpt lat="62.612076096093" lon="17.971164582894">
        <ele>139.2</ele>
        <time>2018-03-30T11:51:38Z</time>
      </trkpt>
      <trkpt lat="62.612092608436" lon="17.971175479364">
        <ele>139</ele>
        <time>2018-03-30T11:51:39Z</time>
      </trkpt>
      <trkpt lat="62.612132003366" lon="17.971161900686">
        <ele>139.2</ele>
        <time>2018-03-30T11:51:40Z</time>
      </trkpt>
      <trkpt lat="62.612157065247" lon="17.971161733048">
        <ele>139.4</ele>
        <time>2018-03-30T11:51:41Z</time>
      </trkpt>
      <trkpt lat="62.612186569535" lon="17.971147232361">
        <ele>139.4</ele>
        <time>2018-03-30T11:51:42Z</time>
      </trkpt>
      <trkpt lat="62.612210038855" lon="17.971149579293">
        <ele>139.4</ele>
        <time>2018-03-30T11:51:43Z</time>
      </trkpt>
      <trkpt lat="62.61224482374" lon="17.971164331437">
        <ele>139.6</ele>
        <time>2018-03-30T11:51:44Z</time>
      </trkpt>
      <trkpt lat="62.612263850653" lon="17.971158464107">
        <ele>139.6</ele>
        <time>2018-03-30T11:51:45Z</time>
      </trkpt>
      <trkpt lat="62.61229260057" lon="17.971170450224">
        <ele>140</ele>
        <time>2018-03-30T11:51:46Z</time>
      </trkpt>
      <trkpt lat="62.612312298035" lon="17.971195679743">
        <ele>140</ele>
        <time>2018-03-30T11:51:47Z</time>
      </trkpt>
      <trkpt lat="62.612341634685" lon="17.971208923145">
        <ele>140.2</ele>
        <time>2018-03-30T11:51:48Z</time>
      </trkpt>
      <trkpt lat="62.612369378774" lon="17.971232727741">
        <ele>140.4</ele>
        <time>2018-03-30T11:51:49Z</time>
      </trkpt>
      <trkpt lat="62.612395446483" lon="17.971262651124">
        <ele>140.6</ele>
        <time>2018-03-30T11:51:50Z</time>
      </trkpt>
      <trkpt lat="62.612427381522" lon="17.971275391612">
        <ele>141</ele>
        <time>2018-03-30T11:51:51Z</time>
      </trkpt>
      <trkpt lat="62.612449677376" lon="17.971297855104">
        <ele>141</ele>
        <time>2018-03-30T11:51:52Z</time>
      </trkpt>
      <trkpt lat="62.61247197323" lon="17.97131830694">
        <ele>141.2</ele>
        <time>2018-03-30T11:51:53Z</time>
      </trkpt>
      <trkpt lat="62.612499465862" lon="17.971327610849">
        <ele>141.2</ele>
        <time>2018-03-30T11:51:54Z</time>
      </trkpt>
      <trkpt lat="62.612529389245" lon="17.971339345509">
        <ele>141.2</ele>
        <time>2018-03-30T11:51:55Z</time>
      </trkpt>
      <trkpt lat="62.612561156646" lon="17.971343871735">
        <ele>141.4</ele>
        <time>2018-03-30T11:51:56Z</time>
      </trkpt>
      <trkpt lat="62.612601473585" lon="17.97134848178">
        <ele>141.2</ele>
        <time>2018-03-30T11:51:57Z</time>
      </trkpt>
      <trkpt lat="62.612612286236" lon="17.971341608622">
        <ele>141</ele>
        <time>2018-03-30T11:51:58Z</time>
      </trkpt>
      <trkpt lat="62.61267146245" lon="17.971316043827">
        <ele>140.8</ele>
        <time>2018-03-30T11:51:59Z</time>
      </trkpt>
      <trkpt lat="62.612719826013" lon="17.971274804879">
        <ele>140.4</ele>
        <time>2018-03-30T11:52:00Z</time>
      </trkpt>
      <trkpt lat="62.612755868183" lon="17.971210767163">
        <ele>140</ele>
        <time>2018-03-30T11:52:01Z</time>
      </trkpt>
      <trkpt lat="62.612797610045" lon="17.971144131058">
        <ele>139.8</ele>
        <time>2018-03-30T11:52:02Z</time>
      </trkpt>
      <trkpt lat="62.612821247003" lon="17.971113537123">
        <ele>139.4</ele>
        <time>2018-03-30T11:52:03Z</time>
      </trkpt>
      <trkpt lat="62.612859552286" lon="17.971035501634">
        <ele>138.8</ele>
        <time>2018-03-30T11:52:04Z</time>
      </trkpt>
      <trkpt lat="62.612911687704" lon="17.970938858327">
        <ele>138.2</ele>
        <time>2018-03-30T11:52:05Z</time>
      </trkpt>
      <trkpt lat="62.612957201421" lon="17.970848333807">
        <ele>137.4</ele>
        <time>2018-03-30T11:52:06Z</time>
      </trkpt>
      <trkpt lat="62.612988382089" lon="17.970768370481">
        <ele>136.6</ele>
        <time>2018-03-30T11:52:07Z</time>
      </trkpt>
      <trkpt lat="62.613016293816" lon="17.97068631168">
        <ele>135.8</ele>
        <time>2018-03-30T11:52:08Z</time>
      </trkpt>
      <trkpt lat="62.61304194243" lon="17.970600481024">
        <ele>135</ele>
        <time>2018-03-30T11:52:09Z</time>
      </trkpt>
      <trkpt lat="62.613065747026" lon="17.970522277897">
        <ele>134.2</ele>
        <time>2018-03-30T11:52:10Z</time>
      </trkpt>
      <trkpt lat="62.613093155839" lon="17.970453713955">
        <ele>134</ele>
        <time>2018-03-30T11:52:11Z</time>
      </trkpt>
      <trkpt lat="62.613107824164" lon="17.970383808909">
        <ele>134</ele>
        <time>2018-03-30T11:52:12Z</time>
      </trkpt>
      <trkpt lat="62.613111009286" lon="17.970354891354">
        <ele>134</ele>
        <time>2018-03-30T11:52:13Z</time>
      </trkpt>
      <trkpt lat="62.613115786969" lon="17.970304767592">
        <ele>134</ele>
        <time>2018-03-30T11:52:14Z</time>
      </trkpt>
      <trkpt lat="62.61312995238" lon="17.970252045441">
        <ele>134.2</ele>
        <time>2018-03-30T11:52:15Z</time>
      </trkpt>
      <trkpt lat="62.61313749609" lon="17.970208711018">
        <ele>134.2</ele>
        <time>2018-03-30T11:52:16Z</time>
      </trkpt>
      <trkpt lat="62.61313414333" lon="17.970153641935">
        <ele>134.4</ele>
        <time>2018-03-30T11:52:17Z</time>
      </trkpt>
      <trkpt lat="62.613139843022" lon="17.970106619476">
        <ele>134.6</ele>
        <time>2018-03-30T11:52:18Z</time>
      </trkpt>
      <trkpt lat="62.613150488035" lon="17.970076779912">
        <ele>134.6</ele>
        <time>2018-03-30T11:52:19Z</time>
      </trkpt>
      <trkpt lat="62.613174627907" lon="17.970016849327">
        <ele>134.8</ele>
        <time>2018-03-30T11:52:20Z</time>
      </trkpt>
      <trkpt lat="62.613187368395" lon="17.969975861836">
        <ele>135.2</ele>
        <time>2018-03-30T11:52:21Z</time>
      </trkpt>
      <trkpt lat="62.613204970385" lon="17.969951721964">
        <ele>135.2</ele>
        <time>2018-03-30T11:52:22Z</time>
      </trkpt>
      <trkpt lat="62.613219303434" lon="17.969899670365">
        <ele>135.4</ele>
        <time>2018-03-30T11:52:23Z</time>
      </trkpt>
      <trkpt lat="62.613246376971" lon="17.969824736179">
        <ele>135.6</ele>
        <time>2018-03-30T11:52:24Z</time>
      </trkpt>
      <trkpt lat="62.613265655341" lon="17.969746616871">
        <ele>135.8</ele>
        <time>2018-03-30T11:52:25Z</time>
      </trkpt>
      <trkpt lat="62.613274707793" lon="17.969657265817">
        <ele>135.8</ele>
        <time>2018-03-30T11:52:26Z</time>
      </trkpt>
      <trkpt lat="62.613278731105" lon="17.969571267523">
        <ele>135.6</ele>
        <time>2018-03-30T11:52:27Z</time>
      </trkpt>
      <trkpt lat="62.613279736933" lon="17.969503793228">
        <ele>135.6</ele>
        <time>2018-03-30T11:52:28Z</time>
      </trkpt>
      <trkpt lat="62.613251238473" lon="17.969425171006">
        <ele>135.2</ele>
        <time>2018-03-30T11:52:29Z</time>
      </trkpt>
      <trkpt lat="62.613230283723" lon="17.969373203226">
        <ele>135.2</ele>
        <time>2018-03-30T11:52:30Z</time>
      </trkpt>
      <trkpt lat="62.613207820231" lon="17.969322492731">
        <ele>135</ele>
        <time>2018-03-30T11:52:31Z</time>
      </trkpt>
      <trkpt lat="62.613186027291" lon="17.9692680942">
        <ele>134.8</ele>
        <time>2018-03-30T11:52:32Z</time>
      </trkpt>
      <trkpt lat="62.613167754749" lon="17.969236159161">
        <ele>134.8</ele>
        <time>2018-03-30T11:52:33Z</time>
      </trkpt>
      <trkpt lat="62.613146380904" lon="17.969214114764">
        <ele>134.6</ele>
        <time>2018-03-30T11:52:34Z</time>
      </trkpt>
      <trkpt lat="62.61312492324" lon="17.969166924667">
        <ele>134.6</ele>
        <time>2018-03-30T11:52:35Z</time>
      </trkpt>
      <trkpt lat="62.613109249087" lon="17.9691256019">
        <ele>134.6</ele>
        <time>2018-03-30T11:52:36Z</time>
      </trkpt>
      <trkpt lat="62.613080750627" lon="17.969084362952">
        <ele>134.6</ele>
        <time>2018-03-30T11:52:37Z</time>
      </trkpt>
      <trkpt lat="62.613068261596" lon="17.969022839806">
        <ele>134.8</ele>
        <time>2018-03-30T11:52:38Z</time>
      </trkpt>
      <trkpt lat="62.613052503624" lon="17.968967854542">
        <ele>134.8</ele>
        <time>2018-03-30T11:52:39Z</time>
      </trkpt>
      <trkpt lat="62.613039679317" lon="17.968916138219">
        <ele>134.6</ele>
        <time>2018-03-30T11:52:40Z</time>
      </trkpt>
      <trkpt lat="62.613015790902" lon="17.968847071363">
        <ele>133.8</ele>
        <time>2018-03-30T11:52:41Z</time>
      </trkpt>
      <trkpt lat="62.613005732622" lon="17.968780938172">
        <ele>133.6</ele>
        <time>2018-03-30T11:52:42Z</time>
      </trkpt>
      <trkpt lat="62.612993578867" lon="17.968691670937">
        <ele>132.8</ele>
        <time>2018-03-30T11:52:43Z</time>
      </trkpt>
      <trkpt lat="62.612988717365" lon="17.968613970724">
        <ele>132</ele>
        <time>2018-03-30T11:52:44Z</time>
      </trkpt>
      <trkpt lat="62.612988214451" lon="17.968536186692">
        <ele>131.8</ele>
        <time>2018-03-30T11:52:45Z</time>
      </trkpt>
      <trkpt lat="62.612990896659" lon="17.968485979111">
        <ele>131.4</ele>
        <time>2018-03-30T11:52:46Z</time>
      </trkpt>
      <trkpt lat="62.612996009618" lon="17.96838548013">
        <ele>131</ele>
        <time>2018-03-30T11:52:47Z</time>
      </trkpt>
      <trkpt lat="62.613008079554" lon="17.968300068569">
        <ele>130.4</ele>
        <time>2018-03-30T11:52:48Z</time>
      </trkpt>
      <trkpt lat="62.613021155318" lon="17.968229995885">
        <ele>130</ele>
        <time>2018-03-30T11:52:49Z</time>
      </trkpt>
      <trkpt lat="62.613038757308" lon="17.968165706712">
        <ele>129.6</ele>
        <time>2018-03-30T11:52:50Z</time>
      </trkpt>
      <trkpt lat="62.613058538592" lon="17.968105776127">
        <ele>129.4</ele>
        <time>2018-03-30T11:52:51Z</time>
      </trkpt>
      <trkpt lat="62.613070608528" lon="17.968044252981">
        <ele>129</ele>
        <time>2018-03-30T11:52:52Z</time>
      </trkpt>
      <trkpt lat="62.6130779846" lon="17.967946855303">
        <ele>128.6</ele>
        <time>2018-03-30T11:52:53Z</time>
      </trkpt>
      <trkpt lat="62.613081756455" lon="17.96786077319">
        <ele>128.4</ele>
        <time>2018-03-30T11:52:54Z</time>
      </trkpt>
      <trkpt lat="62.61308301374" lon="17.967774858715">
        <ele>128.2</ele>
        <time>2018-03-30T11:52:55Z</time>
      </trkpt>
      <trkpt lat="62.613069015967" lon="17.967713838483">
        <ele>128.2</ele>
        <time>2018-03-30T11:52:56Z</time>
      </trkpt>
      <trkpt lat="62.613053844728" lon="17.967648627301">
        <ele>128.2</ele>
        <time>2018-03-30T11:52:57Z</time>
      </trkpt>
      <trkpt lat="62.613035739824" lon="17.967607304534">
        <ele>128.2</ele>
        <time>2018-03-30T11:52:58Z</time>
      </trkpt>
      <trkpt lat="62.613014449798" lon="17.96755651022">
        <ele>128.2</ele>
        <time>2018-03-30T11:52:59Z</time>
      </trkpt>
      <trkpt lat="62.61299500379" lon="17.9675162771">
        <ele>128.2</ele>
        <time>2018-03-30T11:53:00Z</time>
      </trkpt>
      <trkpt lat="62.612974384316" lon="17.967472439763">
        <ele>128</ele>
        <time>2018-03-30T11:53:01Z</time>
      </trkpt>
      <trkpt lat="62.612951585548" lon="17.96741820887">
        <ele>128</ele>
        <time>2018-03-30T11:53:02Z</time>
      </trkpt>
      <trkpt lat="62.612938258327" lon="17.967399349595">
        <ele>127.8</ele>
        <time>2018-03-30T11:53:03Z</time>
      </trkpt>
      <trkpt lat="62.612913783179" lon="17.967334306051">
        <ele>127.8</ele>
        <time>2018-03-30T11:53:04Z</time>
      </trkpt>
      <trkpt lat="62.612896851741" lon="17.967299604985">
        <ele>128</ele>
        <time>2018-03-30T11:53:05Z</time>
      </trkpt>
      <trkpt lat="62.612880423217" lon="17.967264987738">
        <ele>128</ele>
        <time>2018-03-30T11:53:06Z</time>
      </trkpt>
      <trkpt lat="62.612846811798" lon="17.967221904772">
        <ele>128</ele>
        <time>2018-03-30T11:53:07Z</time>
      </trkpt>
      <trkpt lat="62.612825186496" lon="17.96720363223">
        <ele>128</ele>
        <time>2018-03-30T11:53:08Z</time>
      </trkpt>
      <trkpt lat="62.612802723004" lon="17.967177983616">
        <ele>128</ele>
        <time>2018-03-30T11:53:09Z</time>
      </trkpt>
      <trkpt lat="62.612795095475" lon="17.967180498186">
        <ele>128</ele>
        <time>2018-03-30T11:53:10Z</time>
      </trkpt>
      <trkpt lat="62.612760059133" lon="17.967158118513">
        <ele>128.2</ele>
        <time>2018-03-30T11:53:11Z</time>
      </trkpt>
      <trkpt lat="62.612737260365" lon="17.967142360541">
        <ele>128.2</ele>
        <time>2018-03-30T11:53:12Z</time>
      </trkpt>
      <trkpt lat="62.612721670031" lon="17.96713825341">
        <ele>128.4</ele>
        <time>2018-03-30T11:53:13Z</time>
      </trkpt>
      <trkpt lat="62.612701302014" lon="17.967129620053">
        <ele>128.6</ele>
        <time>2018-03-30T11:53:14Z</time>
      </trkpt>
      <trkpt lat="62.612677497418" lon="17.967127608397">
        <ele>128.6</ele>
        <time>2018-03-30T11:53:15Z</time>
      </trkpt>
      <trkpt lat="62.612650172424" lon="17.967126267293">
        <ele>128.8</ele>
        <time>2018-03-30T11:53:16Z</time>
      </trkpt>
      <trkpt lat="62.612628295665" lon="17.967107994751">
        <ele>129</ele>
        <time>2018-03-30T11:53:17Z</time>
      </trkpt>
      <trkpt lat="62.612604323431" lon="17.967112101882">
        <ele>129.2</ele>
        <time>2018-03-30T11:53:18Z</time>
      </trkpt>
      <trkpt lat="62.612578842455" lon="17.967107324199">
        <ele>129.4</ele>
        <time>2018-03-30T11:53:19Z</time>
      </trkpt>
      <trkpt lat="62.612553948212" lon="17.967109000579">
        <ele>129.6</ele>
        <time>2018-03-30T11:53:20Z</time>
      </trkpt>
      <trkpt lat="62.612533328738" lon="17.967115370823">
        <ele>129.6</ele>
        <time>2018-03-30T11:53:21Z</time>
      </trkpt>
      <trkpt lat="62.612508769771" lon="17.967126351112">
        <ele>129.8</ele>
        <time>2018-03-30T11:53:22Z</time>
      </trkpt>
      <trkpt lat="62.612490497229" lon="17.96714244436">
        <ele>130</ele>
        <time>2018-03-30T11:53:23Z</time>
      </trkpt>
      <trkpt lat="62.612471218859" lon="17.967161638911">
        <ele>130.2</ele>
        <time>2018-03-30T11:53:24Z</time>
      </trkpt>
      <trkpt lat="62.612453281593" lon="17.967181252557">
        <ele>130.4</ele>
        <time>2018-03-30T11:53:25Z</time>
      </trkpt>
      <trkpt lat="62.612438780906" lon="17.967203716049">
        <ele>130.4</ele>
        <time>2018-03-30T11:53:26Z</time>
      </trkpt>
      <trkpt lat="62.612424866952" lon="17.9672312925">
        <ele>130.6</ele>
        <time>2018-03-30T11:53:27Z</time>
      </trkpt>
      <trkpt lat="62.612403996021" lon="17.967244787359">
        <ele>130.6</ele>
        <time>2018-03-30T11:53:28Z</time>
      </trkpt>
      <trkpt lat="62.612387902773" lon="17.967267250851">
        <ele>131</ele>
        <time>2018-03-30T11:53:29Z</time>
      </trkpt>
      <trkpt lat="62.612373234448" lon="17.967282757366">
        <ele>131.2</ele>
        <time>2018-03-30T11:53:30Z</time>
      </trkpt>
      <trkpt lat="62.612359488132" lon="17.967291139266">
        <ele>131.2</ele>
        <time>2018-03-30T11:53:31Z</time>
      </trkpt>
      <trkpt lat="62.612343311065" lon="17.967292061275">
        <ele>131.4</ele>
        <time>2018-03-30T11:53:32Z</time>
      </trkpt>
      <trkpt lat="62.612327217817" lon="17.967312010197">
        <ele>131.6</ele>
        <time>2018-03-30T11:53:33Z</time>
      </trkpt>
      <trkpt lat="62.612310956931" lon="17.967329193092">
        <ele>131.6</ele>
        <time>2018-03-30T11:53:34Z</time>
      </trkpt>
      <trkpt lat="62.612286062688" lon="17.96734444815">
        <ele>132</ele>
        <time>2018-03-30T11:53:35Z</time>
      </trkpt>
      <trkpt lat="62.61226996944" lon="17.967362385416">
        <ele>132</ele>
        <time>2018-03-30T11:53:36Z</time>
      </trkpt>
      <trkpt lat="62.612245913387" lon="17.967376886103">
        <ele>132.2</ele>
        <time>2018-03-30T11:53:37Z</time>
      </trkpt>
      <trkpt lat="62.612233172899" lon="17.967396164473">
        <ele>132.6</ele>
        <time>2018-03-30T11:53:38Z</time>
      </trkpt>
      <trkpt lat="62.612219594221" lon="17.967412173902">
        <ele>132.6</ele>
        <time>2018-03-30T11:53:39Z</time>
      </trkpt>
      <trkpt lat="62.612208697751" lon="17.967424327657">
        <ele>132.6</ele>
        <time>2018-03-30T11:53:40Z</time>
      </trkpt>
      <trkpt lat="62.612198052738" lon="17.967465650424">
        <ele>133</ele>
        <time>2018-03-30T11:53:41Z</time>
      </trkpt>
      <trkpt lat="62.612181875671" lon="17.967485347889">
        <ele>133.2</ele>
        <time>2018-03-30T11:53:42Z</time>
      </trkpt>
      <trkpt lat="62.612154802134" lon="17.967510577408">
        <ele>133.4</ele>
        <time>2018-03-30T11:53:43Z</time>
      </trkpt>
      <trkpt lat="62.612136110497" lon="17.967533292357">
        <ele>133.4</ele>
        <time>2018-03-30T11:53:44Z</time>
      </trkpt>
      <trkpt lat="62.612122867095" lon="17.967558438057">
        <ele>133.8</ele>
        <time>2018-03-30T11:53:45Z</time>
      </trkpt>
      <trkpt lat="62.612094200997" lon="17.967561120265">
        <ele>133.8</ele>
        <time>2018-03-30T11:53:46Z</time>
      </trkpt>
      <trkpt lat="62.612088668943" lon="17.96760680162">
        <ele>133.8</ele>
        <time>2018-03-30T11:53:47Z</time>
      </trkpt>
      <trkpt lat="62.612060673397" lon="17.967623649239">
        <ele>134</ele>
        <time>2018-03-30T11:53:48Z</time>
      </trkpt>
      <trkpt lat="62.612043909597" lon="17.967643095247">
        <ele>134.2</ele>
        <time>2018-03-30T11:53:49Z</time>
      </trkpt>
      <trkpt lat="62.612023038666" lon="17.967664720549">
        <ele>134.2</ele>
        <time>2018-03-30T11:53:50Z</time>
      </trkpt>
      <trkpt lat="62.612002419192" lon="17.967686262032">
        <ele>134.4</ele>
        <time>2018-03-30T11:53:51Z</time>
      </trkpt>
      <trkpt lat="62.611994624025" lon="17.96770738442">
        <ele>134.6</ele>
        <time>2018-03-30T11:53:52Z</time>
      </trkpt>
      <trkpt lat="62.611960509692" lon="17.967740744382">
        <ele>134.4</ele>
        <time>2018-03-30T11:53:53Z</time>
      </trkpt>
      <trkpt lat="62.611939554942" lon="17.967773936706">
        <ele>134.6</ele>
        <time>2018-03-30T11:53:54Z</time>
      </trkpt>
      <trkpt lat="62.611917342907" lon="17.967797154569">
        <ele>134.6</ele>
        <time>2018-03-30T11:53:55Z</time>
      </trkpt>
      <trkpt lat="62.611898064537" lon="17.96781383455">
        <ele>134.8</ele>
        <time>2018-03-30T11:53:56Z</time>
      </trkpt>
      <trkpt lat="62.611881803651" lon="17.967823641373">
        <ele>134.8</ele>
        <time>2018-03-30T11:53:57Z</time>
      </trkpt>
      <trkpt lat="62.611853556648" lon="17.967844763761">
        <ele>135</ele>
        <time>2018-03-30T11:53:58Z</time>
      </trkpt>
      <trkpt lat="62.611832853355" lon="17.967872424031">
        <ele>135.2</ele>
        <time>2018-03-30T11:53:59Z</time>
      </trkpt>
      <trkpt lat="62.61181483227" lon="17.967887679089">
        <ele>135.2</ele>
        <time>2018-03-30T11:54:00Z</time>
      </trkpt>
      <trkpt lat="62.611801672687" lon="17.967909807305">
        <ele>135.4</ele>
        <time>2018-03-30T11:54:01Z</time>
      </trkpt>
      <trkpt lat="62.611790273303" lon="17.967934030996">
        <ele>135.6</ele>
        <time>2018-03-30T11:54:02Z</time>
      </trkpt>
      <trkpt lat="62.611765462879" lon="17.967965882216">
        <ele>135.8</ele>
        <time>2018-03-30T11:54:03Z</time>
      </trkpt>
      <trkpt lat="62.611752554753" lon="17.967998068712">
        <ele>136</ele>
        <time>2018-03-30T11:54:04Z</time>
      </trkpt>
      <trkpt lat="62.611729588347" lon="17.968007121164">
        <ele>136.2</ele>
        <time>2018-03-30T11:54:05Z</time>
      </trkpt>
      <trkpt lat="62.611721541723" lon="17.968030841941">
        <ele>136.4</ele>
        <time>2018-03-30T11:54:06Z</time>
      </trkpt>
      <trkpt lat="62.611695725471" lon="17.968052970157">
        <ele>136.6</ele>
        <time>2018-03-30T11:54:07Z</time>
      </trkpt>
      <trkpt lat="62.611674351626" lon="17.968097478046">
        <ele>136.8</ele>
        <time>2018-03-30T11:54:08Z</time>
      </trkpt>
      <trkpt lat="62.611664125708" lon="17.968121953194">
        <ele>136.8</ele>
        <time>2018-03-30T11:54:09Z</time>
      </trkpt>
      <trkpt lat="62.611662030233" lon="17.968125389773">
        <ele>136.8</ele>
        <time>2018-03-30T11:54:10Z</time>
      </trkpt>
      <trkpt lat="62.611636968352" lon="17.968143746134">
        <ele>137</ele>
        <time>2018-03-30T11:54:11Z</time>
      </trkpt>
      <trkpt lat="62.611622802941" lon="17.968158163002">
        <ele>137.2</ele>
        <time>2018-03-30T11:54:12Z</time>
      </trkpt>
      <trkpt lat="62.611600339449" lon="17.968166796359">
        <ele>137.4</ele>
        <time>2018-03-30T11:54:13Z</time>
      </trkpt>
      <trkpt lat="62.611582402183" lon="17.968177022277">
        <ele>137.6</ele>
        <time>2018-03-30T11:54:14Z</time>
      </trkpt>
      <trkpt lat="62.611560609243" lon="17.968181632322">
        <ele>137.8</ele>
        <time>2018-03-30T11:54:15Z</time>
      </trkpt>
      <trkpt lat="62.611540325045" lon="17.968202670891">
        <ele>138</ele>
        <time>2018-03-30T11:54:16Z</time>
      </trkpt>
      <trkpt lat="62.611514424974" lon="17.968221278709">
        <ele>138</ele>
        <time>2018-03-30T11:54:17Z</time>
      </trkpt>
      <trkpt lat="62.611483411944" lon="17.968252627015">
        <ele>138.2</ele>
        <time>2018-03-30T11:54:18Z</time>
      </trkpt>
      <trkpt lat="62.611459272072" lon="17.968283388588">
        <ele>138.2</ele>
        <time>2018-03-30T11:54:19Z</time>
      </trkpt>
      <trkpt lat="62.61143848496" lon="17.968318005835">
        <ele>138.2</ele>
        <time>2018-03-30T11:54:20Z</time>
      </trkpt>
      <trkpt lat="62.611429348689" lon="17.968351198159">
        <ele>138.2</ele>
        <time>2018-03-30T11:54:21Z</time>
      </trkpt>
      <trkpt lat="62.611407555749" lon="17.968369051606">
        <ele>138.4</ele>
        <time>2018-03-30T11:54:22Z</time>
      </trkpt>
      <trkpt lat="62.611378554375" lon="17.968395370772">
        <ele>138.4</ele>
        <time>2018-03-30T11:54:23Z</time>
      </trkpt>
      <trkpt lat="62.611357431987" lon="17.968416074065">
        <ele>138.4</ele>
        <time>2018-03-30T11:54:24Z</time>
      </trkpt>
      <trkpt lat="62.61133790216" lon="17.968436861177">
        <ele>138.6</ele>
        <time>2018-03-30T11:54:25Z</time>
      </trkpt>
      <trkpt lat="62.61132030017" lon="17.968463012705">
        <ele>138.8</ele>
        <time>2018-03-30T11:54:26Z</time>
      </trkpt>
      <trkpt lat="62.61130605094" lon="17.968486314387">
        <ele>139</ele>
        <time>2018-03-30T11:54:27Z</time>
      </trkpt>
      <trkpt lat="62.611285766742" lon="17.968517578874">
        <ele>139.2</ele>
        <time>2018-03-30T11:54:28Z</time>
      </trkpt>
      <trkpt lat="62.611273780625" lon="17.968555716519">
        <ele>139.2</ele>
        <time>2018-03-30T11:54:29Z</time>
      </trkpt>
      <trkpt lat="62.611257603558" lon="17.968590669042">
        <ele>139.4</ele>
        <time>2018-03-30T11:54:30Z</time>
      </trkpt>
      <trkpt lat="62.611239331016" lon="17.96862436428">
        <ele>139.4</ele>
        <time>2018-03-30T11:54:31Z</time>
      </trkpt>
      <trkpt lat="62.611225249424" lon="17.968655209672">
        <ele>139.4</ele>
        <time>2018-03-30T11:54:32Z</time>
      </trkpt>
      <trkpt lat="62.611207479796" lon="17.968689324005">
        <ele>139.4</ele>
        <time>2018-03-30T11:54:33Z</time>
      </trkpt>
      <trkpt lat="62.611195828955" lon="17.968743051984">
        <ele>139.4</ele>
        <time>2018-03-30T11:54:34Z</time>
      </trkpt>
      <trkpt lat="62.611176466766" lon="17.968810107184">
        <ele>139.6</ele>
        <time>2018-03-30T11:54:35Z</time>
      </trkpt>
      <trkpt lat="62.611161127889" lon="17.96886324843">
        <ele>139.6</ele>
        <time>2018-03-30T11:54:36Z</time>
      </trkpt>
      <trkpt lat="62.611151907799" lon="17.96891018707">
        <ele>139.6</ele>
        <time>2018-03-30T11:54:37Z</time>
      </trkpt>
      <trkpt lat="62.611133299981" lon="17.968979505383">
        <ele>139</ele>
        <time>2018-03-30T11:54:38Z</time>
      </trkpt>
      <trkpt lat="62.611112596688" lon="17.969014877001">
        <ele>138.8</ele>
        <time>2018-03-30T11:54:39Z</time>
      </trkpt>
      <trkpt lat="62.611107064634" lon="17.969058127605">
        <ele>138.4</ele>
        <time>2018-03-30T11:54:40Z</time>
      </trkpt>
      <trkpt lat="62.61109734163" lon="17.969143706804">
        <ele>138</ele>
        <time>2018-03-30T11:54:41Z</time>
      </trkpt>
      <trkpt lat="62.611090468472" lon="17.969206990149">
        <ele>138</ele>
        <time>2018-03-30T11:54:42Z</time>
      </trkpt>
      <trkpt lat="62.611078314717" lon="17.969269351485">
        <ele>137.8</ele>
        <time>2018-03-30T11:54:43Z</time>
      </trkpt>
      <trkpt lat="62.611063311116" lon="17.969319726704">
        <ele>137.6</ele>
        <time>2018-03-30T11:54:44Z</time>
      </trkpt>
      <trkpt lat="62.611049900076" lon="17.969370521018">
        <ele>137.6</ele>
        <time>2018-03-30T11:54:45Z</time>
      </trkpt>
      <trkpt lat="62.611039003606" lon="17.969413436346">
        <ele>137.4</ele>
        <time>2018-03-30T11:54:46Z</time>
      </trkpt>
      <trkpt lat="62.611020311969" lon="17.969469595076">
        <ele>137.2</ele>
        <time>2018-03-30T11:54:47Z</time>
      </trkpt>
      <trkpt lat="62.611007487662" lon="17.969554838999">
        <ele>136.4</ele>
        <time>2018-03-30T11:54:48Z</time>
      </trkpt>
      <trkpt lat="62.610993908984" lon="17.969616194507">
        <ele>135.8</ele>
        <time>2018-03-30T11:54:49Z</time>
      </trkpt>
      <trkpt lat="62.610975720261" lon="17.969686518648">
        <ele>135.4</ele>
        <time>2018-03-30T11:54:50Z</time>
      </trkpt>
      <trkpt lat="62.610963985601" lon="17.969737815876">
        <ele>135.2</ele>
        <time>2018-03-30T11:54:51Z</time>
      </trkpt>
      <trkpt lat="62.610944371955" lon="17.969787520543">
        <ele>135</ele>
        <time>2018-03-30T11:54:52Z</time>
      </trkpt>
      <trkpt lat="62.610912856011" lon="17.969862119453">
        <ele>135</ele>
        <time>2018-03-30T11:54:53Z</time>
      </trkpt>
      <trkpt lat="62.610889219053" lon="17.969924145513">
        <ele>135</ele>
        <time>2018-03-30T11:54:54Z</time>
      </trkpt>
      <trkpt lat="62.610860636774" lon="17.969990865437">
        <ele>135</ele>
        <time>2018-03-30T11:54:55Z</time>
      </trkpt>
      <trkpt lat="62.610834569065" lon="17.970067392184">
        <ele>134.8</ele>
        <time>2018-03-30T11:54:56Z</time>
      </trkpt>
      <trkpt lat="62.610817637627" lon="17.970130675529">
        <ele>134.8</ele>
        <time>2018-03-30T11:54:57Z</time>
      </trkpt>
      <trkpt lat="62.610775811946" lon="17.970227989388">
        <ele>134.6</ele>
        <time>2018-03-30T11:54:58Z</time>
      </trkpt>
      <trkpt lat="62.610722754519" lon="17.97036109396">
        <ele>134.6</ele>
        <time>2018-03-30T11:54:59Z</time>
      </trkpt>
      <trkpt lat="62.610688388729" lon="17.97044407477">
        <ele>134.6</ele>
        <time>2018-03-30T11:55:00Z</time>
      </trkpt>
      <trkpt lat="62.610659387355" lon="17.970516578205">
        <ele>134.6</ele>
        <time>2018-03-30T11:55:01Z</time>
      </trkpt>
      <trkpt lat="62.610636169492" lon="17.970565025587">
        <ele>134.6</ele>
        <time>2018-03-30T11:55:02Z</time>
      </trkpt>
      <trkpt lat="62.610587554472" lon="17.970647587302">
        <ele>134.4</ele>
        <time>2018-03-30T11:55:03Z</time>
      </trkpt>
      <trkpt lat="62.610555703252" lon="17.970695112675">
        <ele>134.4</ele>
        <time>2018-03-30T11:55:04Z</time>
      </trkpt>
      <trkpt lat="62.610504322205" lon="17.970784715186">
        <ele>134.2</ele>
        <time>2018-03-30T11:55:05Z</time>
      </trkpt>
      <trkpt lat="62.61045947904" lon="17.970841460649">
        <ele>134</ele>
        <time>2018-03-30T11:55:06Z</time>
      </trkpt>
      <trkpt lat="62.610418323911" lon="17.97086987529">
        <ele>133.6</ele>
        <time>2018-03-30T11:55:07Z</time>
      </trkpt>
      <trkpt lat="62.610374654212" lon="17.970960064534">
        <ele>133.2</ele>
        <time>2018-03-30T11:55:08Z</time>
      </trkpt>
      <trkpt lat="62.610343892639" lon="17.971013708694">
        <ele>133</ele>
        <time>2018-03-30T11:55:09Z</time>
      </trkpt>
      <trkpt lat="62.610320758595" lon="17.971054696185">
        <ele>132.6</ele>
        <time>2018-03-30T11:55:10Z</time>
      </trkpt>
      <trkpt lat="62.610286895719" lon="17.971128289267">
        <ele>132</ele>
        <time>2018-03-30T11:55:11Z</time>
      </trkpt>
      <trkpt lat="62.610244231848" lon="17.971196350295">
        <ele>131.4</ele>
        <time>2018-03-30T11:55:12Z</time>
      </trkpt>
      <trkpt lat="62.610202657624" lon="17.971265668608">
        <ele>131</ele>
        <time>2018-03-30T11:55:13Z</time>
      </trkpt>
      <trkpt lat="62.610170974042" lon="17.971315289456">
        <ele>130.4</ele>
        <time>2018-03-30T11:55:14Z</time>
      </trkpt>
      <trkpt lat="62.610141637392" lon="17.971359964983">
        <ele>130</ele>
        <time>2018-03-30T11:55:15Z</time>
      </trkpt>
      <trkpt lat="62.610115318226" lon="17.971402461216">
        <ele>129.8</ele>
        <time>2018-03-30T11:55:16Z</time>
      </trkpt>
      <trkpt lat="62.610083550825" lon="17.97143397716">
        <ele>129.6</ele>
        <time>2018-03-30T11:55:17Z</time>
      </trkpt>
      <trkpt lat="62.610037953289" lon="17.971449232218">
        <ele>128.8</ele>
        <time>2018-03-30T11:55:18Z</time>
      </trkpt>
      <trkpt lat="62.609984895862" lon="17.971457278842">
        <ele>128.2</ele>
        <time>2018-03-30T11:55:19Z</time>
      </trkpt>
      <trkpt lat="62.609935526471" lon="17.971453590806">
        <ele>127.6</ele>
        <time>2018-03-30T11:55:20Z</time>
      </trkpt>
      <trkpt lat="62.609894622799" lon="17.971434563893">
        <ele>127.4</ele>
        <time>2018-03-30T11:55:21Z</time>
      </trkpt>
      <trkpt lat="62.609866208158" lon="17.9713970968">
        <ele>127.4</ele>
        <time>2018-03-30T11:55:22Z</time>
      </trkpt>
      <trkpt lat="62.609833937843" lon="17.971396510067">
        <ele>127.6</ele>
        <time>2018-03-30T11:55:23Z</time>
      </trkpt>
      <trkpt lat="62.609805607021" lon="17.971384272493">
        <ele>127.8</ele>
        <time>2018-03-30T11:55:24Z</time>
      </trkpt>
      <trkpt lat="62.609784903728" lon="17.971377147878">
        <ele>128.2</ele>
        <time>2018-03-30T11:55:25Z</time>
      </trkpt>
      <trkpt lat="62.60975623763" lon="17.971371699643">
        <ele>128.4</ele>
        <time>2018-03-30T11:55:26Z</time>
      </trkpt>
      <trkpt lat="62.609728828817" lon="17.971354013834">
        <ele>128.4</ele>
        <time>2018-03-30T11:55:27Z</time>
      </trkpt>
      <trkpt lat="62.609710388637" lon="17.971359545888">
        <ele>128.6</ele>
        <time>2018-03-30T11:55:28Z</time>
      </trkpt>
      <trkpt lat="62.609659510504" lon="17.971347895047">
        <ele>129</ele>
        <time>2018-03-30T11:55:29Z</time>
      </trkpt>
      <trkpt lat="62.60962715637" lon="17.971345045201">
        <ele>129.2</ele>
        <time>2018-03-30T11:55:30Z</time>
      </trkpt>
      <trkpt lat="62.609596478616" lon="17.971344207011">
        <ele>129.4</ele>
        <time>2018-03-30T11:55:31Z</time>
      </trkpt>
      <trkpt lat="62.609573009296" lon="17.971335992749">
        <ele>129.6</ele>
        <time>2018-03-30T11:55:32Z</time>
      </trkpt>
      <trkpt lat="62.609541828628" lon="17.97130657228">
        <ele>129.6</ele>
        <time>2018-03-30T11:55:33Z</time>
      </trkpt>
      <trkpt lat="62.609532357081" lon="17.971286288082">
        <ele>129.8</ele>
        <time>2018-03-30T11:55:34Z</time>
      </trkpt>
      <trkpt lat="62.609489190296" lon="17.971290562851">
        <ele>129.8</ele>
        <time>2018-03-30T11:55:35Z</time>
      </trkpt>
      <trkpt lat="62.609455159782" lon="17.971287796824">
        <ele>129.8</ele>
        <time>2018-03-30T11:55:36Z</time>
      </trkpt>
      <trkpt lat="62.60943018172" lon="17.971288467376">
        <ele>129.6</ele>
        <time>2018-03-30T11:55:37Z</time>
      </trkpt>
      <trkpt lat="62.609383410718" lon="17.971293245059">
        <ele>129.6</ele>
        <time>2018-03-30T11:55:38Z</time>
      </trkpt>
      <trkpt lat="62.609343596693" lon="17.971282851503">
        <ele>129.6</ele>
        <time>2018-03-30T11:55:39Z</time>
      </trkpt>
      <trkpt lat="62.609320965563" lon="17.971265584789">
        <ele>129.6</ele>
        <time>2018-03-30T11:55:40Z</time>
      </trkpt>
      <trkpt lat="62.609253658906" lon="17.971240103813">
        <ele>129.4</ele>
        <time>2018-03-30T11:55:41Z</time>
      </trkpt>
      <trkpt lat="62.609218622564" lon="17.971209761335">
        <ele>129.4</ele>
        <time>2018-03-30T11:55:42Z</time>
      </trkpt>
      <trkpt lat="62.609181742204" lon="17.971166175455">
        <ele>129.4</ele>
        <time>2018-03-30T11:55:43Z</time>
      </trkpt>
      <trkpt lat="62.609138575419" lon="17.971117728073">
        <ele>129.2</ele>
        <time>2018-03-30T11:55:44Z</time>
      </trkpt>
      <trkpt lat="62.609119464687" lon="17.971070789433">
        <ele>129.2</ele>
        <time>2018-03-30T11:55:45Z</time>
      </trkpt>
      <trkpt lat="62.609092474969" lon="17.971021420042">
        <ele>129.2</ele>
        <time>2018-03-30T11:55:46Z</time>
      </trkpt>
      <trkpt lat="62.609086859096" lon="17.970978337076">
        <ele>129</ele>
        <time>2018-03-30T11:55:47Z</time>
      </trkpt>
      <trkpt lat="62.609053582953" lon="17.970902983795">
        <ele>129</ele>
        <time>2018-03-30T11:55:48Z</time>
      </trkpt>
      <trkpt lat="62.609031873832" lon="17.97083970045">
        <ele>129.2</ele>
        <time>2018-03-30T11:55:49Z</time>
      </trkpt>
      <trkpt lat="62.609012260186" lon="17.970790750154">
        <ele>129.4</ele>
        <time>2018-03-30T11:55:50Z</time>
      </trkpt>
      <trkpt lat="62.608991053979" lon="17.970749762663">
        <ele>129.4</ele>
        <time>2018-03-30T11:55:51Z</time>
      </trkpt>
      <trkpt lat="62.608980660423" lon="17.970711541199">
        <ele>129.6</ele>
        <time>2018-03-30T11:55:52Z</time>
      </trkpt>
      <trkpt lat="62.608942522778" lon="17.97066200417">
        <ele>129.8</ele>
        <time>2018-03-30T11:55:53Z</time>
      </trkpt>
      <trkpt lat="62.608915449241" lon="17.970613053874">
        <ele>130</ele>
        <time>2018-03-30T11:55:54Z</time>
      </trkpt>
      <trkpt lat="62.608886531686" lon="17.970560666999">
        <ele>130.2</ele>
        <time>2018-03-30T11:55:55Z</time>
      </trkpt>
      <trkpt lat="62.608857781769" lon="17.97051029178">
        <ele>130.2</ele>
        <time>2018-03-30T11:55:56Z</time>
      </trkpt>
      <trkpt lat="62.608839173951" lon="17.970462179674">
        <ele>130.2</ele>
        <time>2018-03-30T11:55:57Z</time>
      </trkpt>
      <trkpt lat="62.608812938604" lon="17.970409289885">
        <ele>130.2</ele>
        <time>2018-03-30T11:55:58Z</time>
      </trkpt>
      <trkpt lat="62.608776812615" lon="17.970349275481">
        <ele>130</ele>
        <time>2018-03-30T11:55:59Z</time>
      </trkpt>
      <trkpt lat="62.608753427114" lon="17.970286746507">
        <ele>129.8</ele>
        <time>2018-03-30T11:56:00Z</time>
      </trkpt>
      <trkpt lat="62.608738423513" lon="17.970230001044">
        <ele>129.8</ele>
        <time>2018-03-30T11:56:01Z</time>
      </trkpt>
      <trkpt lat="62.608730209251" lon="17.970183230042">
        <ele>129.8</ele>
        <time>2018-03-30T11:56:02Z</time>
      </trkpt>
      <trkpt lat="62.608716965849" lon="17.970132184271">
        <ele>130.2</ele>
        <time>2018-03-30T11:56:03Z</time>
      </trkpt>
      <trkpt lat="62.608709757415" lon="17.970090693866">
        <ele>130.2</ele>
        <time>2018-03-30T11:56:04Z</time>
      </trkpt>
      <trkpt lat="62.608704728275" lon="17.970054148782">
        <ele>130.2</ele>
        <time>2018-03-30T11:56:05Z</time>
      </trkpt>
      <trkpt lat="62.608702046067" lon="17.970015089128">
        <ele>130.4</ele>
        <time>2018-03-30T11:56:06Z</time>
      </trkpt>
      <trkpt lat="62.608701040239" lon="17.969980052786">
        <ele>130.4</ele>
        <time>2018-03-30T11:56:07Z</time>
      </trkpt>
      <trkpt lat="62.608697184565" lon="17.969940071123">
        <ele>130.8</ele>
        <time>2018-03-30T11:56:08Z</time>
      </trkpt>
      <trkpt lat="62.60869173633" lon="17.96990260403">
        <ele>131</ele>
        <time>2018-03-30T11:56:09Z</time>
      </trkpt>
      <trkpt lat="62.608689808493" lon="17.969859688702">
        <ele>131.2</ele>
        <time>2018-03-30T11:56:10Z</time>
      </trkpt>
      <trkpt lat="62.608690981959" lon="17.969818030659">
        <ele>131.6</ele>
        <time>2018-03-30T11:56:11Z</time>
      </trkpt>
      <trkpt lat="62.608689724674" lon="17.969780144471">
        <ele>131.8</ele>
        <time>2018-03-30T11:56:12Z</time>
      </trkpt>
      <trkpt lat="62.608685869" lon="17.969739659894">
        <ele>132</ele>
        <time>2018-03-30T11:56:13Z</time>
      </trkpt>
      <trkpt lat="62.608684444077" lon="17.969699678231">
        <ele>132.4</ele>
        <time>2018-03-30T11:56:14Z</time>
      </trkpt>
      <trkpt lat="62.608686791009" lon="17.969663384604">
        <ele>132.6</ele>
        <time>2018-03-30T11:56:15Z</time>
      </trkpt>
      <trkpt lat="62.608688132113" lon="17.969631533384">
        <ele>132.8</ele>
        <time>2018-03-30T11:56:16Z</time>
      </trkpt>
      <trkpt lat="62.608688635027" lon="17.969602029096">
        <ele>133</ele>
        <time>2018-03-30T11:56:17Z</time>
      </trkpt>
      <trkpt lat="62.608688886484" lon="17.969567411849">
        <ele>133.2</ele>
        <time>2018-03-30T11:56:18Z</time>
      </trkpt>
      <trkpt lat="62.608694083262" lon="17.969531872593">
        <ele>133.6</ele>
        <time>2018-03-30T11:56:19Z</time>
      </trkpt>
      <trkpt lat="62.608693831805" lon="17.969495076052">
        <ele>134</ele>
        <time>2018-03-30T11:56:20Z</time>
      </trkpt>
      <trkpt lat="62.608691987787" lon="17.969454675294">
        <ele>134.4</ele>
        <time>2018-03-30T11:56:21Z</time>
      </trkpt>
      <trkpt lat="62.608695005271" lon="17.969414945088">
        <ele>134.4</ele>
        <time>2018-03-30T11:56:22Z</time>
      </trkpt>
      <trkpt lat="62.608700285868" lon="17.969375801615">
        <ele>134.8</ele>
        <time>2018-03-30T11:56:23Z</time>
      </trkpt>
      <trkpt lat="62.608710595605" lon="17.969336490504">
        <ele>135</ele>
        <time>2018-03-30T11:56:24Z</time>
      </trkpt>
      <trkpt lat="62.608718642229" lon="17.969301957076">
        <ele>135.2</ele>
        <time>2018-03-30T11:56:25Z</time>
      </trkpt>
      <trkpt lat="62.608722665541" lon="17.969270860227">
        <ele>135.2</ele>
        <time>2018-03-30T11:56:26Z</time>
      </trkpt>
      <trkpt lat="62.608730879803" lon="17.969242697043">
        <ele>135.6</ele>
        <time>2018-03-30T11:56:27Z</time>
      </trkpt>
      <trkpt lat="62.608745045214" lon="17.969204978493">
        <ele>135.8</ele>
        <time>2018-03-30T11:56:28Z</time>
      </trkpt>
      <trkpt lat="62.608740686626" lon="17.969180838621">
        <ele>136</ele>
        <time>2018-03-30T11:56:29Z</time>
      </trkpt>
      <trkpt lat="62.608738591151" lon="17.969158123672">
        <ele>136.2</ele>
        <time>2018-03-30T11:56:30Z</time>
      </trkpt>
      <trkpt lat="62.60873951316" lon="17.969135408723">
        <ele>136.6</ele>
        <time>2018-03-30T11:56:31Z</time>
      </trkpt>
      <trkpt lat="62.60874621868" lon="17.969114370154">
        <ele>136.4</ele>
        <time>2018-03-30T11:56:32Z</time>
      </trkpt>
      <trkpt lat="62.608742363006" lon="17.969083357124">
        <ele>136.6</ele>
        <time>2018-03-30T11:56:33Z</time>
      </trkpt>
      <trkpt lat="62.6087361604" lon="17.969059049614">
        <ele>136.8</ele>
        <time>2018-03-30T11:56:34Z</time>
      </trkpt>
      <trkpt lat="62.608733981106" lon="17.969013619716">
        <ele>137.2</ele>
        <time>2018-03-30T11:56:35Z</time>
      </trkpt>
      <trkpt lat="62.608734064925" lon="17.968977074632">
        <ele>137.4</ele>
        <time>2018-03-30T11:56:36Z</time>
      </trkpt>
      <trkpt lat="62.608738088237" lon="17.968944133765">
        <ele>137.8</ele>
        <time>2018-03-30T11:56:37Z</time>
      </trkpt>
      <trkpt lat="62.608742782101" lon="17.968905241749">
        <ele>138</ele>
        <time>2018-03-30T11:56:38Z</time>
      </trkpt>
      <trkpt lat="62.60874705687" lon="17.968860063308">
        <ele>138</ele>
        <time>2018-03-30T11:56:39Z</time>
      </trkpt>
      <trkpt lat="62.608749487621" lon="17.968811113012">
        <ele>138.2</ele>
        <time>2018-03-30T11:56:40Z</time>
      </trkpt>
      <trkpt lat="62.608738088237" lon="17.968770544616">
        <ele>138.4</ele>
        <time>2018-03-30T11:56:41Z</time>
      </trkpt>
      <trkpt lat="62.60873448402" lon="17.968728635116">
        <ele>138.4</ele>
        <time>2018-03-30T11:56:42Z</time>
      </trkpt>
      <trkpt lat="62.608725766844" lon="17.968678427535">
        <ele>138.6</ele>
        <time>2018-03-30T11:56:43Z</time>
      </trkpt>
      <trkpt lat="62.608718474591" lon="17.968640541347">
        <ele>138.6</ele>
        <time>2018-03-30T11:56:44Z</time>
      </trkpt>
      <trkpt lat="62.608710847062" lon="17.968604666815">
        <ele>138.8</ele>
        <time>2018-03-30T11:56:45Z</time>
      </trkpt>
      <trkpt lat="62.608705566465" lon="17.96856904374">
        <ele>138.8</ele>
        <time>2018-03-30T11:56:46Z</time>
      </trkpt>
      <trkpt lat="62.608699615316" lon="17.968526798964">
        <ele>139</ele>
        <time>2018-03-30T11:56:47Z</time>
      </trkpt>
      <trkpt lat="62.608685366086" lon="17.968478267763">
        <ele>139</ele>
        <time>2018-03-30T11:56:48Z</time>
      </trkpt>
      <trkpt lat="62.608677654738" lon="17.968438621376">
        <ele>139.2</ele>
        <time>2018-03-30T11:56:49Z</time>
      </trkpt>
      <trkpt lat="62.608672793236" lon="17.968400651369">
        <ele>139.6</ele>
        <time>2018-03-30T11:56:50Z</time>
      </trkpt>
      <trkpt lat="62.60866994339" lon="17.968362765181">
        <ele>139.8</ele>
        <time>2018-03-30T11:56:51Z</time>
      </trkpt>
      <trkpt lat="62.608669021381" lon="17.968325298088">
        <ele>140</ele>
        <time>2018-03-30T11:56:52Z</time>
      </trkpt>
      <trkpt lat="62.608659214558" lon="17.968290429384">
        <ele>140.2</ele>
        <time>2018-03-30T11:56:53Z</time>
      </trkpt>
      <trkpt lat="62.60865569416" lon="17.968250615359">
        <ele>140.2</ele>
        <time>2018-03-30T11:56:54Z</time>
      </trkpt>
      <trkpt lat="62.608652592857" lon="17.968210466058">
        <ele>140.4</ele>
        <time>2018-03-30T11:56:55Z</time>
      </trkpt>
      <trkpt lat="62.608648066631" lon="17.968162940685">
        <ele>140.4</ele>
        <time>2018-03-30T11:56:56Z</time>
      </trkpt>
      <trkpt lat="62.608644881509" lon="17.96811055381">
        <ele>140.6</ele>
        <time>2018-03-30T11:56:57Z</time>
      </trkpt>
      <trkpt lat="62.608638008351" lon="17.968081552436">
        <ele>140.6</ele>
        <time>2018-03-30T11:56:58Z</time>
      </trkpt>
      <trkpt lat="62.608625351682" lon="17.968020448385">
        <ele>141</ele>
        <time>2018-03-30T11:56:59Z</time>
      </trkpt>
      <trkpt lat="62.608618143248" lon="17.967971749546">
        <ele>141</ele>
        <time>2018-03-30T11:57:00Z</time>
      </trkpt>
      <trkpt lat="62.608610012805" lon="17.96791609373">
        <ele>141.2</ele>
        <time>2018-03-30T11:57:01Z</time>
      </trkpt>
      <trkpt lat="62.608602217638" lon="17.967861192285">
        <ele>141.2</ele>
        <time>2018-03-30T11:57:02Z</time>
      </trkpt>
      <trkpt lat="62.608601295629" lon="17.967806626116">
        <ele>141.2</ele>
        <time>2018-03-30T11:57:03Z</time>
      </trkpt>
      <trkpt lat="62.608601966181" lon="17.967744180961">
        <ele>141.2</ele>
        <time>2018-03-30T11:57:04Z</time>
      </trkpt>
      <trkpt lat="62.608592578453" lon="17.967712162103">
        <ele>141.2</ele>
        <time>2018-03-30T11:57:05Z</time>
      </trkpt>
      <trkpt lat="62.608583023087" lon="17.967668408585">
        <ele>141.2</ele>
        <time>2018-03-30T11:57:06Z</time>
      </trkpt>
      <trkpt lat="62.608570450237" lon="17.967619458289">
        <ele>141.4</ele>
        <time>2018-03-30T11:57:07Z</time>
      </trkpt>
      <trkpt lat="62.608559386129" lon="17.967592133295">
        <ele>141.4</ele>
        <time>2018-03-30T11:57:08Z</time>
      </trkpt>
      <trkpt lat="62.608550585134" lon="17.967547457768">
        <ele>141.6</ele>
        <time>2018-03-30T11:57:09Z</time>
      </trkpt>
      <trkpt lat="62.608544298709" lon="17.967500435309">
        <ele>141.6</ele>
        <time>2018-03-30T11:57:10Z</time>
      </trkpt>
      <trkpt lat="62.608531390583" lon="17.967459866913">
        <ele>141.8</ele>
        <time>2018-03-30T11:57:11Z</time>
      </trkpt>
      <trkpt lat="62.608524768882" lon="17.967415778119">
        <ele>142</ele>
        <time>2018-03-30T11:57:12Z</time>
      </trkpt>
      <trkpt lat="62.608530384755" lon="17.96737881394">
        <ele>142</ele>
        <time>2018-03-30T11:57:13Z</time>
      </trkpt>
      <trkpt lat="62.608519404466" lon="17.967331372386">
        <ele>142.2</ele>
        <time>2018-03-30T11:57:14Z</time>
      </trkpt>
      <trkpt lat="62.608511609299" lon="17.967293402379">
        <ele>142.4</ele>
        <time>2018-03-30T11:57:15Z</time>
      </trkpt>
      <trkpt lat="62.608504568503" lon="17.967262054073">
        <ele>142.4</ele>
        <time>2018-03-30T11:57:16Z</time>
      </trkpt>
      <trkpt lat="62.608494845499" lon="17.967226514817">
        <ele>142.6</ele>
        <time>2018-03-30T11:57:17Z</time>
      </trkpt>
      <trkpt lat="62.608484032848" lon="17.967180665824">
        <ele>142.8</ele>
        <time>2018-03-30T11:57:18Z</time>
      </trkpt>
      <trkpt lat="62.608472549645" lon="17.967149485156">
        <ele>143</ele>
        <time>2018-03-30T11:57:19Z</time>
      </trkpt>
      <trkpt lat="62.608461569356" lon="17.967113275348">
        <ele>143</ele>
        <time>2018-03-30T11:57:20Z</time>
      </trkpt>
      <trkpt lat="62.608453187456" lon="17.967075221522">
        <ele>143.2</ele>
        <time>2018-03-30T11:57:21Z</time>
      </trkpt>
      <trkpt lat="62.608446817212" lon="17.967041526284">
        <ele>143.4</ele>
        <time>2018-03-30T11:57:22Z</time>
      </trkpt>
      <trkpt lat="62.608430975421" lon="17.966999616784">
        <ele>143.4</ele>
        <time>2018-03-30T11:57:23Z</time>
      </trkpt>
      <trkpt lat="62.608416558553" lon="17.966961060044">
        <ele>143.6</ele>
        <time>2018-03-30T11:57:24Z</time>
      </trkpt>
      <trkpt lat="62.608405242988" lon="17.966916300698">
        <ele>143.6</ele>
        <time>2018-03-30T11:57:25Z</time>
      </trkpt>
      <trkpt lat="62.608390323206" lon="17.966867601859">
        <ele>143.8</ele>
        <time>2018-03-30T11:57:26Z</time>
      </trkpt>
      <trkpt lat="62.608373475587" lon="17.966823680703">
        <ele>143.8</ele>
        <time>2018-03-30T11:57:27Z</time>
      </trkpt>
      <trkpt lat="62.608369536094" lon="17.966762660471">
        <ele>144</ele>
        <time>2018-03-30T11:57:28Z</time>
      </trkpt>
      <trkpt lat="62.608355873597" lon="17.966704992999">
        <ele>144.2</ele>
        <time>2018-03-30T11:57:29Z</time>
      </trkpt>
      <trkpt lat="62.608342043462" lon="17.966656964712">
        <ele>144.2</ele>
        <time>2018-03-30T11:57:30Z</time>
      </trkpt>
      <trkpt lat="62.608334499752" lon="17.966611450995">
        <ele>144.2</ele>
        <time>2018-03-30T11:57:31Z</time>
      </trkpt>
      <trkpt lat="62.608332488096" lon="17.966567278382">
        <ele>144.2</ele>
        <time>2018-03-30T11:57:32Z</time>
      </trkpt>
      <trkpt lat="62.608329051517" lon="17.966525704158">
        <ele>144.6</ele>
        <time>2018-03-30T11:57:33Z</time>
      </trkpt>
      <trkpt lat="62.60833047644" lon="17.966485471038">
        <ele>144.6</ele>
        <time>2018-03-30T11:57:34Z</time>
      </trkpt>
      <trkpt lat="62.608333996838" lon="17.966440376416">
        <ele>145</ele>
        <time>2018-03-30T11:57:35Z</time>
      </trkpt>
      <trkpt lat="62.608333326286" lon="17.966405842988">
        <ele>145.2</ele>
        <time>2018-03-30T11:57:36Z</time>
      </trkpt>
      <trkpt lat="62.608333996838" lon="17.966376422519">
        <ele>145.6</ele>
        <time>2018-03-30T11:57:37Z</time>
      </trkpt>
      <trkpt lat="62.608340115625" lon="17.966331746992">
        <ele>145.8</ele>
        <time>2018-03-30T11:57:38Z</time>
      </trkpt>
      <trkpt lat="62.608344893308" lon="17.966291094777">
        <ele>146.2</ele>
        <time>2018-03-30T11:57:39Z</time>
      </trkpt>
      <trkpt lat="62.608348246068" lon="17.966249101458">
        <ele>146.4</ele>
        <time>2018-03-30T11:57:40Z</time>
      </trkpt>
      <trkpt lat="62.608359310176" lon="17.966201743723">
        <ele>146.6</ele>
        <time>2018-03-30T11:57:41Z</time>
      </trkpt>
      <trkpt lat="62.608370206646" lon="17.966165198639">
        <ele>146.8</ele>
        <time>2018-03-30T11:57:42Z</time>
      </trkpt>
      <trkpt lat="62.608386551351" lon="17.966133934152">
        <ele>146.8</ele>
        <time>2018-03-30T11:57:43Z</time>
      </trkpt>
      <trkpt lat="62.608393675966" lon="17.966096886154">
        <ele>146.8</ele>
        <time>2018-03-30T11:57:44Z</time>
      </trkpt>
      <trkpt lat="62.608404907712" lon="17.966073584472">
        <ele>147</ele>
        <time>2018-03-30T11:57:45Z</time>
      </trkpt>
      <trkpt lat="62.608418067295" lon="17.966053551731">
        <ele>147.2</ele>
        <time>2018-03-30T11:57:46Z</time>
      </trkpt>
      <trkpt lat="62.608435585466" lon="17.966027986936">
        <ele>147.4</ele>
        <time>2018-03-30T11:57:47Z</time>
      </trkpt>
      <trkpt lat="62.608453187456" lon="17.966014659715">
        <ele>147.6</ele>
        <time>2018-03-30T11:57:48Z</time>
      </trkpt>
      <trkpt lat="62.608474980396" lon="17.965995381345">
        <ele>147.6</ele>
        <time>2018-03-30T11:57:49Z</time>
      </trkpt>
      <trkpt lat="62.60849140892" lon="17.965980042468">
        <ele>147.8</ele>
        <time>2018-03-30T11:57:50Z</time>
      </trkpt>
      <trkpt lat="62.608504652322" lon="17.965970151826">
        <ele>148</ele>
        <time>2018-03-30T11:57:51Z</time>
      </trkpt>
      <trkpt lat="62.608516638439" lon="17.965964116858">
        <ele>148.2</ele>
        <time>2018-03-30T11:57:52Z</time>
      </trkpt>
      <trkpt lat="62.608534491886" lon="17.965944838488">
        <ele>148.4</ele>
        <time>2018-03-30T11:57:53Z</time>
      </trkpt>
      <trkpt lat="62.608549411668" lon="17.965940228443">
        <ele>148.6</ele>
        <time>2018-03-30T11:57:54Z</time>
      </trkpt>
      <trkpt lat="62.608563996174" lon="17.965934528751">
        <ele>149</ele>
        <time>2018-03-30T11:57:55Z</time>
      </trkpt>
      <trkpt lat="62.608577239576" lon="17.965933355285">
        <ele>149.6</ele>
        <time>2018-03-30T11:57:56Z</time>
      </trkpt>
      <trkpt lat="62.608589728607" lon="17.965936205131">
        <ele>150</ele>
        <time>2018-03-30T11:57:57Z</time>
      </trkpt>
      <trkpt lat="62.608603391104" lon="17.965938132968">
        <ele>150.2</ele>
        <time>2018-03-30T11:57:58Z</time>
      </trkpt>
      <trkpt lat="62.608626860424" lon="17.965928074688">
        <ele>150.4</ele>
        <time>2018-03-30T11:57:59Z</time>
      </trkpt>
      <trkpt lat="62.608646390251" lon="17.96593293619">
        <ele>150.6</ele>
        <time>2018-03-30T11:58:00Z</time>
      </trkpt>
      <trkpt lat="62.60866491425" lon="17.96593377438">
        <ele>150.8</ele>
        <time>2018-03-30T11:58:01Z</time>
      </trkpt>
      <trkpt lat="62.608683270611" lon="17.965930589258">
        <ele>150.8</ele>
        <time>2018-03-30T11:58:02Z</time>
      </trkpt>
      <trkpt lat="62.608706320836" lon="17.965953555664">
        <ele>151</ele>
        <time>2018-03-30T11:58:03Z</time>
      </trkpt>
      <trkpt lat="62.608727946138" lon="17.965966966704">
        <ele>151</ele>
        <time>2018-03-30T11:58:04Z</time>
      </trkpt>
      <trkpt lat="62.608756779874" lon="17.965970068007">
        <ele>151.2</ele>
        <time>2018-03-30T11:58:05Z</time>
      </trkpt>
      <trkpt lat="62.608781506479" lon="17.965982808495">
        <ele>151.4</ele>
        <time>2018-03-30T11:58:06Z</time>
      </trkpt>
      <trkpt lat="62.608803550876" lon="17.965991777128">
        <ele>151.6</ele>
        <time>2018-03-30T11:58:07Z</time>
      </trkpt>
      <trkpt lat="62.608826014368" lon="17.966009043842">
        <ele>151.6</ele>
        <time>2018-03-30T11:58:08Z</time>
      </trkpt>
      <trkpt lat="62.60884680148" lon="17.966016084638">
        <ele>151.8</ele>
        <time>2018-03-30T11:58:09Z</time>
      </trkpt>
      <trkpt lat="62.608865325479" lon="17.966024717995">
        <ele>152</ele>
        <time>2018-03-30T11:58:10Z</time>
      </trkpt>
      <trkpt lat="62.608885777315" lon="17.966026394375">
        <ele>152</ele>
        <time>2018-03-30T11:58:11Z</time>
      </trkpt>
      <trkpt lat="62.608905893875" lon="17.966022454882">
        <ele>152</ele>
        <time>2018-03-30T11:58:12Z</time>
      </trkpt>
      <trkpt lat="62.608911677386" lon="17.966029663316">
        <ele>152.2</ele>
        <time>2018-03-30T11:58:13Z</time>
      </trkpt>
      <trkpt lat="62.608932715955" lon="17.966021029959">
        <ele>152.2</ele>
        <time>2018-03-30T11:58:14Z</time>
      </trkpt>
      <trkpt lat="62.608951742868" lon="17.966023293072">
        <ele>152.4</ele>
        <time>2018-03-30T11:58:15Z</time>
      </trkpt>
      <trkpt lat="62.608966411193" lon="17.966031172058">
        <ele>152.6</ele>
        <time>2018-03-30T11:58:16Z</time>
      </trkpt>
      <trkpt lat="62.608998430051" lon="17.966028406031">
        <ele>152.8</ele>
        <time>2018-03-30T11:58:17Z</time>
      </trkpt>
      <trkpt lat="62.609023240475" lon="17.966029747135">
        <ele>153.2</ele>
        <time>2018-03-30T11:58:18Z</time>
      </trkpt>
      <trkpt lat="62.609047045071" lon="17.966028741307">
        <ele>153.4</ele>
        <time>2018-03-30T11:58:19Z</time>
      </trkpt>
      <trkpt lat="62.609072693685" lon="17.966029411859">
        <ele>153.4</ele>
        <time>2018-03-30T11:58:20Z</time>
      </trkpt>
      <trkpt lat="62.609098342299" lon="17.96603351899">
        <ele>153.8</ele>
        <time>2018-03-30T11:58:21Z</time>
      </trkpt>
      <trkpt lat="62.60912256599" lon="17.966039218682">
        <ele>153.8</ele>
        <time>2018-03-30T11:58:22Z</time>
      </trkpt>
      <trkpt lat="62.609150142441" lon="17.966041565614">
        <ele>154</ele>
        <time>2018-03-30T11:58:23Z</time>
      </trkpt>
      <trkpt lat="62.609173947037" lon="17.966046259478">
        <ele>154.2</ele>
        <time>2018-03-30T11:58:24Z</time>
      </trkpt>
      <trkpt lat="62.60919884128" lon="17.966051037161">
        <ele>154.4</ele>
        <time>2018-03-30T11:58:25Z</time>
      </trkpt>
      <trkpt lat="62.609222645876" lon="17.966053384093">
        <ele>154.6</ele>
        <time>2018-03-30T11:58:26Z</time>
      </trkpt>
      <trkpt lat="62.609245612282" lon="17.966050198971">
        <ele>154.6</ele>
        <time>2018-03-30T11:58:27Z</time>
      </trkpt>
      <trkpt lat="62.609265728842" lon="17.966064196744">
        <ele>154.6</ele>
        <time>2018-03-30T11:58:28Z</time>
      </trkpt>
      <trkpt lat="62.609300094632" lon="17.966075763766">
        <ele>155</ele>
        <time>2018-03-30T11:58:29Z</time>
      </trkpt>
      <trkpt lat="62.609321636115" lon="17.966087414607">
        <ele>155</ele>
        <time>2018-03-30T11:58:30Z</time>
      </trkpt>
      <trkpt lat="62.609343680512" lon="17.966098981629">
        <ele>155.2</ele>
        <time>2018-03-30T11:58:31Z</time>
      </trkpt>
      <trkpt lat="62.609364719081" lon="17.966108034081">
        <ele>155.2</ele>
        <time>2018-03-30T11:58:32Z</time>
      </trkpt>
      <trkpt lat="62.609389864781" lon="17.966109039909">
        <ele>155.4</ele>
        <time>2018-03-30T11:58:33Z</time>
      </trkpt>
      <trkpt lat="62.609409478427" lon="17.96611314704">
        <ele>155.6</ele>
        <time>2018-03-30T11:58:34Z</time>
      </trkpt>
      <trkpt lat="62.609432444833" lon="17.96612152894">
        <ele>155.6</ele>
        <time>2018-03-30T11:58:35Z</time>
      </trkpt>
      <trkpt lat="62.609455243601" lon="17.966118008542">
        <ele>155.8</ele>
        <time>2018-03-30T11:58:36Z</time>
      </trkpt>
      <trkpt lat="62.609476952722" lon="17.966112979402">
        <ele>156</ele>
        <time>2018-03-30T11:58:37Z</time>
      </trkpt>
      <trkpt lat="62.609502768974" lon="17.966131168125">
        <ele>156.4</ele>
        <time>2018-03-30T11:58:38Z</time>
      </trkpt>
      <trkpt lat="62.609525903018" lon="17.966139047111">
        <ele>156.6</ele>
        <time>2018-03-30T11:58:39Z</time>
      </trkpt>
      <trkpt lat="62.60955004289" lon="17.966141477862">
        <ele>156.8</ele>
        <time>2018-03-30T11:58:40Z</time>
      </trkpt>
      <trkpt lat="62.609593544951" lon="17.966144662984">
        <ele>157</ele>
        <time>2018-03-30T11:58:41Z</time>
      </trkpt>
      <trkpt lat="62.609628665112" lon="17.966149608305">
        <ele>157</ele>
        <time>2018-03-30T11:58:42Z</time>
      </trkpt>
      <trkpt lat="62.609660348694" lon="17.966168383761">
        <ele>156.8</ele>
        <time>2018-03-30T11:58:43Z</time>
      </trkpt>
      <trkpt lat="62.609685326756" lon="17.96616846758">
        <ele>156.8</ele>
        <time>2018-03-30T11:58:44Z</time>
      </trkpt>
      <trkpt lat="62.609704437488" lon="17.96616595301">
        <ele>156.8</ele>
        <time>2018-03-30T11:58:45Z</time>
      </trkpt>
      <trkpt lat="62.60971768089" lon="17.966176262747">
        <ele>156.6</ele>
        <time>2018-03-30T11:58:46Z</time>
      </trkpt>
      <trkpt lat="62.609734863785" lon="17.966173329082">
        <ele>156.6</ele>
        <time>2018-03-30T11:58:47Z</time>
      </trkpt>
      <trkpt lat="62.609757411096" lon="17.966161342965">
        <ele>156.8</ele>
        <time>2018-03-30T11:58:48Z</time>
      </trkpt>
      <trkpt lat="62.609781131873" lon="17.966157152015">
        <ele>157.2</ele>
        <time>2018-03-30T11:58:49Z</time>
      </trkpt>
      <trkpt lat="62.609803260089" lon="17.966145668812">
        <ele>157.8</ele>
        <time>2018-03-30T11:58:50Z</time>
      </trkpt>
      <trkpt lat="62.609826142676" lon="17.966129407926">
        <ele>158</ele>
        <time>2018-03-30T11:58:51Z</time>
      </trkpt>
      <trkpt lat="62.609851623652" lon="17.966115913067">
        <ele>158</ele>
        <time>2018-03-30T11:58:52Z</time>
      </trkpt>
      <trkpt lat="62.60989370079" lon="17.966134269428">
        <ele>158.2</ele>
        <time>2018-03-30T11:58:53Z</time>
      </trkpt>
      <trkpt lat="62.60993058115" lon="17.966136029627">
        <ele>158.4</ele>
        <time>2018-03-30T11:58:54Z</time>
      </trkpt>
      <trkpt lat="62.609958325239" lon="17.9661416455">
        <ele>158.4</ele>
        <time>2018-03-30T11:58:55Z</time>
      </trkpt>
      <trkpt lat="62.609980285817" lon="17.966154972721">
        <ele>158.4</ele>
        <time>2018-03-30T11:58:56Z</time>
      </trkpt>
      <trkpt lat="62.610001240567" lon="17.96616762939">
        <ele>158.4</ele>
        <time>2018-03-30T11:58:57Z</time>
      </trkpt>
      <trkpt lat="62.610023033507" lon="17.966189925244">
        <ele>158.6</ele>
        <time>2018-03-30T11:58:58Z</time>
      </trkpt>
      <trkpt lat="62.610054968546" lon="17.96620534794">
        <ele>158.8</ele>
        <time>2018-03-30T11:58:59Z</time>
      </trkpt>
      <trkpt lat="62.610091345992" lon="17.966213897478">
        <ele>159</ele>
        <time>2018-03-30T11:59:00Z</time>
      </trkpt>
      <trkpt lat="62.610125711782" lon="17.966209874166">
        <ele>159.2</ele>
        <time>2018-03-30T11:59:01Z</time>
      </trkpt>
      <trkpt lat="62.610157227726" lon="17.966200570257">
        <ele>159.2</ele>
        <time>2018-03-30T11:59:02Z</time>
      </trkpt>
      <trkpt lat="62.610183379254" lon="17.966159666585">
        <ele>159.2</ele>
        <time>2018-03-30T11:59:03Z</time>
      </trkpt>
      <trkpt lat="62.610208105859" lon="17.966119684922">
        <ele>159.2</ele>
        <time>2018-03-30T11:59:04Z</time>
      </trkpt>
      <trkpt lat="62.610226126944" lon="17.966053216455">
        <ele>159.2</ele>
        <time>2018-03-30T11:59:05Z</time>
      </trkpt>
      <trkpt lat="62.610239705622" lon="17.965992028585">
        <ele>159.2</ele>
        <time>2018-03-30T11:59:06Z</time>
      </trkpt>
      <trkpt lat="62.610252027015" lon="17.965927990869">
        <ele>159.2</ele>
        <time>2018-03-30T11:59:07Z</time>
      </trkpt>
      <trkpt lat="62.610236939595" lon="17.965847859905">
        <ele>159.2</ele>
        <time>2018-03-30T11:59:08Z</time>
      </trkpt>
      <trkpt lat="62.610237442509" lon="17.965775105013">
        <ele>159.2</ele>
        <time>2018-03-30T11:59:09Z</time>
      </trkpt>
      <trkpt lat="62.610237442509" lon="17.965710983478">
        <ele>159.2</ele>
        <time>2018-03-30T11:59:10Z</time>
      </trkpt>
      <trkpt lat="62.610249344807" lon="17.965595816172">
        <ele>158.8</ele>
        <time>2018-03-30T11:59:11Z</time>
      </trkpt>
      <trkpt lat="62.610257642888" lon="17.965498502313">
        <ele>158.8</ele>
        <time>2018-03-30T11:59:12Z</time>
      </trkpt>
      <trkpt lat="62.610264432227" lon="17.965411498191">
        <ele>158.2</ele>
        <time>2018-03-30T11:59:13Z</time>
      </trkpt>
      <trkpt lat="62.610275412516" lon="17.965319464929">
        <ele>157.6</ele>
        <time>2018-03-30T11:59:14Z</time>
      </trkpt>
      <trkpt lat="62.610273317041" lon="17.965218714491">
        <ele>157</ele>
        <time>2018-03-30T11:59:15Z</time>
      </trkpt>
      <trkpt lat="62.610271556842" lon="17.965125675401">
        <ele>156.8</ele>
        <time>2018-03-30T11:59:16Z</time>
      </trkpt>
      <trkpt lat="62.610272814127" lon="17.965040012383">
        <ele>156.4</ele>
        <time>2018-03-30T11:59:17Z</time>
      </trkpt>
      <trkpt lat="62.610274993421" lon="17.964957702125">
        <ele>156.2</ele>
        <time>2018-03-30T11:59:18Z</time>
      </trkpt>
      <trkpt lat="62.610276837439" lon="17.964894754056">
        <ele>156.2</ele>
        <time>2018-03-30T11:59:19Z</time>
      </trkpt>
      <trkpt lat="62.610268455539" lon="17.964836667489">
        <ele>156.6</ele>
        <time>2018-03-30T11:59:20Z</time>
      </trkpt>
      <trkpt lat="62.610259235449" lon="17.964782436596">
        <ele>157.2</ele>
        <time>2018-03-30T11:59:21Z</time>
      </trkpt>
      <trkpt lat="62.610257223793" lon="17.964730636454">
        <ele>157.6</ele>
        <time>2018-03-30T11:59:22Z</time>
      </trkpt>
      <trkpt lat="62.610233754473" lon="17.964639189925">
        <ele>158</ele>
        <time>2018-03-30T11:59:23Z</time>
      </trkpt>
      <trkpt lat="62.610234341206" lon="17.964564926291">
        <ele>158</ele>
        <time>2018-03-30T11:59:24Z</time>
      </trkpt>
      <trkpt lat="62.610222187451" lon="17.96448119111">
        <ele>157.6</ele>
        <time>2018-03-30T11:59:25Z</time>
      </trkpt>
      <trkpt lat="62.610202322348" lon="17.964398294119">
        <ele>157.2</ele>
        <time>2018-03-30T11:59:26Z</time>
      </trkpt>
      <trkpt lat="62.61018706729" lon="17.964324952494">
        <ele>156.8</ele>
        <time>2018-03-30T11:59:27Z</time>
      </trkpt>
      <trkpt lat="62.610163262694" lon="17.964257645837">
        <ele>156.4</ele>
        <time>2018-03-30T11:59:28Z</time>
      </trkpt>
      <trkpt lat="62.610151528034" lon="17.964200732736">
        <ele>156.2</ele>
        <time>2018-03-30T11:59:29Z</time>
      </trkpt>
      <trkpt lat="62.610131579112" lon="17.96413501864">
        <ele>156.2</ele>
        <time>2018-03-30T11:59:30Z</time>
      </trkpt>
      <trkpt lat="62.610108947982" lon="17.964072405847">
        <ele>156.4</ele>
        <time>2018-03-30T11:59:31Z</time>
      </trkpt>
      <trkpt lat="62.61008816087" lon="17.964018007316">
        <ele>156.6</ele>
        <time>2018-03-30T11:59:32Z</time>
      </trkpt>
      <trkpt lat="62.610069636871" lon="17.963958328188">
        <ele>156.8</ele>
        <time>2018-03-30T11:59:33Z</time>
      </trkpt>
      <trkpt lat="62.610050274682" lon="17.963901918001">
        <ele>156.8</ele>
        <time>2018-03-30T11:59:34Z</time>
      </trkpt>
      <trkpt lat="62.610040803135" lon="17.963843412339">
        <ele>156.8</ele>
        <time>2018-03-30T11:59:35Z</time>
      </trkpt>
      <trkpt lat="62.610028146466" lon="17.963788594713">
        <ele>156.8</ele>
        <time>2018-03-30T11:59:36Z</time>
      </trkpt>
      <trkpt lat="62.610020518937" lon="17.963737297485">
        <ele>157</ele>
        <time>2018-03-30T11:59:37Z</time>
      </trkpt>
      <trkpt lat="62.610001743481" lon="17.963681641669">
        <ele>157</ele>
        <time>2018-03-30T11:59:38Z</time>
      </trkpt>
      <trkpt lat="62.609989002993" lon="17.963635289762">
        <ele>157.4</ele>
        <time>2018-03-30T11:59:39Z</time>
      </trkpt>
      <trkpt lat="62.609979447627" lon="17.963594302271">
        <ele>157.4</ele>
        <time>2018-03-30T11:59:40Z</time>
      </trkpt>
      <trkpt lat="62.609956397402" lon="17.963522385569">
        <ele>157.8</ele>
        <time>2018-03-30T11:59:41Z</time>
      </trkpt>
      <trkpt lat="62.609941226163" lon="17.963474860196">
        <ele>157.8</ele>
        <time>2018-03-30T11:59:42Z</time>
      </trkpt>
      <trkpt lat="62.609925384372" lon="17.963396992345">
        <ele>158</ele>
        <time>2018-03-30T11:59:43Z</time>
      </trkpt>
      <trkpt lat="62.609916499558" lon="17.96333873814">
        <ele>158.2</ele>
        <time>2018-03-30T11:59:44Z</time>
      </trkpt>
      <trkpt lat="62.609915996644" lon="17.963279059012">
        <ele>158.6</ele>
        <time>2018-03-30T11:59:45Z</time>
      </trkpt>
      <trkpt lat="62.609921193422" lon="17.963214350744">
        <ele>158.6</ele>
        <time>2018-03-30T11:59:46Z</time>
      </trkpt>
      <trkpt lat="62.609925300553" lon="17.963166573914">
        <ele>158.6</ele>
        <time>2018-03-30T11:59:47Z</time>
      </trkpt>
      <trkpt lat="62.60992890477" lon="17.963114019401">
        <ele>158.6</ele>
        <time>2018-03-30T11:59:48Z</time>
      </trkpt>
      <trkpt lat="62.609939382145" lon="17.963067667494">
        <ele>158.8</ele>
        <time>2018-03-30T11:59:49Z</time>
      </trkpt>
      <trkpt lat="62.609949105149" lon="17.963024835985">
        <ele>158.8</ele>
        <time>2018-03-30T11:59:50Z</time>
      </trkpt>
      <trkpt lat="62.609958409058" lon="17.962981836838">
        <ele>159</ele>
        <time>2018-03-30T11:59:51Z</time>
      </trkpt>
      <trkpt lat="62.609966707139" lon="17.962938418596">
        <ele>159.2</ele>
        <time>2018-03-30T11:59:52Z</time>
      </trkpt>
      <trkpt lat="62.60998925445" lon="17.962896928191">
        <ele>159.2</ele>
        <time>2018-03-30T11:59:53Z</time>
      </trkpt>
      <trkpt lat="62.609999648006" lon="17.962853258492">
        <ele>159.4</ele>
        <time>2018-03-30T11:59:54Z</time>
      </trkpt>
      <trkpt lat="62.610010125381" lon="17.962810846078">
        <ele>159.4</ele>
        <time>2018-03-30T11:59:55Z</time>
      </trkpt>
      <trkpt lat="62.610028733199" lon="17.962769858587">
        <ele>159.6</ele>
        <time>2018-03-30T11:59:56Z</time>
      </trkpt>
      <trkpt lat="62.610049520311" lon="17.962728032906">
        <ele>159.6</ele>
        <time>2018-03-30T11:59:57Z</time>
      </trkpt>
      <trkpt lat="62.610065445921" lon="17.962696097867">
        <ele>159.6</ele>
        <time>2018-03-30T11:59:58Z</time>
      </trkpt>
      <trkpt lat="62.610100566082" lon="17.962667683226">
        <ele>159.8</ele>
        <time>2018-03-30T11:59:59Z</time>
      </trkpt>
      <trkpt lat="62.610123700126" lon="17.962639100947">
        <ele>159.8</ele>
        <time>2018-03-30T12:00:00Z</time>
      </trkpt>
      <trkpt lat="62.610150438387" lon="17.962605657166">
        <ele>160</ele>
        <time>2018-03-30T12:00:01Z</time>
      </trkpt>
      <trkpt lat="62.610175919363" lon="17.962573219213">
        <ele>160</ele>
        <time>2018-03-30T12:00:02Z</time>
      </trkpt>
      <trkpt lat="62.610203579633" lon="17.962542709097">
        <ele>160</ele>
        <time>2018-03-30T12:00:03Z</time>
      </trkpt>
      <trkpt lat="62.610226546039" lon="17.962511863705">
        <ele>159.8</ele>
        <time>2018-03-30T12:00:04Z</time>
      </trkpt>
      <trkpt lat="62.610258816354" lon="17.962477665553">
        <ele>160</ele>
        <time>2018-03-30T12:00:05Z</time>
      </trkpt>
      <trkpt lat="62.61028345914" lon="17.962448245084">
        <ele>159.8</ele>
        <time>2018-03-30T12:00:06Z</time>
      </trkpt>
      <trkpt lat="62.610308018107" lon="17.962415388036">
        <ele>160</ele>
        <time>2018-03-30T12:00:07Z</time>
      </trkpt>
      <trkpt lat="62.610340036965" lon="17.962369119948">
        <ele>160</ele>
        <time>2018-03-30T12:00:08Z</time>
      </trkpt>
      <trkpt lat="62.610375492402" lon="17.962316062521">
        <ele>160</ele>
        <time>2018-03-30T12:00:09Z</time>
      </trkpt>
      <trkpt lat="62.610407343622" lon="17.962261999266">
        <ele>160</ele>
        <time>2018-03-30T12:00:10Z</time>
      </trkpt>
      <trkpt lat="62.610438021376" lon="17.962210115305">
        <ele>160</ele>
        <time>2018-03-30T12:00:11Z</time>
      </trkpt>
      <trkpt lat="62.61046366999" lon="17.962169295452">
        <ele>159.4</ele>
        <time>2018-03-30T12:00:12Z</time>
      </trkpt>
      <trkpt lat="62.610484205645" lon="17.962134007653">
        <ele>159</ele>
        <time>2018-03-30T12:00:13Z</time>
      </trkpt>
      <trkpt lat="62.610503567834" lon="17.962093858352">
        <ele>158.6</ele>
        <time>2018-03-30T12:00:14Z</time>
      </trkpt>
      <trkpt lat="62.610520415453" lon="17.962056894173">
        <ele>158.6</ele>
        <time>2018-03-30T12:00:15Z</time>
      </trkpt>
      <trkpt lat="62.610539610004" lon="17.962023869487">
        <ele>158.6</ele>
        <time>2018-03-30T12:00:16Z</time>
      </trkpt>
      <trkpt lat="62.61055251813" lon="17.961981624711">
        <ele>158.4</ele>
        <time>2018-03-30T12:00:17Z</time>
      </trkpt>
      <trkpt lat="62.610559139831" lon="17.961902667213">
        <ele>158.6</ele>
        <time>2018-03-30T12:00:18Z</time>
      </trkpt>
      <trkpt lat="62.610573556699" lon="17.961833432719">
        <ele>158.8</ele>
        <time>2018-03-30T12:00:19Z</time>
      </trkpt>
      <trkpt lat="62.610588308843" lon="17.961769562641">
        <ele>159</ele>
        <time>2018-03-30T12:00:20Z</time>
      </trkpt>
      <trkpt lat="62.610604653548" lon="17.961684318718">
        <ele>159.2</ele>
        <time>2018-03-30T12:00:21Z</time>
      </trkpt>
      <trkpt lat="62.610619992425" lon="17.961609971265">
        <ele>159.2</ele>
        <time>2018-03-30T12:00:22Z</time>
      </trkpt>
      <trkpt lat="62.610645305763" lon="17.961526152265">
        <ele>158.6</ele>
        <time>2018-03-30T12:00:23Z</time>
      </trkpt>
      <trkpt lat="62.610668439807" lon="17.961447530043">
        <ele>158.2</ele>
        <time>2018-03-30T12:00:24Z</time>
      </trkpt>
      <trkpt lat="62.610695513344" lon="17.96136312431">
        <ele>157.4</ele>
        <time>2018-03-30T12:00:25Z</time>
      </trkpt>
      <trkpt lat="62.610722251605" lon="17.961265307537">
        <ele>156.6</ele>
        <time>2018-03-30T12:00:26Z</time>
      </trkpt>
      <trkpt lat="62.61074614002" lon="17.961167658402">
        <ele>156.2</ele>
        <time>2018-03-30T12:00:27Z</time>
      </trkpt>
      <trkpt lat="62.610752342626" lon="17.961080319004">
        <ele>155.6</ele>
        <time>2018-03-30T12:00:28Z</time>
      </trkpt>
      <trkpt lat="62.610753516092" lon="17.960965067879">
        <ele>154.8</ele>
        <time>2018-03-30T12:00:29Z</time>
      </trkpt>
      <trkpt lat="62.610753935187" lon="17.960868089296">
        <ele>154.4</ele>
        <time>2018-03-30T12:00:30Z</time>
      </trkpt>
      <trkpt lat="62.6107561983" lon="17.960775134025">
        <ele>154</ele>
        <time>2018-03-30T12:00:31Z</time>
      </trkpt>
      <trkpt lat="62.610758042318" lon="17.960685447695">
        <ele>154</ele>
        <time>2018-03-30T12:00:32Z</time>
      </trkpt>
      <trkpt lat="62.610750582427" lon="17.960616799934">
        <ele>153.8</ele>
        <time>2018-03-30T12:00:33Z</time>
      </trkpt>
      <trkpt lat="62.610752258807" lon="17.960535327866">
        <ele>154</ele>
        <time>2018-03-30T12:00:34Z</time>
      </trkpt>
      <trkpt lat="62.610756282119" lon="17.960453352884">
        <ele>153.8</ele>
        <time>2018-03-30T12:00:35Z</time>
      </trkpt>
      <trkpt lat="62.610763406734" lon="17.960373892472">
        <ele>153.6</ele>
        <time>2018-03-30T12:00:36Z</time>
      </trkpt>
      <trkpt lat="62.610769106426" lon="17.960305663806">
        <ele>153.6</ele>
        <time>2018-03-30T12:00:37Z</time>
      </trkpt>
      <trkpt lat="62.610760892164" lon="17.960210529241">
        <ele>153.4</ele>
        <time>2018-03-30T12:00:38Z</time>
      </trkpt>
      <trkpt lat="62.610759131965" lon="17.960142216756">
        <ele>153.2</ele>
        <time>2018-03-30T12:00:39Z</time>
      </trkpt>
      <trkpt lat="62.610761814173" lon="17.96007566447">
        <ele>153.2</ele>
        <time>2018-03-30T12:00:40Z</time>
      </trkpt>
      <trkpt lat="62.610760053974" lon="17.959986061959">
        <ele>153.2</ele>
        <time>2018-03-30T12:00:41Z</time>
      </trkpt>
      <trkpt lat="62.610751336798" lon="17.959904254615">
        <ele>153.2</ele>
        <time>2018-03-30T12:00:42Z</time>
      </trkpt>
      <trkpt lat="62.610763322915" lon="17.959833511379">
        <ele>153.2</ele>
        <time>2018-03-30T12:00:43Z</time>
      </trkpt>
      <trkpt lat="62.610763658191" lon="17.959768970749">
        <ele>153.2</ele>
        <time>2018-03-30T12:00:44Z</time>
      </trkpt>
      <trkpt lat="62.610772710643" lon="17.959712392924">
        <ele>153</ele>
        <time>2018-03-30T12:00:45Z</time>
      </trkpt>
      <trkpt lat="62.610787378968" lon="17.95964399662">
        <ele>153</ele>
        <time>2018-03-30T12:00:46Z</time>
      </trkpt>
      <trkpt lat="62.610802214931" lon="17.959571325547">
        <ele>153</ele>
        <time>2018-03-30T12:00:47Z</time>
      </trkpt>
      <trkpt lat="62.610801963474" lon="17.959505108537">
        <ele>153</ele>
        <time>2018-03-30T12:00:48Z</time>
      </trkpt>
      <trkpt lat="62.610817805265" lon="17.959439310622">
        <ele>152.8</ele>
        <time>2018-03-30T12:00:49Z</time>
      </trkpt>
      <trkpt lat="62.610832138314" lon="17.959382984254">
        <ele>153</ele>
        <time>2018-03-30T12:00:50Z</time>
      </trkpt>
      <trkpt lat="62.610848650657" lon="17.959314671769">
        <ele>153.2</ele>
        <time>2018-03-30T12:00:51Z</time>
      </trkpt>
      <trkpt lat="62.610867426113" lon="17.959247784207">
        <ele>153.4</ele>
        <time>2018-03-30T12:00:52Z</time>
      </trkpt>
      <trkpt lat="62.610894918745" lon="17.959173436754">
        <ele>153.4</ele>
        <time>2018-03-30T12:00:53Z</time>
      </trkpt>
      <trkpt lat="62.610917046961" lon="17.959101100957">
        <ele>153.2</ele>
        <time>2018-03-30T12:00:54Z</time>
      </trkpt>
      <trkpt lat="62.610939258996" lon="17.959028513703">
        <ele>153.2</ele>
        <time>2018-03-30T12:00:55Z</time>
      </trkpt>
      <trkpt lat="62.610956693348" lon="17.958966571462">
        <ele>153.2</ele>
        <time>2018-03-30T12:00:56Z</time>
      </trkpt>
      <trkpt lat="62.610971780768" lon="17.958911250922">
        <ele>153.2</ele>
        <time>2018-03-30T12:00:57Z</time>
      </trkpt>
      <trkpt lat="62.610990220948" lon="17.958871520716">
        <ele>153</ele>
        <time>2018-03-30T12:00:58Z</time>
      </trkpt>
      <trkpt lat="62.611010505146" lon="17.958808991742">
        <ele>153</ele>
        <time>2018-03-30T12:00:59Z</time>
      </trkpt>
      <trkpt lat="62.611035650846" lon="17.958762723654">
        <ele>152.8</ele>
        <time>2018-03-30T12:01:00Z</time>
      </trkpt>
      <trkpt lat="62.611056102682" lon="17.958716623204">
        <ele>153</ele>
        <time>2018-03-30T12:01:01Z</time>
      </trkpt>
      <trkpt lat="62.611072866482" lon="17.958669349288">
        <ele>153.2</ele>
        <time>2018-03-30T12:01:02Z</time>
      </trkpt>
      <trkpt lat="62.611093737413" lon="17.958651412022">
        <ele>153</ele>
        <time>2018-03-30T12:01:03Z</time>
      </trkpt>
      <trkpt lat="62.611112345231" lon="17.958629283806">
        <ele>153</ele>
        <time>2018-03-30T12:01:04Z</time>
      </trkpt>
      <trkpt lat="62.611148555039" lon="17.958579914415">
        <ele>153.2</ele>
        <time>2018-03-30T12:01:05Z</time>
      </trkpt>
      <trkpt lat="62.611185686856" lon="17.958570191411">
        <ele>153.6</ele>
        <time>2018-03-30T12:01:06Z</time>
      </trkpt>
      <trkpt lat="62.611210581099" lon="17.95855686419">
        <ele>153.8</ele>
        <time>2018-03-30T12:01:07Z</time>
      </trkpt>
      <trkpt lat="62.611247461459" lon="17.958539597476">
        <ele>154</ele>
        <time>2018-03-30T12:01:08Z</time>
      </trkpt>
      <trkpt lat="62.611290879701" lon="17.958518558907">
        <ele>154.4</ele>
        <time>2018-03-30T12:01:09Z</time>
      </trkpt>
      <trkpt lat="62.611341841653" lon="17.958498526166">
        <ele>154.4</ele>
        <time>2018-03-30T12:01:10Z</time>
      </trkpt>
      <trkpt lat="62.611396994555" lon="17.95847807433">
        <ele>154</ele>
        <time>2018-03-30T12:01:11Z</time>
      </trkpt>
      <trkpt lat="62.61144854324" lon="17.958457622494">
        <ele>153.8</ele>
        <time>2018-03-30T12:01:12Z</time>
      </trkpt>
      <trkpt lat="62.611484417772" lon="17.958431387147">
        <ele>153.4</ele>
        <time>2018-03-30T12:01:13Z</time>
      </trkpt>
      <trkpt lat="62.611520208485" lon="17.958407917827">
        <ele>153</ele>
        <time>2018-03-30T12:01:14Z</time>
      </trkpt>
      <trkpt lat="62.61155750794" lon="17.958379251729">
        <ele>152.8</ele>
        <time>2018-03-30T12:01:15Z</time>
      </trkpt>
      <trkpt lat="62.611598495431" lon="17.958344299206">
        <ele>152.8</ele>
        <time>2018-03-30T12:01:16Z</time>
      </trkpt>
      <trkpt lat="62.611635794886" lon="17.958311023063">
        <ele>152.6</ele>
        <time>2018-03-30T12:01:17Z</time>
      </trkpt>
      <trkpt lat="62.611682733526" lon="17.958248661727">
        <ele>152.6</ele>
        <time>2018-03-30T12:01:18Z</time>
      </trkpt>
      <trkpt lat="62.611719446248" lon="17.958187138581">
        <ele>152.8</ele>
        <time>2018-03-30T12:01:19Z</time>
      </trkpt>
      <trkpt lat="62.61175280621" lon="17.958122765589">
        <ele>152.8</ele>
        <time>2018-03-30T12:01:20Z</time>
      </trkpt>
      <trkpt lat="62.611777784272" lon="17.958032324888">
        <ele>152.6</ele>
        <time>2018-03-30T12:01:21Z</time>
      </trkpt>
      <trkpt lat="62.611804019619" lon="17.957946326594">
        <ele>152.6</ele>
        <time>2018-03-30T12:01:22Z</time>
      </trkpt>
      <trkpt lat="62.611835032649" lon="17.957841804301">
        <ele>152.4</ele>
        <time>2018-03-30T12:01:23Z</time>
      </trkpt>
      <trkpt lat="62.611873086475" lon="17.957727810461">
        <ele>152</ele>
        <time>2018-03-30T12:01:24Z</time>
      </trkpt>
      <trkpt lat="62.611911559396" lon="17.957606943463">
        <ele>151.6</ele>
        <time>2018-03-30T12:01:25Z</time>
      </trkpt>
      <trkpt lat="62.61194475172" lon="17.957482136972">
        <ele>151.2</ele>
        <time>2018-03-30T12:01:26Z</time>
      </trkpt>
      <trkpt lat="62.611969143049" lon="17.957374932471">
        <ele>150.6</ele>
        <time>2018-03-30T12:01:27Z</time>
      </trkpt>
      <trkpt lat="62.611991103627" lon="17.957271499825">
        <ele>149.8</ele>
        <time>2018-03-30T12:01:28Z</time>
      </trkpt>
      <trkpt lat="62.61201096873" lon="17.957186004445">
        <ele>149</ele>
        <time>2018-03-30T12:01:29Z</time>
      </trkpt>
      <trkpt lat="62.612016584603" lon="17.957116267037">
        <ele>148.2</ele>
        <time>2018-03-30T12:01:30Z</time>
      </trkpt>
      <trkpt lat="62.612014992042" lon="17.957047703095">
        <ele>148</ele>
        <time>2018-03-30T12:01:31Z</time>
      </trkpt>
      <trkpt lat="62.61201264511" lon="17.95697687604">
        <ele>148</ele>
        <time>2018-03-30T12:01:32Z</time>
      </trkpt>
      <trkpt lat="62.612012561291" lon="17.95690646808">
        <ele>148</ele>
        <time>2018-03-30T12:01:33Z</time>
      </trkpt>
      <trkpt lat="62.612005352857" lon="17.956881573837">
        <ele>148</ele>
        <time>2018-03-30T12:01:34Z</time>
      </trkpt>
      <trkpt lat="62.611981129166" lon="17.956760203925">
        <ele>148.2</ele>
        <time>2018-03-30T12:01:35Z</time>
      </trkpt>
      <trkpt lat="62.611970651791" lon="17.956677055477">
        <ele>148.6</ele>
        <time>2018-03-30T12:01:36Z</time>
      </trkpt>
      <trkpt lat="62.611953049801" lon="17.956605809327">
        <ele>148.6</ele>
        <time>2018-03-30T12:01:37Z</time>
      </trkpt>
      <trkpt lat="62.611930251033" lon="17.956542106887">
        <ele>148.4</ele>
        <time>2018-03-30T12:01:38Z</time>
      </trkpt>
      <trkpt lat="62.611906697894" lon="17.956493827143">
        <ele>148.6</ele>
        <time>2018-03-30T12:01:39Z</time>
      </trkpt>
      <trkpt lat="62.611879708176" lon="17.956442781372">
        <ele>148.6</ele>
        <time>2018-03-30T12:01:40Z</time>
      </trkpt>
      <trkpt lat="62.61185087444" lon="17.956392406153">
        <ele>148.8</ele>
        <time>2018-03-30T12:01:41Z</time>
      </trkpt>
      <trkpt lat="62.611820112867" lon="17.956351167205">
        <ele>148.8</ele>
        <time>2018-03-30T12:01:42Z</time>
      </trkpt>
      <trkpt lat="62.611801337411" lon="17.956303306556">
        <ele>149</ele>
        <time>2018-03-30T12:01:43Z</time>
      </trkpt>
      <trkpt lat="62.611779795928" lon="17.956270365689">
        <ele>149.2</ele>
        <time>2018-03-30T12:01:44Z</time>
      </trkpt>
      <trkpt lat="62.611760182282" lon="17.956243962704">
        <ele>149.2</ele>
        <time>2018-03-30T12:01:45Z</time>
      </trkpt>
      <trkpt lat="62.611742328835" lon="17.956214458416">
        <ele>149.2</ele>
        <time>2018-03-30T12:01:46Z</time>
      </trkpt>
      <trkpt lat="62.611723134284" lon="17.956188809802">
        <ele>149.2</ele>
        <time>2018-03-30T12:01:47Z</time>
      </trkpt>
      <trkpt lat="62.611706454303" lon="17.956171040174">
        <ele>149.2</ele>
        <time>2018-03-30T12:01:48Z</time>
      </trkpt>
      <trkpt lat="62.611688600856" lon="17.956149666329">
        <ele>149.4</ele>
        <time>2018-03-30T12:01:49Z</time>
      </trkpt>
      <trkpt lat="62.611667897563" lon="17.956127538113">
        <ele>149.6</ele>
        <time>2018-03-30T12:01:50Z</time>
      </trkpt>
      <trkpt lat="62.611655911446" lon="17.95610348206">
        <ele>149.8</ele>
        <time>2018-03-30T12:01:51Z</time>
      </trkpt>
      <trkpt lat="62.611647529546" lon="17.956083533138">
        <ele>149.8</ele>
        <time>2018-03-30T12:01:52Z</time>
      </trkpt>
      <trkpt lat="62.611618863448" lon="17.956020082155">
        <ele>150.2</ele>
        <time>2018-03-30T12:01:53Z</time>
      </trkpt>
      <trkpt lat="62.611595142671" lon="17.955975825723">
        <ele>150.4</ele>
        <time>2018-03-30T12:01:54Z</time>
      </trkpt>
      <trkpt lat="62.611573014455" lon="17.955925953418">
        <ele>150.4</ele>
        <time>2018-03-30T12:01:55Z</time>
      </trkpt>
      <trkpt lat="62.611551053877" lon="17.955867280118">
        <ele>150</ele>
        <time>2018-03-30T12:01:56Z</time>
      </trkpt>
      <trkpt lat="62.611530602041" lon="17.955808020085">
        <ele>149.8</ele>
        <time>2018-03-30T12:01:57Z</time>
      </trkpt>
      <trkpt lat="62.611521549589" lon="17.955739539962">
        <ele>149.2</ele>
        <time>2018-03-30T12:01:58Z</time>
      </trkpt>
      <trkpt lat="62.611511658947" lon="17.955666365975">
        <ele>148.8</ele>
        <time>2018-03-30T12:01:59Z</time>
      </trkpt>
      <trkpt lat="62.611509060558" lon="17.955588246667">
        <ele>148.2</ele>
        <time>2018-03-30T12:02:00Z</time>
      </trkpt>
      <trkpt lat="62.611513586784" lon="17.955498476518">
        <ele>147.8</ele>
        <time>2018-03-30T12:02:01Z</time>
      </trkpt>
      <trkpt lat="62.611521046675" lon="17.955408203455">
        <ele>147.6</ele>
        <time>2018-03-30T12:02:02Z</time>
      </trkpt>
      <trkpt lat="62.611528590385" lon="17.955315918736">
        <ele>147.4</ele>
        <time>2018-03-30T12:02:03Z</time>
      </trkpt>
      <trkpt lat="62.611540827959" lon="17.955220448895">
        <ele>147</ele>
        <time>2018-03-30T12:02:04Z</time>
      </trkpt>
      <trkpt lat="62.611551472972" lon="17.95512866709">
        <ele>146.6</ele>
        <time>2018-03-30T12:02:05Z</time>
      </trkpt>
      <trkpt lat="62.611564129641" lon="17.955022468417">
        <ele>146</ele>
        <time>2018-03-30T12:02:06Z</time>
      </trkpt>
      <trkpt lat="62.611573098274" lon="17.954925489834">
        <ele>145.4</ele>
        <time>2018-03-30T12:02:07Z</time>
      </trkpt>
      <trkpt lat="62.61157930088" lon="17.954806299216">
        <ele>145</ele>
        <time>2018-03-30T12:02:08Z</time>
      </trkpt>
      <trkpt lat="62.611581480174" lon="17.954706051692">
        <ele>144.6</ele>
        <time>2018-03-30T12:02:09Z</time>
      </trkpt>
      <trkpt lat="62.611576115758" lon="17.954612174412">
        <ele>144</ele>
        <time>2018-03-30T12:02:10Z</time>
      </trkpt>
      <trkpt lat="62.611561279795" lon="17.954522152806">
        <ele>143.6</ele>
        <time>2018-03-30T12:02:11Z</time>
      </trkpt>
      <trkpt lat="62.611545605642" lon="17.954436657426">
        <ele>143.2</ele>
        <time>2018-03-30T12:02:12Z</time>
      </trkpt>
      <trkpt lat="62.61149967283" lon="17.954373038805">
        <ele>142.6</ele>
        <time>2018-03-30T12:02:13Z</time>
      </trkpt>
      <trkpt lat="62.611454829665" lon="17.954312353849">
        <ele>142.6</ele>
        <time>2018-03-30T12:02:14Z</time>
      </trkpt>
      <trkpt lat="62.611405879369" lon="17.954275222032">
        <ele>142.2</ele>
        <time>2018-03-30T12:02:15Z</time>
      </trkpt>
      <trkpt lat="62.611359946557" lon="17.95426868415">
        <ele>142</ele>
        <time>2018-03-30T12:02:16Z</time>
      </trkpt>
      <trkpt lat="62.611325245491" lon="17.954285615588">
        <ele>142</ele>
        <time>2018-03-30T12:02:17Z</time>
      </trkpt>
      <trkpt lat="62.611295825022" lon="17.954318724093">
        <ele>141.8</ele>
        <time>2018-03-30T12:02:18Z</time>
      </trkpt>
      <trkpt lat="62.61127336153" lon="17.95435334134">
        <ele>141.8</ele>
        <time>2018-03-30T12:02:19Z</time>
      </trkpt>
      <trkpt lat="62.611255256626" lon="17.95438100161">
        <ele>141.8</ele>
        <time>2018-03-30T12:02:20Z</time>
      </trkpt>
      <trkpt lat="62.611237906093" lon="17.954404219473">
        <ele>142</ele>
        <time>2018-03-30T12:02:21Z</time>
      </trkpt>
      <trkpt lat="62.611222483397" lon="17.954423078748">
        <ele>142.2</ele>
        <time>2018-03-30T12:02:22Z</time>
      </trkpt>
      <trkpt lat="62.61120295357" lon="17.954463563325">
        <ele>142.6</ele>
        <time>2018-03-30T12:02:23Z</time>
      </trkpt>
      <trkpt lat="62.611192476195" lon="17.954496839468">
        <ele>142.8</ele>
        <time>2018-03-30T12:02:24Z</time>
      </trkpt>
      <trkpt lat="62.611184178114" lon="17.954530618525">
        <ele>143</ele>
        <time>2018-03-30T12:02:25Z</time>
      </trkpt>
      <trkpt lat="62.61117194054" lon="17.954561380098">
        <ele>143.2</ele>
        <time>2018-03-30T12:02:26Z</time>
      </trkpt>
      <trkpt lat="62.611156350206" lon="17.954589878558">
        <ele>143.2</ele>
        <time>2018-03-30T12:02:27Z</time>
      </trkpt>
      <trkpt lat="62.611143106804" lon="17.954621310683">
        <ele>143.2</ele>
        <time>2018-03-30T12:02:28Z</time>
      </trkpt>
      <trkpt lat="62.611134976361" lon="17.954649054772">
        <ele>143.4</ele>
        <time>2018-03-30T12:02:29Z</time>
      </trkpt>
      <trkpt lat="62.611124079891" lon="17.954678223784">
        <ele>143.4</ele>
        <time>2018-03-30T12:02:30Z</time>
      </trkpt>
      <trkpt lat="62.611111507041" lon="17.954711080832">
        <ele>143.8</ele>
        <time>2018-03-30T12:02:31Z</time>
      </trkpt>
      <trkpt lat="62.611102286951" lon="17.954741004215">
        <ele>144</ele>
        <time>2018-03-30T12:02:32Z</time>
      </trkpt>
      <trkpt lat="62.61109482706" lon="17.95477327453">
        <ele>144.4</ele>
        <time>2018-03-30T12:02:33Z</time>
      </trkpt>
      <trkpt lat="62.61108393059" lon="17.954801689171">
        <ele>144.6</ele>
        <time>2018-03-30T12:02:34Z</time>
      </trkpt>
      <trkpt lat="62.611070435731" lon="17.954827086328">
        <ele>145</ele>
        <time>2018-03-30T12:02:35Z</time>
      </trkpt>
      <trkpt lat="62.611059455442" lon="17.954858266996">
        <ele>145.4</ele>
        <time>2018-03-30T12:02:36Z</time>
      </trkpt>
      <trkpt lat="62.611047720782" lon="17.95489145932">
        <ele>145.4</ele>
        <time>2018-03-30T12:02:37Z</time>
      </trkpt>
      <trkpt lat="62.611033890647" lon="17.954936470123">
        <ele>145.6</ele>
        <time>2018-03-30T12:02:38Z</time>
      </trkpt>
      <trkpt lat="62.611020311969" lon="17.954974691587">
        <ele>146</ele>
        <time>2018-03-30T12:02:39Z</time>
      </trkpt>
      <trkpt lat="62.610999524857" lon="17.955010649938">
        <ele>146.2</ele>
        <time>2018-03-30T12:02:40Z</time>
      </trkpt>
      <trkpt lat="62.61098418598" lon="17.955053146171">
        <ele>146.4</ele>
        <time>2018-03-30T12:02:41Z</time>
      </trkpt>
      <trkpt lat="62.610976893727" lon="17.955093211653">
        <ele>146.6</ele>
        <time>2018-03-30T12:02:42Z</time>
      </trkpt>
      <trkpt lat="62.610972116044" lon="17.955131852212">
        <ele>146.8</ele>
        <time>2018-03-30T12:02:43Z</time>
      </trkpt>
      <trkpt lat="62.610962225402" lon="17.955167726744">
        <ele>147</ele>
        <time>2018-03-30T12:02:44Z</time>
      </trkpt>
      <trkpt lat="62.610950239285" lon="17.955211731719">
        <ele>147.2</ele>
        <time>2018-03-30T12:02:45Z</time>
      </trkpt>
      <trkpt lat="62.610942025023" lon="17.955255317599">
        <ele>147.4</ele>
        <time>2018-03-30T12:02:46Z</time>
      </trkpt>
      <trkpt lat="62.61093557096" lon="17.955294041977">
        <ele>147.6</ele>
        <time>2018-03-30T12:02:47Z</time>
      </trkpt>
      <trkpt lat="62.610926518508" lon="17.95533653821">
        <ele>147.8</ele>
        <time>2018-03-30T12:02:48Z</time>
      </trkpt>
      <trkpt lat="62.610915873495" lon="17.955376687511">
        <ele>148</ele>
        <time>2018-03-30T12:02:49Z</time>
      </trkpt>
      <trkpt lat="62.61090791069" lon="17.955414322242">
        <ele>148.2</ele>
        <time>2018-03-30T12:02:50Z</time>
      </trkpt>
      <trkpt lat="62.610901288989" lon="17.955456986113">
        <ele>148.4</ele>
        <time>2018-03-30T12:02:51Z</time>
      </trkpt>
      <trkpt lat="62.610896762763" lon="17.955499482346">
        <ele>148.8</ele>
        <time>2018-03-30T12:02:52Z</time>
      </trkpt>
      <trkpt lat="62.610877568212" lon="17.955543068226">
        <ele>148.8</ele>
        <time>2018-03-30T12:02:53Z</time>
      </trkpt>
      <trkpt lat="62.610859714765" lon="17.955583636622">
        <ele>149</ele>
        <time>2018-03-30T12:02:54Z</time>
      </trkpt>
      <trkpt lat="62.610839933481" lon="17.955618002412">
        <ele>149.2</ele>
        <time>2018-03-30T12:02:55Z</time>
      </trkpt>
      <trkpt lat="62.610822080034" lon="17.955651194736">
        <ele>149.2</ele>
        <time>2018-03-30T12:02:56Z</time>
      </trkpt>
      <trkpt lat="62.610807914623" lon="17.955684638517">
        <ele>149.2</ele>
        <time>2018-03-30T12:02:57Z</time>
      </trkpt>
      <trkpt lat="62.610796934334" lon="17.955713053158">
        <ele>149.4</ele>
        <time>2018-03-30T12:02:58Z</time>
      </trkpt>
      <trkpt lat="62.610783690932" lon="17.955746161663">
        <ele>149.4</ele>
        <time>2018-03-30T12:02:59Z</time>
      </trkpt>
      <trkpt lat="62.610768100598" lon="17.955783461118">
        <ele>149.8</ele>
        <time>2018-03-30T12:03:00Z</time>
      </trkpt>
      <trkpt lat="62.610756030662" lon="17.955827549912">
        <ele>150</ele>
        <time>2018-03-30T12:03:01Z</time>
      </trkpt>
      <trkpt lat="62.610744547459" lon="17.955872225439">
        <ele>150.2</ele>
        <time>2018-03-30T12:03:02Z</time>
      </trkpt>
      <trkpt lat="62.610732896618" lon="17.955917236242">
        <ele>150.6</ele>
        <time>2018-03-30T12:03:03Z</time>
      </trkpt>
      <trkpt lat="62.610725939641" lon="17.955944561236">
        <ele>150.6</ele>
        <time>2018-03-30T12:03:04Z</time>
      </trkpt>
      <trkpt lat="62.610709594936" lon="17.956022429087">
        <ele>150.8</ele>
        <time>2018-03-30T12:03:05Z</time>
      </trkpt>
      <trkpt lat="62.61069668681" lon="17.956066434062">
        <ele>150.8</ele>
        <time>2018-03-30T12:03:06Z</time>
      </trkpt>
      <trkpt lat="62.61068243758" lon="17.95610599663">
        <ele>150.8</ele>
        <time>2018-03-30T12:03:07Z</time>
      </trkpt>
      <trkpt lat="62.610665003228" lon="17.956153438184">
        <ele>150.6</ele>
        <time>2018-03-30T12:03:08Z</time>
      </trkpt>
      <trkpt lat="62.610654693491" lon="17.956196102055">
        <ele>150.6</ele>
        <time>2018-03-30T12:03:09Z</time>
      </trkpt>
      <trkpt lat="62.610642455917" lon="17.956235245528">
        <ele>150.6</ele>
        <time>2018-03-30T12:03:10Z</time>
      </trkpt>
      <trkpt lat="62.61062711704" lon="17.956277741761">
        <ele>150.8</ele>
        <time>2018-03-30T12:03:11Z</time>
      </trkpt>
      <trkpt lat="62.610613706" lon="17.956319651261">
        <ele>150.8</ele>
        <time>2018-03-30T12:03:12Z</time>
      </trkpt>
      <trkpt lat="62.610593086526" lon="17.956366506082">
        <ele>151</ele>
        <time>2018-03-30T12:03:13Z</time>
      </trkpt>
      <trkpt lat="62.610582525332" lon="17.95640774503">
        <ele>151</ele>
        <time>2018-03-30T12:03:14Z</time>
      </trkpt>
      <trkpt lat="62.610567689369" lon="17.956449235435">
        <ele>151.2</ele>
        <time>2018-03-30T12:03:15Z</time>
      </trkpt>
      <trkpt lat="62.610555535614" lon="17.956495252066">
        <ele>151.4</ele>
        <time>2018-03-30T12:03:16Z</time>
      </trkpt>
      <trkpt lat="62.610547405171" lon="17.956544789095">
        <ele>151.4</ele>
        <time>2018-03-30T12:03:17Z</time>
      </trkpt>
      <trkpt lat="62.610539190909" lon="17.956594326124">
        <ele>151.4</ele>
        <time>2018-03-30T12:03:18Z</time>
      </trkpt>
      <trkpt lat="62.610532904484" lon="17.956608826811">
        <ele>151.6</ele>
        <time>2018-03-30T12:03:19Z</time>
      </trkpt>
      <trkpt lat="62.610517984702" lon="17.956698094046">
        <ele>151.8</ele>
        <time>2018-03-30T12:03:20Z</time>
      </trkpt>
      <trkpt lat="62.610507423508" lon="17.956749894188">
        <ele>152</ele>
        <time>2018-03-30T12:03:21Z</time>
      </trkpt>
      <trkpt lat="62.610494766839" lon="17.956795324086">
        <ele>152</ele>
        <time>2018-03-30T12:03:22Z</time>
      </trkpt>
      <trkpt lat="62.610476410478" lon="17.956846621314">
        <ele>152.2</ele>
        <time>2018-03-30T12:03:23Z</time>
      </trkpt>
      <trkpt lat="62.61046534637" lon="17.956889033728">
        <ele>152.2</ele>
        <time>2018-03-30T12:03:24Z</time>
      </trkpt>
      <trkpt lat="62.610451348597" lon="17.956927003735">
        <ele>152.2</ele>
        <time>2018-03-30T12:03:25Z</time>
      </trkpt>
      <trkpt lat="62.610431651132" lon="17.956961285706">
        <ele>152.2</ele>
        <time>2018-03-30T12:03:26Z</time>
      </trkpt>
      <trkpt lat="62.610414300599" lon="17.956986682863">
        <ele>152.2</ele>
        <time>2018-03-30T12:03:27Z</time>
      </trkpt>
      <trkpt lat="62.610385550682" lon="17.957042925412">
        <ele>152.4</ele>
        <time>2018-03-30T12:03:28Z</time>
      </trkpt>
      <trkpt lat="62.610359482973" lon="17.957086511292">
        <ele>152.4</ele>
        <time>2018-03-30T12:03:29Z</time>
      </trkpt>
      <trkpt lat="62.610334169635" lon="17.957119787435">
        <ele>152.8</ele>
        <time>2018-03-30T12:03:30Z</time>
      </trkpt>
      <trkpt lat="62.610303994795" lon="17.957146609515">
        <ele>152.8</ele>
        <time>2018-03-30T12:03:31Z</time>
      </trkpt>
      <trkpt lat="62.610276418344" lon="17.957176951993">
        <ele>153</ele>
        <time>2018-03-30T12:03:32Z</time>
      </trkpt>
      <trkpt lat="62.610242806925" lon="17.957196314182">
        <ele>152.8</ele>
        <time>2018-03-30T12:03:33Z</time>
      </trkpt>
      <trkpt lat="62.610208608773" lon="17.95722162752">
        <ele>153</ele>
        <time>2018-03-30T12:03:34Z</time>
      </trkpt>
      <trkpt lat="62.610178182476" lon="17.957249455428">
        <ele>153</ele>
        <time>2018-03-30T12:03:35Z</time>
      </trkpt>
      <trkpt lat="62.610151276577" lon="17.957282899209">
        <ele>153</ele>
        <time>2018-03-30T12:03:36Z</time>
      </trkpt>
      <trkpt lat="62.610129567456" lon="17.957316762085">
        <ele>153</ele>
        <time>2018-03-30T12:03:37Z</time>
      </trkpt>
      <trkpt lat="62.610106684869" lon="17.957355486463">
        <ele>153.2</ele>
        <time>2018-03-30T12:03:38Z</time>
      </trkpt>
      <trkpt lat="62.610084640472" lon="17.957389600796">
        <ele>153.2</ele>
        <time>2018-03-30T12:03:39Z</time>
      </trkpt>
      <trkpt lat="62.610068714862" lon="17.957431091201">
        <ele>153.2</ele>
        <time>2018-03-30T12:03:40Z</time>
      </trkpt>
      <trkpt lat="62.610055303822" lon="17.957474844719">
        <ele>153.4</ele>
        <time>2018-03-30T12:03:41Z</time>
      </trkpt>
      <trkpt lat="62.610045748456" lon="17.957511389803">
        <ele>153.6</ele>
        <time>2018-03-30T12:03:42Z</time>
      </trkpt>
      <trkpt lat="62.610027978828" lon="17.957535026761">
        <ele>154</ele>
        <time>2018-03-30T12:03:43Z</time>
      </trkpt>
      <trkpt lat="62.610015489797" lon="17.957573499682">
        <ele>154.6</ele>
        <time>2018-03-30T12:03:44Z</time>
      </trkpt>
      <trkpt lat="62.610006185888" lon="17.957628652584">
        <ele>154.8</ele>
        <time>2018-03-30T12:03:45Z</time>
      </trkpt>
      <trkpt lat="62.609999061273" lon="17.957687912617">
        <ele>155</ele>
        <time>2018-03-30T12:03:46Z</time>
      </trkpt>
      <trkpt lat="62.609992104296" lon="17.957749184306">
        <ele>155.4</ele>
        <time>2018-03-30T12:03:47Z</time>
      </trkpt>
      <trkpt lat="62.609981291645" lon="17.957822945026">
        <ele>155.6</ele>
        <time>2018-03-30T12:03:48Z</time>
      </trkpt>
      <trkpt lat="62.609969305528" lon="17.957887653294">
        <ele>155.4</ele>
        <time>2018-03-30T12:03:49Z</time>
      </trkpt>
      <trkpt lat="62.609959833981" lon="17.957950182268">
        <ele>155.2</ele>
        <time>2018-03-30T12:03:50Z</time>
      </trkpt>
      <trkpt lat="62.609955223936" lon="17.958007430645">
        <ele>155.2</ele>
        <time>2018-03-30T12:03:51Z</time>
      </trkpt>
      <trkpt lat="62.609951200624" lon="17.95806903761">
        <ele>155</ele>
        <time>2018-03-30T12:03:52Z</time>
      </trkpt>
      <trkpt lat="62.609948518416" lon="17.9581285491">
        <ele>154.6</ele>
        <time>2018-03-30T12:03:53Z</time>
      </trkpt>
      <trkpt lat="62.609944578923" lon="17.958179846328">
        <ele>154.6</ele>
        <time>2018-03-30T12:03:54Z</time>
      </trkpt>
      <trkpt lat="62.609938711593" lon="17.958237429981">
        <ele>154.4</ele>
        <time>2018-03-30T12:03:55Z</time>
      </trkpt>
      <trkpt lat="62.609930748788" lon="17.958294259263">
        <ele>154.4</ele>
        <time>2018-03-30T12:03:56Z</time>
      </trkpt>
      <trkpt lat="62.609924965277" lon="17.95835066945">
        <ele>154.6</ele>
        <time>2018-03-30T12:03:57Z</time>
      </trkpt>
      <trkpt lat="62.609909794038" lon="17.958424094894">
        <ele>154.6</ele>
        <time>2018-03-30T12:03:58Z</time>
      </trkpt>
      <trkpt lat="62.609898813749" lon="17.958489054619">
        <ele>154.8</ele>
        <time>2018-03-30T12:03:59Z</time>
      </trkpt>
      <trkpt lat="62.60988699527" lon="17.958555774543">
        <ele>154.8</ele>
        <time>2018-03-30T12:04:00Z</time>
      </trkpt>
      <trkpt lat="62.609879283922" lon="17.958622578286">
        <ele>155</ele>
        <time>2018-03-30T12:04:01Z</time>
      </trkpt>
      <trkpt lat="62.609871153479" lon="17.958688795296">
        <ele>155</ele>
        <time>2018-03-30T12:04:02Z</time>
      </trkpt>
      <trkpt lat="62.609862520122" lon="17.958762053102">
        <ele>155.2</ele>
        <time>2018-03-30T12:04:03Z</time>
      </trkpt>
      <trkpt lat="62.609855479326" lon="17.958836735831">
        <ele>155</ele>
        <time>2018-03-30T12:04:04Z</time>
      </trkpt>
      <trkpt lat="62.609848773806" lon="17.958909406904">
        <ele>155</ele>
        <time>2018-03-30T12:04:05Z</time>
      </trkpt>
      <trkpt lat="62.609840559544" lon="17.958981155968">
        <ele>155</ele>
        <time>2018-03-30T12:04:06Z</time>
      </trkpt>
      <trkpt lat="62.609834440757" lon="17.959047792073">
        <ele>155.2</ele>
        <time>2018-03-30T12:04:07Z</time>
      </trkpt>
      <trkpt lat="62.609826813228" lon="17.959124989372">
        <ele>155</ele>
        <time>2018-03-30T12:04:08Z</time>
      </trkpt>
      <trkpt lat="62.609821113536" lon="17.959196067884">
        <ele>155.2</ele>
        <time>2018-03-30T12:04:09Z</time>
      </trkpt>
      <trkpt lat="62.609813653645" lon="17.959271253527">
        <ele>155.2</ele>
        <time>2018-03-30T12:04:10Z</time>
      </trkpt>
      <trkpt lat="62.609804098279" lon="17.959348367007">
        <ele>155</ele>
        <time>2018-03-30T12:04:11Z</time>
      </trkpt>
      <trkpt lat="62.609795213465" lon="17.959424055564">
        <ele>155.2</ele>
        <time>2018-03-30T12:04:12Z</time>
      </trkpt>
      <trkpt lat="62.609796386931" lon="17.95950066613">
        <ele>155</ele>
        <time>2018-03-30T12:04:13Z</time>
      </trkpt>
      <trkpt lat="62.60979814713" lon="17.959576689963">
        <ele>155</ele>
        <time>2018-03-30T12:04:14Z</time>
      </trkpt>
      <trkpt lat="62.609806948125" lon="17.959644750991">
        <ele>155.2</ele>
        <time>2018-03-30T12:04:15Z</time>
      </trkpt>
      <trkpt lat="62.609825891219" lon="17.95971691915">
        <ele>155.4</ele>
        <time>2018-03-30T12:04:16Z</time>
      </trkpt>
      <trkpt lat="62.609849863453" lon="17.959770982405">
        <ele>155.2</ele>
        <time>2018-03-30T12:04:17Z</time>
      </trkpt>
      <trkpt lat="62.609883055777" lon="17.959811969896">
        <ele>155.4</ele>
        <time>2018-03-30T12:04:18Z</time>
      </trkpt>
      <trkpt lat="62.609918343576" lon="17.959825967669">
        <ele>155.4</ele>
        <time>2018-03-30T12:04:19Z</time>
      </trkpt>
      <trkpt lat="62.609954469565" lon="17.959836864139">
        <ele>155.6</ele>
        <time>2018-03-30T12:04:20Z</time>
      </trkpt>
      <trkpt lat="62.609988332441" lon="17.959838624338">
        <ele>155.4</ele>
        <time>2018-03-30T12:04:21Z</time>
      </trkpt>
      <trkpt lat="62.610022446774" lon="17.959838540519">
        <ele>155.2</ele>
        <time>2018-03-30T12:04:22Z</time>
      </trkpt>
      <trkpt lat="62.610062093161" lon="17.959837702329">
        <ele>155</ele>
        <time>2018-03-30T12:04:23Z</time>
      </trkpt>
      <trkpt lat="62.610096039856" lon="17.959839630166">
        <ele>155</ele>
        <time>2018-03-30T12:04:24Z</time>
      </trkpt>
      <trkpt lat="62.610129818913" lon="17.959837031777">
        <ele>154.8</ele>
        <time>2018-03-30T12:04:25Z</time>
      </trkpt>
      <trkpt lat="62.610163095056" lon="17.959838624338">
        <ele>154.8</ele>
        <time>2018-03-30T12:04:26Z</time>
      </trkpt>
      <trkpt lat="62.610195281552" lon="17.959847341514">
        <ele>155</ele>
        <time>2018-03-30T12:04:27Z</time>
      </trkpt>
      <trkpt lat="62.610208608773" lon="17.959834768664">
        <ele>154.8</ele>
        <time>2018-03-30T12:04:28Z</time>
      </trkpt>
      <trkpt lat="62.610275747792" lon="17.959839965442">
        <ele>154.8</ele>
        <time>2018-03-30T12:04:29Z</time>
      </trkpt>
      <trkpt lat="62.61031447217" lon="17.959845748953">
        <ele>154.8</ele>
        <time>2018-03-30T12:04:30Z</time>
      </trkpt>
      <trkpt lat="62.610354537652" lon="17.959862596572">
        <ele>154.8</ele>
        <time>2018-03-30T12:04:31Z</time>
      </trkpt>
      <trkpt lat="62.610390160727" lon="17.959879779467">
        <ele>154.8</ele>
        <time>2018-03-30T12:04:32Z</time>
      </trkpt>
      <trkpt lat="62.610431399675" lon="17.959914312895">
        <ele>154.8</ele>
        <time>2018-03-30T12:04:33Z</time>
      </trkpt>
      <trkpt lat="62.610470291691" lon="17.959966951227">
        <ele>154.8</ele>
        <time>2018-03-30T12:04:34Z</time>
      </trkpt>
      <trkpt lat="62.610500047436" lon="17.960031910952">
        <ele>155</ele>
        <time>2018-03-30T12:04:35Z</time>
      </trkpt>
      <trkpt lat="62.610516559779" lon="17.960100474894">
        <ele>155</ele>
        <time>2018-03-30T12:04:36Z</time>
      </trkpt>
      <trkpt lat="62.610525528412" lon="17.960163590601">
        <ele>155.2</ele>
        <time>2018-03-30T12:04:37Z</time>
      </trkpt>
      <trkpt lat="62.610524606403" lon="17.960235674941">
        <ele>155.2</ele>
        <time>2018-03-30T12:04:38Z</time>
      </trkpt>
      <trkpt lat="62.610512536467" lon="17.960299293562">
        <ele>155.2</ele>
        <time>2018-03-30T12:04:39Z</time>
      </trkpt>
      <trkpt lat="62.610499376884" lon="17.960364420925">
        <ele>155.4</ele>
        <time>2018-03-30T12:04:40Z</time>
      </trkpt>
      <trkpt lat="62.610480769066" lon="17.960427201356">
        <ele>155.4</ele>
        <time>2018-03-30T12:04:41Z</time>
      </trkpt>
      <trkpt lat="62.610462077429" lon="17.960485287923">
        <ele>155.8</ele>
        <time>2018-03-30T12:04:42Z</time>
      </trkpt>
      <trkpt lat="62.610432489322" lon="17.960539937911">
        <ele>156</ele>
        <time>2018-03-30T12:04:43Z</time>
      </trkpt>
      <trkpt lat="62.610409103821" lon="17.960585954542">
        <ele>156.4</ele>
        <time>2018-03-30T12:04:44Z</time>
      </trkpt>
      <trkpt lat="62.610388987261" lon="17.960625684748">
        <ele>156.4</ele>
        <time>2018-03-30T12:04:45Z</time>
      </trkpt>
      <trkpt lat="62.610352945091" lon="17.960659128529">
        <ele>156.6</ele>
        <time>2018-03-30T12:04:46Z</time>
      </trkpt>
      <trkpt lat="62.610324614269" lon="17.960690141559">
        <ele>156.6</ele>
        <time>2018-03-30T12:04:47Z</time>
      </trkpt>
      <trkpt lat="62.610293936515" lon="17.960712521232">
        <ele>156.8</ele>
        <time>2018-03-30T12:04:48Z</time>
      </trkpt>
      <trkpt lat="62.610260073639" lon="17.960717801829">
        <ele>156.8</ele>
        <time>2018-03-30T12:04:49Z</time>
      </trkpt>
      <trkpt lat="62.610223863831" lon="17.960708246463">
        <ele>157</ele>
        <time>2018-03-30T12:04:50Z</time>
      </trkpt>
      <trkpt lat="62.610191509697" lon="17.960696008889">
        <ele>157</ele>
        <time>2018-03-30T12:04:51Z</time>
      </trkpt>
      <trkpt lat="62.610162340685" lon="17.960688046084">
        <ele>157.2</ele>
        <time>2018-03-30T12:04:52Z</time>
      </trkpt>
      <trkpt lat="62.610134764234" lon="17.960694919242">
        <ele>157.2</ele>
        <time>2018-03-30T12:04:53Z</time>
      </trkpt>
      <trkpt lat="62.610099560254" lon="17.960690560654">
        <ele>157.2</ele>
        <time>2018-03-30T12:04:54Z</time>
      </trkpt>
      <trkpt lat="62.610061674066" lon="17.96069005774">
        <ele>157.2</ele>
        <time>2018-03-30T12:04:55Z</time>
      </trkpt>
      <trkpt lat="62.610024206973" lon="17.960696344165">
        <ele>157.2</ele>
        <time>2018-03-30T12:04:56Z</time>
      </trkpt>
      <trkpt lat="62.609985398776" lon="17.960704055513">
        <ele>157.2</ele>
        <time>2018-03-30T12:04:57Z</time>
      </trkpt>
      <trkpt lat="62.609952457909" lon="17.960697936726">
        <ele>157.4</ele>
        <time>2018-03-30T12:04:58Z</time>
      </trkpt>
      <trkpt lat="62.609915074635" lon="17.960695589794">
        <ele>157.2</ele>
        <time>2018-03-30T12:04:59Z</time>
      </trkpt>
      <trkpt lat="62.60988028975" lon="17.960693913414">
        <ele>157.2</ele>
        <time>2018-03-30T12:05:00Z</time>
      </trkpt>
      <trkpt lat="62.609847181245" lon="17.960689051912">
        <ele>157.2</ele>
        <time>2018-03-30T12:05:01Z</time>
      </trkpt>
      <trkpt lat="62.609820359165" lon="17.96069005774">
        <ele>157.2</ele>
        <time>2018-03-30T12:05:02Z</time>
      </trkpt>
      <trkpt lat="62.609792698895" lon="17.960688800455">
        <ele>157.6</ele>
        <time>2018-03-30T12:05:03Z</time>
      </trkpt>
      <trkpt lat="62.609762859331" lon="17.96069089593">
        <ele>157.8</ele>
        <time>2018-03-30T12:05:04Z</time>
      </trkpt>
      <trkpt lat="62.60972606279" lon="17.960698523459">
        <ele>158.2</ele>
        <time>2018-03-30T12:05:05Z</time>
      </trkpt>
      <trkpt lat="62.609687673688" lon="17.960702462952">
        <ele>158.6</ele>
        <time>2018-03-30T12:05:06Z</time>
      </trkpt>
      <trkpt lat="62.609650290414" lon="17.960709419929">
        <ele>158.8</ele>
        <time>2018-03-30T12:05:07Z</time>
      </trkpt>
      <trkpt lat="62.609618355375" lon="17.960711347766">
        <ele>158.8</ele>
        <time>2018-03-30T12:05:08Z</time>
      </trkpt>
      <trkpt lat="62.609593461132" lon="17.960701457124">
        <ele>159</ele>
        <time>2018-03-30T12:05:09Z</time>
      </trkpt>
      <trkpt lat="62.609563789206" lon="17.960690560654">
        <ele>159.2</ele>
        <time>2018-03-30T12:05:10Z</time>
      </trkpt>
      <trkpt lat="62.609528501407" lon="17.960677736347">
        <ele>159.2</ele>
        <time>2018-03-30T12:05:11Z</time>
      </trkpt>
      <trkpt lat="62.609497823653" lon="17.960666253144">
        <ele>159.2</ele>
        <time>2018-03-30T12:05:12Z</time>
      </trkpt>
      <trkpt lat="62.609461027112" lon="17.960649489344">
        <ele>159.4</ele>
        <time>2018-03-30T12:05:13Z</time>
      </trkpt>
      <trkpt lat="62.609428756797" lon="17.960626774395">
        <ele>159.6</ele>
        <time>2018-03-30T12:05:14Z</time>
      </trkpt>
      <trkpt lat="62.609400761251" lon="17.960595174632">
        <ele>159.8</ele>
        <time>2018-03-30T12:05:15Z</time>
      </trkpt>
      <trkpt lat="62.609374442085" lon="17.960558210453">
        <ele>160</ele>
        <time>2018-03-30T12:05:16Z</time>
      </trkpt>
      <trkpt lat="62.609344267245" lon="17.960522503559">
        <ele>160</ele>
        <time>2018-03-30T12:05:17Z</time>
      </trkpt>
      <trkpt lat="62.609315684966" lon="17.960482270439">
        <ele>160.4</ele>
        <time>2018-03-30T12:05:18Z</time>
      </trkpt>
      <trkpt lat="62.609287437963" lon="17.960434912704">
        <ele>160.6</ele>
        <time>2018-03-30T12:05:19Z</time>
      </trkpt>
      <trkpt lat="62.6092642201" lon="17.960398451439">
        <ele>160.6</ele>
        <time>2018-03-30T12:05:20Z</time>
      </trkpt>
      <trkpt lat="62.609239577314" lon="17.960362157812">
        <ele>160.6</ele>
        <time>2018-03-30T12:05:21Z</time>
      </trkpt>
      <trkpt lat="62.609210743578" lon="17.96032125414">
        <ele>160.6</ele>
        <time>2018-03-30T12:05:22Z</time>
      </trkpt>
      <trkpt lat="62.609181658385" lon="17.96028521197">
        <ele>160.6</ele>
        <time>2018-03-30T12:05:23Z</time>
      </trkpt>
      <trkpt lat="62.609151567364" lon="17.960252941655">
        <ele>160.6</ele>
        <time>2018-03-30T12:05:24Z</time>
      </trkpt>
      <trkpt lat="62.609117285393" lon="17.960221006616">
        <ele>160.8</ele>
        <time>2018-03-30T12:05:25Z</time>
      </trkpt>
      <trkpt lat="62.609081075585" lon="17.960194184536">
        <ele>160.8</ele>
        <time>2018-03-30T12:05:26Z</time>
      </trkpt>
      <trkpt lat="62.609045871605" lon="17.960169374112">
        <ele>160.8</ele>
        <time>2018-03-30T12:05:27Z</time>
      </trkpt>
      <trkpt lat="62.608991640712" lon="17.960118915074">
        <ele>160.8</ele>
        <time>2018-03-30T12:05:29Z</time>
      </trkpt>
      <trkpt lat="62.60896917722" lon="17.960099552885">
        <ele>160.8</ele>
        <time>2018-03-30T12:05:30Z</time>
      </trkpt>
      <trkpt lat="62.608947887194" lon="17.960084716922">
        <ele>160.8</ele>
        <time>2018-03-30T12:05:31Z</time>
      </trkpt>
      <trkpt lat="62.608928608824" lon="17.960073652814">
        <ele>161</ele>
        <time>2018-03-30T12:05:32Z</time>
      </trkpt>
      <trkpt lat="62.608904552771" lon="17.960057308109">
        <ele>161</ele>
        <time>2018-03-30T12:05:33Z</time>
      </trkpt>
      <trkpt lat="62.608885274401" lon="17.960040292852">
        <ele>161.2</ele>
        <time>2018-03-30T12:05:34Z</time>
      </trkpt>
      <trkpt lat="62.608874713207" lon="17.960031324219">
        <ele>161.2</ele>
        <time>2018-03-30T12:05:35Z</time>
      </trkpt>
      <trkpt lat="62.608867337135" lon="17.960023277595">
        <ele>161.2</ele>
        <time>2018-03-30T12:05:36Z</time>
      </trkpt>
      <trkpt lat="62.608865912212" lon="17.960022690862">
        <ele>161.2</ele>
        <time>2018-03-30T12:05:37Z</time>
      </trkpt>
      <trkpt lat="62.608869684067" lon="17.960023780509">
        <ele>161.2</ele>
        <time>2018-03-30T12:05:38Z</time>
      </trkpt>
      <trkpt lat="62.608813609156" lon="17.959496810456">
        <ele>159.4</ele>
        <time>2018-03-30T12:06:28Z</time>
      </trkpt>
      <trkpt lat="62.608813860613" lon="17.959472670584">
        <ele>159.4</ele>
        <time>2018-03-30T12:06:29Z</time>
      </trkpt>
      <trkpt lat="62.608814028251" lon="17.959441741373">
        <ele>159.2</ele>
        <time>2018-03-30T12:06:30Z</time>
      </trkpt>
      <trkpt lat="62.608818219201" lon="17.95941349437">
        <ele>159.2</ele>
        <time>2018-03-30T12:06:31Z</time>
      </trkpt>
      <trkpt lat="62.608823415979" lon="17.959385750281">
        <ele>159.2</ele>
        <time>2018-03-30T12:06:32Z</time>
      </trkpt>
      <trkpt lat="62.608827104015" lon="17.959359179658">
        <ele>159.2</ele>
        <time>2018-03-30T12:06:33Z</time>
      </trkpt>
      <trkpt lat="62.608830624413" lon="17.959338308727">
        <ele>159.2</ele>
        <time>2018-03-30T12:06:34Z</time>
      </trkpt>
      <trkpt lat="62.60883506682" lon="17.959308469163">
        <ele>159.4</ele>
        <time>2018-03-30T12:06:35Z</time>
      </trkpt>
      <trkpt lat="62.608839006313" lon="17.959284580748">
        <ele>159.4</ele>
        <time>2018-03-30T12:06:36Z</time>
      </trkpt>
      <trkpt lat="62.60884680148" lon="17.959261279066">
        <ele>159.4</ele>
        <time>2018-03-30T12:06:37Z</time>
      </trkpt>
      <trkpt lat="62.608854680466" lon="17.959235043719">
        <ele>159.4</ele>
        <time>2018-03-30T12:06:38Z</time>
      </trkpt>
      <trkpt lat="62.608863816737" lon="17.959211322942">
        <ele>159.4</ele>
        <time>2018-03-30T12:06:39Z</time>
      </trkpt>
      <trkpt lat="62.608868762058" lon="17.959191122563">
        <ele>159.4</ele>
        <time>2018-03-30T12:06:40Z</time>
      </trkpt>
      <trkpt lat="62.608876305768" lon="17.959165725406">
        <ele>159.4</ele>
        <time>2018-03-30T12:06:41Z</time>
      </trkpt>
      <trkpt lat="62.608885190582" lon="17.959145357389">
        <ele>159.4</ele>
        <time>2018-03-30T12:06:42Z</time>
      </trkpt>
      <trkpt lat="62.608897009061" lon="17.959117697119">
        <ele>159.4</ele>
        <time>2018-03-30T12:06:43Z</time>
      </trkpt>
      <trkpt lat="62.608906899703" lon="17.959094563075">
        <ele>159.4</ele>
        <time>2018-03-30T12:06:44Z</time>
      </trkpt>
      <trkpt lat="62.608914191956" lon="17.959073440687">
        <ele>159.4</ele>
        <time>2018-03-30T12:06:45Z</time>
      </trkpt>
      <trkpt lat="62.608924585512" lon="17.959053994679">
        <ele>159.4</ele>
        <time>2018-03-30T12:06:46Z</time>
      </trkpt>
      <trkpt lat="62.608935984896" lon="17.959040416001">
        <ele>159.4</ele>
        <time>2018-03-30T12:06:47Z</time>
      </trkpt>
      <trkpt lat="62.608942774235" lon="17.959019628889">
        <ele>159.4</ele>
        <time>2018-03-30T12:06:48Z</time>
      </trkpt>
      <trkpt lat="62.608942774235" lon="17.959026585866">
        <ele>159.4</ele>
        <time>2018-03-30T12:06:49Z</time>
      </trkpt>
      <trkpt lat="62.608938415647" lon="17.959025160943">
        <ele>159.2</ele>
        <time>2018-03-30T12:06:50Z</time>
      </trkpt>
      <trkpt lat="62.627241467763" lon="17.942351382549">
        <ele>0</ele>
        <time>2018-03-30T12:18:34Z</time>
      </trkpt>
      <trkpt lat="62.627209197448" lon="17.94237141529">
        <ele>0</ele>
        <time>2018-03-30T12:18:35Z</time>
      </trkpt>
      <trkpt lat="62.627181034264" lon="17.94239404642">
        <ele>0</ele>
        <time>2018-03-30T12:18:36Z</time>
      </trkpt>
      <trkpt lat="62.627154882736" lon="17.942411229315">
        <ele>0</ele>
        <time>2018-03-30T12:18:37Z</time>
      </trkpt>
      <trkpt lat="62.627124624077" lon="17.942434363359">
        <ele>0</ele>
        <time>2018-03-30T12:18:38Z</time>
      </trkpt>
      <trkpt lat="62.627092856676" lon="17.942458251774">
        <ele>0</ele>
        <time>2018-03-30T12:18:39Z</time>
      </trkpt>
      <trkpt lat="62.627060334904" lon="17.942483565112">
        <ele>0</ele>
        <time>2018-03-30T12:18:40Z</time>
      </trkpt>
      <trkpt lat="62.627031417349" lon="17.942511141563">
        <ele>0</ele>
        <time>2018-03-30T12:18:41Z</time>
      </trkpt>
      <trkpt lat="62.627003757079" lon="17.942539640023">
        <ele>0</ele>
        <time>2018-03-30T12:18:42Z</time>
      </trkpt>
      <trkpt lat="62.62697266023" lon="17.942569898682">
        <ele>0</ele>
        <time>2018-03-30T12:18:43Z</time>
      </trkpt>
      <trkpt lat="62.626936869517" lon="17.942601414626">
        <ele>0</ele>
        <time>2018-03-30T12:18:44Z</time>
      </trkpt>
      <trkpt lat="62.62690141408" lon="17.942633182027">
        <ele>0</ele>
        <time>2018-03-30T12:18:45Z</time>
      </trkpt>
      <trkpt lat="62.626880207873" lon="17.942655896976">
        <ele>0</ele>
        <time>2018-03-30T12:18:46Z</time>
      </trkpt>
      <trkpt lat="62.626852296146" lon="17.942689005481">
        <ele>0</ele>
        <time>2018-03-30T12:18:47Z</time>
      </trkpt>
      <trkpt lat="62.626821953668" lon="17.942718090674">
        <ele>0</ele>
        <time>2018-03-30T12:18:48Z</time>
      </trkpt>
      <trkpt lat="62.626790437724" lon="17.942751534455">
        <ele>0</ele>
        <time>2018-03-30T12:18:49Z</time>
      </trkpt>
      <trkpt lat="62.626761603988" lon="17.942774668499">
        <ele>0</ele>
        <time>2018-03-30T12:18:50Z</time>
      </trkpt>
      <trkpt lat="62.626731848243" lon="17.942800484751">
        <ele>0</ele>
        <time>2018-03-30T12:18:51Z</time>
      </trkpt>
      <trkpt lat="62.626702930688" lon="17.942817164732">
        <ele>0</ele>
        <time>2018-03-30T12:18:52Z</time>
      </trkpt>
      <trkpt lat="62.626670744192" lon="17.942839209129">
        <ele>0</ele>
        <time>2018-03-30T12:18:53Z</time>
      </trkpt>
      <trkpt lat="62.626640401714" lon="17.942857230214">
        <ele>0</ele>
        <time>2018-03-30T12:18:54Z</time>
      </trkpt>
      <trkpt lat="62.626617016213" lon="17.942883214104">
        <ele>0</ele>
        <time>2018-03-30T12:18:55Z</time>
      </trkpt>
      <trkpt lat="62.626583656251" lon="17.942907102519">
        <ele>0</ele>
        <time>2018-03-30T12:18:56Z</time>
      </trkpt>
      <trkpt lat="62.626561192759" lon="17.942930571839">
        <ele>0</ele>
        <time>2018-03-30T12:18:57Z</time>
      </trkpt>
      <trkpt lat="62.6265309341" lon="17.942956304272">
        <ele>0</ele>
        <time>2018-03-30T12:18:58Z</time>
      </trkpt>
      <trkpt lat="62.626500843079" lon="17.942986562931">
        <ele>0</ele>
        <time>2018-03-30T12:18:59Z</time>
      </trkpt>
      <trkpt lat="62.626474440094" lon="17.943007769138">
        <ele>0</ele>
        <time>2018-03-30T12:19:00Z</time>
      </trkpt>
      <trkpt lat="62.626446360729" lon="17.943038530711">
        <ele>0</ele>
        <time>2018-03-30T12:19:01Z</time>
      </trkpt>
      <trkpt lat="62.626422472314" lon="17.943058228176">
        <ele>0</ele>
        <time>2018-03-30T12:19:02Z</time>
      </trkpt>
      <trkpt lat="62.626398416261" lon="17.94308806774">
        <ele>0</ele>
        <time>2018-03-30T12:19:03Z</time>
      </trkpt>
      <trkpt lat="62.626371175086" lon="17.943123774634">
        <ele>0</ele>
        <time>2018-03-30T12:19:04Z</time>
      </trkpt>
      <trkpt lat="62.626346029386" lon="17.943165516496">
        <ele>0</ele>
        <time>2018-03-30T12:19:05Z</time>
      </trkpt>
      <trkpt lat="62.626322392428" lon="17.943201307209">
        <ele>0</ele>
        <time>2018-03-30T12:19:06Z</time>
      </trkpt>
      <trkpt lat="62.62630294642" lon="17.943238439026">
        <ele>0</ele>
        <time>2018-03-30T12:19:07Z</time>
      </trkpt>
      <trkpt lat="62.626280650566" lon="17.943283701286">
        <ele>0</ele>
        <time>2018-03-30T12:19:08Z</time>
      </trkpt>
      <trkpt lat="62.626258019436" lon="17.943327203347">
        <ele>0</ele>
        <time>2018-03-30T12:19:09Z</time>
      </trkpt>
      <trkpt lat="62.626239076342" lon="17.943365592449">
        <ele>0</ele>
        <time>2018-03-30T12:19:10Z</time>
      </trkpt>
      <trkpt lat="62.626211332253" lon="17.943415716211">
        <ele>0</ele>
        <time>2018-03-30T12:19:11Z</time>
      </trkpt>
      <trkpt lat="62.626192137702" lon="17.943452931847">
        <ele>0</ele>
        <time>2018-03-30T12:19:12Z</time>
      </trkpt>
      <trkpt lat="62.626167914011" lon="17.943496014813">
        <ele>0</ele>
        <time>2018-03-30T12:19:13Z</time>
      </trkpt>
      <trkpt lat="62.626147294537" lon="17.94354320491">
        <ele>0</ele>
        <time>2018-03-30T12:19:14Z</time>
      </trkpt>
      <trkpt lat="62.626126255968" lon="17.943581594012">
        <ele>0</ele>
        <time>2018-03-30T12:19:15Z</time>
      </trkpt>
      <trkpt lat="62.626106893779" lon="17.943615205431">
        <ele>0</ele>
        <time>2018-03-30T12:19:16Z</time>
      </trkpt>
      <trkpt lat="62.62608585521" lon="17.94366222789">
        <ele>0</ele>
        <time>2018-03-30T12:19:17Z</time>
      </trkpt>
      <trkpt lat="62.626064816641" lon="17.943701790458">
        <ele>0</ele>
        <time>2018-03-30T12:19:18Z</time>
      </trkpt>
      <trkpt lat="62.626039251846" lon="17.943755434618">
        <ele>0</ele>
        <time>2018-03-30T12:19:19Z</time>
      </trkpt>
      <trkpt lat="62.626020811666" lon="17.943797260299">
        <ele>0</ele>
        <time>2018-03-30T12:19:20Z</time>
      </trkpt>
      <trkpt lat="62.626000527468" lon="17.943840929998">
        <ele>0</ele>
        <time>2018-03-30T12:19:21Z</time>
      </trkpt>
      <trkpt lat="62.625980997641" lon="17.943879235281">
        <ele>0</ele>
        <time>2018-03-30T12:19:22Z</time>
      </trkpt>
      <trkpt lat="62.625958031235" lon="17.94393212507">
        <ele>0</ele>
        <time>2018-03-30T12:19:23Z</time>
      </trkpt>
      <trkpt lat="62.625938752865" lon="17.943972022914">
        <ele>0</ele>
        <time>2018-03-30T12:19:24Z</time>
      </trkpt>
      <trkpt lat="62.625920564142" lon="17.944010328197">
        <ele>0</ele>
        <time>2018-03-30T12:19:25Z</time>
      </trkpt>
      <trkpt lat="62.625897178641" lon="17.944053997896">
        <ele>0</ele>
        <time>2018-03-30T12:19:26Z</time>
      </trkpt>
      <trkpt lat="62.625878487004" lon="17.944092051722">
        <ele>0</ele>
        <time>2018-03-30T12:19:27Z</time>
      </trkpt>
      <trkpt lat="62.625854430951" lon="17.944140415285">
        <ele>0</ele>
        <time>2018-03-30T12:19:28Z</time>
      </trkpt>
      <trkpt lat="62.625827944147" lon="17.944184001165">
        <ele>0</ele>
        <time>2018-03-30T12:19:29Z</time>
      </trkpt>
      <trkpt lat="62.625805983569" lon="17.944225323932">
        <ele>0</ele>
        <time>2018-03-30T12:19:30Z</time>
      </trkpt>
      <trkpt lat="62.625780334955" lon="17.94426656288">
        <ele>0</ele>
        <time>2018-03-30T12:19:31Z</time>
      </trkpt>
      <trkpt lat="62.62575812292" lon="17.944303778516">
        <ele>0</ele>
        <time>2018-03-30T12:19:32Z</time>
      </trkpt>
      <trkpt lat="62.625736916713" lon="17.944342670532">
        <ele>0</ele>
        <time>2018-03-30T12:19:33Z</time>
      </trkpt>
      <trkpt lat="62.625707747701" lon="17.944389860629">
        <ele>0</ele>
        <time>2018-03-30T12:19:34Z</time>
      </trkpt>
      <trkpt lat="62.62568603858" lon="17.944428585007">
        <ele>0</ele>
        <time>2018-03-30T12:19:35Z</time>
      </trkpt>
      <trkpt lat="62.625661479613" lon="17.944459933313">
        <ele>0</ele>
        <time>2018-03-30T12:19:36Z</time>
      </trkpt>
      <trkpt lat="62.625639686673" lon="17.944497651863">
        <ele>0</ele>
        <time>2018-03-30T12:19:37Z</time>
      </trkpt>
      <trkpt lat="62.625612948412" lon="17.944534029309">
        <ele>0</ele>
        <time>2018-03-30T12:19:38Z</time>
      </trkpt>
      <trkpt lat="62.625591826024" lon="17.94456914947">
        <ele>0</ele>
        <time>2018-03-30T12:19:39Z</time>
      </trkpt>
      <trkpt lat="62.625567434695" lon="17.9446001625">
        <ele>0</ele>
        <time>2018-03-30T12:19:40Z</time>
      </trkpt>
      <trkpt lat="62.625539439149" lon="17.944648106968">
        <ele>0</ele>
        <time>2018-03-30T12:19:41Z</time>
      </trkpt>
      <trkpt lat="62.625518568218" lon="17.944675934876">
        <ele>0</ele>
        <time>2018-03-30T12:19:42Z</time>
      </trkpt>
      <trkpt lat="62.625491159405" lon="17.944723879344">
        <ele>0</ele>
        <time>2018-03-30T12:19:43Z</time>
      </trkpt>
      <trkpt lat="62.625465007877" lon="17.944753299813">
        <ele>0</ele>
        <time>2018-03-30T12:19:44Z</time>
      </trkpt>
      <trkpt lat="62.625438353435" lon="17.944777774961">
        <ele>0</ele>
        <time>2018-03-30T12:19:45Z</time>
      </trkpt>
      <trkpt lat="62.625416895771" lon="17.944811805475">
        <ele>0</ele>
        <time>2018-03-30T12:19:46Z</time>
      </trkpt>
      <trkpt lat="62.625391750071" lon="17.944842902324">
        <ele>0</ele>
        <time>2018-03-30T12:19:47Z</time>
      </trkpt>
      <trkpt lat="62.625367023466" lon="17.944879615046">
        <ele>0</ele>
        <time>2018-03-30T12:19:48Z</time>
      </trkpt>
      <trkpt lat="62.625340452843" lon="17.944914819026">
        <ele>0</ele>
        <time>2018-03-30T12:19:49Z</time>
      </trkpt>
      <trkpt lat="62.625317737894" lon="17.944946167332">
        <ele>0</ele>
        <time>2018-03-30T12:19:50Z</time>
      </trkpt>
      <trkpt lat="62.625293598022" lon="17.944981790407">
        <ele>0</ele>
        <time>2018-03-30T12:19:51Z</time>
      </trkpt>
      <trkpt lat="62.625272894729" lon="17.945012216704">
        <ele>0</ele>
        <time>2018-03-30T12:19:52Z</time>
      </trkpt>
      <trkpt lat="62.62524515064" lon="17.945054964394">
        <ele>0</ele>
        <time>2018-03-30T12:19:53Z</time>
      </trkpt>
      <trkpt lat="62.625223441519" lon="17.94508966546">
        <ele>0</ele>
        <time>2018-03-30T12:19:54Z</time>
      </trkpt>
      <trkpt lat="62.625202905864" lon="17.94511564935">
        <ele>0</ele>
        <time>2018-03-30T12:19:55Z</time>
      </trkpt>
      <trkpt lat="62.625176083784" lon="17.94515504428">
        <ele>0</ele>
        <time>2018-03-30T12:19:56Z</time>
      </trkpt>
      <trkpt lat="62.625156973052" lon="17.945183458921">
        <ele>0</ele>
        <time>2018-03-30T12:19:57Z</time>
      </trkpt>
      <trkpt lat="62.625131911171" lon="17.945229307914">
        <ele>0</ele>
        <time>2018-03-30T12:19:58Z</time>
      </trkpt>
      <trkpt lat="62.625105424367" lon="17.945269624853">
        <ele>0</ele>
        <time>2018-03-30T12:19:59Z</time>
      </trkpt>
      <trkpt lat="62.625081368314" lon="17.945310696163">
        <ele>0</ele>
        <time>2018-03-30T12:20:00Z</time>
      </trkpt>
      <trkpt lat="62.625061838487" lon="17.945352940939">
        <ele>0</ele>
        <time>2018-03-30T12:20:01Z</time>
      </trkpt>
      <trkpt lat="62.625039542633" lon="17.945392671145">
        <ele>0</ele>
        <time>2018-03-30T12:20:02Z</time>
      </trkpt>
      <trkpt lat="62.625016743865" lon="17.945437095215">
        <ele>0</ele>
        <time>2018-03-30T12:20:03Z</time>
      </trkpt>
      <trkpt lat="62.624991598165" lon="17.945481770742">
        <ele>0</ele>
        <time>2018-03-30T12:20:04Z</time>
      </trkpt>
      <trkpt lat="62.624968296483" lon="17.945518399645">
        <ele>0</ele>
        <time>2018-03-30T12:20:05Z</time>
      </trkpt>
      <trkpt lat="62.624941893498" lon="17.945563158991">
        <ele>0</ele>
        <time>2018-03-30T12:20:06Z</time>
      </trkpt>
      <trkpt lat="62.624920184377" lon="17.945598111514">
        <ele>0</ele>
        <time>2018-03-30T12:20:07Z</time>
      </trkpt>
      <trkpt lat="62.624894116668" lon="17.945649324923">
        <ele>0</ele>
        <time>2018-03-30T12:20:08Z</time>
      </trkpt>
      <trkpt lat="62.624869892977" lon="17.945681846695">
        <ele>0</ele>
        <time>2018-03-30T12:20:09Z</time>
      </trkpt>
      <trkpt lat="62.624843406173" lon="17.945712943544">
        <ele>0</ele>
        <time>2018-03-30T12:20:10Z</time>
      </trkpt>
      <trkpt lat="62.62482018831" lon="17.94575937927">
        <ele>0</ele>
        <time>2018-03-30T12:20:11Z</time>
      </trkpt>
      <trkpt lat="62.624800826121" lon="17.945792320137">
        <ele>0</ele>
        <time>2018-03-30T12:20:12Z</time>
      </trkpt>
      <trkpt lat="62.624773668765" lon="17.945828529945">
        <ele>0</ele>
        <time>2018-03-30T12:20:13Z</time>
      </trkpt>
      <trkpt lat="62.624753049291" lon="17.945859878251">
        <ele>0</ele>
        <time>2018-03-30T12:20:14Z</time>
      </trkpt>
      <trkpt lat="62.624730921075" lon="17.945890807462">
        <ele>0</ele>
        <time>2018-03-30T12:20:15Z</time>
      </trkpt>
      <trkpt lat="62.624707284117" lon="17.945937746102">
        <ele>0</ele>
        <time>2018-03-30T12:20:16Z</time>
      </trkpt>
      <trkpt lat="62.624682976607" lon="17.945971189883">
        <ele>0</ele>
        <time>2018-03-30T12:20:17Z</time>
      </trkpt>
      <trkpt lat="62.624656238346" lon="17.946013853754">
        <ele>0</ele>
        <time>2018-03-30T12:20:18Z</time>
      </trkpt>
      <trkpt lat="62.624630841189" lon="17.946046375526">
        <ele>0</ele>
        <time>2018-03-30T12:20:19Z</time>
      </trkpt>
      <trkpt lat="62.624609132068" lon="17.946078897298">
        <ele>0</ele>
        <time>2018-03-30T12:20:20Z</time>
      </trkpt>
      <trkpt lat="62.624585327472" lon="17.946105719378">
        <ele>0</ele>
        <time>2018-03-30T12:20:21Z</time>
      </trkpt>
      <trkpt lat="62.624562277247" lon="17.946127260861">
        <ele>0</ele>
        <time>2018-03-30T12:20:22Z</time>
      </trkpt>
      <trkpt lat="62.624530426027" lon="17.946139414616">
        <ele>0</ele>
        <time>2018-03-30T12:20:23Z</time>
      </trkpt>
      <trkpt lat="62.624502011386" lon="17.946137235322">
        <ele>0</ele>
        <time>2018-03-30T12:20:24Z</time>
      </trkpt>
      <trkpt lat="62.624478625885" lon="17.946132122363">
        <ele>0</ele>
        <time>2018-03-30T12:20:25Z</time>
      </trkpt>
      <trkpt lat="62.624446690846" lon="17.94611644821">
        <ele>0</ele>
        <time>2018-03-30T12:20:26Z</time>
      </trkpt>
      <trkpt lat="62.624417438015" lon="17.946100103505">
        <ele>0</ele>
        <time>2018-03-30T12:20:27Z</time>
      </trkpt>
      <trkpt lat="62.624406876821" lon="17.946051404666">
        <ele>0</ele>
        <time>2018-03-30T12:20:28Z</time>
      </trkpt>
      <trkpt lat="62.62439271141" lon="17.946004214569">
        <ele>0</ele>
        <time>2018-03-30T12:20:29Z</time>
      </trkpt>
      <trkpt lat="62.624377875447" lon="17.945954342264">
        <ele>0</ele>
        <time>2018-03-30T12:20:30Z</time>
      </trkpt>
      <trkpt lat="62.624367649529" lon="17.945905643425">
        <ele>0</ele>
        <time>2018-03-30T12:20:31Z</time>
      </trkpt>
      <trkpt lat="62.624355998688" lon="17.945856022577">
        <ele>0</ele>
        <time>2018-03-30T12:20:32Z</time>
      </trkpt>
      <trkpt lat="62.624345186037" lon="17.945799444752">
        <ele>0</ele>
        <time>2018-03-30T12:20:33Z</time>
      </trkpt>
      <trkpt lat="62.624333367558" lon="17.945746722601">
        <ele>0</ele>
        <time>2018-03-30T12:20:34Z</time>
      </trkpt>
      <trkpt lat="62.624323309278" lon="17.945692156432">
        <ele>0</ele>
        <time>2018-03-30T12:20:35Z</time>
      </trkpt>
      <trkpt lat="62.624310484971" lon="17.945640859204">
        <ele>0</ele>
        <time>2018-03-30T12:20:36Z</time>
      </trkpt>
      <trkpt lat="62.624299839958" lon="17.94559090308">
        <ele>0</ele>
        <time>2018-03-30T12:20:37Z</time>
      </trkpt>
      <trkpt lat="62.624286680375" lon="17.945540360223">
        <ele>0</ele>
        <time>2018-03-30T12:20:38Z</time>
      </trkpt>
      <trkpt lat="62.624275616267" lon="17.945486883701">
        <ele>0</ele>
        <time>2018-03-30T12:20:39Z</time>
      </trkpt>
      <trkpt lat="62.624263881607" lon="17.945442962545">
        <ele>0</ele>
        <time>2018-03-30T12:20:40Z</time>
      </trkpt>
      <trkpt lat="62.624250386748" lon="17.945388396376">
        <ele>0</ele>
        <time>2018-03-30T12:20:41Z</time>
      </trkpt>
      <trkpt lat="62.624241669572" lon="17.945347492704">
        <ele>0</ele>
        <time>2018-03-30T12:20:42Z</time>
      </trkpt>
      <trkpt lat="62.624230018731" lon="17.945292172164">
        <ele>0</ele>
        <time>2018-03-30T12:20:43Z</time>
      </trkpt>
      <trkpt lat="62.624217948795" lon="17.945243724782">
        <ele>0</ele>
        <time>2018-03-30T12:20:44Z</time>
      </trkpt>
      <trkpt lat="62.624206381773" lon="17.94520282111">
        <ele>0</ele>
        <time>2018-03-30T12:20:45Z</time>
      </trkpt>
      <trkpt lat="62.624195652941" lon="17.945144566905">
        <ele>0</ele>
        <time>2018-03-30T12:20:46Z</time>
      </trkpt>
      <trkpt lat="62.624182912453" lon="17.945102405948">
        <ele>0</ele>
        <time>2018-03-30T12:20:47Z</time>
      </trkpt>
      <trkpt lat="62.624171010155" lon="17.945037110947">
        <ele>0</ele>
        <time>2018-03-30T12:20:48Z</time>
      </trkpt>
      <trkpt lat="62.624160113685" lon="17.9449857299">
        <ele>0</ele>
        <time>2018-03-30T12:20:49Z</time>
      </trkpt>
      <trkpt lat="62.62414628355" lon="17.944932001921">
        <ele>0</ele>
        <time>2018-03-30T12:20:50Z</time>
      </trkpt>
      <trkpt lat="62.624135219442" lon="17.944877687209">
        <ele>0</ele>
        <time>2018-03-30T12:20:51Z</time>
      </trkpt>
      <trkpt lat="62.624122478954" lon="17.944830078017">
        <ele>0</ele>
        <time>2018-03-30T12:20:52Z</time>
      </trkpt>
      <trkpt lat="62.624109151733" lon="17.944773751649">
        <ele>0</ele>
        <time>2018-03-30T12:20:53Z</time>
      </trkpt>
      <trkpt lat="62.62409683034" lon="17.94472840557">
        <ele>0</ele>
        <time>2018-03-30T12:20:54Z</time>
      </trkpt>
      <trkpt lat="62.624086352965" lon="17.944681718387">
        <ele>0</ele>
        <time>2018-03-30T12:20:55Z</time>
      </trkpt>
      <trkpt lat="62.624072271373" lon="17.944621033431">
        <ele>0</ele>
        <time>2018-03-30T12:20:56Z</time>
      </trkpt>
      <trkpt lat="62.6240582736" lon="17.944567556909">
        <ele>0</ele>
        <time>2018-03-30T12:20:57Z</time>
      </trkpt>
      <trkpt lat="62.624046874216" lon="17.944509470342">
        <ele>0</ele>
        <time>2018-03-30T12:20:58Z</time>
      </trkpt>
      <trkpt lat="62.62403564247" lon="17.944458424571">
        <ele>0</ele>
        <time>2018-03-30T12:20:59Z</time>
      </trkpt>
      <trkpt lat="62.624024829819" lon="17.944402936393">
        <ele>0</ele>
        <time>2018-03-30T12:21:00Z</time>
      </trkpt>
      <trkpt lat="62.624014017168" lon="17.944354908106">
        <ele>0</ele>
        <time>2018-03-30T12:21:01Z</time>
      </trkpt>
      <trkpt lat="62.624004797078" lon="17.944318446841">
        <ele>0</ele>
        <time>2018-03-30T12:21:02Z</time>
      </trkpt>
      <trkpt lat="62.623991972771" lon="17.944253235659">
        <ele>0</ele>
        <time>2018-03-30T12:21:03Z</time>
      </trkpt>
      <trkpt lat="62.623979651378" lon="17.944200932603">
        <ele>0</ele>
        <time>2018-03-30T12:21:04Z</time>
      </trkpt>
      <trkpt lat="62.62396774908" lon="17.944150725022">
        <ele>0</ele>
        <time>2018-03-30T12:21:05Z</time>
      </trkpt>
      <trkpt lat="62.623955846782" lon="17.944095739758">
        <ele>0</ele>
        <time>2018-03-30T12:21:06Z</time>
      </trkpt>
      <trkpt lat="62.623944698855" lon="17.944047962928">
        <ele>0</ele>
        <time>2018-03-30T12:21:07Z</time>
      </trkpt>
      <trkpt lat="62.623929779073" lon="17.943990211637">
        <ele>0</ele>
        <time>2018-03-30T12:21:08Z</time>
      </trkpt>
      <trkpt lat="62.6239157813" lon="17.943940087875">
        <ele>0</ele>
        <time>2018-03-30T12:21:09Z</time>
      </trkpt>
      <trkpt lat="62.623903711364" lon="17.94388602462">
        <ele>0</ele>
        <time>2018-03-30T12:21:10Z</time>
      </trkpt>
      <trkpt lat="62.623891222333" lon="17.943828021872">
        <ele>0</ele>
        <time>2018-03-30T12:21:11Z</time>
      </trkpt>
      <trkpt lat="62.623880996415" lon="17.943776305549">
        <ele>0</ele>
        <time>2018-03-30T12:21:12Z</time>
      </trkpt>
      <trkpt lat="62.623866914823" lon="17.94371922481">
        <ele>0</ele>
        <time>2018-03-30T12:21:13Z</time>
      </trkpt>
      <trkpt lat="62.623853168507" lon="17.943663485175">
        <ele>0</ele>
        <time>2018-03-30T12:21:14Z</time>
      </trkpt>
      <trkpt lat="62.623840008924" lon="17.943603386952">
        <ele>0</ele>
        <time>2018-03-30T12:21:15Z</time>
      </trkpt>
      <trkpt lat="62.623827268436" lon="17.943552089724">
        <ele>0</ele>
        <time>2018-03-30T12:21:16Z</time>
      </trkpt>
      <trkpt lat="62.62381771307" lon="17.943496685365">
        <ele>0</ele>
        <time>2018-03-30T12:21:17Z</time>
      </trkpt>
      <trkpt lat="62.623803296202" lon="17.943444466128">
        <ele>0</ele>
        <time>2018-03-30T12:21:18Z</time>
      </trkpt>
      <trkpt lat="62.623794076112" lon="17.943401131705">
        <ele>0</ele>
        <time>2018-03-30T12:21:19Z</time>
      </trkpt>
      <trkpt lat="62.62378334728" lon="17.943346733174">
        <ele>0</ele>
        <time>2018-03-30T12:21:20Z</time>
      </trkpt>
      <trkpt lat="62.623774630104" lon="17.943296525593">
        <ele>0</ele>
        <time>2018-03-30T12:21:21Z</time>
      </trkpt>
      <trkpt lat="62.623767254032" lon="17.943253107351">
        <ele>0</ele>
        <time>2018-03-30T12:21:22Z</time>
      </trkpt>
      <trkpt lat="62.623749903499" lon="17.94319619425">
        <ele>0</ele>
        <time>2018-03-30T12:21:23Z</time>
      </trkpt>
      <trkpt lat="62.623736492459" lon="17.943139951701">
        <ele>0</ele>
        <time>2018-03-30T12:21:24Z</time>
      </trkpt>
      <trkpt lat="62.623726937093" lon="17.94308806774">
        <ele>0</ele>
        <time>2018-03-30T12:21:25Z</time>
      </trkpt>
      <trkpt lat="62.623713274596" lon="17.94303023263">
        <ele>0</ele>
        <time>2018-03-30T12:21:26Z</time>
      </trkpt>
      <trkpt lat="62.623697265167" lon="17.942975247366">
        <ele>0</ele>
        <time>2018-03-30T12:21:27Z</time>
      </trkpt>
      <trkpt lat="62.623690056733" lon="17.942919675369">
        <ele>0</ele>
        <time>2018-03-30T12:21:28Z</time>
      </trkpt>
      <trkpt lat="62.623678489711" lon="17.942862007897">
        <ele>0</ele>
        <time>2018-03-30T12:21:29Z</time>
      </trkpt>
      <trkpt lat="62.623664827214" lon="17.942808699013">
        <ele>0</ele>
        <time>2018-03-30T12:21:30Z</time>
      </trkpt>
      <trkpt lat="62.623652673459" lon="17.94275027717">
        <ele>0</ele>
        <time>2018-03-30T12:21:31Z</time>
      </trkpt>
      <trkpt lat="62.623643788645" lon="17.942691771508">
        <ele>0</ele>
        <time>2018-03-30T12:21:32Z</time>
      </trkpt>
      <trkpt lat="62.623630545243" lon="17.942642318298">
        <ele>0</ele>
        <time>2018-03-30T12:21:33Z</time>
      </trkpt>
      <trkpt lat="62.623619564954" lon="17.94259353564">
        <ele>0</ele>
        <time>2018-03-30T12:21:34Z</time>
      </trkpt>
      <trkpt lat="62.623607495018" lon="17.942536371082">
        <ele>0</ele>
        <time>2018-03-30T12:21:35Z</time>
      </trkpt>
      <trkpt lat="62.623592407598" lon="17.942485660587">
        <ele>0</ele>
        <time>2018-03-30T12:21:36Z</time>
      </trkpt>
      <trkpt lat="62.623580253843" lon="17.942434195721">
        <ele>0</ele>
        <time>2018-03-30T12:21:37Z</time>
      </trkpt>
      <trkpt lat="62.62356457969" lon="17.942376276792">
        <ele>0</ele>
        <time>2018-03-30T12:21:38Z</time>
      </trkpt>
      <trkpt lat="62.623550079003" lon="17.942323470822">
        <ele>0</ele>
        <time>2018-03-30T12:21:39Z</time>
      </trkpt>
      <trkpt lat="62.623534069574" lon="17.942272676508">
        <ele>0</ele>
        <time>2018-03-30T12:21:40Z</time>
      </trkpt>
      <trkpt lat="62.623517557231" lon="17.942221127823">
        <ele>0</ele>
        <time>2018-03-30T12:21:41Z</time>
      </trkpt>
      <trkpt lat="62.62349836268" lon="17.942171842251">
        <ele>0</ele>
        <time>2018-03-30T12:21:42Z</time>
      </trkpt>
      <trkpt lat="62.623476821197" lon="17.942116521711">
        <ele>0</ele>
        <time>2018-03-30T12:21:43Z</time>
      </trkpt>
      <trkpt lat="62.623457459008" lon="17.942067236139">
        <ele>0</ele>
        <time>2018-03-30T12:21:44Z</time>
      </trkpt>
      <trkpt lat="62.623441030484" lon="17.94201769911">
        <ele>0</ele>
        <time>2018-03-30T12:21:45Z</time>
      </trkpt>
      <trkpt lat="62.623424434322" lon="17.941960366914">
        <ele>0</ele>
        <time>2018-03-30T12:21:46Z</time>
      </trkpt>
      <trkpt lat="62.623408005798" lon="17.941903789089">
        <ele>0</ele>
        <time>2018-03-30T12:21:47Z</time>
      </trkpt>
      <trkpt lat="62.623390403808" lon="17.941853497689">
        <ele>0</ele>
        <time>2018-03-30T12:21:48Z</time>
      </trkpt>
      <trkpt lat="62.623375064931" lon="17.941805050307">
        <ele>0</ele>
        <time>2018-03-30T12:21:49Z</time>
      </trkpt>
      <trkpt lat="62.623357043846" lon="17.941753920717">
        <ele>0</ele>
        <time>2018-03-30T12:21:50Z</time>
      </trkpt>
      <trkpt lat="62.62334162115" lon="17.941703713136">
        <ele>0</ele>
        <time>2018-03-30T12:21:51Z</time>
      </trkpt>
      <trkpt lat="62.623324773531" lon="17.94165643922">
        <ele>0</ele>
        <time>2018-03-30T12:21:52Z</time>
      </trkpt>
      <trkpt lat="62.623306836265" lon="17.941602962698">
        <ele>0</ele>
        <time>2018-03-30T12:21:53Z</time>
      </trkpt>
      <trkpt lat="62.623287809352" lon="17.941558203352">
        <ele>0</ele>
        <time>2018-03-30T12:21:54Z</time>
      </trkpt>
      <trkpt lat="62.623270794095" lon="17.941512102902">
        <ele>0</ele>
        <time>2018-03-30T12:21:55Z</time>
      </trkpt>
      <trkpt lat="62.623252605372" lon="17.941463739339">
        <ele>0</ele>
        <time>2018-03-30T12:21:56Z</time>
      </trkpt>
      <trkpt lat="62.623234584287" lon="17.941420991649">
        <ele>0</ele>
        <time>2018-03-30T12:21:57Z</time>
      </trkpt>
      <trkpt lat="62.623217485211" lon="17.941364413824">
        <ele>0</ele>
        <time>2018-03-30T12:21:58Z</time>
      </trkpt>
      <trkpt lat="62.623200637592" lon="17.941315631166">
        <ele>0</ele>
        <time>2018-03-30T12:21:59Z</time>
      </trkpt>
      <trkpt lat="62.623183873792" lon="17.941265926499">
        <ele>0</ele>
        <time>2018-03-30T12:22:00Z</time>
      </trkpt>
      <trkpt lat="62.623169205467" lon="17.941215132185">
        <ele>0</ele>
        <time>2018-03-30T12:22:01Z</time>
      </trkpt>
      <trkpt lat="62.623157051712" lon="17.941168193545">
        <ele>0</ele>
        <time>2018-03-30T12:22:02Z</time>
      </trkpt>
      <trkpt lat="62.623134672039" lon="17.941115471394">
        <ele>0</ele>
        <time>2018-03-30T12:22:03Z</time>
      </trkpt>
      <trkpt lat="62.623114555479" lon="17.941067024012">
        <ele>0</ele>
        <time>2018-03-30T12:22:04Z</time>
      </trkpt>
      <trkpt lat="62.623095863842" lon="17.941018408992">
        <ele>0</ele>
        <time>2018-03-30T12:22:05Z</time>
      </trkpt>
      <trkpt lat="62.623078764766" lon="17.940968201411">
        <ele>0</ele>
        <time>2018-03-30T12:22:06Z</time>
      </trkpt>
      <trkpt lat="62.623063677346" lon="17.940923442065">
        <ele>0</ele>
        <time>2018-03-30T12:22:07Z</time>
      </trkpt>
      <trkpt lat="62.623044734252" lon="17.940870300819">
        <ele>0</ele>
        <time>2018-03-30T12:22:08Z</time>
      </trkpt>
      <trkpt lat="62.623030149746" lon="17.940825876749">
        <ele>0</ele>
        <time>2018-03-30T12:22:09Z</time>
      </trkpt>
      <trkpt lat="62.62301221248" lon="17.940770388571">
        <ele>0</ele>
        <time>2018-03-30T12:22:10Z</time>
      </trkpt>
      <trkpt lat="62.622995364861" lon="17.940718085515">
        <ele>0</ele>
        <time>2018-03-30T12:22:11Z</time>
      </trkpt>
      <trkpt lat="62.622981450907" lon="17.940670141047">
        <ele>0</ele>
        <time>2018-03-30T12:22:12Z</time>
      </trkpt>
      <trkpt lat="62.622965357659" lon="17.940616748344">
        <ele>0</ele>
        <time>2018-03-30T12:22:13Z</time>
      </trkpt>
      <trkpt lat="62.622949432049" lon="17.940564110012">
        <ele>0</ele>
        <time>2018-03-30T12:22:14Z</time>
      </trkpt>
      <trkpt lat="62.622932919706" lon="17.94050811892">
        <ele>0</ele>
        <time>2018-03-30T12:22:15Z</time>
      </trkpt>
      <trkpt lat="62.622917999924" lon="17.940463359574">
        <ele>0</ele>
        <time>2018-03-30T12:22:16Z</time>
      </trkpt>
      <trkpt lat="62.622904253608" lon="17.940407703758">
        <ele>0</ele>
        <time>2018-03-30T12:22:17Z</time>
      </trkpt>
      <trkpt lat="62.622881035745" lon="17.94035305377">
        <ele>0</ele>
        <time>2018-03-30T12:22:18Z</time>
      </trkpt>
      <trkpt lat="62.622864271945" lon="17.940299744886">
        <ele>0</ele>
        <time>2018-03-30T12:22:19Z</time>
      </trkpt>
      <trkpt lat="62.622846167041" lon="17.940248615296">
        <ele>0</ele>
        <time>2018-03-30T12:22:20Z</time>
      </trkpt>
      <trkpt lat="62.622828984146" lon="17.940197653344">
        <ele>0</ele>
        <time>2018-03-30T12:22:21Z</time>
      </trkpt>
      <trkpt lat="62.622811549794" lon="17.940142751899">
        <ele>0</ele>
        <time>2018-03-30T12:22:22Z</time>
      </trkpt>
      <trkpt lat="62.622798138754" lon="17.94008650935">
        <ele>0</ele>
        <time>2018-03-30T12:22:23Z</time>
      </trkpt>
      <trkpt lat="62.622782967515" lon="17.940035212122">
        <ele>0</ele>
        <time>2018-03-30T12:22:24Z</time>
      </trkpt>
      <trkpt lat="62.622769305018" lon="17.939978466659">
        <ele>0</ele>
        <time>2018-03-30T12:22:25Z</time>
      </trkpt>
      <trkpt lat="62.622753547046" lon="17.939921637377">
        <ele>0</ele>
        <time>2018-03-30T12:22:26Z</time>
      </trkpt>
      <trkpt lat="62.622738208169" lon="17.939874112004">
        <ele>0</ele>
        <time>2018-03-30T12:22:27Z</time>
      </trkpt>
      <trkpt lat="62.622726473509" lon="17.939800518922">
        <ele>0</ele>
        <time>2018-03-30T12:22:28Z</time>
      </trkpt>
      <trkpt lat="62.62271214046" lon="17.939740755975">
        <ele>0</ele>
        <time>2018-03-30T12:22:29Z</time>
      </trkpt>
      <trkpt lat="62.622697388316" lon="17.9396799872">
        <ele>0</ele>
        <time>2018-03-30T12:22:30Z</time>
      </trkpt>
      <trkpt lat="62.622683558181" lon="17.939622822642">
        <ele>0</ele>
        <time>2018-03-30T12:22:31Z</time>
      </trkpt>
      <trkpt lat="62.62267190734" lon="17.939572950337">
        <ele>0</ele>
        <time>2018-03-30T12:22:32Z</time>
      </trkpt>
      <trkpt lat="62.622653383341" lon="17.939506398051">
        <ele>0</ele>
        <time>2018-03-30T12:22:33Z</time>
      </trkpt>
      <trkpt lat="62.62263837974" lon="17.939442192697">
        <ele>0</ele>
        <time>2018-03-30T12:22:34Z</time>
      </trkpt>
      <trkpt lat="62.622622035035" lon="17.939387291252">
        <ele>0</ele>
        <time>2018-03-30T12:22:35Z</time>
      </trkpt>
      <trkpt lat="62.622606696158" lon="17.939328701771">
        <ele>0</ele>
        <time>2018-03-30T12:22:36Z</time>
      </trkpt>
      <trkpt lat="62.622589513263" lon="17.939272543041">
        <ele>0</ele>
        <time>2018-03-30T12:22:37Z</time>
      </trkpt>
      <trkpt lat="62.622572498006" lon="17.939210768438">
        <ele>0</ele>
        <time>2018-03-30T12:22:38Z</time>
      </trkpt>
      <trkpt lat="62.622558248776" lon="17.939149580568">
        <ele>0</ele>
        <time>2018-03-30T12:22:39Z</time>
      </trkpt>
      <trkpt lat="62.622545508288" lon="17.939094595304">
        <ele>0</ele>
        <time>2018-03-30T12:22:40Z</time>
      </trkpt>
      <trkpt lat="62.622532935438" lon="17.939035251452">
        <ele>0</ele>
        <time>2018-03-30T12:22:41Z</time>
      </trkpt>
      <trkpt lat="62.622519189122" lon="17.93898261312">
        <ele>0</ele>
        <time>2018-03-30T12:22:42Z</time>
      </trkpt>
      <trkpt lat="62.622502676779" lon="17.938921928164">
        <ele>0</ele>
        <time>2018-03-30T12:22:43Z</time>
      </trkpt>
      <trkpt lat="62.622485661522" lon="17.938859985923">
        <ele>0</ele>
        <time>2018-03-30T12:22:44Z</time>
      </trkpt>
      <trkpt lat="62.622471077016" lon="17.938810365075">
        <ele>0</ele>
        <time>2018-03-30T12:22:45Z</time>
      </trkpt>
      <trkpt lat="62.62245313975" lon="17.93875546363">
        <ele>0</ele>
        <time>2018-03-30T12:22:46Z</time>
      </trkpt>
      <trkpt lat="62.622433777561" lon="17.938697460882">
        <ele>0</ele>
        <time>2018-03-30T12:22:47Z</time>
      </trkpt>
      <trkpt lat="62.622420282702" lon="17.93864985169">
        <ele>0</ele>
        <time>2018-03-30T12:22:48Z</time>
      </trkpt>
      <trkpt lat="62.622403937997" lon="17.938598303005">
        <ele>0</ele>
        <time>2018-03-30T12:22:49Z</time>
      </trkpt>
      <trkpt lat="62.622387928568" lon="17.938551112908">
        <ele>0</ele>
        <time>2018-03-30T12:22:50Z</time>
      </trkpt>
      <trkpt lat="62.62237183532" lon="17.938502581707">
        <ele>0</ele>
        <time>2018-03-30T12:22:51Z</time>
      </trkpt>
      <trkpt lat="62.622356580262" lon="17.938452290307">
        <ele>0</ele>
        <time>2018-03-30T12:22:52Z</time>
      </trkpt>
      <trkpt lat="62.62233830772" lon="17.938399065242">
        <ele>0</ele>
        <time>2018-03-30T12:22:53Z</time>
      </trkpt>
      <trkpt lat="62.622321795377" lon="17.938352545697">
        <ele>0</ele>
        <time>2018-03-30T12:22:54Z</time>
      </trkpt>
      <trkpt lat="62.622304193387" lon="17.938301583745">
        <ele>0</ele>
        <time>2018-03-30T12:22:55Z</time>
      </trkpt>
      <trkpt lat="62.622287345768" lon="17.938251208526">
        <ele>0</ele>
        <time>2018-03-30T12:22:56Z</time>
      </trkpt>
      <trkpt lat="62.622269827597" lon="17.938199911298">
        <ele>0</ele>
        <time>2018-03-30T12:22:57Z</time>
      </trkpt>
      <trkpt lat="62.622254572539" lon="17.938153894667">
        <ele>0</ele>
        <time>2018-03-30T12:22:58Z</time>
      </trkpt>
      <trkpt lat="62.622238144015" lon="17.938106453113">
        <ele>0</ele>
        <time>2018-03-30T12:22:59Z</time>
      </trkpt>
      <trkpt lat="62.622222134586" lon="17.938054150057">
        <ele>0</ele>
        <time>2018-03-30T12:23:00Z</time>
      </trkpt>
      <trkpt lat="62.622206041338" lon="17.938005032123">
        <ele>0</ele>
        <time>2018-03-30T12:23:01Z</time>
      </trkpt>
      <trkpt lat="62.622191456832" lon="17.937962619709">
        <ele>0</ele>
        <time>2018-03-30T12:23:02Z</time>
      </trkpt>
      <trkpt lat="62.622172765195" lon="17.937897911441">
        <ele>0</ele>
        <time>2018-03-30T12:23:03Z</time>
      </trkpt>
      <trkpt lat="62.622158013051" lon="17.937843932005">
        <ele>0</ele>
        <time>2018-03-30T12:23:04Z</time>
      </trkpt>
      <trkpt lat="62.622142255079" lon="17.937798753564">
        <ele>0</ele>
        <time>2018-03-30T12:23:05Z</time>
      </trkpt>
      <trkpt lat="62.622127586754" lon="17.937750641458">
        <ele>0</ele>
        <time>2018-03-30T12:23:06Z</time>
      </trkpt>
      <trkpt lat="62.622112918429" lon="17.937704792465">
        <ele>0</ele>
        <time>2018-03-30T12:23:07Z</time>
      </trkpt>
      <trkpt lat="62.622097495733" lon="17.937653327599">
        <ele>0</ele>
        <time>2018-03-30T12:23:08Z</time>
      </trkpt>
      <trkpt lat="62.622082240675" lon="17.937596749774">
        <ele>0</ele>
        <time>2018-03-30T12:23:09Z</time>
      </trkpt>
      <trkpt lat="62.622067069436" lon="17.937558947405">
        <ele>0</ele>
        <time>2018-03-30T12:23:10Z</time>
      </trkpt>
      <trkpt lat="62.622049215989" lon="17.93751326605">
        <ele>0</ele>
        <time>2018-03-30T12:23:11Z</time>
      </trkpt>
      <trkpt lat="62.622035218216" lon="17.937465740677">
        <ele>0</ele>
        <time>2018-03-30T12:23:12Z</time>
      </trkpt>
      <trkpt lat="62.622017867683" lon="17.937409414309">
        <ele>0</ele>
        <time>2018-03-30T12:23:13Z</time>
      </trkpt>
      <trkpt lat="62.622004372824" lon="17.937352082113">
        <ele>0</ele>
        <time>2018-03-30T12:23:14Z</time>
      </trkpt>
      <trkpt lat="62.621990207413" lon="17.937303215636">
        <ele>0</ele>
        <time>2018-03-30T12:23:15Z</time>
      </trkpt>
      <trkpt lat="62.621975455269" lon="17.937249068562">
        <ele>0</ele>
        <time>2018-03-30T12:23:16Z</time>
      </trkpt>
      <trkpt lat="62.621962379505" lon="17.937191652547">
        <ele>0</ele>
        <time>2018-03-30T12:23:17Z</time>
      </trkpt>
      <trkpt lat="62.62194268204" lon="17.937147982848">
        <ele>0</ele>
        <time>2018-03-30T12:23:18Z</time>
      </trkpt>
      <trkpt lat="62.621925247688" lon="17.93710506752">
        <ele>0</ele>
        <time>2018-03-30T12:23:19Z</time>
      </trkpt>
      <trkpt lat="62.621909741173" lon="17.937057709785">
        <ele>0</ele>
        <time>2018-03-30T12:23:20Z</time>
      </trkpt>
      <trkpt lat="62.621894486115" lon="17.937008843308">
        <ele>0</ele>
        <time>2018-03-30T12:23:21Z</time>
      </trkpt>
      <trkpt lat="62.621878644324" lon="17.936965005971">
        <ele>0</ele>
        <time>2018-03-30T12:23:22Z</time>
      </trkpt>
      <trkpt lat="62.621865065646" lon="17.936900968255">
        <ele>0</ele>
        <time>2018-03-30T12:23:23Z</time>
      </trkpt>
      <trkpt lat="62.621853330986" lon="17.936849754846">
        <ele>0</ele>
        <time>2018-03-30T12:23:24Z</time>
      </trkpt>
      <trkpt lat="62.621840171403" lon="17.936795188677">
        <ele>0</ele>
        <time>2018-03-30T12:23:25Z</time>
      </trkpt>
      <trkpt lat="62.6218286882" lon="17.936746741295">
        <ele>0</ele>
        <time>2018-03-30T12:23:26Z</time>
      </trkpt>
      <trkpt lat="62.621819384291" lon="17.936699215922">
        <ele>0</ele>
        <time>2018-03-30T12:23:27Z</time>
      </trkpt>
      <trkpt lat="62.62180689526" lon="17.936643392468">
        <ele>0</ele>
        <time>2018-03-30T12:23:28Z</time>
      </trkpt>
      <trkpt lat="62.621793735677" lon="17.936588574842">
        <ele>0</ele>
        <time>2018-03-30T12:23:29Z</time>
      </trkpt>
      <trkpt lat="62.621781665741" lon="17.936535517415">
        <ele>0</ele>
        <time>2018-03-30T12:23:30Z</time>
      </trkpt>
      <trkpt lat="62.621769092891" lon="17.936480699789">
        <ele>0</ele>
        <time>2018-03-30T12:23:31Z</time>
      </trkpt>
      <trkpt lat="62.621755095118" lon="17.936423786688">
        <ele>0</ele>
        <time>2018-03-30T12:23:32Z</time>
      </trkpt>
      <trkpt lat="62.621743528096" lon="17.936379530256">
        <ele>0</ele>
        <time>2018-03-30T12:23:33Z</time>
      </trkpt>
      <trkpt lat="62.62173061997" lon="17.936324042078">
        <ele>0</ele>
        <time>2018-03-30T12:23:34Z</time>
      </trkpt>
      <trkpt lat="62.621718214758" lon="17.936269643547">
        <ele>0</ele>
        <time>2018-03-30T12:23:35Z</time>
      </trkpt>
      <trkpt lat="62.621705893365" lon="17.936213149541">
        <ele>0</ele>
        <time>2018-03-30T12:23:36Z</time>
      </trkpt>
      <trkpt lat="62.621693991067" lon="17.936166965272">
        <ele>0</ele>
        <time>2018-03-30T12:23:37Z</time>
      </trkpt>
      <trkpt lat="62.621680580027" lon="17.9361092978">
        <ele>0</ele>
        <time>2018-03-30T12:23:38Z</time>
      </trkpt>
      <trkpt lat="62.621667839539" lon="17.936049702491">
        <ele>0</ele>
        <time>2018-03-30T12:23:39Z</time>
      </trkpt>
      <trkpt lat="62.621654931413" lon="17.936001422747">
        <ele>0</ele>
        <time>2018-03-30T12:23:40Z</time>
      </trkpt>
      <trkpt lat="62.621641436554" lon="17.935943503818">
        <ele>0</ele>
        <time>2018-03-30T12:23:41Z</time>
      </trkpt>
      <trkpt lat="62.621627606419" lon="17.935880639568">
        <ele>0</ele>
        <time>2018-03-30T12:23:42Z</time>
      </trkpt>
      <trkpt lat="62.621608076592" lon="17.935844010665">
        <ele>0</ele>
        <time>2018-03-30T12:23:43Z</time>
      </trkpt>
      <trkpt lat="62.621589468774" lon="17.935792713437">
        <ele>0</ele>
        <time>2018-03-30T12:23:44Z</time>
      </trkpt>
      <trkpt lat="62.621572118241" lon="17.935754324335">
        <ele>0</ele>
        <time>2018-03-30T12:23:45Z</time>
      </trkpt>
      <trkpt lat="62.621552420776" lon="17.935708056247">
        <ele>0</ele>
        <time>2018-03-30T12:23:46Z</time>
      </trkpt>
      <trkpt lat="62.621532471854" lon="17.935656759019">
        <ele>0</ele>
        <time>2018-03-30T12:23:47Z</time>
      </trkpt>
      <trkpt lat="62.621510176" lon="17.935617783184">
        <ele>0</ele>
        <time>2018-03-30T12:23:48Z</time>
      </trkpt>
      <trkpt lat="62.621489388888" lon="17.935576041322">
        <ele>0</ele>
        <time>2018-03-30T12:23:49Z</time>
      </trkpt>
      <trkpt lat="62.621468685595" lon="17.935536646392">
        <ele>0</ele>
        <time>2018-03-30T12:23:50Z</time>
      </trkpt>
      <trkpt lat="62.621448569035" lon="17.935499263118">
        <ele>0</ele>
        <time>2018-03-30T12:23:51Z</time>
      </trkpt>
      <trkpt lat="62.621425686448" lon="17.935457856532">
        <ele>0</ele>
        <time>2018-03-30T12:23:52Z</time>
      </trkpt>
      <trkpt lat="62.621398864368" lon="17.935429860986">
        <ele>0</ele>
        <time>2018-03-30T12:23:53Z</time>
      </trkpt>
      <trkpt lat="62.621375059772" lon="17.935397171576">
        <ele>0</ele>
        <time>2018-03-30T12:23:54Z</time>
      </trkpt>
      <trkpt lat="62.621351255176" lon="17.935363979252">
        <ele>0</ele>
        <time>2018-03-30T12:23:55Z</time>
      </trkpt>
      <trkpt lat="62.621325187467" lon="17.935337660086">
        <ele>0</ele>
        <time>2018-03-30T12:23:56Z</time>
      </trkpt>
      <trkpt lat="62.621295347903" lon="17.935312765843">
        <ele>0</ele>
        <time>2018-03-30T12:23:57Z</time>
      </trkpt>
      <trkpt lat="62.621276740085" lon="17.935285524668">
        <ele>0</ele>
        <time>2018-03-30T12:23:58Z</time>
      </trkpt>
      <trkpt lat="62.621252097299" lon="17.935263312633">
        <ele>0</ele>
        <time>2018-03-30T12:23:59Z</time>
      </trkpt>
      <trkpt lat="62.621226281047" lon="17.935239088942">
        <ele>0</ele>
        <time>2018-03-30T12:24:00Z</time>
      </trkpt>
      <trkpt lat="62.621202392632" lon="17.935208075912">
        <ele>0</ele>
        <time>2018-03-30T12:24:01Z</time>
      </trkpt>
      <trkpt lat="62.62117909095" lon="17.935182092022">
        <ele>0</ele>
        <time>2018-03-30T12:24:02Z</time>
      </trkpt>
      <trkpt lat="62.621154448164" lon="17.935149486431">
        <ele>0</ele>
        <time>2018-03-30T12:24:03Z</time>
      </trkpt>
      <trkpt lat="62.62113047593" lon="17.935115623555">
        <ele>0</ele>
        <time>2018-03-30T12:24:04Z</time>
      </trkpt>
      <trkpt lat="62.621108096257" lon="17.93508419143">
        <ele>0</ele>
        <time>2018-03-30T12:24:05Z</time>
      </trkpt>
      <trkpt lat="62.621083285833" lon="17.935045886147">
        <ele>0</ele>
        <time>2018-03-30T12:24:06Z</time>
      </trkpt>
      <trkpt lat="62.621062498721" lon="17.935020069895">
        <ele>0</ele>
        <time>2018-03-30T12:24:07Z</time>
      </trkpt>
      <trkpt lat="62.621038191211" lon="17.934987212847">
        <ele>0</ele>
        <time>2018-03-30T12:24:08Z</time>
      </trkpt>
      <trkpt lat="62.621013464606" lon="17.934949661935">
        <ele>0</ele>
        <time>2018-03-30T12:24:09Z</time>
      </trkpt>
      <trkpt lat="62.620990246743" lon="17.934917223982">
        <ele>0</ele>
        <time>2018-03-30T12:24:10Z</time>
      </trkpt>
      <trkpt lat="62.62096786707" lon="17.934871207351">
        <ele>0</ele>
        <time>2018-03-30T12:24:11Z</time>
      </trkpt>
      <trkpt lat="62.620947582872" lon="17.934842625072">
        <ele>0</ele>
        <time>2018-03-30T12:24:12Z</time>
      </trkpt>
      <trkpt lat="62.620921263706" lon="17.934805828531">
        <ele>0</ele>
        <time>2018-03-30T12:24:13Z</time>
      </trkpt>
      <trkpt lat="62.62089410635" lon="17.934762829384">
        <ele>0</ele>
        <time>2018-03-30T12:24:14Z</time>
      </trkpt>
      <trkpt lat="62.62086812246" lon="17.934723685911">
        <ele>0</ele>
        <time>2018-03-30T12:24:15Z</time>
      </trkpt>
      <trkpt lat="62.620850269013" lon="17.934694097804">
        <ele>0</ele>
        <time>2018-03-30T12:24:16Z</time>
      </trkpt>
      <trkpt lat="62.620829817177" lon="17.934664509697">
        <ele>0</ele>
        <time>2018-03-30T12:24:17Z</time>
      </trkpt>
      <trkpt lat="62.620807018409" lon="17.934633664305">
        <ele>0</ele>
        <time>2018-03-30T12:24:18Z</time>
      </trkpt>
      <trkpt lat="62.620781285976" lon="17.934603238008">
        <ele>0</ele>
        <time>2018-03-30T12:24:19Z</time>
      </trkpt>
      <trkpt lat="62.620757900475" lon="17.934574739548">
        <ele>0</ele>
        <time>2018-03-30T12:24:20Z</time>
      </trkpt>
      <trkpt lat="62.620734179698" lon="17.934542553052">
        <ele>0</ele>
        <time>2018-03-30T12:24:21Z</time>
      </trkpt>
      <trkpt lat="62.620710961835" lon="17.934511120927">
        <ele>0</ele>
        <time>2018-03-30T12:24:22Z</time>
      </trkpt>
      <trkpt lat="62.620692186379" lon="17.934483963571">
        <ele>0</ele>
        <time>2018-03-30T12:24:23Z</time>
      </trkpt>
      <trkpt lat="62.620673159466" lon="17.934456890034">
        <ele>0</ele>
        <time>2018-03-30T12:24:24Z</time>
      </trkpt>
      <trkpt lat="62.620651701802" lon="17.9344245359">
        <ele>0</ele>
        <time>2018-03-30T12:24:25Z</time>
      </trkpt>
      <trkpt lat="62.62062923831" lon="17.934393355232">
        <ele>0</ele>
        <time>2018-03-30T12:24:26Z</time>
      </trkpt>
      <trkpt lat="62.620608032103" lon="17.934366365514">
        <ele>0</ele>
        <time>2018-03-30T12:24:27Z</time>
      </trkpt>
      <trkpt lat="62.620589675742" lon="17.934340297805">
        <ele>0</ele>
        <time>2018-03-30T12:24:28Z</time>
      </trkpt>
      <trkpt lat="62.620568637173" lon="17.934315319743">
        <ele>0</ele>
        <time>2018-03-30T12:24:29Z</time>
      </trkpt>
      <trkpt lat="62.620547682423" lon="17.934288665301">
        <ele>0</ele>
        <time>2018-03-30T12:24:30Z</time>
      </trkpt>
      <trkpt lat="62.620523542551" lon="17.934260418298">
        <ele>0</ele>
        <time>2018-03-30T12:24:31Z</time>
      </trkpt>
      <trkpt lat="62.620506275837" lon="17.934240469376">
        <ele>0</ele>
        <time>2018-03-30T12:24:32Z</time>
      </trkpt>
      <trkpt lat="62.620483477069" lon="17.93420912107">
        <ele>0</ele>
        <time>2018-03-30T12:24:33Z</time>
      </trkpt>
      <trkpt lat="62.620462187043" lon="17.93418062261">
        <ele>0</ele>
        <time>2018-03-30T12:24:34Z</time>
      </trkpt>
      <trkpt lat="62.620441232293" lon="17.934151453598">
        <ele>0</ele>
        <time>2018-03-30T12:24:35Z</time>
      </trkpt>
      <trkpt lat="62.620420864276" lon="17.934123206595">
        <ele>0</ele>
        <time>2018-03-30T12:24:36Z</time>
      </trkpt>
      <trkpt lat="62.620404854847" lon="17.934100743103">
        <ele>0</ele>
        <time>2018-03-30T12:24:37Z</time>
      </trkpt>
      <trkpt lat="62.620384570649" lon="17.934068724245">
        <ele>0</ele>
        <time>2018-03-30T12:24:38Z</time>
      </trkpt>
      <trkpt lat="62.620362526252" lon="17.934033687903">
        <ele>0</ele>
        <time>2018-03-30T12:24:39Z</time>
      </trkpt>
      <trkpt lat="62.62034173914" lon="17.934009045117">
        <ele>0</ele>
        <time>2018-03-30T12:24:40Z</time>
      </trkpt>
      <trkpt lat="62.62032246077" lon="17.933980881933">
        <ele>0</ele>
        <time>2018-03-30T12:24:41Z</time>
      </trkpt>
      <trkpt lat="62.620302092753" lon="17.933956909699">
        <ele>0</ele>
        <time>2018-03-30T12:24:42Z</time>
      </trkpt>
      <trkpt lat="62.620281138003" lon="17.933929668524">
        <ele>0</ele>
        <time>2018-03-30T12:24:43Z</time>
      </trkpt>
      <trkpt lat="62.620258506873" lon="17.933901421521">
        <ele>0</ele>
        <time>2018-03-30T12:24:44Z</time>
      </trkpt>
      <trkpt lat="62.620239396141" lon="17.93387887421">
        <ele>0</ele>
        <time>2018-03-30T12:24:45Z</time>
      </trkpt>
      <trkpt lat="62.620216597373" lon="17.933850459569">
        <ele>0</ele>
        <time>2018-03-30T12:24:46Z</time>
      </trkpt>
      <trkpt lat="62.620195726442" lon="17.933824224222">
        <ele>0</ele>
        <time>2018-03-30T12:24:47Z</time>
      </trkpt>
      <trkpt lat="62.620174604054" lon="17.933796480133">
        <ele>0</ele>
        <time>2018-03-30T12:24:48Z</time>
      </trkpt>
      <trkpt lat="62.620152056743" lon="17.93376739494">
        <ele>0</ele>
        <time>2018-03-30T12:24:49Z</time>
      </trkpt>
      <trkpt lat="62.62013386802" lon="17.933744344715">
        <ele>0</ele>
        <time>2018-03-30T12:24:50Z</time>
      </trkpt>
      <trkpt lat="62.620111404528" lon="17.933714253694">
        <ele>0</ele>
        <time>2018-03-30T12:24:51Z</time>
      </trkpt>
      <trkpt lat="62.620085839733" lon="17.933680055542">
        <ele>0</ele>
        <time>2018-03-30T12:24:52Z</time>
      </trkpt>
      <trkpt lat="62.620067231915" lon="17.933657675869">
        <ele>0</ele>
        <time>2018-03-30T12:24:53Z</time>
      </trkpt>
      <trkpt lat="62.620045355156" lon="17.933628003943">
        <ele>0</ele>
        <time>2018-03-30T12:24:54Z</time>
      </trkpt>
      <trkpt lat="62.620023813673" lon="17.933598415836">
        <ele>0</ele>
        <time>2018-03-30T12:24:55Z</time>
      </trkpt>
      <trkpt lat="62.619999506163" lon="17.933564469141">
        <ele>0</ele>
        <time>2018-03-30T12:24:56Z</time>
      </trkpt>
      <trkpt lat="62.619972684083" lon="17.933526582953">
        <ele>0</ele>
        <time>2018-03-30T12:24:57Z</time>
      </trkpt>
      <trkpt lat="62.619957680482" lon="17.933499341778">
        <ele>0</ele>
        <time>2018-03-30T12:24:58Z</time>
      </trkpt>
      <trkpt lat="62.619934714076" lon="17.933463048151">
        <ele>0</ele>
        <time>2018-03-30T12:24:59Z</time>
      </trkpt>
      <trkpt lat="62.619912250584" lon="17.933429688189">
        <ele>0</ele>
        <time>2018-03-30T12:25:00Z</time>
      </trkpt>
      <trkpt lat="62.619890876739" lon="17.933396663503">
        <ele>0</ele>
        <time>2018-03-30T12:25:01Z</time>
      </trkpt>
      <trkpt lat="62.619869502894" lon="17.933365315197">
        <ele>0</ele>
        <time>2018-03-30T12:25:02Z</time>
      </trkpt>
      <trkpt lat="62.619845027746" lon="17.933331871416">
        <ele>0</ele>
        <time>2018-03-30T12:25:03Z</time>
      </trkpt>
      <trkpt lat="62.619825078824" lon="17.933304797879">
        <ele>0</ele>
        <time>2018-03-30T12:25:04Z</time>
      </trkpt>
      <trkpt lat="62.619803369703" lon="17.933273114297">
        <ele>0</ele>
        <time>2018-03-30T12:25:05Z</time>
      </trkpt>
      <trkpt lat="62.619780319478" lon="17.933242352724">
        <ele>0</ele>
        <time>2018-03-30T12:25:06Z</time>
      </trkpt>
      <trkpt lat="62.61976087347" lon="17.933218045214">
        <ele>0</ele>
        <time>2018-03-30T12:25:07Z</time>
      </trkpt>
      <trkpt lat="62.619736985055" lon="17.933186780727">
        <ele>0</ele>
        <time>2018-03-30T12:25:08Z</time>
      </trkpt>
      <trkpt lat="62.619709576242" lon="17.933151576747">
        <ele>0</ele>
        <time>2018-03-30T12:25:09Z</time>
      </trkpt>
      <trkpt lat="62.61969298008" lon="17.933128945617">
        <ele>0</ele>
        <time>2018-03-30T12:25:10Z</time>
      </trkpt>
      <trkpt lat="62.619671438597" lon="17.933097848768">
        <ele>0</ele>
        <time>2018-03-30T12:25:11Z</time>
      </trkpt>
      <trkpt lat="62.619654255702" lon="17.933073876534">
        <ele>0</ele>
        <time>2018-03-30T12:25:12Z</time>
      </trkpt>
      <trkpt lat="62.619630870201" lon="17.9330415224">
        <ele>0</ele>
        <time>2018-03-30T12:25:13Z</time>
      </trkpt>
      <trkpt lat="62.619607149424" lon="17.933010593189">
        <ele>0</ele>
        <time>2018-03-30T12:25:14Z</time>
      </trkpt>
      <trkpt lat="62.619588625425" lon="17.932983854928">
        <ele>0</ele>
        <time>2018-03-30T12:25:15Z</time>
      </trkpt>
      <trkpt lat="62.619565407562" lon="17.932951584613">
        <ele>0</ele>
        <time>2018-03-30T12:25:16Z</time>
      </trkpt>
      <trkpt lat="62.619542692613" lon="17.93292166123">
        <ele>0</ele>
        <time>2018-03-30T12:25:17Z</time>
      </trkpt>
      <trkpt lat="62.619518888017" lon="17.932889558553">
        <ele>0</ele>
        <time>2018-03-30T12:25:18Z</time>
      </trkpt>
      <trkpt lat="62.619495251059" lon="17.932857204419">
        <ele>0</ele>
        <time>2018-03-30T12:25:19Z</time>
      </trkpt>
      <trkpt lat="62.619475972689" lon="17.932831639624">
        <ele>0</ele>
        <time>2018-03-30T12:25:20Z</time>
      </trkpt>
      <trkpt lat="62.619452168093" lon="17.932799536947">
        <ele>0</ele>
        <time>2018-03-30T12:25:21Z</time>
      </trkpt>
      <trkpt lat="62.619428363497" lon="17.932769362107">
        <ele>0</ele>
        <time>2018-03-30T12:25:22Z</time>
      </trkpt>
      <trkpt lat="62.619404894177" lon="17.932738265258">
        <ele>0</ele>
        <time>2018-03-30T12:25:23Z</time>
      </trkpt>
      <trkpt lat="62.619382346866" lon="17.932707419866">
        <ele>0</ele>
        <time>2018-03-30T12:25:24Z</time>
      </trkpt>
      <trkpt lat="62.619360553926" lon="17.932676574474">
        <ele>0</ele>
        <time>2018-03-30T12:25:25Z</time>
      </trkpt>
      <trkpt lat="62.619334402398" lon="17.93264170577">
        <ele>0</ele>
        <time>2018-03-30T12:25:26Z</time>
      </trkpt>
      <trkpt lat="62.619304562834" lon="17.932605160686">
        <ele>0</ele>
        <time>2018-03-30T12:25:27Z</time>
      </trkpt>
      <trkpt lat="62.619282183161" lon="17.932573560923">
        <ele>0</ele>
        <time>2018-03-30T12:25:28Z</time>
      </trkpt>
      <trkpt lat="62.6192554449" lon="17.932537937848">
        <ele>0</ele>
        <time>2018-03-30T12:25:29Z</time>
      </trkpt>
      <trkpt lat="62.619233232865" lon="17.932507930646">
        <ele>0</ele>
        <time>2018-03-30T12:25:30Z</time>
      </trkpt>
      <trkpt lat="62.619208170984" lon="17.932474822141">
        <ele>0</ele>
        <time>2018-03-30T12:25:31Z</time>
      </trkpt>
      <trkpt lat="62.619186797139" lon="17.932446742776">
        <ele>0</ele>
        <time>2018-03-30T12:25:32Z</time>
      </trkpt>
      <trkpt lat="62.619165004199" lon="17.932410616787">
        <ele>0</ele>
        <time>2018-03-30T12:25:33Z</time>
      </trkpt>
      <trkpt lat="62.619145809648" lon="17.932379100843">
        <ele>0</ele>
        <time>2018-03-30T12:25:34Z</time>
      </trkpt>
      <trkpt lat="62.619120999224" lon="17.932343393949">
        <ele>0</ele>
        <time>2018-03-30T12:25:35Z</time>
      </trkpt>
      <trkpt lat="62.619094763877" lon="17.932311794186">
        <ele>0</ele>
        <time>2018-03-30T12:25:36Z</time>
      </trkpt>
      <trkpt lat="62.619071462195" lon="17.932283295726">
        <ele>0</ele>
        <time>2018-03-30T12:25:37Z</time>
      </trkpt>
      <trkpt lat="62.619044640115" lon="17.932249013755">
        <ele>0</ele>
        <time>2018-03-30T12:25:38Z</time>
      </trkpt>
      <trkpt lat="62.619017482759" lon="17.932216575802">
        <ele>0</ele>
        <time>2018-03-30T12:25:39Z</time>
      </trkpt>
      <trkpt lat="62.618993007611" lon="17.932186233324">
        <ele>0</ele>
        <time>2018-03-30T12:25:40Z</time>
      </trkpt>
      <trkpt lat="62.618966101712" lon="17.932152370448">
        <ele>0</ele>
        <time>2018-03-30T12:25:41Z</time>
      </trkpt>
      <trkpt lat="62.618944141134" lon="17.932123285255">
        <ele>0</ele>
        <time>2018-03-30T12:25:42Z</time>
      </trkpt>
      <trkpt lat="62.618915307398" lon="17.932086488714">
        <ele>0</ele>
        <time>2018-03-30T12:25:43Z</time>
      </trkpt>
      <trkpt lat="62.618890748431" lon="17.932055643322">
        <ele>0</ele>
        <time>2018-03-30T12:25:44Z</time>
      </trkpt>
      <trkpt lat="62.618864345446" lon="17.932022870093">
        <ele>0</ele>
        <time>2018-03-30T12:25:45Z</time>
      </trkpt>
      <trkpt lat="62.618836433719" lon="17.931992862891">
        <ele>0</ele>
        <time>2018-03-30T12:25:46Z</time>
      </trkpt>
      <trkpt lat="62.618810952743" lon="17.931962604232">
        <ele>0</ele>
        <time>2018-03-30T12:25:47Z</time>
      </trkpt>
      <trkpt lat="62.61878102936" lon="17.931925723872">
        <ele>0</ele>
        <time>2018-03-30T12:25:48Z</time>
      </trkpt>
      <trkpt lat="62.618754710194" lon="17.931895800489">
        <ele>0</ele>
        <time>2018-03-30T12:25:49Z</time>
      </trkpt>
      <trkpt lat="62.618727720476" lon="17.931863949269">
        <ele>0</ele>
        <time>2018-03-30T12:25:50Z</time>
      </trkpt>
      <trkpt lat="62.618700144025" lon="17.931825476348">
        <ele>0</ele>
        <time>2018-03-30T12:25:51Z</time>
      </trkpt>
      <trkpt lat="62.618675836515" lon="17.931789517997">
        <ele>0</ele>
        <time>2018-03-30T12:25:52Z</time>
      </trkpt>
      <trkpt lat="62.618652283376" lon="17.931755152207">
        <ele>0</ele>
        <time>2018-03-30T12:25:53Z</time>
      </trkpt>
      <trkpt lat="62.618630071341" lon="17.931728162489">
        <ele>0</ele>
        <time>2018-03-30T12:25:54Z</time>
      </trkpt>
      <trkpt lat="62.618607188754" lon="17.931708967938">
        <ele>0</ele>
        <time>2018-03-30T12:25:55Z</time>
      </trkpt>
      <trkpt lat="62.618581791597" lon="17.931685414799">
        <ele>0</ele>
        <time>2018-03-30T12:25:56Z</time>
      </trkpt>
      <trkpt lat="62.618555891526" lon="17.931659179452">
        <ele>0</ele>
        <time>2018-03-30T12:25:57Z</time>
      </trkpt>
      <trkpt lat="62.618531164921" lon="17.931629591345">
        <ele>0</ele>
        <time>2018-03-30T12:25:58Z</time>
      </trkpt>
      <trkpt lat="62.618507360325" lon="17.931596399021">
        <ele>0</ele>
        <time>2018-03-30T12:25:59Z</time>
      </trkpt>
      <trkpt lat="62.618483304272" lon="17.931565134534">
        <ele>0</ele>
        <time>2018-03-30T12:26:00Z</time>
      </trkpt>
      <trkpt lat="62.618457907115" lon="17.931534121504">
        <ele>0</ele>
        <time>2018-03-30T12:26:01Z</time>
      </trkpt>
      <trkpt lat="62.618431839406" lon="17.931499839533">
        <ele>0</ele>
        <time>2018-03-30T12:26:02Z</time>
      </trkpt>
      <trkpt lat="62.618404765869" lon="17.93146656339">
        <ele>0</ele>
        <time>2018-03-30T12:26:03Z</time>
      </trkpt>
      <trkpt lat="62.618378362884" lon="17.931433706342">
        <ele>0</ele>
        <time>2018-03-30T12:26:04Z</time>
      </trkpt>
      <trkpt lat="62.618352043718" lon="17.931397328896">
        <ele>0</ele>
        <time>2018-03-30T12:26:05Z</time>
      </trkpt>
      <trkpt lat="62.618329328769" lon="17.931361705821">
        <ele>0</ele>
        <time>2018-03-30T12:26:06Z</time>
      </trkpt>
      <trkpt lat="62.618307619648" lon="17.931325915108">
        <ele>0</ele>
        <time>2018-03-30T12:26:07Z</time>
      </trkpt>
      <trkpt lat="62.618281803396" lon="17.931291549318">
        <ele>0</ele>
        <time>2018-03-30T12:26:08Z</time>
      </trkpt>
      <trkpt lat="62.618256070963" lon="17.931263805229">
        <ele>0</ele>
        <time>2018-03-30T12:26:09Z</time>
      </trkpt>
      <trkpt lat="62.618230254711" lon="17.931234300941">
        <ele>0</ele>
        <time>2018-03-30T12:26:10Z</time>
      </trkpt>
      <trkpt lat="62.618201504794" lon="17.931203790825">
        <ele>0</ele>
        <time>2018-03-30T12:26:11Z</time>
      </trkpt>
      <trkpt lat="62.618180214768" lon="17.931182668437">
        <ele>0</ele>
        <time>2018-03-30T12:26:12Z</time>
      </trkpt>
      <trkpt lat="62.618153057412" lon="17.931151320131">
        <ele>0</ele>
        <time>2018-03-30T12:26:13Z</time>
      </trkpt>
      <trkpt lat="62.618126822065" lon="17.931121983481">
        <ele>0</ele>
        <time>2018-03-30T12:26:14Z</time>
      </trkpt>
      <trkpt lat="62.618102849831" lon="17.931098011247">
        <ele>0</ele>
        <time>2018-03-30T12:26:15Z</time>
      </trkpt>
      <trkpt lat="62.618077704131" lon="17.931074374289">
        <ele>0</ele>
        <time>2018-03-30T12:26:16Z</time>
      </trkpt>
      <trkpt lat="62.618049960042" lon="17.931051994616">
        <ele>0</ele>
        <time>2018-03-30T12:26:17Z</time>
      </trkpt>
      <trkpt lat="62.618023640876" lon="17.931026597459">
        <ele>0</ele>
        <time>2018-03-30T12:26:18Z</time>
      </trkpt>
      <trkpt lat="62.617996232063" lon="17.930997512266">
        <ele>0</ele>
        <time>2018-03-30T12:26:19Z</time>
      </trkpt>
      <trkpt lat="62.617974774399" lon="17.930974294403">
        <ele>0</ele>
        <time>2018-03-30T12:26:20Z</time>
      </trkpt>
      <trkpt lat="62.617951053622" lon="17.930949567798">
        <ele>0</ele>
        <time>2018-03-30T12:26:21Z</time>
      </trkpt>
      <trkpt lat="62.61792439918" lon="17.930922997175">
        <ele>0</ele>
        <time>2018-03-30T12:26:22Z</time>
      </trkpt>
      <trkpt lat="62.617906545733" lon="17.930911262515">
        <ele>0</ele>
        <time>2018-03-30T12:26:23Z</time>
      </trkpt>
      <trkpt lat="62.617885758621" lon="17.930892319421">
        <ele>0</ele>
        <time>2018-03-30T12:26:24Z</time>
      </trkpt>
      <trkpt lat="62.617862289301" lon="17.930868682463">
        <ele>0</ele>
        <time>2018-03-30T12:26:25Z</time>
      </trkpt>
      <trkpt lat="62.617840915456" lon="17.930849823188">
        <ele>0</ele>
        <time>2018-03-30T12:26:26Z</time>
      </trkpt>
      <trkpt lat="62.617819373973" lon="17.930834065216">
        <ele>0</ele>
        <time>2018-03-30T12:26:27Z</time>
      </trkpt>
      <trkpt lat="62.61780034706" lon="17.930808416602">
        <ele>0</ele>
        <time>2018-03-30T12:26:28Z</time>
      </trkpt>
      <trkpt lat="62.617778470301" lon="17.93078427673">
        <ele>0</ele>
        <time>2018-03-30T12:26:29Z</time>
      </trkpt>
      <trkpt lat="62.617757850827" lon="17.930763573437">
        <ele>0</ele>
        <time>2018-03-30T12:26:30Z</time>
      </trkpt>
      <trkpt lat="62.617736141706" lon="17.93074320542">
        <ele>0</ele>
        <time>2018-03-30T12:26:31Z</time>
      </trkpt>
      <trkpt lat="62.617711918015" lon="17.930722502127">
        <ele>0</ele>
        <time>2018-03-30T12:26:32Z</time>
      </trkpt>
      <trkpt lat="62.617685179754" lon="17.930698948988">
        <ele>0</ele>
        <time>2018-03-30T12:26:33Z</time>
      </trkpt>
      <trkpt lat="62.617657938579" lon="17.930672462184">
        <ele>0</ele>
        <time>2018-03-30T12:26:34Z</time>
      </trkpt>
      <trkpt lat="62.617632960517" lon="17.930652513262">
        <ele>0</ele>
        <time>2018-03-30T12:26:35Z</time>
      </trkpt>
      <trkpt lat="62.617608820645" lon="17.930630971779">
        <ele>0</ele>
        <time>2018-03-30T12:26:36Z</time>
      </trkpt>
      <trkpt lat="62.617587530619" lon="17.930609430296">
        <ele>0</ele>
        <time>2018-03-30T12:26:37Z</time>
      </trkpt>
      <trkpt lat="62.617565234765" lon="17.930592247401">
        <ele>0</ele>
        <time>2018-03-30T12:26:38Z</time>
      </trkpt>
      <trkpt lat="62.617545285843" lon="17.93058143475">
        <ele>0</ele>
        <time>2018-03-30T12:26:39Z</time>
      </trkpt>
      <trkpt lat="62.617519134315" lon="17.930563246027">
        <ele>0</ele>
        <time>2018-03-30T12:26:40Z</time>
      </trkpt>
      <trkpt lat="62.617493653339" lon="17.930551092272">
        <ele>0</ele>
        <time>2018-03-30T12:26:41Z</time>
      </trkpt>
      <trkpt lat="62.617474542607" lon="17.930541285449">
        <ele>0</ele>
        <time>2018-03-30T12:26:42Z</time>
      </trkpt>
      <trkpt lat="62.617451743839" lon="17.930529131694">
        <ele>0</ele>
        <time>2018-03-30T12:26:43Z</time>
      </trkpt>
      <trkpt lat="62.617432046374" lon="17.930520330699">
        <ele>0</ele>
        <time>2018-03-30T12:26:44Z</time>
      </trkpt>
      <trkpt lat="62.617408325597" lon="17.930510942971">
        <ele>0</ele>
        <time>2018-03-30T12:26:45Z</time>
      </trkpt>
      <trkpt lat="62.617379408042" lon="17.93049929213">
        <ele>0</ele>
        <time>2018-03-30T12:26:46Z</time>
      </trkpt>
      <trkpt lat="62.617360045853" lon="17.930490323497">
        <ele>0</ele>
        <time>2018-03-30T12:26:47Z</time>
      </trkpt>
      <trkpt lat="62.617332217945" lon="17.930476325724">
        <ele>0</ele>
        <time>2018-03-30T12:26:48Z</time>
      </trkpt>
      <trkpt lat="62.617309502996" lon="17.930466183625">
        <ele>0</ele>
        <time>2018-03-30T12:26:49Z</time>
      </trkpt>
      <trkpt lat="62.617283519106" lon="17.930453024042">
        <ele>0</ele>
        <time>2018-03-30T12:26:50Z</time>
      </trkpt>
      <trkpt lat="62.617257702854" lon="17.930443803952">
        <ele>0</ele>
        <time>2018-03-30T12:26:51Z</time>
      </trkpt>
      <trkpt lat="62.617234065896" lon="17.930439529183">
        <ele>0</ele>
        <time>2018-03-30T12:26:52Z</time>
      </trkpt>
      <trkpt lat="62.617203304323" lon="17.930426956333">
        <ele>0</ele>
        <time>2018-03-30T12:26:53Z</time>
      </trkpt>
      <trkpt lat="62.61718092465" lon="17.930419496442">
        <ele>0</ele>
        <time>2018-03-30T12:26:54Z</time>
      </trkpt>
      <trkpt lat="62.617152761466" lon="17.930403822289">
        <ele>0</ele>
        <time>2018-03-30T12:26:55Z</time>
      </trkpt>
      <trkpt lat="62.617125017377" lon="17.930390746525">
        <ele>0</ele>
        <time>2018-03-30T12:26:56Z</time>
      </trkpt>
      <trkpt lat="62.617098195297" lon="17.930382364625">
        <ele>0</ele>
        <time>2018-03-30T12:26:57Z</time>
      </trkpt>
      <trkpt lat="62.617072546683" lon="17.930364846454">
        <ele>0</ele>
        <time>2018-03-30T12:26:58Z</time>
      </trkpt>
      <trkpt lat="62.61704765244" lon="17.930353111794">
        <ele>0</ele>
        <time>2018-03-30T12:26:59Z</time>
      </trkpt>
      <trkpt lat="62.617020159808" lon="17.930338192012">
        <ele>0</ele>
        <time>2018-03-30T12:27:00Z</time>
      </trkpt>
      <trkpt lat="62.616994092099" lon="17.930325032429">
        <ele>0</ele>
        <time>2018-03-30T12:27:01Z</time>
      </trkpt>
      <trkpt lat="62.61697053896" lon="17.930314219778">
        <ele>0</ele>
        <time>2018-03-30T12:27:02Z</time>
      </trkpt>
      <trkpt lat="62.616940447939" lon="17.930300808738">
        <ele>0</ele>
        <time>2018-03-30T12:27:03Z</time>
      </trkpt>
      <trkpt lat="62.616912452393" lon="17.930288571164">
        <ele>0</ele>
        <time>2018-03-30T12:27:04Z</time>
      </trkpt>
      <trkpt lat="62.616888563978" lon="17.930279267255">
        <ele>0</ele>
        <time>2018-03-30T12:27:05Z</time>
      </trkpt>
      <trkpt lat="62.616859227328" lon="17.930267364957">
        <ele>0</ele>
        <time>2018-03-30T12:27:06Z</time>
      </trkpt>
      <trkpt lat="62.616832405248" lon="17.930255714116">
        <ele>0</ele>
        <time>2018-03-30T12:27:07Z</time>
      </trkpt>
      <trkpt lat="62.616805750806" lon="17.930241297248">
        <ele>0</ele>
        <time>2018-03-30T12:27:08Z</time>
      </trkpt>
      <trkpt lat="62.616781527115" lon="17.93022771857">
        <ele>0</ele>
        <time>2018-03-30T12:27:09Z</time>
      </trkpt>
      <trkpt lat="62.616763086935" lon="17.930225120181">
        <ele>0</ele>
        <time>2018-03-30T12:27:10Z</time>
      </trkpt>
      <trkpt lat="62.616722853815" lon="17.930214978082">
        <ele>0</ele>
        <time>2018-03-30T12:27:11Z</time>
      </trkpt>
      <trkpt lat="62.616695528821" lon="17.930203578698">
        <ele>0</ele>
        <time>2018-03-30T12:27:12Z</time>
      </trkpt>
      <trkpt lat="62.616669125836" lon="17.930194107151">
        <ele>0</ele>
        <time>2018-03-30T12:27:13Z</time>
      </trkpt>
      <trkpt lat="62.616643980136" lon="17.930183210681">
        <ele>0</ele>
        <time>2018-03-30T12:27:14Z</time>
      </trkpt>
      <trkpt lat="62.616619085893" lon="17.930175247876">
        <ele>0</ele>
        <time>2018-03-30T12:27:15Z</time>
      </trkpt>
      <trkpt lat="62.616596035668" lon="17.930171811297">
        <ele>0</ele>
        <time>2018-03-30T12:27:16Z</time>
      </trkpt>
      <trkpt lat="62.61655982586" lon="17.93015395785">
        <ele>0</ele>
        <time>2018-03-30T12:27:17Z</time>
      </trkpt>
      <trkpt lat="62.616531578857" lon="17.930145659769">
        <ele>0</ele>
        <time>2018-03-30T12:27:18Z</time>
      </trkpt>
      <trkpt lat="62.616502661302" lon="17.930138618973">
        <ele>0</ele>
        <time>2018-03-30T12:27:19Z</time>
      </trkpt>
      <trkpt lat="62.616474581937" lon="17.930125878485">
        <ele>0</ele>
        <time>2018-03-30T12:27:20Z</time>
      </trkpt>
      <trkpt lat="62.61645002297" lon="17.930110623427">
        <ele>0</ele>
        <time>2018-03-30T12:27:21Z</time>
      </trkpt>
      <trkpt lat="62.61642571546" lon="17.930097463844">
        <ele>0</ele>
        <time>2018-03-30T12:27:22Z</time>
      </trkpt>
      <trkpt lat="62.616392104041" lon="17.930088662849">
        <ele>0</ele>
        <time>2018-03-30T12:27:23Z</time>
      </trkpt>
      <trkpt lat="62.61636788035" lon="17.930079107483">
        <ele>0</ele>
        <time>2018-03-30T12:27:24Z</time>
      </trkpt>
      <trkpt lat="62.616336448225" lon="17.930064439158">
        <ele>0</ele>
        <time>2018-03-30T12:27:25Z</time>
      </trkpt>
      <trkpt lat="62.616310129059" lon="17.930056811629">
        <ele>0</ele>
        <time>2018-03-30T12:27:26Z</time>
      </trkpt>
      <trkpt lat="62.616286156825" lon="17.930054967611">
        <ele>0</ele>
        <time>2018-03-30T12:27:27Z</time>
      </trkpt>
      <trkpt lat="62.616251120483" lon="17.930039042001">
        <ele>0</ele>
        <time>2018-03-30T12:27:28Z</time>
      </trkpt>
      <trkpt lat="62.616221448557" lon="17.93002655297">
        <ele>0</ele>
        <time>2018-03-30T12:27:29Z</time>
      </trkpt>
      <trkpt lat="62.616190435527" lon="17.930012722835">
        <ele>0</ele>
        <time>2018-03-30T12:27:30Z</time>
      </trkpt>
      <trkpt lat="62.616166630931" lon="17.930003586564">
        <ele>0</ele>
        <time>2018-03-30T12:27:31Z</time>
      </trkpt>
      <trkpt lat="62.616145340905" lon="17.929998976519">
        <ele>0</ele>
        <time>2018-03-30T12:27:32Z</time>
      </trkpt>
      <trkpt lat="62.616111897124" lon="17.929990762257">
        <ele>0</ele>
        <time>2018-03-30T12:27:33Z</time>
      </trkpt>
      <trkpt lat="62.616083482483" lon="17.929976848303">
        <ele>0</ele>
        <time>2018-03-30T12:27:34Z</time>
      </trkpt>
      <trkpt lat="62.616052888548" lon="17.929964862186">
        <ele>0</ele>
        <time>2018-03-30T12:27:35Z</time>
      </trkpt>
      <trkpt lat="62.616024390088" lon="17.929952373155">
        <ele>0</ele>
        <time>2018-03-30T12:27:36Z</time>
      </trkpt>
      <trkpt lat="62.61599320942" lon="17.92994105759">
        <ele>0</ele>
        <time>2018-03-30T12:27:37Z</time>
      </trkpt>
      <trkpt lat="62.615960603829" lon="17.929931669862">
        <ele>0</ele>
        <time>2018-03-30T12:27:38Z</time>
      </trkpt>
      <trkpt lat="62.615936128681" lon="17.929927981826">
        <ele>0</ele>
        <time>2018-03-30T12:27:39Z</time>
      </trkpt>
      <trkpt lat="62.615893129534" lon="17.929906440343">
        <ele>0</ele>
        <time>2018-03-30T12:27:40Z</time>
      </trkpt>
      <trkpt lat="62.615863709065" lon="17.929891855837">
        <ele>0</ele>
        <time>2018-03-30T12:27:41Z</time>
      </trkpt>
      <trkpt lat="62.615835042967" lon="17.929879282987">
        <ele>0</ele>
        <time>2018-03-30T12:27:42Z</time>
      </trkpt>
      <trkpt lat="62.615804784308" lon="17.929868805612">
        <ele>0</ele>
        <time>2018-03-30T12:27:43Z</time>
      </trkpt>
      <trkpt lat="62.615772849269" lon="17.92985472402">
        <ele>0</ele>
        <time>2018-03-30T12:27:44Z</time>
      </trkpt>
      <trkpt lat="62.615740998049" lon="17.929844079007">
        <ele>0</ele>
        <time>2018-03-30T12:27:45Z</time>
      </trkpt>
      <trkpt lat="62.615710823209" lon="17.929838295496">
        <ele>0</ele>
        <time>2018-03-30T12:27:46Z</time>
      </trkpt>
      <trkpt lat="62.615680229274" lon="17.929817508384">
        <ele>0</ele>
        <time>2018-03-30T12:27:47Z</time>
      </trkpt>
      <trkpt lat="62.615650138253" lon="17.929803678249">
        <ele>0</ele>
        <time>2018-03-30T12:27:48Z</time>
      </trkpt>
      <trkpt lat="62.615619628137" lon="17.929789177562">
        <ele>0</ele>
        <time>2018-03-30T12:27:49Z</time>
      </trkpt>
      <trkpt lat="62.615591381134" lon="17.929776353255">
        <ele>0</ele>
        <time>2018-03-30T12:27:50Z</time>
      </trkpt>
      <trkpt lat="62.61556154157" lon="17.929765624423">
        <ele>0</ele>
        <time>2018-03-30T12:27:51Z</time>
      </trkpt>
      <trkpt lat="62.61552885216" lon="17.929756907247">
        <ele>0</ele>
        <time>2018-03-30T12:27:52Z</time>
      </trkpt>
      <trkpt lat="62.615502700632" lon="17.929749028261">
        <ele>0</ele>
        <time>2018-03-30T12:27:53Z</time>
      </trkpt>
      <trkpt lat="62.615472358154" lon="17.929741484551">
        <ele>0</ele>
        <time>2018-03-30T12:27:54Z</time>
      </trkpt>
      <trkpt lat="62.615443105323" lon="17.929737209782">
        <ele>0</ele>
        <time>2018-03-30T12:27:55Z</time>
      </trkpt>
      <trkpt lat="62.615414606863" lon="17.929727151502">
        <ele>0</ele>
        <time>2018-03-30T12:27:56Z</time>
      </trkpt>
      <trkpt lat="62.615385354032" lon="17.929716171213">
        <ele>0</ele>
        <time>2018-03-30T12:27:57Z</time>
      </trkpt>
      <trkpt lat="62.615360878884" lon="17.929706532028">
        <ele>0</ele>
        <time>2018-03-30T12:27:58Z</time>
      </trkpt>
      <trkpt lat="62.615330787863" lon="17.929696976662">
        <ele>0</ele>
        <time>2018-03-30T12:27:59Z</time>
      </trkpt>
      <trkpt lat="62.615302959955" lon="17.9296887624">
        <ele>0</ele>
        <time>2018-03-30T12:28:00Z</time>
      </trkpt>
      <trkpt lat="62.615277981893" lon="17.929681889242">
        <ele>0</ele>
        <time>2018-03-30T12:28:01Z</time>
      </trkpt>
      <trkpt lat="62.615251746546" lon="17.9296719986">
        <ele>0</ele>
        <time>2018-03-30T12:28:02Z</time>
      </trkpt>
      <trkpt lat="62.615226181751" lon="17.929664706347">
        <ele>0</ele>
        <time>2018-03-30T12:28:03Z</time>
      </trkpt>
      <trkpt lat="62.615199024395" lon="17.929659090474">
        <ele>0</ele>
        <time>2018-03-30T12:28:04Z</time>
      </trkpt>
      <trkpt lat="62.615169771564" lon="17.929653223144">
        <ele>0</ele>
        <time>2018-03-30T12:28:05Z</time>
      </trkpt>
      <trkpt lat="62.615145380235" lon="17.929648361642">
        <ele>0</ele>
        <time>2018-03-30T12:28:06Z</time>
      </trkpt>
      <trkpt lat="62.615122665286" lon="17.929645092701">
        <ele>0</ele>
        <time>2018-03-30T12:28:07Z</time>
      </trkpt>
      <trkpt lat="62.615092574265" lon="17.929639057733">
        <ele>0</ele>
        <time>2018-03-30T12:28:08Z</time>
      </trkpt>
      <trkpt lat="62.615069607859" lon="17.929633106584">
        <ele>0</ele>
        <time>2018-03-30T12:28:09Z</time>
      </trkpt>
      <trkpt lat="62.615040019752" lon="17.929627071616">
        <ele>0</ele>
        <time>2018-03-30T12:28:10Z</time>
      </trkpt>
      <trkpt lat="62.615014957871" lon="17.92962422177">
        <ele>0</ele>
        <time>2018-03-30T12:28:11Z</time>
      </trkpt>
      <trkpt lat="62.614996266234" lon="17.929626065788">
        <ele>0</ele>
        <time>2018-03-30T12:28:12Z</time>
      </trkpt>
      <trkpt lat="62.614956871304" lon="17.929608463798">
        <ele>0</ele>
        <time>2018-03-30T12:28:13Z</time>
      </trkpt>
      <trkpt lat="62.614931641785" lon="17.929604859581">
        <ele>0</ele>
        <time>2018-03-30T12:28:14Z</time>
      </trkpt>
      <trkpt lat="62.614902137497" lon="17.929603350839">
        <ele>0</ele>
        <time>2018-03-30T12:28:15Z</time>
      </trkpt>
      <trkpt lat="62.614868861354" lon="17.929601758278">
        <ele>0</ele>
        <time>2018-03-30T12:28:16Z</time>
      </trkpt>
      <trkpt lat="62.614846062586" lon="17.92959823788">
        <ele>0</ele>
        <time>2018-03-30T12:28:17Z</time>
      </trkpt>
      <trkpt lat="62.614813121719" lon="17.929594633663">
        <ele>0</ele>
        <time>2018-03-30T12:28:18Z</time>
      </trkpt>
      <trkpt lat="62.614787221648" lon="17.92959572331">
        <ele>0</ele>
        <time>2018-03-30T12:28:19Z</time>
      </trkpt>
      <trkpt lat="62.614755454247" lon="17.929597483509">
        <ele>0</ele>
        <time>2018-03-30T12:28:20Z</time>
      </trkpt>
      <trkpt lat="62.614723854484" lon="17.929600249536">
        <ele>0</ele>
        <time>2018-03-30T12:28:21Z</time>
      </trkpt>
      <trkpt lat="62.614695942757" lon="17.929605446314">
        <ele>0</ele>
        <time>2018-03-30T12:28:22Z</time>
      </trkpt>
      <trkpt lat="62.614663672442" lon="17.92959823788">
        <ele>0</ele>
        <time>2018-03-30T12:28:23Z</time>
      </trkpt>
      <trkpt lat="62.614637185638" lon="17.92959823788">
        <ele>0</ele>
        <time>2018-03-30T12:28:24Z</time>
      </trkpt>
      <trkpt lat="62.614604999142" lon="17.929597483509">
        <ele>0</ele>
        <time>2018-03-30T12:28:25Z</time>
      </trkpt>
      <trkpt lat="62.614572142094" lon="17.929596980595">
        <ele>0</ele>
        <time>2018-03-30T12:28:26Z</time>
      </trkpt>
      <trkpt lat="62.61454314072" lon="17.929599830441">
        <ele>0</ele>
        <time>2018-03-30T12:28:27Z</time>
      </trkpt>
      <trkpt lat="62.614509780758" lon="17.929591280903">
        <ele>0</ele>
        <time>2018-03-30T12:28:28Z</time>
      </trkpt>
      <trkpt lat="62.614475917882" lon="17.929594130749">
        <ele>0</ele>
        <time>2018-03-30T12:28:29Z</time>
      </trkpt>
      <trkpt lat="62.614447251784" lon="17.929606200685">
        <ele>0</ele>
        <time>2018-03-30T12:28:30Z</time>
      </trkpt>
      <trkpt lat="62.614419759152" lon="17.929616845698">
        <ele>0</ele>
        <time>2018-03-30T12:28:31Z</time>
      </trkpt>
      <trkpt lat="62.614389500493" lon="17.929627239254">
        <ele>0</ele>
        <time>2018-03-30T12:28:32Z</time>
      </trkpt>
      <trkpt lat="62.614358906558" lon="17.929627239254">
        <ele>0</ele>
        <time>2018-03-30T12:28:33Z</time>
      </trkpt>
      <trkpt lat="62.614327390614" lon="17.929629670005">
        <ele>0</ele>
        <time>2018-03-30T12:28:34Z</time>
      </trkpt>
      <trkpt lat="62.614294701204" lon="17.929632519851">
        <ele>0</ele>
        <time>2018-03-30T12:28:35Z</time>
      </trkpt>
      <trkpt lat="62.614264610183" lon="17.929633777136">
        <ele>0</ele>
        <time>2018-03-30T12:28:36Z</time>
      </trkpt>
      <trkpt lat="62.614233094239" lon="17.929629586186">
        <ele>0</ele>
        <time>2018-03-30T12:28:37Z</time>
      </trkpt>
      <trkpt lat="62.614199734277" lon="17.929630005281">
        <ele>0</ele>
        <time>2018-03-30T12:28:38Z</time>
      </trkpt>
      <trkpt lat="62.614172996016" lon="17.929637046077">
        <ele>0</ele>
        <time>2018-03-30T12:28:39Z</time>
      </trkpt>
      <trkpt lat="62.614136367113" lon="17.929627155435">
        <ele>0</ele>
        <time>2018-03-30T12:28:40Z</time>
      </trkpt>
      <trkpt lat="62.614101749866" lon="17.929628831815">
        <ele>0</ele>
        <time>2018-03-30T12:28:41Z</time>
      </trkpt>
      <trkpt lat="62.614072580854" lon="17.929636375525">
        <ele>0</ele>
        <time>2018-03-30T12:28:42Z</time>
      </trkpt>
      <trkpt lat="62.614039304711" lon="17.929653223144">
        <ele>0</ele>
        <time>2018-03-30T12:28:43Z</time>
      </trkpt>
      <trkpt lat="62.614014075192" lon="17.929670657496">
        <ele>0</ele>
        <time>2018-03-30T12:28:44Z</time>
      </trkpt>
      <trkpt lat="62.613993455718" lon="17.929691025513">
        <ele>0</ele>
        <time>2018-03-30T12:28:45Z</time>
      </trkpt>
      <trkpt lat="62.613967890923" lon="17.929695719377">
        <ele>0</ele>
        <time>2018-03-30T12:28:46Z</time>
      </trkpt>
      <trkpt lat="62.61392707107" lon="17.929709214236">
        <ele>0</ele>
        <time>2018-03-30T12:28:47Z</time>
      </trkpt>
      <trkpt lat="62.613894465479" lon="17.929722709095">
        <ele>0</ele>
        <time>2018-03-30T12:28:48Z</time>
      </trkpt>
      <trkpt lat="62.613863787725" lon="17.92973653923">
        <ele>0</ele>
        <time>2018-03-30T12:28:49Z</time>
      </trkpt>
      <trkpt lat="62.613837803835" lon="17.929748022433">
        <ele>0</ele>
        <time>2018-03-30T12:28:50Z</time>
      </trkpt>
      <trkpt lat="62.61380888628" lon="17.929759757093">
        <ele>0</ele>
        <time>2018-03-30T12:28:51Z</time>
      </trkpt>
      <trkpt lat="62.613778124707" lon="17.929773335771">
        <ele>0</ele>
        <time>2018-03-30T12:28:52Z</time>
      </trkpt>
      <trkpt lat="62.613752056998" lon="17.929784064603">
        <ele>0</ele>
        <time>2018-03-30T12:28:53Z</time>
      </trkpt>
      <trkpt lat="62.613719283769" lon="17.929800074032">
        <ele>0</ele>
        <time>2018-03-30T12:28:54Z</time>
      </trkpt>
      <trkpt lat="62.613692545508" lon="17.929812395425">
        <ele>0</ele>
        <time>2018-03-30T12:28:55Z</time>
      </trkpt>
      <trkpt lat="62.613665639609" lon="17.929822537524">
        <ele>0</ele>
        <time>2018-03-30T12:28:56Z</time>
      </trkpt>
      <trkpt lat="62.613637224968" lon="17.929833936908">
        <ele>0</ele>
        <time>2018-03-30T12:28:57Z</time>
      </trkpt>
      <trkpt lat="62.613610067612" lon="17.929842654084">
        <ele>0</ele>
        <time>2018-03-30T12:28:58Z</time>
      </trkpt>
      <trkpt lat="62.61357838403" lon="17.929853131459">
        <ele>0</ele>
        <time>2018-03-30T12:28:59Z</time>
      </trkpt>
      <trkpt lat="62.613549969389" lon="17.929863189739">
        <ele>0</ele>
        <time>2018-03-30T12:29:00Z</time>
      </trkpt>
      <trkpt lat="62.613521470929" lon="17.929874170028">
        <ele>0</ele>
        <time>2018-03-30T12:29:01Z</time>
      </trkpt>
      <trkpt lat="62.613491631365" lon="17.929887916344">
        <ele>0</ele>
        <time>2018-03-30T12:29:02Z</time>
      </trkpt>
      <trkpt lat="62.613463887276" lon="17.929908200542">
        <ele>0</ele>
        <time>2018-03-30T12:29:03Z</time>
      </trkpt>
      <trkpt lat="62.61343421535" lon="17.929924796704">
        <ele>0</ele>
        <time>2018-03-30T12:29:04Z</time>
      </trkpt>
      <trkpt lat="62.613404124329" lon="17.929937956287">
        <ele>0</ele>
        <time>2018-03-30T12:29:05Z</time>
      </trkpt>
      <trkpt lat="62.613372105471" lon="17.929950864413">
        <ele>0</ele>
        <time>2018-03-30T12:29:06Z</time>
      </trkpt>
      <trkpt lat="62.613348049418" lon="17.929962682892">
        <ele>0</ele>
        <time>2018-03-30T12:29:07Z</time>
      </trkpt>
      <trkpt lat="62.613328351953" lon="17.929977351217">
        <ele>0</ele>
        <time>2018-03-30T12:29:08Z</time>
      </trkpt>
      <trkpt lat="62.613291471593" lon="17.929989169696">
        <ele>0</ele>
        <time>2018-03-30T12:29:09Z</time>
      </trkpt>
      <trkpt lat="62.613264481875" lon="17.929998473605">
        <ele>0</ele>
        <time>2018-03-30T12:29:10Z</time>
      </trkpt>
      <trkpt lat="62.613233133569" lon="17.930010794998">
        <ele>0</ele>
        <time>2018-03-30T12:29:11Z</time>
      </trkpt>
      <trkpt lat="62.613200779435" lon="17.930026301513">
        <ele>0</ele>
        <time>2018-03-30T12:29:12Z</time>
      </trkpt>
      <trkpt lat="62.613178148305" lon="17.930042897675">
        <ele>0</ele>
        <time>2018-03-30T12:29:13Z</time>
      </trkpt>
      <trkpt lat="62.613146883818" lon="17.930057482181">
        <ele>0</ele>
        <time>2018-03-30T12:29:14Z</time>
      </trkpt>
      <trkpt lat="62.613121151385" lon="17.93006678609">
        <ele>0</ele>
        <time>2018-03-30T12:29:15Z</time>
      </trkpt>
      <trkpt lat="62.61309726297" lon="17.930076341456">
        <ele>0</ele>
        <time>2018-03-30T12:29:16Z</time>
      </trkpt>
      <trkpt lat="62.613060969343" lon="17.930078185474">
        <ele>0</ele>
        <time>2018-03-30T12:29:17Z</time>
      </trkpt>
      <trkpt lat="62.613030040132" lon="17.930087405564">
        <ele>0</ele>
        <time>2018-03-30T12:29:18Z</time>
      </trkpt>
      <trkpt lat="62.612999781473" lon="17.930095200731">
        <ele>0</ele>
        <time>2018-03-30T12:29:19Z</time>
      </trkpt>
      <trkpt lat="62.612972037384" lon="17.93010199007">
        <ele>0</ele>
        <time>2018-03-30T12:29:20Z</time>
      </trkpt>
      <trkpt lat="62.612946221132" lon="17.930104839916">
        <ele>0</ele>
        <time>2018-03-30T12:29:21Z</time>
      </trkpt>
      <trkpt lat="62.612919901966" lon="17.930111126341">
        <ele>0</ele>
        <time>2018-03-30T12:29:22Z</time>
      </trkpt>
      <trkpt lat="62.61288603909" lon="17.930114814377">
        <ele>0</ele>
        <time>2018-03-30T12:29:23Z</time>
      </trkpt>
      <trkpt lat="62.612858965553" lon="17.930119172965">
        <ele>0</ele>
        <time>2018-03-30T12:29:24Z</time>
      </trkpt>
      <trkpt lat="62.61282904217" lon="17.930118837689">
        <ele>0</ele>
        <time>2018-03-30T12:29:25Z</time>
      </trkpt>
      <trkpt lat="62.612799454063" lon="17.930118586232">
        <ele>0</ele>
        <time>2018-03-30T12:29:26Z</time>
      </trkpt>
      <trkpt lat="62.612773805449" lon="17.930122693363">
        <ele>0</ele>
        <time>2018-03-30T12:29:27Z</time>
      </trkpt>
      <trkpt lat="62.612744133523" lon="17.930114479101">
        <ele>0</ele>
        <time>2018-03-30T12:29:28Z</time>
      </trkpt>
      <trkpt lat="62.612716808529" lon="17.930115317291">
        <ele>0</ele>
        <time>2018-03-30T12:29:29Z</time>
      </trkpt>
      <trkpt lat="62.612684789671" lon="17.930118250956">
        <ele>0</ele>
        <time>2018-03-30T12:29:30Z</time>
      </trkpt>
      <trkpt lat="62.612653776641" lon="17.930126716675">
        <ele>0</ele>
        <time>2018-03-30T12:29:31Z</time>
      </trkpt>
      <trkpt lat="62.612627792751" lon="17.930133170738">
        <ele>0</ele>
        <time>2018-03-30T12:29:32Z</time>
      </trkpt>
      <trkpt lat="62.612594935703" lon="17.930137529326">
        <ele>0</ele>
        <time>2018-03-30T12:29:33Z</time>
      </trkpt>
      <trkpt lat="62.612561994836" lon="17.930139960077">
        <ele>0</ele>
        <time>2018-03-30T12:29:34Z</time>
      </trkpt>
      <trkpt lat="62.612534334566" lon="17.930140127715">
        <ele>0</ele>
        <time>2018-03-30T12:29:35Z</time>
      </trkpt>
      <trkpt lat="62.612501226061" lon="17.930144318665">
        <ele>0</ele>
        <time>2018-03-30T12:29:36Z</time>
      </trkpt>
      <trkpt lat="62.612472727601" lon="17.93015311966">
        <ele>0</ele>
        <time>2018-03-30T12:29:37Z</time>
      </trkpt>
      <trkpt lat="62.612448420091" lon="17.930167117433">
        <ele>0</ele>
        <time>2018-03-30T12:29:38Z</time>
      </trkpt>
      <trkpt lat="62.612417239423" lon="17.930169632003">
        <ele>0</ele>
        <time>2018-03-30T12:29:39Z</time>
      </trkpt>
      <trkpt lat="62.612379353235" lon="17.930177343351">
        <ele>0</ele>
        <time>2018-03-30T12:29:40Z</time>
      </trkpt>
      <trkpt lat="62.612344652169" lon="17.930184384147">
        <ele>0</ele>
        <time>2018-03-30T12:29:41Z</time>
      </trkpt>
      <trkpt lat="62.612307436533" lon="17.930194945341">
        <ele>0</ele>
        <time>2018-03-30T12:29:42Z</time>
      </trkpt>
      <trkpt lat="62.612284302489" lon="17.930206680001">
        <ele>0</ele>
        <time>2018-03-30T12:29:43Z</time>
      </trkpt>
      <trkpt lat="62.612252702726" lon="17.930214810444">
        <ele>0</ele>
        <time>2018-03-30T12:29:44Z</time>
      </trkpt>
      <trkpt lat="62.61222051623" lon="17.93022604219">
        <ele>0</ele>
        <time>2018-03-30T12:29:45Z</time>
      </trkpt>
      <trkpt lat="62.612214984176" lon="17.930229897864">
        <ele>0</ele>
        <time>2018-03-30T12:29:46Z</time>
      </trkpt>
      <trkpt lat="62.612164022224" lon="17.930240710515">
        <ele>0</ele>
        <time>2018-03-30T12:29:47Z</time>
      </trkpt>
      <trkpt lat="62.612134517936" lon="17.930252445175">
        <ele>0</ele>
        <time>2018-03-30T12:29:48Z</time>
      </trkpt>
      <trkpt lat="62.612105851838" lon="17.930264263654">
        <ele>0</ele>
        <time>2018-03-30T12:29:49Z</time>
      </trkpt>
      <trkpt lat="62.612075341722" lon="17.930276165952">
        <ele>0</ele>
        <time>2018-03-30T12:29:50Z</time>
      </trkpt>
      <trkpt lat="62.612046927081" lon="17.9302922592">
        <ele>0</ele>
        <time>2018-03-30T12:29:51Z</time>
      </trkpt>
      <trkpt lat="62.612046005072" lon="17.93028555368">
        <ele>0</ele>
        <time>2018-03-30T12:29:52Z</time>
      </trkpt>
      <trkpt lat="62.612012896567" lon="17.93029477377">
        <ele>0</ele>
        <time>2018-03-30T12:29:53Z</time>
      </trkpt>
      <trkpt lat="62.611981715899" lon="17.930305921697">
        <ele>0</ele>
        <time>2018-03-30T12:29:54Z</time>
      </trkpt>
      <trkpt lat="62.611932681784" lon="17.930320841479">
        <ele>0</ele>
        <time>2018-03-30T12:29:55Z</time>
      </trkpt>
      <trkpt lat="62.611904267143" lon="17.930339030202">
        <ele>0</ele>
        <time>2018-03-30T12:29:56Z</time>
      </trkpt>
      <trkpt lat="62.611881971289" lon="17.93036266716">
        <ele>0</ele>
        <time>2018-03-30T12:29:57Z</time>
      </trkpt>
      <trkpt lat="62.611845258567" lon="17.930354452898">
        <ele>0</ele>
        <time>2018-03-30T12:29:58Z</time>
      </trkpt>
      <trkpt lat="62.611820783419" lon="17.930363924445">
        <ele>0</ele>
        <time>2018-03-30T12:29:59Z</time>
      </trkpt>
      <trkpt lat="62.61179974485" lon="17.930378425132">
        <ele>0</ele>
        <time>2018-03-30T12:30:00Z</time>
      </trkpt>
      <trkpt lat="62.611780131204" lon="17.930391919991">
        <ele>0</ele>
        <time>2018-03-30T12:30:01Z</time>
      </trkpt>
      <trkpt lat="62.611716428764" lon="17.930393931647">
        <ele>0</ele>
        <time>2018-03-30T12:30:03Z</time>
      </trkpt>
      <trkpt lat="62.61168742739" lon="17.930398793149">
        <ele>0</ele>
        <time>2018-03-30T12:30:04Z</time>
      </trkpt>
      <trkpt lat="62.611664460984" lon="17.930402481185">
        <ele>0</ele>
        <time>2018-03-30T12:30:05Z</time>
      </trkpt>
      <trkpt lat="62.61164048875" lon="17.930405079574">
        <ele>0</ele>
        <time>2018-03-30T12:30:06Z</time>
      </trkpt>
      <trkpt lat="62.611614169584" lon="17.930410695447">
        <ele>0</ele>
        <time>2018-03-30T12:30:07Z</time>
      </trkpt>
      <trkpt lat="62.611599752716" lon="17.930414299664">
        <ele>0</ele>
        <time>2018-03-30T12:30:08Z</time>
      </trkpt>
      <trkpt lat="62.611580474346" lon="17.930414215845">
        <ele>0</ele>
        <time>2018-03-30T12:30:09Z</time>
      </trkpt>
      <trkpt lat="62.611564967831" lon="17.930419915537">
        <ele>0</ele>
        <time>2018-03-30T12:30:10Z</time>
      </trkpt>
      <trkpt lat="62.61155666975" lon="17.930421089003">
        <ele>0</ele>
        <time>2018-03-30T12:30:11Z</time>
      </trkpt>
      <trkpt lat="62.611552730257" lon="17.930422011012">
        <ele>0</ele>
        <time>2018-03-30T12:30:12Z</time>
      </trkpt>
      <trkpt lat="62.611548874583" lon="17.930422681564">
        <ele>0</ele>
        <time>2018-03-30T12:30:13Z</time>
      </trkpt>
      <trkpt lat="62.611551808248" lon="17.930418155338">
        <ele>0</ele>
        <time>2018-03-30T12:30:14Z</time>
      </trkpt>
      <trkpt lat="62.611553065533" lon="17.930416059863">
        <ele>0</ele>
        <time>2018-03-30T12:30:15Z</time>
      </trkpt>
      <trkpt lat="62.611773090408" lon="17.930287984431">
        <ele>0</ele>
        <time>2018-03-30T12:33:31Z</time>
      </trkpt>
      <trkpt lat="62.611799996307" lon="17.930279183436">
        <ele>0</ele>
        <time>2018-03-30T12:33:32Z</time>
      </trkpt>
      <trkpt lat="62.611833859183" lon="17.930251858442">
        <ele>0</ele>
        <time>2018-03-30T12:33:33Z</time>
      </trkpt>
      <trkpt lat="62.611863279652" lon="17.930238279764">
        <ele>0</ele>
        <time>2018-03-30T12:33:34Z</time>
      </trkpt>
      <trkpt lat="62.611895549967" lon="17.930223695258">
        <ele>0</ele>
        <time>2018-03-30T12:33:35Z</time>
      </trkpt>
      <trkpt lat="62.611932262689" lon="17.930192766047">
        <ele>0</ele>
        <time>2018-03-30T12:33:36Z</time>
      </trkpt>
      <trkpt lat="62.611952882163" lon="17.93018916183">
        <ele>0</ele>
        <time>2018-03-30T12:33:37Z</time>
      </trkpt>
      <trkpt lat="62.61197827932" lon="17.930180612292">
        <ele>0</ele>
        <time>2018-03-30T12:33:38Z</time>
      </trkpt>
      <trkpt lat="62.612013650938" lon="17.930168290899">
        <ele>0</ele>
        <time>2018-03-30T12:33:39Z</time>
      </trkpt>
      <trkpt lat="62.612048603461" lon="17.93014809052">
        <ele>0</ele>
        <time>2018-03-30T12:33:40Z</time>
      </trkpt>
      <trkpt lat="62.612078443025" lon="17.93014222319">
        <ele>0</ele>
        <time>2018-03-30T12:33:41Z</time>
      </trkpt>
      <trkpt lat="62.612105851838" lon="17.930129817978">
        <ele>0</ele>
        <time>2018-03-30T12:33:42Z</time>
      </trkpt>
      <trkpt lat="62.612137703058" lon="17.930120849345">
        <ele>0</ele>
        <time>2018-03-30T12:33:43Z</time>
      </trkpt>
      <trkpt lat="62.612168883726" lon="17.930106097201">
        <ele>0</ele>
        <time>2018-03-30T12:33:44Z</time>
      </trkpt>
      <trkpt lat="62.612200734946" lon="17.930090506867">
        <ele>0</ele>
        <time>2018-03-30T12:33:45Z</time>
      </trkpt>
      <trkpt lat="62.612215822366" lon="17.930088914306">
        <ele>0</ele>
        <time>2018-03-30T12:33:46Z</time>
      </trkpt>
      <trkpt lat="62.612249349966" lon="17.930076425275">
        <ele>0</ele>
        <time>2018-03-30T12:33:47Z</time>
      </trkpt>
      <trkpt lat="62.612286146507" lon="17.930065193529">
        <ele>0</ele>
        <time>2018-03-30T12:33:48Z</time>
      </trkpt>
      <trkpt lat="62.612310705474" lon="17.930049770833">
        <ele>0</ele>
        <time>2018-03-30T12:33:49Z</time>
      </trkpt>
      <trkpt lat="62.612342221418" lon="17.930044238779">
        <ele>0</ele>
        <time>2018-03-30T12:33:50Z</time>
      </trkpt>
      <trkpt lat="62.612370887516" lon="17.930027810255">
        <ele>0</ele>
        <time>2018-03-30T12:33:51Z</time>
      </trkpt>
      <trkpt lat="62.612395530302" lon="17.930023116391">
        <ele>0</ele>
        <time>2018-03-30T12:33:52Z</time>
      </trkpt>
      <trkpt lat="62.612430818101" lon="17.930009453894">
        <ele>0</ele>
        <time>2018-03-30T12:33:53Z</time>
      </trkpt>
      <trkpt lat="62.612459232742" lon="17.929999898528">
        <ele>0</ele>
        <time>2018-03-30T12:33:54Z</time>
      </trkpt>
      <trkpt lat="62.612490329591" lon="17.92999637813">
        <ele>0</ele>
        <time>2018-03-30T12:33:55Z</time>
      </trkpt>
      <trkpt lat="62.612512960721" lon="17.929995791397">
        <ele>0</ele>
        <time>2018-03-30T12:33:56Z</time>
      </trkpt>
      <trkpt lat="62.612538106421" lon="17.929990846076">
        <ele>0</ele>
        <time>2018-03-30T12:33:57Z</time>
      </trkpt>
      <trkpt lat="62.612570963469" lon="17.929976345389">
        <ele>0</ele>
        <time>2018-03-30T12:33:58Z</time>
      </trkpt>
      <trkpt lat="62.612601473585" lon="17.929975842475">
        <ele>0</ele>
        <time>2018-03-30T12:33:59Z</time>
      </trkpt>
      <trkpt lat="62.612629636769" lon="17.929964191634">
        <ele>0</ele>
        <time>2018-03-30T12:34:00Z</time>
      </trkpt>
      <trkpt lat="62.612654028098" lon="17.929961509426">
        <ele>0</ele>
        <time>2018-03-30T12:34:01Z</time>
      </trkpt>
      <trkpt lat="62.612683867662" lon="17.929952456974">
        <ele>0</ele>
        <time>2018-03-30T12:34:02Z</time>
      </trkpt>
      <trkpt lat="62.61271337195" lon="17.929949942404">
        <ele>0</ele>
        <time>2018-03-30T12:34:03Z</time>
      </trkpt>
      <trkpt lat="62.612749078844" lon="17.929940470857">
        <ele>0</ele>
        <time>2018-03-30T12:34:04Z</time>
      </trkpt>
      <trkpt lat="62.612777744942" lon="17.929932591871">
        <ele>0</ele>
        <time>2018-03-30T12:34:05Z</time>
      </trkpt>
      <trkpt lat="62.612810853447" lon="17.929922365953">
        <ele>0</ele>
        <time>2018-03-30T12:34:06Z</time>
      </trkpt>
      <trkpt lat="62.612831472921" lon="17.92991926465">
        <ele>0</ele>
        <time>2018-03-30T12:34:07Z</time>
      </trkpt>
      <trkpt lat="62.61286256977" lon="17.929902919945">
        <ele>0</ele>
        <time>2018-03-30T12:34:08Z</time>
      </trkpt>
      <trkpt lat="62.612900958872" lon="17.929890514733">
        <ele>0</ele>
        <time>2018-03-30T12:34:09Z</time>
      </trkpt>
      <trkpt lat="62.612935157024" lon="17.929878109521">
        <ele>0</ele>
        <time>2018-03-30T12:34:10Z</time>
      </trkpt>
      <trkpt lat="62.612966253873" lon="17.929876014046">
        <ele>0</ele>
        <time>2018-03-30T12:34:11Z</time>
      </trkpt>
      <trkpt lat="62.612993578867" lon="17.929866542499">
        <ele>0</ele>
        <time>2018-03-30T12:34:12Z</time>
      </trkpt>
      <trkpt lat="62.613030040132" lon="17.929860088436">
        <ele>0</ele>
        <time>2018-03-30T12:34:13Z</time>
      </trkpt>
      <trkpt lat="62.613057700402" lon="17.929848102319">
        <ele>0</ele>
        <time>2018-03-30T12:34:14Z</time>
      </trkpt>
      <trkpt lat="62.613086450319" lon="17.929835697107">
        <ele>0</ele>
        <time>2018-03-30T12:34:15Z</time>
      </trkpt>
      <trkpt lat="62.613110506372" lon="17.929821950791">
        <ele>0</ele>
        <time>2018-03-30T12:34:16Z</time>
      </trkpt>
      <trkpt lat="62.613148727836" lon="17.929807953018">
        <ele>0</ele>
        <time>2018-03-30T12:34:17Z</time>
      </trkpt>
      <trkpt lat="62.613182674531" lon="17.929797978557">
        <ele>0</ele>
        <time>2018-03-30T12:34:18Z</time>
      </trkpt>
      <trkpt lat="62.613212849371" lon="17.929784818974">
        <ele>0</ele>
        <time>2018-03-30T12:34:19Z</time>
      </trkpt>
      <trkpt lat="62.613245035867" lon="17.929776688531">
        <ele>0</ele>
        <time>2018-03-30T12:34:20Z</time>
      </trkpt>
      <trkpt lat="62.613278144372" lon="17.92976755226">
        <ele>0</ele>
        <time>2018-03-30T12:34:21Z</time>
      </trkpt>
      <trkpt lat="62.613300607864" lon="17.929754895591">
        <ele>0</ele>
        <time>2018-03-30T12:34:22Z</time>
      </trkpt>
      <trkpt lat="62.613332626722" lon="17.929743160931">
        <ele>0</ele>
        <time>2018-03-30T12:34:23Z</time>
      </trkpt>
      <trkpt lat="62.613364394123" lon="17.929721619448">
        <ele>0</ele>
        <time>2018-03-30T12:34:24Z</time>
      </trkpt>
      <trkpt lat="62.613392641126" lon="17.929709214236">
        <ele>0</ele>
        <time>2018-03-30T12:34:25Z</time>
      </trkpt>
      <trkpt lat="62.613422648328" lon="17.929689349133">
        <ele>0</ele>
        <time>2018-03-30T12:34:26Z</time>
      </trkpt>
      <trkpt lat="62.613446704381" lon="17.929681637785">
        <ele>0</ele>
        <time>2018-03-30T12:34:27Z</time>
      </trkpt>
      <trkpt lat="62.613479058515" lon="17.929661018311">
        <ele>0</ele>
        <time>2018-03-30T12:34:28Z</time>
      </trkpt>
      <trkpt lat="62.613512921391" lon="17.929653055506">
        <ele>0</ele>
        <time>2018-03-30T12:34:29Z</time>
      </trkpt>
      <trkpt lat="62.613541252213" lon="17.929632771308">
        <ele>0</ele>
        <time>2018-03-30T12:34:30Z</time>
      </trkpt>
      <trkpt lat="62.613568493388" lon="17.92962505996">
        <ele>0</ele>
        <time>2018-03-30T12:34:31Z</time>
      </trkpt>
      <trkpt lat="62.613598249133" lon="17.929607960884">
        <ele>0</ele>
        <time>2018-03-30T12:34:32Z</time>
      </trkpt>
      <trkpt lat="62.613631441457" lon="17.929594549844">
        <ele>0</ele>
        <time>2018-03-30T12:34:33Z</time>
      </trkpt>
      <trkpt lat="62.61366555579" lon="17.929570745248">
        <ele>0</ele>
        <time>2018-03-30T12:34:34Z</time>
      </trkpt>
      <trkpt lat="62.613695562992" lon="17.929563704452">
        <ele>0</ele>
        <time>2018-03-30T12:34:35Z</time>
      </trkpt>
      <trkpt lat="62.613725318737" lon="17.929541073322">
        <ele>0</ele>
        <time>2018-03-30T12:34:36Z</time>
      </trkpt>
      <trkpt lat="62.613752979007" lon="17.929535876544">
        <ele>0</ele>
        <time>2018-03-30T12:34:37Z</time>
      </trkpt>
      <trkpt lat="62.613785249322" lon="17.929523219875">
        <ele>0</ele>
        <time>2018-03-30T12:34:38Z</time>
      </trkpt>
      <trkpt lat="62.613818190189" lon="17.929518190735">
        <ele>0</ele>
        <time>2018-03-30T12:34:39Z</time>
      </trkpt>
      <trkpt lat="62.613850711961" lon="17.929498409451">
        <ele>0</ele>
        <time>2018-03-30T12:34:40Z</time>
      </trkpt>
      <trkpt lat="62.613878372231" lon="17.929492206845">
        <ele>0</ele>
        <time>2018-03-30T12:34:41Z</time>
      </trkpt>
      <trkpt lat="62.613905026673" lon="17.929479298719">
        <ele>0</ele>
        <time>2018-03-30T12:34:42Z</time>
      </trkpt>
      <trkpt lat="62.613938889549" lon="17.929474437217">
        <ele>0</ele>
        <time>2018-03-30T12:34:43Z</time>
      </trkpt>
      <trkpt lat="62.613969232027" lon="17.929465384765">
        <ele>0</ele>
        <time>2018-03-30T12:34:44Z</time>
      </trkpt>
      <trkpt lat="62.613999825962" lon="17.92945490739">
        <ele>0</ele>
        <time>2018-03-30T12:34:45Z</time>
      </trkpt>
      <trkpt lat="62.614016086848" lon="17.929454572114">
        <ele>0</ele>
        <time>2018-03-30T12:34:46Z</time>
      </trkpt>
      <trkpt lat="62.614054392131" lon="17.929444430015">
        <ele>0</ele>
        <time>2018-03-30T12:34:47Z</time>
      </trkpt>
      <trkpt lat="62.614087835912" lon="17.929442921273">
        <ele>0</ele>
        <time>2018-03-30T12:34:48Z</time>
      </trkpt>
      <trkpt lat="62.614117843114" lon="17.92942640893">
        <ele>0</ele>
        <time>2018-03-30T12:34:49Z</time>
      </trkpt>
      <trkpt lat="62.614146760669" lon="17.929429258776">
        <ele>0</ele>
        <time>2018-03-30T12:34:50Z</time>
      </trkpt>
      <trkpt lat="62.614173834206" lon="17.929419787229">
        <ele>0</ele>
        <time>2018-03-30T12:34:51Z</time>
      </trkpt>
      <trkpt lat="62.614200991562" lon="17.929417272659">
        <ele>0</ele>
        <time>2018-03-30T12:34:52Z</time>
      </trkpt>
      <trkpt lat="62.614229992936" lon="17.929408974578">
        <ele>0</ele>
        <time>2018-03-30T12:34:53Z</time>
      </trkpt>
      <trkpt lat="62.614260251595" lon="17.929406124732">
        <ele>0</ele>
        <time>2018-03-30T12:34:54Z</time>
      </trkpt>
      <trkpt lat="62.614293108643" lon="17.929397742832">
        <ele>0</ele>
        <time>2018-03-30T12:34:55Z</time>
      </trkpt>
      <trkpt lat="62.614318421981" lon="17.929399503031">
        <ele>0</ele>
        <time>2018-03-30T12:34:56Z</time>
      </trkpt>
      <trkpt lat="62.614342226577" lon="17.929397156099">
        <ele>0</ele>
        <time>2018-03-30T12:34:57Z</time>
      </trkpt>
      <trkpt lat="62.614375921815" lon="17.92939371952">
        <ele>0</ele>
        <time>2018-03-30T12:34:58Z</time>
      </trkpt>
      <trkpt lat="62.614409114139" lon="17.929390115303">
        <ele>0</ele>
        <time>2018-03-30T12:34:59Z</time>
      </trkpt>
      <trkpt lat="62.614435600943" lon="17.929384080335">
        <ele>0</ele>
        <time>2018-03-30T12:35:00Z</time>
      </trkpt>
      <trkpt lat="62.614464686136" lon="17.929383325964">
        <ele>0</ele>
        <time>2018-03-30T12:35:01Z</time>
      </trkpt>
      <trkpt lat="62.614491005302" lon="17.929376788082">
        <ele>0</ele>
        <time>2018-03-30T12:35:02Z</time>
      </trkpt>
      <trkpt lat="62.61452134778" lon="17.929369579648">
        <ele>0</ele>
        <time>2018-03-30T12:35:03Z</time>
      </trkpt>
      <trkpt lat="62.61455403719" lon="17.929363796137">
        <ele>0</ele>
        <time>2018-03-30T12:35:04Z</time>
      </trkpt>
      <trkpt lat="62.614586056048" lon="17.929366310707">
        <ele>0</ele>
        <time>2018-03-30T12:35:05Z</time>
      </trkpt>
      <trkpt lat="62.614618745458" lon="17.929357006798">
        <ele>0</ele>
        <time>2018-03-30T12:35:06Z</time>
      </trkpt>
      <trkpt lat="62.614644645529" lon="17.929362119757">
        <ele>0</ele>
        <time>2018-03-30T12:35:07Z</time>
      </trkpt>
      <trkpt lat="62.614674317455" lon="17.929360108101">
        <ele>0</ele>
        <time>2018-03-30T12:35:08Z</time>
      </trkpt>
      <trkpt lat="62.614704240838" lon="17.929369328191">
        <ele>0</ele>
        <time>2018-03-30T12:35:09Z</time>
      </trkpt>
      <trkpt lat="62.614741288836" lon="17.929375614616">
        <ele>0</ele>
        <time>2018-03-30T12:35:10Z</time>
      </trkpt>
      <trkpt lat="62.614770206391" lon="17.929384667068">
        <ele>0</ele>
        <time>2018-03-30T12:35:11Z</time>
      </trkpt>
      <trkpt lat="62.614797447566" lon="17.929397239918">
        <ele>0</ele>
        <time>2018-03-30T12:35:12Z</time>
      </trkpt>
      <trkpt lat="62.614830220795" lon="17.929403693981">
        <ele>0</ele>
        <time>2018-03-30T12:35:13Z</time>
      </trkpt>
      <trkpt lat="62.614864502766" lon="17.929411153872">
        <ele>0</ele>
        <time>2018-03-30T12:35:14Z</time>
      </trkpt>
      <trkpt lat="62.614892414493" lon="17.929407382017">
        <ele>0</ele>
        <time>2018-03-30T12:35:15Z</time>
      </trkpt>
      <trkpt lat="62.61492535536" lon="17.929406627646">
        <ele>0</ele>
        <time>2018-03-30T12:35:16Z</time>
      </trkpt>
      <trkpt lat="62.614953099449" lon="17.929400005945">
        <ele>0</ele>
        <time>2018-03-30T12:35:17Z</time>
      </trkpt>
      <trkpt lat="62.614991656189" lon="17.929387181638">
        <ele>0</ele>
        <time>2018-03-30T12:35:18Z</time>
      </trkpt>
      <trkpt lat="62.615028033635" lon="17.929388271285">
        <ele>0</ele>
        <time>2018-03-30T12:35:19Z</time>
      </trkpt>
      <trkpt lat="62.61506365671" lon="17.92937695572">
        <ele>0</ele>
        <time>2018-03-30T12:35:20Z</time>
      </trkpt>
      <trkpt lat="62.615091065523" lon="17.929382152498">
        <ele>0</ele>
        <time>2018-03-30T12:35:21Z</time>
      </trkpt>
      <trkpt lat="62.615125012218" lon="17.929383912697">
        <ele>0</ele>
        <time>2018-03-30T12:35:22Z</time>
      </trkpt>
      <trkpt lat="62.615154348868" lon="17.929383912697">
        <ele>0</ele>
        <time>2018-03-30T12:35:23Z</time>
      </trkpt>
      <trkpt lat="62.615192318875" lon="17.929380057023">
        <ele>0</ele>
        <time>2018-03-30T12:35:24Z</time>
      </trkpt>
      <trkpt lat="62.615220733516" lon="17.929383828878">
        <ele>0</ele>
        <time>2018-03-30T12:35:25Z</time>
      </trkpt>
      <trkpt lat="62.615253758202" lon="17.929376704263">
        <ele>0</ele>
        <time>2018-03-30T12:35:26Z</time>
      </trkpt>
      <trkpt lat="62.615276305513" lon="17.929383074507">
        <ele>0</ele>
        <time>2018-03-30T12:35:27Z</time>
      </trkpt>
      <trkpt lat="62.615310419846" lon="17.929386008172">
        <ele>0</ele>
        <time>2018-03-30T12:35:28Z</time>
      </trkpt>
      <trkpt lat="62.615338834487" lon="17.929395479719">
        <ele>0</ele>
        <time>2018-03-30T12:35:29Z</time>
      </trkpt>
      <trkpt lat="62.615370266612" lon="17.929395647357">
        <ele>0</ele>
        <time>2018-03-30T12:35:30Z</time>
      </trkpt>
      <trkpt lat="62.615394574122" lon="17.929404029257">
        <ele>0</ele>
        <time>2018-03-30T12:35:31Z</time>
      </trkpt>
      <trkpt lat="62.615425838609" lon="17.929405621818">
        <ele>0</ele>
        <time>2018-03-30T12:35:32Z</time>
      </trkpt>
      <trkpt lat="62.615453247422" lon="17.929412494976">
        <ele>0</ele>
        <time>2018-03-30T12:35:33Z</time>
      </trkpt>
      <trkpt lat="62.615490211601" lon="17.929419200496">
        <ele>0</ele>
        <time>2018-03-30T12:35:34Z</time>
      </trkpt>
      <trkpt lat="62.615517452776" lon="17.929427330939">
        <ele>0</ele>
        <time>2018-03-30T12:35:35Z</time>
      </trkpt>
      <trkpt lat="62.615549890729" lon="17.929431773346">
        <ele>0</ele>
        <time>2018-03-30T12:35:36Z</time>
      </trkpt>
      <trkpt lat="62.615575120248" lon="17.929431186613">
        <ele>0</ele>
        <time>2018-03-30T12:35:37Z</time>
      </trkpt>
      <trkpt lat="62.615605462726" lon="17.929442837454">
        <ele>0</ele>
        <time>2018-03-30T12:35:38Z</time>
      </trkpt>
      <trkpt lat="62.615633290634" lon="17.929447615137">
        <ele>0</ele>
        <time>2018-03-30T12:35:39Z</time>
      </trkpt>
      <trkpt lat="62.615665225673" lon="17.929461780548">
        <ele>0</ele>
        <time>2018-03-30T12:35:40Z</time>
      </trkpt>
      <trkpt lat="62.615697831264" lon="17.929483992583">
        <ele>0</ele>
        <time>2018-03-30T12:35:41Z</time>
      </trkpt>
      <trkpt lat="62.615723060783" lon="17.929499415279">
        <ele>0</ele>
        <time>2018-03-30T12:35:42Z</time>
      </trkpt>
      <trkpt lat="62.615758348582" lon="17.929540738046">
        <ele>0</ele>
        <time>2018-03-30T12:35:43Z</time>
      </trkpt>
      <trkpt lat="62.615787769051" lon="17.92956890123">
        <ele>0</ele>
        <time>2018-03-30T12:35:44Z</time>
      </trkpt>
      <trkpt lat="62.615810903095" lon="17.929605530133">
        <ele>0</ele>
        <time>2018-03-30T12:35:45Z</time>
      </trkpt>
      <trkpt lat="62.61583982065" lon="17.929642326674">
        <ele>0</ele>
        <time>2018-03-30T12:35:46Z</time>
      </trkpt>
      <trkpt lat="62.615865301626" lon="17.929682978889">
        <ele>0</ele>
        <time>2018-03-30T12:35:47Z</time>
      </trkpt>
      <trkpt lat="62.615898242493" lon="17.929719607792">
        <ele>0</ele>
        <time>2018-03-30T12:35:48Z</time>
      </trkpt>
      <trkpt lat="62.615923388193" lon="17.929761768749">
        <ele>0</ele>
        <time>2018-03-30T12:35:49Z</time>
      </trkpt>
      <trkpt lat="62.61595632906" lon="17.929793368512">
        <ele>0</ele>
        <time>2018-03-30T12:35:50Z</time>
      </trkpt>
      <trkpt lat="62.615978373457" lon="17.929830919424">
        <ele>0</ele>
        <time>2018-03-30T12:35:51Z</time>
      </trkpt>
      <trkpt lat="62.616007374831" lon="17.929865117576">
        <ele>0</ele>
        <time>2018-03-30T12:35:52Z</time>
      </trkpt>
      <trkpt lat="62.616035202739" lon="17.92989160438">
        <ele>0</ele>
        <time>2018-03-30T12:35:53Z</time>
      </trkpt>
      <trkpt lat="62.616072250737" lon="17.929913900234">
        <ele>0</ele>
        <time>2018-03-30T12:35:54Z</time>
      </trkpt>
      <trkpt lat="62.616105359242" lon="17.929923874695">
        <ele>0</ele>
        <time>2018-03-30T12:35:55Z</time>
      </trkpt>
      <trkpt lat="62.616135953177" lon="17.929935274079">
        <ele>0</ele>
        <time>2018-03-30T12:35:56Z</time>
      </trkpt>
      <trkpt lat="62.616162942895" lon="17.929937956287">
        <ele>0</ele>
        <time>2018-03-30T12:35:57Z</time>
      </trkpt>
      <trkpt lat="62.616204014205" lon="17.92995614501">
        <ele>0</ele>
        <time>2018-03-30T12:35:58Z</time>
      </trkpt>
      <trkpt lat="62.616238044719" lon="17.92996620329">
        <ele>0</ele>
        <time>2018-03-30T12:35:59Z</time>
      </trkpt>
      <trkpt lat="62.616273248699" lon="17.92998464347">
        <ele>0</ele>
        <time>2018-03-30T12:36:00Z</time>
      </trkpt>
      <trkpt lat="62.616306105747" lon="17.929992103361">
        <ele>0</ele>
        <time>2018-03-30T12:36:01Z</time>
      </trkpt>
      <trkpt lat="62.616341393546" lon="17.93001062736">
        <ele>0</ele>
        <time>2018-03-30T12:36:02Z</time>
      </trkpt>
      <trkpt lat="62.61637542406" lon="17.930021775287">
        <ele>0</ele>
        <time>2018-03-30T12:36:03Z</time>
      </trkpt>
      <trkpt lat="62.616416411551" lon="17.930040299286">
        <ele>0</ele>
        <time>2018-03-30T12:36:04Z</time>
      </trkpt>
      <trkpt lat="62.616449268599" lon="17.930051782489">
        <ele>0</ele>
        <time>2018-03-30T12:36:05Z</time>
      </trkpt>
      <trkpt lat="62.61648355057" lon="17.930072988696">
        <ele>0</ele>
        <time>2018-03-30T12:36:06Z</time>
      </trkpt>
      <trkpt lat="62.616511629935" lon="17.930072821058">
        <ele>0</ele>
        <time>2018-03-30T12:36:07Z</time>
      </trkpt>
      <trkpt lat="62.616543313517" lon="17.930086483555">
        <ele>0</ele>
        <time>2018-03-30T12:36:08Z</time>
      </trkpt>
      <trkpt lat="62.61657575147" lon="17.930098385853">
        <ele>0</ele>
        <time>2018-03-30T12:36:09Z</time>
      </trkpt>
      <trkpt lat="62.616608776156" lon="17.930116993671">
        <ele>0</ele>
        <time>2018-03-30T12:36:10Z</time>
      </trkpt>
      <trkpt lat="62.61664196848" lon="17.930121771354">
        <ele>0</ele>
        <time>2018-03-30T12:36:11Z</time>
      </trkpt>
      <trkpt lat="62.616670802216" lon="17.930137110231">
        <ele>0</ele>
        <time>2018-03-30T12:36:12Z</time>
      </trkpt>
      <trkpt lat="62.616708520766" lon="17.930147419968">
        <ele>0</ele>
        <time>2018-03-30T12:36:13Z</time>
      </trkpt>
      <trkpt lat="62.616739785253" lon="17.930167871804">
        <ele>0</ele>
        <time>2018-03-30T12:36:14Z</time>
      </trkpt>
      <trkpt lat="62.616767864618" lon="17.930176421342">
        <ele>0</ele>
        <time>2018-03-30T12:36:15Z</time>
      </trkpt>
      <trkpt lat="62.616800973123" lon="17.930193101323">
        <ele>0</ele>
        <time>2018-03-30T12:36:16Z</time>
      </trkpt>
      <trkpt lat="62.61683559037" lon="17.930208859295">
        <ele>0</ele>
        <time>2018-03-30T12:36:17Z</time>
      </trkpt>
      <trkpt lat="62.616872303092" lon="17.930224198172">
        <ele>0</ele>
        <time>2018-03-30T12:36:18Z</time>
      </trkpt>
      <trkpt lat="62.616906333606" lon="17.930239034135">
        <ele>0</ele>
        <time>2018-03-30T12:36:19Z</time>
      </trkpt>
      <trkpt lat="62.616936508446" lon="17.930252696632">
        <ele>0</ele>
        <time>2018-03-30T12:36:20Z</time>
      </trkpt>
      <trkpt lat="62.616964755449" lon="17.9302671135">
        <ele>0</ele>
        <time>2018-03-30T12:36:21Z</time>
      </trkpt>
      <trkpt lat="62.616994343556" lon="17.930281614187">
        <ele>0</ele>
        <time>2018-03-30T12:36:22Z</time>
      </trkpt>
      <trkpt lat="62.617027787337" lon="17.930302233661">
        <ele>0</ele>
        <time>2018-03-30T12:36:23Z</time>
      </trkpt>
      <trkpt lat="62.617063410412" lon="17.930314219778">
        <ele>0</ele>
        <time>2018-03-30T12:36:24Z</time>
      </trkpt>
      <trkpt lat="62.617095764546" lon="17.930337353822">
        <ele>0</ele>
        <time>2018-03-30T12:36:25Z</time>
      </trkpt>
      <trkpt lat="62.617128453956" lon="17.930348334111">
        <ele>0</ele>
        <time>2018-03-30T12:36:26Z</time>
      </trkpt>
      <trkpt lat="62.617152174733" lon="17.930363337712">
        <ele>0</ele>
        <time>2018-03-30T12:36:27Z</time>
      </trkpt>
      <trkpt lat="62.617189474188" lon="17.930380017693">
        <ele>0</ele>
        <time>2018-03-30T12:36:28Z</time>
      </trkpt>
      <trkpt lat="62.61722031958" lon="17.930403989927">
        <ele>0</ele>
        <time>2018-03-30T12:36:29Z</time>
      </trkpt>
      <trkpt lat="62.617252338438" lon="17.93041212037">
        <ele>0</ele>
        <time>2018-03-30T12:36:30Z</time>
      </trkpt>
      <trkpt lat="62.617280250165" lon="17.930429219446">
        <ele>0</ele>
        <time>2018-03-30T12:36:31Z</time>
      </trkpt>
      <trkpt lat="62.617307910435" lon="17.93043894245">
        <ele>0</ele>
        <time>2018-03-30T12:36:32Z</time>
      </trkpt>
      <trkpt lat="62.617336744171" lon="17.930454113689">
        <ele>0</ele>
        <time>2018-03-30T12:36:33Z</time>
      </trkpt>
      <trkpt lat="62.617375468549" lon="17.930471715679">
        <ele>0</ele>
        <time>2018-03-30T12:36:34Z</time>
      </trkpt>
      <trkpt lat="62.617405308113" lon="17.930482025416">
        <ele>0</ele>
        <time>2018-03-30T12:36:35Z</time>
      </trkpt>
      <trkpt lat="62.617440260636" lon="17.93050013032">
        <ele>0</ele>
        <time>2018-03-30T12:36:36Z</time>
      </trkpt>
      <trkpt lat="62.61746674744" lon="17.930502225795">
        <ele>0</ele>
        <time>2018-03-30T12:36:37Z</time>
      </trkpt>
      <trkpt lat="62.617497257556" lon="17.930514882464">
        <ele>0</ele>
        <time>2018-03-30T12:36:38Z</time>
      </trkpt>
      <trkpt lat="62.617529360233" lon="17.930520665975">
        <ele>0</ele>
        <time>2018-03-30T12:36:39Z</time>
      </trkpt>
      <trkpt lat="62.617565486222" lon="17.930527622952">
        <ele>0</ele>
        <time>2018-03-30T12:36:40Z</time>
      </trkpt>
      <trkpt lat="62.617597588899" lon="17.930526198029">
        <ele>0</ele>
        <time>2018-03-30T12:36:41Z</time>
      </trkpt>
      <trkpt lat="62.617626422635" lon="17.930527539133">
        <ele>0</ele>
        <time>2018-03-30T12:36:42Z</time>
      </trkpt>
      <trkpt lat="62.617665230832" lon="17.930530556617">
        <ele>0</ele>
        <time>2018-03-30T12:36:43Z</time>
      </trkpt>
      <trkpt lat="62.617700350993" lon="17.930525108382">
        <ele>0</ele>
        <time>2018-03-30T12:36:44Z</time>
      </trkpt>
      <trkpt lat="62.617734632964" lon="17.930518319043">
        <ele>0</ele>
        <time>2018-03-30T12:36:45Z</time>
      </trkpt>
      <trkpt lat="62.617744439787" lon="17.93054120163">
        <ele>0</ele>
        <time>2018-03-30T12:36:46Z</time>
      </trkpt>
      <trkpt lat="62.617828929339" lon="17.930566682606">
        <ele>0</ele>
        <time>2018-03-30T12:36:48Z</time>
      </trkpt>
      <trkpt lat="62.617856421971" lon="17.930579255456">
        <ele>0</ele>
        <time>2018-03-30T12:36:49Z</time>
      </trkpt>
      <trkpt lat="62.617887015906" lon="17.930602054224">
        <ele>0</ele>
        <time>2018-03-30T12:36:50Z</time>
      </trkpt>
      <trkpt lat="62.617912832158" lon="17.930613621246">
        <ele>0</ele>
        <time>2018-03-30T12:36:51Z</time>
      </trkpt>
      <trkpt lat="62.617939402781" lon="17.930631893788">
        <ele>0</ele>
        <time>2018-03-30T12:36:52Z</time>
      </trkpt>
      <trkpt lat="62.617972930381" lon="17.930651758891">
        <ele>0</ele>
        <time>2018-03-30T12:36:53Z</time>
      </trkpt>
      <trkpt lat="62.618002853764" lon="17.930665924302">
        <ele>0</ele>
        <time>2018-03-30T12:36:54Z</time>
      </trkpt>
      <trkpt lat="62.618032777147" lon="17.930693500753">
        <ele>0</ele>
        <time>2018-03-30T12:36:55Z</time>
      </trkpt>
      <trkpt lat="62.618059180132" lon="17.930712276209">
        <ele>0</ele>
        <time>2018-03-30T12:36:56Z</time>
      </trkpt>
      <trkpt lat="62.618076279208" lon="17.930742534868">
        <ele>0</ele>
        <time>2018-03-30T12:36:57Z</time>
      </trkpt>
      <trkpt lat="62.61810209546" lon="17.930797352494">
        <ele>0</ele>
        <time>2018-03-30T12:36:58Z</time>
      </trkpt>
      <trkpt lat="62.618119529812" lon="17.930840686917">
        <ele>0</ele>
        <time>2018-03-30T12:36:59Z</time>
      </trkpt>
      <trkpt lat="62.618133862861" lon="17.930892822335">
        <ele>0</ele>
        <time>2018-03-30T12:37:00Z</time>
      </trkpt>
      <trkpt lat="62.618145346064" lon="17.930949148703">
        <ele>0</ele>
        <time>2018-03-30T12:37:01Z</time>
      </trkpt>
      <trkpt lat="62.618157835095" lon="17.93099717699">
        <ele>0</ele>
        <time>2018-03-30T12:37:02Z</time>
      </trkpt>
      <trkpt lat="62.618175185628" lon="17.931045372915">
        <ele>0</ele>
        <time>2018-03-30T12:37:03Z</time>
      </trkpt>
      <trkpt lat="62.618199074043" lon="17.93108937789">
        <ele>0</ele>
        <time>2018-03-30T12:37:04Z</time>
      </trkpt>
      <trkpt lat="62.618226650494" lon="17.931119971825">
        <ele>0</ele>
        <time>2018-03-30T12:37:05Z</time>
      </trkpt>
      <trkpt lat="62.61825296966" lon="17.931142854412">
        <ele>0</ele>
        <time>2018-03-30T12:37:06Z</time>
      </trkpt>
      <trkpt lat="62.618274175867" lon="17.93117068232">
        <ele>0</ele>
        <time>2018-03-30T12:37:07Z</time>
      </trkpt>
      <trkpt lat="62.618302841965" lon="17.931196833848">
        <ele>0</ele>
        <time>2018-03-30T12:37:08Z</time>
      </trkpt>
      <trkpt lat="62.618330334597" lon="17.931226757231">
        <ele>0</ele>
        <time>2018-03-30T12:37:09Z</time>
      </trkpt>
      <trkpt lat="62.618366544405" lon="17.931251232379">
        <ele>0</ele>
        <time>2018-03-30T12:37:10Z</time>
      </trkpt>
      <trkpt lat="62.618394959046" lon="17.931285849626">
        <ele>0</ele>
        <time>2018-03-30T12:37:11Z</time>
      </trkpt>
      <trkpt lat="62.618421529669" lon="17.931310492412">
        <ele>0</ele>
        <time>2018-03-30T12:37:12Z</time>
      </trkpt>
      <trkpt lat="62.618449441396" lon="17.931345361116">
        <ele>0</ele>
        <time>2018-03-30T12:37:13Z</time>
      </trkpt>
      <trkpt lat="62.618481711711" lon="17.931380481277">
        <ele>0</ele>
        <time>2018-03-30T12:37:14Z</time>
      </trkpt>
      <trkpt lat="62.618502415004" lon="17.931401938941">
        <ele>0</ele>
        <time>2018-03-30T12:37:15Z</time>
      </trkpt>
      <trkpt lat="62.618538960088" lon="17.931446279192">
        <ele>0</ele>
        <time>2018-03-30T12:37:16Z</time>
      </trkpt>
      <trkpt lat="62.618561675037" lon="17.93147243072">
        <ele>0</ele>
        <time>2018-03-30T12:37:17Z</time>
      </trkpt>
      <trkpt lat="62.618592688067" lon="17.931515681324">
        <ele>0</ele>
        <time>2018-03-30T12:37:18Z</time>
      </trkpt>
      <trkpt lat="62.618620767432" lon="17.931546359078">
        <ele>0</ele>
        <time>2018-03-30T12:37:19Z</time>
      </trkpt>
      <trkpt lat="62.618654211213" lon="17.931592208071">
        <ele>0</ele>
        <time>2018-03-30T12:37:20Z</time>
      </trkpt>
      <trkpt lat="62.618679189275" lon="17.931618946332">
        <ele>0</ele>
        <time>2018-03-30T12:37:21Z</time>
      </trkpt>
      <trkpt lat="62.618709196477" lon="17.931660939651">
        <ele>0</ele>
        <time>2018-03-30T12:37:22Z</time>
      </trkpt>
      <trkpt lat="62.618743394629" lon="17.931701591866">
        <ele>0</ele>
        <time>2018-03-30T12:37:23Z</time>
      </trkpt>
      <trkpt lat="62.618774659116" lon="17.931739729511">
        <ele>0</ele>
        <time>2018-03-30T12:37:24Z</time>
      </trkpt>
      <trkpt lat="62.618803409033" lon="17.931782728658">
        <ele>0</ele>
        <time>2018-03-30T12:37:25Z</time>
      </trkpt>
      <trkpt lat="62.618835427891" lon="17.931807958177">
        <ele>0</ele>
        <time>2018-03-30T12:37:26Z</time>
      </trkpt>
      <trkpt lat="62.618856634098" lon="17.931837211008">
        <ele>0</ele>
        <time>2018-03-30T12:37:27Z</time>
      </trkpt>
      <trkpt lat="62.618886808938" lon="17.931877863223">
        <ele>0</ele>
        <time>2018-03-30T12:37:28Z</time>
      </trkpt>
      <trkpt lat="62.618911367905" lon="17.931911390823">
        <ele>0</ele>
        <time>2018-03-30T12:37:29Z</time>
      </trkpt>
      <trkpt lat="62.618943051487" lon="17.931949109373">
        <ele>0</ele>
        <time>2018-03-30T12:37:30Z</time>
      </trkpt>
      <trkpt lat="62.618968532463" lon="17.93198288843">
        <ele>0</ele>
        <time>2018-03-30T12:37:31Z</time>
      </trkpt>
      <trkpt lat="62.618992839973" lon="17.932012979451">
        <ele>0</ele>
        <time>2018-03-30T12:37:32Z</time>
      </trkpt>
      <trkpt lat="62.619018572406" lon="17.932048351069">
        <ele>0</ele>
        <time>2018-03-30T12:37:33Z</time>
      </trkpt>
      <trkpt lat="62.619052854377" lon="17.932096798451">
        <ele>0</ele>
        <time>2018-03-30T12:37:34Z</time>
      </trkpt>
      <trkpt lat="62.619076239878" lon="17.932126051282">
        <ele>0</ele>
        <time>2018-03-30T12:37:35Z</time>
      </trkpt>
      <trkpt lat="62.619107001451" lon="17.932168044601">
        <ele>0</ele>
        <time>2018-03-30T12:37:36Z</time>
      </trkpt>
      <trkpt lat="62.619132063332" lon="17.932191178645">
        <ele>0</ele>
        <time>2018-03-30T12:37:37Z</time>
      </trkpt>
      <trkpt lat="62.61916072943" lon="17.932230070661">
        <ele>0</ele>
        <time>2018-03-30T12:37:38Z</time>
      </trkpt>
      <trkpt lat="62.619190736632" lon="17.932274243274">
        <ele>0</ele>
        <time>2018-03-30T12:37:39Z</time>
      </trkpt>
      <trkpt lat="62.619221246748" lon="17.932310117806">
        <ele>0</ele>
        <time>2018-03-30T12:37:40Z</time>
      </trkpt>
      <trkpt lat="62.619250331941" lon="17.932353033134">
        <ele>0</ele>
        <time>2018-03-30T12:37:41Z</time>
      </trkpt>
      <trkpt lat="62.619272963071" lon="17.932382202146">
        <ele>0</ele>
        <time>2018-03-30T12:37:42Z</time>
      </trkpt>
      <trkpt lat="62.619305401024" lon="17.932431990632">
        <ele>0</ele>
        <time>2018-03-30T12:37:43Z</time>
      </trkpt>
      <trkpt lat="62.619330462905" lon="17.93247322958">
        <ele>0</ele>
        <time>2018-03-30T12:37:44Z</time>
      </trkpt>
      <trkpt lat="62.619355273329" lon="17.932513797976">
        <ele>0</ele>
        <time>2018-03-30T12:37:45Z</time>
      </trkpt>
      <trkpt lat="62.619379999934" lon="17.932554450191">
        <ele>0</ele>
        <time>2018-03-30T12:37:46Z</time>
      </trkpt>
      <trkpt lat="62.619376479536" lon="17.932533663079">
        <ele>0</ele>
        <time>2018-03-30T12:37:47Z</time>
      </trkpt>
      <trkpt lat="62.619403972168" lon="17.932569369973">
        <ele>0</ele>
        <time>2018-03-30T12:37:48Z</time>
      </trkpt>
      <trkpt lat="62.619420903606" lon="17.932586804325">
        <ele>0</ele>
        <time>2018-03-30T12:37:49Z</time>
      </trkpt>
      <trkpt lat="62.619584350656" lon="17.932820910792">
        <ele>0</ele>
        <time>2018-03-30T12:37:53Z</time>
      </trkpt>
      <trkpt lat="62.619615279867" lon="17.932867681794">
        <ele>0</ele>
        <time>2018-03-30T12:37:54Z</time>
      </trkpt>
      <trkpt lat="62.619645706164" lon="17.932894587693">
        <ele>0</ele>
        <time>2018-03-30T12:37:55Z</time>
      </trkpt>
      <trkpt lat="62.619672192968" lon="17.932936832469">
        <ele>0</ele>
        <time>2018-03-30T12:37:56Z</time>
      </trkpt>
      <trkpt lat="62.619694907917" lon="17.932965750024">
        <ele>0</ele>
        <time>2018-03-30T12:37:57Z</time>
      </trkpt>
      <trkpt lat="62.619726172404" lon="17.933012688664">
        <ele>0</ele>
        <time>2018-03-30T12:37:58Z</time>
      </trkpt>
      <trkpt lat="62.61975249157" lon="17.933057950924">
        <ele>0</ele>
        <time>2018-03-30T12:37:59Z</time>
      </trkpt>
      <trkpt lat="62.619775206519" lon="17.93308678466">
        <ele>0</ele>
        <time>2018-03-30T12:38:00Z</time>
      </trkpt>
      <trkpt lat="62.619803202065" lon="17.933129951445">
        <ele>0</ele>
        <time>2018-03-30T12:38:01Z</time>
      </trkpt>
      <trkpt lat="62.619823234806" lon="17.933151492928">
        <ele>0</ele>
        <time>2018-03-30T12:38:02Z</time>
      </trkpt>
      <trkpt lat="62.619848715782" lon="17.933187451279">
        <ele>0</ele>
        <time>2018-03-30T12:38:03Z</time>
      </trkpt>
      <trkpt lat="62.619882075744" lon="17.933221230336">
        <ele>0</ele>
        <time>2018-03-30T12:38:04Z</time>
      </trkpt>
      <trkpt lat="62.61990671853" lon="17.933261631094">
        <ele>0</ele>
        <time>2018-03-30T12:38:05Z</time>
      </trkpt>
      <trkpt lat="62.619936222818" lon="17.933294069047">
        <ele>0</ele>
        <time>2018-03-30T12:38:06Z</time>
      </trkpt>
      <trkpt lat="62.619957261387" lon="17.933325165896">
        <ele>0</ele>
        <time>2018-03-30T12:38:07Z</time>
      </trkpt>
      <trkpt lat="62.619980982164" lon="17.93336757831">
        <ele>0</ele>
        <time>2018-03-30T12:38:08Z</time>
      </trkpt>
      <trkpt lat="62.620006379321" lon="17.933402111738">
        <ele>0</ele>
        <time>2018-03-30T12:38:09Z</time>
      </trkpt>
      <trkpt lat="62.620035548333" lon="17.933449972387">
        <ele>0</ele>
        <time>2018-03-30T12:38:10Z</time>
      </trkpt>
      <trkpt lat="62.620064717345" lon="17.9334857631">
        <ele>0</ele>
        <time>2018-03-30T12:38:11Z</time>
      </trkpt>
      <trkpt lat="62.62008776757" lon="17.933521972908">
        <ele>0</ele>
        <time>2018-03-30T12:38:12Z</time>
      </trkpt>
      <trkpt lat="62.620118193867" lon="17.933561116381">
        <ele>0</ele>
        <time>2018-03-30T12:38:13Z</time>
      </trkpt>
      <trkpt lat="62.620142501377" lon="17.93359053685">
        <ele>0</ele>
        <time>2018-03-30T12:38:14Z</time>
      </trkpt>
      <trkpt lat="62.620163456127" lon="17.933621298423">
        <ele>0</ele>
        <time>2018-03-30T12:38:15Z</time>
      </trkpt>
      <trkpt lat="62.620195474985" lon="17.933655245118">
        <ele>0</ele>
        <time>2018-03-30T12:38:16Z</time>
      </trkpt>
      <trkpt lat="62.620218692848" lon="17.933685922872">
        <ele>0</ele>
        <time>2018-03-30T12:38:17Z</time>
      </trkpt>
      <trkpt lat="62.620245934023" lon="17.933723473784">
        <ele>0</ele>
        <time>2018-03-30T12:38:18Z</time>
      </trkpt>
      <trkpt lat="62.62027468394" lon="17.933766137655">
        <ele>0</ele>
        <time>2018-03-30T12:38:19Z</time>
      </trkpt>
      <trkpt lat="62.620302511848" lon="17.933794636115">
        <ele>0</ele>
        <time>2018-03-30T12:38:20Z</time>
      </trkpt>
      <trkpt lat="62.620325226797" lon="17.933829504819">
        <ele>0</ele>
        <time>2018-03-30T12:38:21Z</time>
      </trkpt>
      <trkpt lat="62.620353138524" lon="17.933861188401">
        <ele>0</ele>
        <time>2018-03-30T12:38:22Z</time>
      </trkpt>
      <trkpt lat="62.620379709147" lon="17.933898068761">
        <ele>0</ele>
        <time>2018-03-30T12:38:23Z</time>
      </trkpt>
      <trkpt lat="62.620414158756" lon="17.933940313537">
        <ele>0</ele>
        <time>2018-03-30T12:38:24Z</time>
      </trkpt>
      <trkpt lat="62.620439723551" lon="17.933966716522">
        <ele>0</ele>
        <time>2018-03-30T12:38:25Z</time>
      </trkpt>
      <trkpt lat="62.620466797088" lon="17.93400627909">
        <ele>0</ele>
        <time>2018-03-30T12:38:26Z</time>
      </trkpt>
      <trkpt lat="62.620490014951" lon="17.934034358455">
        <ele>0</ele>
        <time>2018-03-30T12:38:27Z</time>
      </trkpt>
      <trkpt lat="62.620525135112" lon="17.934072244643">
        <ele>0</ele>
        <time>2018-03-30T12:38:28Z</time>
      </trkpt>
      <trkpt lat="62.620553130658" lon="17.934111723392">
        <ele>0</ele>
        <time>2018-03-30T12:38:29Z</time>
      </trkpt>
      <trkpt lat="62.620579952738" lon="17.93414877139">
        <ele>0</ele>
        <time>2018-03-30T12:38:30Z</time>
      </trkpt>
      <trkpt lat="62.620612390691" lon="17.934188250139">
        <ele>0</ele>
        <time>2018-03-30T12:38:31Z</time>
      </trkpt>
      <trkpt lat="62.620636279106" lon="17.934224879042">
        <ele>0</ele>
        <time>2018-03-30T12:38:32Z</time>
      </trkpt>
      <trkpt lat="62.620663939376" lon="17.934252287855">
        <ele>0</ele>
        <time>2018-03-30T12:38:33Z</time>
      </trkpt>
      <trkpt lat="62.620696712605" lon="17.934295538459">
        <ele>0</ele>
        <time>2018-03-30T12:38:34Z</time>
      </trkpt>
      <trkpt lat="62.62072814473" lon="17.934321941444">
        <ele>0</ele>
        <time>2018-03-30T12:38:35Z</time>
      </trkpt>
      <trkpt lat="62.620755972638" lon="17.934364521496">
        <ele>0</ele>
        <time>2018-03-30T12:38:36Z</time>
      </trkpt>
      <trkpt lat="62.620783884365" lon="17.934387404083">
        <ele>0</ele>
        <time>2018-03-30T12:38:37Z</time>
      </trkpt>
      <trkpt lat="62.620808527151" lon="17.934420009674">
        <ele>0</ele>
        <time>2018-03-30T12:38:38Z</time>
      </trkpt>
      <trkpt lat="62.620837360887" lon="17.934454459283">
        <ele>0</ele>
        <time>2018-03-30T12:38:39Z</time>
      </trkpt>
      <trkpt lat="62.620868290098" lon="17.934490920548">
        <ele>0</ele>
        <time>2018-03-30T12:38:40Z</time>
      </trkpt>
      <trkpt lat="62.620895447454" lon="17.934533165324">
        <ele>0</ele>
        <time>2018-03-30T12:38:41Z</time>
      </trkpt>
      <trkpt lat="62.620918832955" lon="17.934552862789">
        <ele>0</ele>
        <time>2018-03-30T12:38:42Z</time>
      </trkpt>
      <trkpt lat="62.620948923976" lon="17.934597454497">
        <ele>0</ele>
        <time>2018-03-30T12:38:43Z</time>
      </trkpt>
      <trkpt lat="62.62097541078" lon="17.934630646821">
        <ele>0</ele>
        <time>2018-03-30T12:38:44Z</time>
      </trkpt>
      <trkpt lat="62.620993515684" lon="17.934660821661">
        <ele>0</ele>
        <time>2018-03-30T12:38:45Z</time>
      </trkpt>
      <trkpt lat="62.62102654037" lon="17.934698959306">
        <ele>0</ele>
        <time>2018-03-30T12:38:46Z</time>
      </trkpt>
      <trkpt lat="62.621051350794" lon="17.934729972336">
        <ele>0</ele>
        <time>2018-03-30T12:38:47Z</time>
      </trkpt>
      <trkpt lat="62.621085381308" lon="17.934767523248">
        <ele>0</ele>
        <time>2018-03-30T12:38:48Z</time>
      </trkpt>
      <trkpt lat="62.621109688818" lon="17.934794512966">
        <ele>0</ele>
        <time>2018-03-30T12:38:49Z</time>
      </trkpt>
      <trkpt lat="62.621136678536" lon="17.934839775226">
        <ele>0</ele>
        <time>2018-03-30T12:38:50Z</time>
      </trkpt>
      <trkpt lat="62.621157214191" lon="17.934861651985">
        <ele>0</ele>
        <time>2018-03-30T12:38:51Z</time>
      </trkpt>
      <trkpt lat="62.621182527529" lon="17.934902136562">
        <ele>0</ele>
        <time>2018-03-30T12:38:52Z</time>
      </trkpt>
      <trkpt lat="62.621205829211" lon="17.934938094913">
        <ele>0</ele>
        <time>2018-03-30T12:38:53Z</time>
      </trkpt>
      <trkpt lat="62.621234495309" lon="17.934988051037">
        <ele>0</ele>
        <time>2018-03-30T12:38:54Z</time>
      </trkpt>
      <trkpt lat="62.62125536624" lon="17.935015040755">
        <ele>0</ele>
        <time>2018-03-30T12:38:55Z</time>
      </trkpt>
      <trkpt lat="62.621278081189" lon="17.935058542816">
        <ele>0</ele>
        <time>2018-03-30T12:38:56Z</time>
      </trkpt>
      <trkpt lat="62.62129895212" lon="17.935085616353">
        <ele>0</ele>
        <time>2018-03-30T12:38:57Z</time>
      </trkpt>
      <trkpt lat="62.621327282942" lon="17.935123083446">
        <ele>0</ele>
        <time>2018-03-30T12:38:58Z</time>
      </trkpt>
      <trkpt lat="62.621354859393" lon="17.935164238575">
        <ele>0</ele>
        <time>2018-03-30T12:38:59Z</time>
      </trkpt>
      <trkpt lat="62.621374640677" lon="17.935190557741">
        <ele>0</ele>
        <time>2018-03-30T12:39:00Z</time>
      </trkpt>
      <trkpt lat="62.621404144965" lon="17.935240430046">
        <ele>0</ele>
        <time>2018-03-30T12:39:01Z</time>
      </trkpt>
      <trkpt lat="62.621421244041" lon="17.93527026961">
        <ele>0</ele>
        <time>2018-03-30T12:39:02Z</time>
      </trkpt>
      <trkpt lat="62.621443707533" lon="17.935313687852">
        <ele>0</ele>
        <time>2018-03-30T12:39:03Z</time>
      </trkpt>
      <trkpt lat="62.621472876545" lon="17.935359788302">
        <ele>0</ele>
        <time>2018-03-30T12:39:04Z</time>
      </trkpt>
      <trkpt lat="62.621496094408" lon="17.9354052182">
        <ele>0</ele>
        <time>2018-03-30T12:39:05Z</time>
      </trkpt>
      <trkpt lat="62.621523251764" lon="17.93544880408">
        <ele>0</ele>
        <time>2018-03-30T12:39:06Z</time>
      </trkpt>
      <trkpt lat="62.621543535962" lon="17.935482164042">
        <ele>0</ele>
        <time>2018-03-30T12:39:07Z</time>
      </trkpt>
      <trkpt lat="62.621568094929" lon="17.93552675575">
        <ele>0</ele>
        <time>2018-03-30T12:39:08Z</time>
      </trkpt>
      <trkpt lat="62.621591648068" lon="17.935563217015">
        <ele>0</ele>
        <time>2018-03-30T12:39:09Z</time>
      </trkpt>
      <trkpt lat="62.621618973062" lon="17.935622393229">
        <ele>0</ele>
        <time>2018-03-30T12:39:10Z</time>
      </trkpt>
      <trkpt lat="62.621647052427" lon="17.935659860322">
        <ele>0</ele>
        <time>2018-03-30T12:39:11Z</time>
      </trkpt>
      <trkpt lat="62.621665911702" lon="17.935701518365">
        <ele>0</ele>
        <time>2018-03-30T12:39:12Z</time>
      </trkpt>
      <trkpt lat="62.621693069058" lon="17.935763712063">
        <ele>0</ele>
        <time>2018-03-30T12:39:13Z</time>
      </trkpt>
      <trkpt lat="62.621716286921" lon="17.935805789201">
        <ele>0</ele>
        <time>2018-03-30T12:39:14Z</time>
      </trkpt>
      <trkpt lat="62.621735062377" lon="17.935843423932">
        <ele>0</ele>
        <time>2018-03-30T12:39:15Z</time>
      </trkpt>
      <trkpt lat="62.621762555009" lon="17.935905869087">
        <ele>0</ele>
        <time>2018-03-30T12:39:16Z</time>
      </trkpt>
      <trkpt lat="62.621784180311" lon="17.935949874062">
        <ele>0</ele>
        <time>2018-03-30T12:39:17Z</time>
      </trkpt>
      <trkpt lat="62.621812008219" lon="17.93599781853">
        <ele>0</ele>
        <time>2018-03-30T12:39:18Z</time>
      </trkpt>
      <trkpt lat="62.621835728996" lon="17.936050205405">
        <ele>0</ele>
        <time>2018-03-30T12:39:19Z</time>
      </trkpt>
      <trkpt lat="62.621860623239" lon="17.936092282543">
        <ele>0</ele>
        <time>2018-03-30T12:39:20Z</time>
      </trkpt>
      <trkpt lat="62.621877722315" lon="17.936134694957">
        <ele>0</ele>
        <time>2018-03-30T12:39:21Z</time>
      </trkpt>
      <trkpt lat="62.621896413952" lon="17.936193368257">
        <ele>0</ele>
        <time>2018-03-30T12:39:22Z</time>
      </trkpt>
      <trkpt lat="62.621920386186" lon="17.936248856435">
        <ele>0</ele>
        <time>2018-03-30T12:39:23Z</time>
      </trkpt>
      <trkpt lat="62.621942179126" lon="17.936309206115">
        <ele>0</ele>
        <time>2018-03-30T12:39:24Z</time>
      </trkpt>
      <trkpt lat="62.621963720609" lon="17.936369807252">
        <ele>0</ele>
        <time>2018-03-30T12:39:25Z</time>
      </trkpt>
      <trkpt lat="62.621984926816" lon="17.93641439896">
        <ele>0</ele>
        <time>2018-03-30T12:39:26Z</time>
      </trkpt>
      <trkpt lat="62.622006552118" lon="17.936455051175">
        <ele>0</ele>
        <time>2018-03-30T12:39:27Z</time>
      </trkpt>
      <trkpt lat="62.622020046977" lon="17.936522609289">
        <ele>0</ele>
        <time>2018-03-30T12:39:28Z</time>
      </trkpt>
      <trkpt lat="62.622048042523" lon="17.936584216254">
        <ele>0</ele>
        <time>2018-03-30T12:39:29Z</time>
      </trkpt>
      <trkpt lat="62.622068075264" lon="17.936632663636">
        <ele>0</ele>
        <time>2018-03-30T12:39:30Z</time>
      </trkpt>
      <trkpt lat="62.622092047498" lon="17.936685804882">
        <ele>0</ele>
        <time>2018-03-30T12:39:31Z</time>
      </trkpt>
      <trkpt lat="62.622115097723" lon="17.936731737694">
        <ele>0</ele>
        <time>2018-03-30T12:39:32Z</time>
      </trkpt>
      <trkpt lat="62.622134711369" lon="17.936776245583">
        <ele>0</ele>
        <time>2018-03-30T12:39:33Z</time>
      </trkpt>
      <trkpt lat="62.622162706915" lon="17.93683517034">
        <ele>0</ele>
        <time>2018-03-30T12:39:34Z</time>
      </trkpt>
      <trkpt lat="62.622188187891" lon="17.936873056528">
        <ele>0</ele>
        <time>2018-03-30T12:39:35Z</time>
      </trkpt>
      <trkpt lat="62.622212746858" lon="17.936925862498">
        <ele>0</ele>
        <time>2018-03-30T12:39:36Z</time>
      </trkpt>
      <trkpt lat="62.62223521035" lon="17.936958216632">
        <ele>0</ele>
        <time>2018-03-30T12:39:37Z</time>
      </trkpt>
      <trkpt lat="62.62226035605" lon="17.937002724521">
        <ele>0</ele>
        <time>2018-03-30T12:39:38Z</time>
      </trkpt>
      <trkpt lat="62.622285417931" lon="17.937051171903">
        <ele>0</ele>
        <time>2018-03-30T12:39:39Z</time>
      </trkpt>
      <trkpt lat="62.622311150364" lon="17.937071791377">
        <ele>0</ele>
        <time>2018-03-30T12:39:40Z</time>
      </trkpt>
      <trkpt lat="62.622349371828" lon="17.93712686046">
        <ele>0</ele>
        <time>2018-03-30T12:39:41Z</time>
      </trkpt>
      <trkpt lat="62.622368734017" lon="17.937168183227">
        <ele>0</ele>
        <time>2018-03-30T12:39:42Z</time>
      </trkpt>
      <trkpt lat="62.622400501418" lon="17.937215540962">
        <ele>0</ele>
        <time>2018-03-30T12:39:43Z</time>
      </trkpt>
      <trkpt lat="62.622422210539" lon="17.93726432362">
        <ele>0</ele>
        <time>2018-03-30T12:39:44Z</time>
      </trkpt>
      <trkpt lat="62.622442662375" lon="17.937294666098">
        <ele>0</ele>
        <time>2018-03-30T12:39:45Z</time>
      </trkpt>
      <trkpt lat="62.622469987369" lon="17.937345879507">
        <ele>0</ele>
        <time>2018-03-30T12:39:46Z</time>
      </trkpt>
      <trkpt lat="62.62249169649" lon="17.937387789007">
        <ele>0</ele>
        <time>2018-03-30T12:39:47Z</time>
      </trkpt>
      <trkpt lat="62.622518602389" lon="17.937425842833">
        <ele>0</ele>
        <time>2018-03-30T12:39:48Z</time>
      </trkpt>
      <trkpt lat="62.622542071709" lon="17.937476218052">
        <ele>0</ele>
        <time>2018-03-30T12:39:49Z</time>
      </trkpt>
      <trkpt lat="62.622565960124" lon="17.937509242738">
        <ele>0</ele>
        <time>2018-03-30T12:39:50Z</time>
      </trkpt>
      <trkpt lat="62.62258473558" lon="17.937544949632">
        <ele>0</ele>
        <time>2018-03-30T12:39:51Z</time>
      </trkpt>
      <trkpt lat="62.622609210728" lon="17.937590798625">
        <ele>0</ele>
        <time>2018-03-30T12:39:52Z</time>
      </trkpt>
      <trkpt lat="62.622632931505" lon="17.937624326225">
        <ele>0</ele>
        <time>2018-03-30T12:39:53Z</time>
      </trkpt>
      <trkpt lat="62.622663693078" lon="17.937675204358">
        <ele>0</ele>
        <time>2018-03-30T12:39:54Z</time>
      </trkpt>
      <trkpt lat="62.622686240389" lon="17.937702948447">
        <ele>0</ele>
        <time>2018-03-30T12:39:55Z</time>
      </trkpt>
      <trkpt lat="62.622712727193" lon="17.937747707793">
        <ele>0</ele>
        <time>2018-03-30T12:39:56Z</time>
      </trkpt>
      <trkpt lat="62.622728988079" lon="17.937771093294">
        <ele>0</ele>
        <time>2018-03-30T12:39:57Z</time>
      </trkpt>
      <trkpt lat="62.622757905634" lon="17.937819540676">
        <ele>0</ele>
        <time>2018-03-30T12:39:58Z</time>
      </trkpt>
      <trkpt lat="62.622776597271" lon="17.937851978629">
        <ele>0</ele>
        <time>2018-03-30T12:39:59Z</time>
      </trkpt>
      <trkpt lat="62.622797049107" lon="17.937889445722">
        <ele>0</ele>
        <time>2018-03-30T12:40:00Z</time>
      </trkpt>
      <trkpt lat="62.622820686065" lon="17.937921883675">
        <ele>0</ele>
        <time>2018-03-30T12:40:01Z</time>
      </trkpt>
      <trkpt lat="62.622842395186" lon="17.937959266949">
        <ele>0</ele>
        <time>2018-03-30T12:40:02Z</time>
      </trkpt>
      <trkpt lat="62.622868462895" lon="17.937988855056">
        <ele>0</ele>
        <time>2018-03-30T12:40:03Z</time>
      </trkpt>
      <trkpt lat="62.622897464269" lon="17.938031518927">
        <ele>0</ele>
        <time>2018-03-30T12:40:04Z</time>
      </trkpt>
      <trkpt lat="62.622924118711" lon="17.938058676283">
        <ele>0</ele>
        <time>2018-03-30T12:40:05Z</time>
      </trkpt>
      <trkpt lat="62.622948929135" lon="17.938102178344">
        <ele>0</ele>
        <time>2018-03-30T12:40:06Z</time>
      </trkpt>
      <trkpt lat="62.622974242473" lon="17.938116930488">
        <ele>0</ele>
        <time>2018-03-30T12:40:07Z</time>
      </trkpt>
      <trkpt lat="62.622999220535" lon="17.938149033165">
        <ele>0</ele>
        <time>2018-03-30T12:40:08Z</time>
      </trkpt>
      <trkpt lat="62.623025288244" lon="17.93817795072">
        <ele>0</ele>
        <time>2018-03-30T12:40:09Z</time>
      </trkpt>
      <trkpt lat="62.623055127808" lon="17.938218016202">
        <ele>0</ele>
        <time>2018-03-30T12:40:10Z</time>
      </trkpt>
      <trkpt lat="62.62308262044" lon="17.938253304001">
        <ele>0</ele>
        <time>2018-03-30T12:40:11Z</time>
      </trkpt>
      <trkpt lat="62.623102150267" lon="17.938274258751">
        <ele>0</ele>
        <time>2018-03-30T12:40:12Z</time>
      </trkpt>
      <trkpt lat="62.623134755858" lon="17.938312815491">
        <ele>0</ele>
        <time>2018-03-30T12:40:13Z</time>
      </trkpt>
      <trkpt lat="62.62316560125" lon="17.938335111345">
        <ele>0</ele>
        <time>2018-03-30T12:40:14Z</time>
      </trkpt>
      <trkpt lat="62.623186807457" lon="17.938357491018">
        <ele>0</ele>
        <time>2018-03-30T12:40:15Z</time>
      </trkpt>
      <trkpt lat="62.623223184903" lon="17.938400490165">
        <ele>0</ele>
        <time>2018-03-30T12:40:16Z</time>
      </trkpt>
      <trkpt lat="62.623246235128" lon="17.938422618381">
        <ele>0</ele>
        <time>2018-03-30T12:40:17Z</time>
      </trkpt>
      <trkpt lat="62.62327959509" lon="17.938467545365">
        <ele>0</ele>
        <time>2018-03-30T12:40:18Z</time>
      </trkpt>
      <trkpt lat="62.623309602292" lon="17.938497636386">
        <ele>0</ele>
        <time>2018-03-30T12:40:19Z</time>
      </trkpt>
      <trkpt lat="62.62333491563" lon="17.938535690212">
        <ele>0</ele>
        <time>2018-03-30T12:40:20Z</time>
      </trkpt>
      <trkpt lat="62.623358217312" lon="17.938560919731">
        <ele>0</ele>
        <time>2018-03-30T12:40:21Z</time>
      </trkpt>
      <trkpt lat="62.623381518994" lon="17.938593357684">
        <ele>0</ele>
        <time>2018-03-30T12:40:22Z</time>
      </trkpt>
      <trkpt lat="62.623411693834" lon="17.938630154225">
        <ele>0</ele>
        <time>2018-03-30T12:40:23Z</time>
      </trkpt>
      <trkpt lat="62.623440779027" lon="17.938664855291">
        <ele>0</ele>
        <time>2018-03-30T12:40:24Z</time>
      </trkpt>
      <trkpt lat="62.62346818784" lon="17.938708022076">
        <ele>0</ele>
        <time>2018-03-30T12:40:25Z</time>
      </trkpt>
      <trkpt lat="62.623493584997" lon="17.938741549676">
        <ele>0</ele>
        <time>2018-03-30T12:40:26Z</time>
      </trkpt>
      <trkpt lat="62.623515042661" lon="17.938773987629">
        <ele>0</ele>
        <time>2018-03-30T12:40:27Z</time>
      </trkpt>
      <trkpt lat="62.623545049863" lon="17.938816148586">
        <ele>0</ele>
        <time>2018-03-30T12:40:28Z</time>
      </trkpt>
      <trkpt lat="62.623576481988" lon="17.938852777489">
        <ele>0</ele>
        <time>2018-03-30T12:40:29Z</time>
      </trkpt>
      <trkpt lat="62.623601627688" lon="17.938884293433">
        <ele>0</ele>
        <time>2018-03-30T12:40:30Z</time>
      </trkpt>
      <trkpt lat="62.623633143632" lon="17.938921006155">
        <ele>0</ele>
        <time>2018-03-30T12:40:31Z</time>
      </trkpt>
      <trkpt lat="62.62365426602" lon="17.938947241502">
        <ele>0</ele>
        <time>2018-03-30T12:40:32Z</time>
      </trkpt>
      <trkpt lat="62.623678070616" lon="17.938992755219">
        <ele>0</ele>
        <time>2018-03-30T12:40:33Z</time>
      </trkpt>
      <trkpt lat="62.623697935719" lon="17.939027288647">
        <ele>0</ele>
        <time>2018-03-30T12:40:34Z</time>
      </trkpt>
      <trkpt lat="62.623727272369" lon="17.939081351902">
        <ele>0</ele>
        <time>2018-03-30T12:40:35Z</time>
      </trkpt>
      <trkpt lat="62.623747388929" lon="17.939113622217">
        <ele>0</ele>
        <time>2018-03-30T12:40:36Z</time>
      </trkpt>
      <trkpt lat="62.623765158557" lon="17.939153771518">
        <ele>0</ele>
        <time>2018-03-30T12:40:37Z</time>
      </trkpt>
      <trkpt lat="62.623788795515" lon="17.939196603027">
        <ele>0</ele>
        <time>2018-03-30T12:40:38Z</time>
      </trkpt>
      <trkpt lat="62.623813270663" lon="17.939237339061">
        <ele>0</ele>
        <time>2018-03-30T12:40:39Z</time>
      </trkpt>
      <trkpt lat="62.623842188218" lon="17.939285032072">
        <ele>0</ele>
        <time>2018-03-30T12:40:40Z</time>
      </trkpt>
      <trkpt lat="62.623870770497" lon="17.939318392034">
        <ele>0</ele>
        <time>2018-03-30T12:40:41Z</time>
      </trkpt>
      <trkpt lat="62.623890467962" lon="17.939353596014">
        <ele>0</ele>
        <time>2018-03-30T12:40:42Z</time>
      </trkpt>
      <trkpt lat="62.623919301698" lon="17.93940841364">
        <ele>0</ele>
        <time>2018-03-30T12:40:43Z</time>
      </trkpt>
      <trkpt lat="62.623942351923" lon="17.939447138018">
        <ele>0</ele>
        <time>2018-03-30T12:40:44Z</time>
      </trkpt>
      <trkpt lat="62.623960540646" lon="17.939488963699">
        <ele>0</ele>
        <time>2018-03-30T12:40:45Z</time>
      </trkpt>
      <trkpt lat="62.62398702745" lon="17.939557779098">
        <ele>0</ele>
        <time>2018-03-30T12:40:46Z</time>
      </trkpt>
      <trkpt lat="62.624005132354" lon="17.939598012218">
        <ele>0</ele>
        <time>2018-03-30T12:40:47Z</time>
      </trkpt>
      <trkpt lat="62.62402977514" lon="17.939660625011">
        <ele>0</ele>
        <time>2018-03-30T12:40:48Z</time>
      </trkpt>
      <trkpt lat="62.62405156808" lon="17.939697253914">
        <ele>0</ele>
        <time>2018-03-30T12:40:49Z</time>
      </trkpt>
      <trkpt lat="62.624070594993" lon="17.939751149531">
        <ele>0</ele>
        <time>2018-03-30T12:40:50Z</time>
      </trkpt>
      <trkpt lat="62.624089370449" lon="17.93979565742">
        <ele>0</ele>
        <time>2018-03-30T12:40:51Z</time>
      </trkpt>
      <trkpt lat="62.624110409018" lon="17.939843518069">
        <ele>0</ele>
        <time>2018-03-30T12:40:52Z</time>
      </trkpt>
      <trkpt lat="62.624131866682" lon="17.939897162229">
        <ele>0</ele>
        <time>2018-03-30T12:40:53Z</time>
      </trkpt>
      <trkpt lat="62.624156844744" lon="17.93994234067">
        <ele>0</ele>
        <time>2018-03-30T12:40:54Z</time>
      </trkpt>
      <trkpt lat="62.62417897296" lon="17.939996655382">
        <ele>0</ele>
        <time>2018-03-30T12:40:55Z</time>
      </trkpt>
      <trkpt lat="62.624204873031" lon="17.94003537976">
        <ele>0</ele>
        <time>2018-03-30T12:40:56Z</time>
      </trkpt>
      <trkpt lat="62.624223564668" lon="17.940069242636">
        <ele>0</ele>
        <time>2018-03-30T12:40:57Z</time>
      </trkpt>
      <trkpt lat="62.624254074784" lon="17.940123305891">
        <ele>0</ele>
        <time>2018-03-30T12:40:58Z</time>
      </trkpt>
      <trkpt lat="62.624282573244" lon="17.940162197907">
        <ele>0</ele>
        <time>2018-03-30T12:40:59Z</time>
      </trkpt>
      <trkpt lat="62.624305958745" lon="17.940198407715">
        <ele>0</ele>
        <time>2018-03-30T12:41:00Z</time>
      </trkpt>
      <trkpt lat="62.624336385042" lon="17.940241490681">
        <ele>0</ele>
        <time>2018-03-30T12:41:01Z</time>
      </trkpt>
      <trkpt lat="62.624362955665" lon="17.940257919205">
        <ele>0</ele>
        <time>2018-03-30T12:41:02Z</time>
      </trkpt>
      <trkpt lat="62.624391789401" lon="17.940287088217">
        <ele>0</ele>
        <time>2018-03-30T12:41:03Z</time>
      </trkpt>
      <trkpt lat="62.624426993381" lon="17.940310557537">
        <ele>0</ele>
        <time>2018-03-30T12:41:04Z</time>
      </trkpt>
      <trkpt lat="62.6244522229" lon="17.940338050169">
        <ele>0</ele>
        <time>2018-03-30T12:41:05Z</time>
      </trkpt>
      <trkpt lat="62.624480302265" lon="17.94036814119">
        <ele>0</ele>
        <time>2018-03-30T12:41:06Z</time>
      </trkpt>
      <trkpt lat="62.624502765757" lon="17.940383982981">
        <ele>0</ele>
        <time>2018-03-30T12:41:07Z</time>
      </trkpt>
      <trkpt lat="62.624531599493" lon="17.940413487269">
        <ele>0</ele>
        <time>2018-03-30T12:41:08Z</time>
      </trkpt>
      <trkpt lat="62.624560936143" lon="17.940445925222">
        <ele>0</ele>
        <time>2018-03-30T12:41:09Z</time>
      </trkpt>
      <trkpt lat="62.624584237825" lon="17.940459755357">
        <ele>0</ele>
        <time>2018-03-30T12:41:10Z</time>
      </trkpt>
      <trkpt lat="62.624618352158" lon="17.940486074523">
        <ele>0</ele>
        <time>2018-03-30T12:41:11Z</time>
      </trkpt>
      <trkpt lat="62.624642659668" lon="17.940510214395">
        <ele>0</ele>
        <time>2018-03-30T12:41:12Z</time>
      </trkpt>
      <trkpt lat="62.624677947467" lon="17.940535863009">
        <ele>0</ele>
        <time>2018-03-30T12:41:13Z</time>
      </trkpt>
      <trkpt lat="62.624700662416" lon="17.940553045904">
        <ele>0</ele>
        <time>2018-03-30T12:41:14Z</time>
      </trkpt>
      <trkpt lat="62.624725053745" lon="17.940571234627">
        <ele>0</ele>
        <time>2018-03-30T12:41:15Z</time>
      </trkpt>
      <trkpt lat="62.624758748983" lon="17.940591267368">
        <ele>0</ele>
        <time>2018-03-30T12:41:16Z</time>
      </trkpt>
      <trkpt lat="62.624785151968" lon="17.940617502715">
        <ele>0</ele>
        <time>2018-03-30T12:41:17Z</time>
      </trkpt>
      <trkpt lat="62.624818009016" lon="17.940654885989">
        <ele>0</ele>
        <time>2018-03-30T12:41:18Z</time>
      </trkpt>
      <trkpt lat="62.624842903259" lon="17.940683803544">
        <ele>0</ele>
        <time>2018-03-30T12:41:19Z</time>
      </trkpt>
      <trkpt lat="62.624873078099" lon="17.940723952845">
        <ele>0</ele>
        <time>2018-03-30T12:41:20Z</time>
      </trkpt>
      <trkpt lat="62.624892440288" lon="17.940746751613">
        <ele>0</ele>
        <time>2018-03-30T12:41:21Z</time>
      </trkpt>
      <trkpt lat="62.624918675635" lon="17.940783799611">
        <ele>0</ele>
        <time>2018-03-30T12:41:22Z</time>
      </trkpt>
      <trkpt lat="62.624946084448" lon="17.94081657284">
        <ele>0</ele>
        <time>2018-03-30T12:41:23Z</time>
      </trkpt>
      <trkpt lat="62.624976426926" lon="17.940861751281">
        <ele>0</ele>
        <time>2018-03-30T12:41:24Z</time>
      </trkpt>
      <trkpt lat="62.625005512119" lon="17.940893099587">
        <ele>0</ele>
        <time>2018-03-30T12:41:25Z</time>
      </trkpt>
      <trkpt lat="62.625034429674" lon="17.940936517829">
        <ele>0</ele>
        <time>2018-03-30T12:41:26Z</time>
      </trkpt>
      <trkpt lat="62.625057563718" lon="17.940957221122">
        <ele>0</ele>
        <time>2018-03-30T12:41:27Z</time>
      </trkpt>
      <trkpt lat="62.625090420766" lon="17.941003321572">
        <ele>0</ele>
        <time>2018-03-30T12:41:28Z</time>
      </trkpt>
      <trkpt lat="62.625119673597" lon="17.94103450224">
        <ele>0</ele>
        <time>2018-03-30T12:41:29Z</time>
      </trkpt>
      <trkpt lat="62.625144903116" lon="17.941070041496">
        <ele>0</ele>
        <time>2018-03-30T12:41:30Z</time>
      </trkpt>
      <trkpt lat="62.625177341069" lon="17.941100635431">
        <ele>0</ele>
        <time>2018-03-30T12:41:31Z</time>
      </trkpt>
      <trkpt lat="62.625201061846" lon="17.941135504135">
        <ele>0</ele>
        <time>2018-03-30T12:41:32Z</time>
      </trkpt>
      <trkpt lat="62.625232410152" lon="17.941172384495">
        <ele>0</ele>
        <time>2018-03-30T12:41:33Z</time>
      </trkpt>
      <trkpt lat="62.625265686295" lon="17.941205241543">
        <ele>0</ele>
        <time>2018-03-30T12:41:34Z</time>
      </trkpt>
      <trkpt lat="62.625296866963" lon="17.941245642301">
        <ele>0</ele>
        <time>2018-03-30T12:41:35Z</time>
      </trkpt>
      <trkpt lat="62.625321509749" lon="17.941271374734">
        <ele>0</ele>
        <time>2018-03-30T12:41:36Z</time>
      </trkpt>
      <trkpt lat="62.625352774236" lon="17.941314206243">
        <ele>0</ele>
        <time>2018-03-30T12:41:37Z</time>
      </trkpt>
      <trkpt lat="62.62538429018" lon="17.941350835146">
        <ele>0</ele>
        <time>2018-03-30T12:41:38Z</time>
      </trkpt>
      <trkpt lat="62.625412704821" lon="17.941391068266">
        <ele>0</ele>
        <time>2018-03-30T12:41:39Z</time>
      </trkpt>
      <trkpt lat="62.625449417543" lon="17.941424931142">
        <ele>0</ele>
        <time>2018-03-30T12:41:40Z</time>
      </trkpt>
      <trkpt lat="62.625476742537" lon="17.94145192086">
        <ele>0</ele>
        <time>2018-03-30T12:41:41Z</time>
      </trkpt>
      <trkpt lat="62.625501972056" lon="17.941485532279">
        <ele>0</ele>
        <time>2018-03-30T12:41:42Z</time>
      </trkpt>
      <trkpt lat="62.625533990914" lon="17.941519059879">
        <ele>0</ele>
        <time>2018-03-30T12:41:43Z</time>
      </trkpt>
      <trkpt lat="62.625562489374" lon="17.9415659147">
        <ele>0</ele>
        <time>2018-03-30T12:41:44Z</time>
      </trkpt>
      <trkpt lat="62.625583360305" lon="17.941592317685">
        <ele>0</ele>
        <time>2018-03-30T12:41:45Z</time>
      </trkpt>
      <trkpt lat="62.62561395424" lon="17.941638082859">
        <ele>0</ele>
        <time>2018-03-30T12:41:46Z</time>
      </trkpt>
      <trkpt lat="62.62564077632" lon="17.941667587147">
        <ele>0</ele>
        <time>2018-03-30T12:41:47Z</time>
      </trkpt>
      <trkpt lat="62.625668939504" lon="17.94170756881">
        <ele>0</ele>
        <time>2018-03-30T12:41:48Z</time>
      </trkpt>
      <trkpt lat="62.625697940878" lon="17.941742269876">
        <ele>0</ele>
        <time>2018-03-30T12:41:49Z</time>
      </trkpt>
      <trkpt lat="62.625724092406" lon="17.941771941802">
        <ele>0</ele>
        <time>2018-03-30T12:41:50Z</time>
      </trkpt>
      <trkpt lat="62.62574890283" lon="17.941804631212">
        <ele>0</ele>
        <time>2018-03-30T12:41:51Z</time>
      </trkpt>
      <trkpt lat="62.625773042702" lon="17.941832710577">
        <ele>0</ele>
        <time>2018-03-30T12:41:52Z</time>
      </trkpt>
      <trkpt lat="62.625803301361" lon="17.941878056656">
        <ele>0</ele>
        <time>2018-03-30T12:41:53Z</time>
      </trkpt>
      <trkpt lat="62.62582936907" lon="17.94191208717">
        <ele>0</ele>
        <time>2018-03-30T12:41:54Z</time>
      </trkpt>
      <trkpt lat="62.625855185322" lon="17.941958522896">
        <ele>0</ele>
        <time>2018-03-30T12:41:55Z</time>
      </trkpt>
      <trkpt lat="62.62588636599" lon="17.941994145971">
        <ele>0</ele>
        <time>2018-03-30T12:41:56Z</time>
      </trkpt>
      <trkpt lat="62.625907069283" lon="17.942025661915">
        <ele>0</ele>
        <time>2018-03-30T12:41:57Z</time>
      </trkpt>
      <trkpt lat="62.625944033462" lon="17.942072600555">
        <ele>0</ele>
        <time>2018-03-30T12:41:58Z</time>
      </trkpt>
      <trkpt lat="62.625968676248" lon="17.942106211974">
        <ele>0</ele>
        <time>2018-03-30T12:41:59Z</time>
      </trkpt>
      <trkpt lat="62.625996001242" lon="17.942138817565">
        <ele>0</ele>
        <time>2018-03-30T12:42:00Z</time>
      </trkpt>
      <trkpt lat="62.626026762815" lon="17.9421777934">
        <ele>0</ele>
        <time>2018-03-30T12:42:01Z</time>
      </trkpt>
      <trkpt lat="62.626053501076" lon="17.942210566629">
        <ele>0</ele>
        <time>2018-03-30T12:42:02Z</time>
      </trkpt>
      <trkpt lat="62.626080909889" lon="17.942237807804">
        <ele>0</ele>
        <time>2018-03-30T12:42:03Z</time>
      </trkpt>
      <trkpt lat="62.626113934575" lon="17.942277202734">
        <ele>0</ele>
        <time>2018-03-30T12:42:04Z</time>
      </trkpt>
      <trkpt lat="62.626146959261" lon="17.942300839692">
        <ele>0</ele>
        <time>2018-03-30T12:42:05Z</time>
      </trkpt>
      <trkpt lat="62.626173948979" lon="17.94233034398">
        <ele>0</ele>
        <time>2018-03-30T12:42:06Z</time>
      </trkpt>
      <trkpt lat="62.62619901086" lon="17.942344257934">
        <ele>0</ele>
        <time>2018-03-30T12:42:07Z</time>
      </trkpt>
      <trkpt lat="62.626225497664" lon="17.942363452485">
        <ele>0</ele>
        <time>2018-03-30T12:42:08Z</time>
      </trkpt>
      <trkpt lat="62.626256259237" lon="17.942384910149">
        <ele>0</ele>
        <time>2018-03-30T12:42:09Z</time>
      </trkpt>
      <trkpt lat="62.626287607543" lon="17.942398488827">
        <ele>0</ele>
        <time>2018-03-30T12:42:10Z</time>
      </trkpt>
      <trkpt lat="62.626319039668" lon="17.942421539052">
        <ele>0</ele>
        <time>2018-03-30T12:42:11Z</time>
      </trkpt>
      <trkpt lat="62.626343598635" lon="17.942433357531">
        <ele>0</ele>
        <time>2018-03-30T12:42:12Z</time>
      </trkpt>
      <trkpt lat="62.626375785131" lon="17.942460766344">
        <ele>0</ele>
        <time>2018-03-30T12:42:13Z</time>
      </trkpt>
      <trkpt lat="62.62640688198" lon="17.942479625619">
        <ele>0</ele>
        <time>2018-03-30T12:42:14Z</time>
      </trkpt>
      <trkpt lat="62.626438230286" lon="17.942495299772">
        <ele>0</ele>
        <time>2018-03-30T12:42:15Z</time>
      </trkpt>
      <trkpt lat="62.626440577218" lon="17.942499323084">
        <ele>0</ele>
        <time>2018-03-30T12:42:16Z</time>
      </trkpt>
      <trkpt lat="62.626528000435" lon="17.942535784349">
        <ele>0</ele>
        <time>2018-03-30T12:42:18Z</time>
      </trkpt>
      <trkpt lat="62.626557839999" lon="17.942534610883">
        <ele>0</ele>
        <time>2018-03-30T12:42:19Z</time>
      </trkpt>
      <trkpt lat="62.626585248812" lon="17.942527653906">
        <ele>0</ele>
        <time>2018-03-30T12:42:20Z</time>
      </trkpt>
      <trkpt lat="62.626615507471" lon="17.942521618938">
        <ele>0</ele>
        <time>2018-03-30T12:42:21Z</time>
      </trkpt>
      <trkpt lat="62.626646771958" lon="17.942504352224">
        <ele>0</ele>
        <time>2018-03-30T12:42:22Z</time>
      </trkpt>
      <trkpt lat="62.626683903775" lon="17.942489516261">
        <ele>0</ele>
        <time>2018-03-30T12:42:23Z</time>
      </trkpt>
      <trkpt lat="62.626717599013" lon="17.942460179611">
        <ele>0</ele>
        <time>2018-03-30T12:42:24Z</time>
      </trkpt>
      <trkpt lat="62.62674383436" lon="17.942437129386">
        <ele>0</ele>
        <time>2018-03-30T12:42:25Z</time>
      </trkpt>
      <trkpt lat="62.626774931209" lon="17.942415671722">
        <ele>0</ele>
        <time>2018-03-30T12:42:26Z</time>
      </trkpt>
      <trkpt lat="62.626800076909" lon="17.942390442203">
        <ele>0</ele>
        <time>2018-03-30T12:42:27Z</time>
      </trkpt>
      <trkpt lat="62.626832011948" lon="17.942354148576">
        <ele>0</ele>
        <time>2018-03-30T12:42:28Z</time>
      </trkpt>
      <trkpt lat="62.626864030806" lon="17.942327326496">
        <ele>0</ele>
        <time>2018-03-30T12:42:29Z</time>
      </trkpt>
      <trkpt lat="62.626886578117" lon="17.942300923511">
        <ele>0</ele>
        <time>2018-03-30T12:42:30Z</time>
      </trkpt>
      <trkpt lat="62.626919938079" lon="17.942281561322">
        <ele>0</ele>
        <time>2018-03-30T12:42:31Z</time>
      </trkpt>
      <trkpt lat="62.626947011616" lon="17.942258343459">
        <ele>0</ele>
        <time>2018-03-30T12:42:32Z</time>
      </trkpt>
      <trkpt lat="62.626976599723" lon="17.942238394537">
        <ele>0</ele>
        <time>2018-03-30T12:42:33Z</time>
      </trkpt>
      <trkpt lat="62.627008367124" lon="17.942218948529">
        <ele>0</ele>
        <time>2018-03-30T12:42:34Z</time>
      </trkpt>
      <trkpt lat="62.627045331303" lon="17.942194892476">
        <ele>0</ele>
        <time>2018-03-30T12:42:35Z</time>
      </trkpt>
      <trkpt lat="62.627080032369" lon="17.942174859735">
        <ele>0</ele>
        <time>2018-03-30T12:42:36Z</time>
      </trkpt>
      <trkpt lat="62.627108698467" lon="17.942150216949">
        <ele>0</ele>
        <time>2018-03-30T12:42:37Z</time>
      </trkpt>
      <trkpt lat="62.627144656818" lon="17.942131022398">
        <ele>0</ele>
        <time>2018-03-30T12:42:38Z</time>
      </trkpt>
      <trkpt lat="62.627180950445" lon="17.942105038508">
        <ele>0</ele>
        <time>2018-03-30T12:42:39Z</time>
      </trkpt>
      <trkpt lat="62.627218417538" lon="17.942086765966">
        <ele>0</ele>
        <time>2018-03-30T12:42:40Z</time>
      </trkpt>
      <trkpt lat="62.627255716993" lon="17.942061452628">
        <ele>0</ele>
        <time>2018-03-30T12:42:41Z</time>
      </trkpt>
      <trkpt lat="62.627281784702" lon="17.942046868122">
        <ele>0</ele>
        <time>2018-03-30T12:42:42Z</time>
      </trkpt>
      <trkpt lat="62.627319000338" lon="17.942026500105">
        <ele>0</ele>
        <time>2018-03-30T12:42:43Z</time>
      </trkpt>
      <trkpt lat="62.627347834074" lon="17.94201266997">
        <ele>0</ele>
        <time>2018-03-30T12:42:44Z</time>
      </trkpt>
      <trkpt lat="62.627376248715" lon="17.941998001645">
        <ele>0</ele>
        <time>2018-03-30T12:42:45Z</time>
      </trkpt>
      <trkpt lat="62.627382367502" lon="17.941994481247">
        <ele>0</ele>
        <time>2018-03-30T12:42:46Z</time>
      </trkpt>
      <trkpt lat="62.627412290885" lon="17.941981573121">
        <ele>0</ele>
        <time>2018-03-30T12:42:47Z</time>
      </trkpt>
      <trkpt lat="62.62743198835" lon="17.941977046895">
        <ele>0</ele>
        <time>2018-03-30T12:42:48Z</time>
      </trkpt>
      <trkpt lat="62.627440621707" lon="17.941978220361">
        <ele>0</ele>
        <time>2018-03-30T12:42:49Z</time>
      </trkpt>
      <trkpt lat="62.627438107137" lon="17.941980651112">
        <ele>0</ele>
        <time>2018-03-30T12:42:50Z</time>
      </trkpt>
      <trkpt lat="62.627437688042" lon="17.941985093519">
        <ele>0</ele>
        <time>2018-03-30T12:42:51Z</time>
      </trkpt>
    </trkseg>
  </trk>
</gpx>